<?xml version="1.0" encoding="UTF-8" standalone="no" ?>
<gpx xmlns="http://www.topografix.com/GPX/1/1" xmlns:xsi="http://www.w3.org/2001/XMLSchema-instance" xsi:schemaLocation="http://www.topografix.com/GPX/1/1 http://www.topografix.com/GPX/1/1/gpx.xsd" version="1.1" creator="VisuGPX - https://www.visugpx.com">
  <metadata>
    <name>Boucle champsac 87 </name>
    <desc><![CDATA[Boucle assez facile (variante de la Bosmiaude 2025 34 klm). 
Départ du centre de Champagnac (commune de Jourgnac). 
Chemins roulants peut de routes. Faite en vttae fat bike  par beau temps sec. 
Une côte difficile 15% avec de gros  cailloux, un single et un passage de 2 ruisseaux en suivant, présence de 2 passerelles. De belles descentes. Attention par temps humide, c'est glissant (racines et cailloux roulants). 
Durée de la boucle 2h45 avec plusieurs poses.]]></desc>
  </metadata>
  <trk>
    <name><![CDATA[20260808_105728.gpx]]></name>
    <extensions>
      <line xmlns="http://www.topografix.com/GPX/gpx_style/0/2">
        <color>00FF00</color>
        <opacity>1</opacity>
        <width>4</width>
      </line>
    </extensions>
    <trkseg>
      <trkpt lat="45.71395" lon="1.19907">
        <ele>337.08627</ele>
        <time>2026-08-08T08:57:29Z</time>
      </trkpt>
      <trkpt lat="45.71395" lon="1.19908">
        <ele>337.08627</ele>
        <time>2026-08-08T08:57:35Z</time>
      </trkpt>
      <trkpt lat="45.71395" lon="1.19908">
        <ele>338.08627</ele>
        <time>2026-08-08T08:57:36Z</time>
      </trkpt>
      <trkpt lat="45.71395" lon="1.19908">
        <ele>339.08627</ele>
        <time>2026-08-08T08:57:37Z</time>
      </trkpt>
      <trkpt lat="45.71395" lon="1.19908">
        <ele>339.08627</ele>
        <time>2026-08-08T08:57:40Z</time>
      </trkpt>
      <trkpt lat="45.71394" lon="1.19908">
        <ele>338.08627</ele>
        <time>2026-08-08T08:57:41Z</time>
      </trkpt>
      <trkpt lat="45.71391" lon="1.19907">
        <ele>337.08627</ele>
        <time>2026-08-08T08:57:42Z</time>
      </trkpt>
      <trkpt lat="45.7139" lon="1.19904">
        <ele>336.08627</ele>
        <time>2026-08-08T08:57:43Z</time>
      </trkpt>
      <trkpt lat="45.71388" lon="1.19901">
        <ele>336.08627</ele>
        <time>2026-08-08T08:57:44Z</time>
      </trkpt>
      <trkpt lat="45.71387" lon="1.19897">
        <ele>336.08627</ele>
        <time>2026-08-08T08:57:45Z</time>
      </trkpt>
      <trkpt lat="45.71386" lon="1.19893">
        <ele>336.08627</ele>
        <time>2026-08-08T08:57:46Z</time>
      </trkpt>
      <trkpt lat="45.71384" lon="1.19889">
        <ele>336.08627</ele>
        <time>2026-08-08T08:57:47Z</time>
      </trkpt>
      <trkpt lat="45.71383" lon="1.19884">
        <ele>336.08627</ele>
        <time>2026-08-08T08:57:48Z</time>
      </trkpt>
      <trkpt lat="45.71381" lon="1.1988">
        <ele>336.08627</ele>
        <time>2026-08-08T08:57:49Z</time>
      </trkpt>
      <trkpt lat="45.7138" lon="1.19875">
        <ele>337.08627</ele>
        <time>2026-08-08T08:57:50Z</time>
      </trkpt>
      <trkpt lat="45.71378" lon="1.19871">
        <ele>337.08627</ele>
        <time>2026-08-08T08:57:51Z</time>
      </trkpt>
      <trkpt lat="45.71375" lon="1.19867">
        <ele>338.08627</ele>
        <time>2026-08-08T08:57:52Z</time>
      </trkpt>
      <trkpt lat="45.71373" lon="1.19862">
        <ele>339.08627</ele>
        <time>2026-08-08T08:57:53Z</time>
      </trkpt>
      <trkpt lat="45.71372" lon="1.19857">
        <ele>339.08627</ele>
        <time>2026-08-08T08:57:54Z</time>
      </trkpt>
      <trkpt lat="45.7137" lon="1.19852">
        <ele>339.08627</ele>
        <time>2026-08-08T08:57:55Z</time>
      </trkpt>
      <trkpt lat="45.71368" lon="1.19848">
        <ele>339.08627</ele>
        <time>2026-08-08T08:57:56Z</time>
      </trkpt>
      <trkpt lat="45.71365" lon="1.19841">
        <ele>339.08627</ele>
        <time>2026-08-08T08:57:58Z</time>
      </trkpt>
      <trkpt lat="45.71364" lon="1.19837">
        <ele>339.08627</ele>
        <time>2026-08-08T08:57:59Z</time>
      </trkpt>
      <trkpt lat="45.71362" lon="1.19833">
        <ele>339.08627</ele>
        <time>2026-08-08T08:58:00Z</time>
      </trkpt>
      <trkpt lat="45.71361" lon="1.1983">
        <ele>339.08627</ele>
        <time>2026-08-08T08:58:01Z</time>
      </trkpt>
      <trkpt lat="45.7136" lon="1.19826">
        <ele>339.08627</ele>
        <time>2026-08-08T08:58:02Z</time>
      </trkpt>
      <trkpt lat="45.71358" lon="1.19823">
        <ele>339.08627</ele>
        <time>2026-08-08T08:58:03Z</time>
      </trkpt>
      <trkpt lat="45.71357" lon="1.19819">
        <ele>339.08627</ele>
        <time>2026-08-08T08:58:04Z</time>
      </trkpt>
      <trkpt lat="45.71356" lon="1.19816">
        <ele>339.08627</ele>
        <time>2026-08-08T08:58:05Z</time>
      </trkpt>
      <trkpt lat="45.71354" lon="1.19812">
        <ele>339.08627</ele>
        <time>2026-08-08T08:58:06Z</time>
      </trkpt>
      <trkpt lat="45.71352" lon="1.19808">
        <ele>339.08627</ele>
        <time>2026-08-08T08:58:07Z</time>
      </trkpt>
      <trkpt lat="45.7135" lon="1.19806">
        <ele>339.08627</ele>
        <time>2026-08-08T08:58:08Z</time>
      </trkpt>
      <trkpt lat="45.71347" lon="1.19799">
        <ele>339.08627</ele>
        <time>2026-08-08T08:58:10Z</time>
      </trkpt>
      <trkpt lat="45.71345" lon="1.19796">
        <ele>339.08627</ele>
        <time>2026-08-08T08:58:11Z</time>
      </trkpt>
      <trkpt lat="45.71344" lon="1.19793">
        <ele>339.08627</ele>
        <time>2026-08-08T08:58:12Z</time>
      </trkpt>
      <trkpt lat="45.71342" lon="1.1979">
        <ele>339.08627</ele>
        <time>2026-08-08T08:58:13Z</time>
      </trkpt>
      <trkpt lat="45.71341" lon="1.19787">
        <ele>339.08627</ele>
        <time>2026-08-08T08:58:14Z</time>
      </trkpt>
      <trkpt lat="45.71339" lon="1.19783">
        <ele>339.08627</ele>
        <time>2026-08-08T08:58:15Z</time>
      </trkpt>
      <trkpt lat="45.71337" lon="1.19781">
        <ele>339.08627</ele>
        <time>2026-08-08T08:58:16Z</time>
      </trkpt>
      <trkpt lat="45.71336" lon="1.19778">
        <ele>339.08627</ele>
        <time>2026-08-08T08:58:17Z</time>
      </trkpt>
      <trkpt lat="45.71335" lon="1.19775">
        <ele>339.08627</ele>
        <time>2026-08-08T08:58:18Z</time>
      </trkpt>
      <trkpt lat="45.71333" lon="1.19773">
        <ele>339.08627</ele>
        <time>2026-08-08T08:58:19Z</time>
      </trkpt>
      <trkpt lat="45.71332" lon="1.19771">
        <ele>339.08627</ele>
        <time>2026-08-08T08:58:20Z</time>
      </trkpt>
      <trkpt lat="45.7133" lon="1.19765">
        <ele>339.08627</ele>
        <time>2026-08-08T08:58:22Z</time>
      </trkpt>
      <trkpt lat="45.71328" lon="1.19763">
        <ele>339.08627</ele>
        <time>2026-08-08T08:58:23Z</time>
      </trkpt>
      <trkpt lat="45.71327" lon="1.1976">
        <ele>339.08627</ele>
        <time>2026-08-08T08:58:24Z</time>
      </trkpt>
      <trkpt lat="45.71324" lon="1.19755">
        <ele>338.08627</ele>
        <time>2026-08-08T08:58:26Z</time>
      </trkpt>
      <trkpt lat="45.71323" lon="1.19752">
        <ele>338.08627</ele>
        <time>2026-08-08T08:58:27Z</time>
      </trkpt>
      <trkpt lat="45.71321" lon="1.19748">
        <ele>338.08627</ele>
        <time>2026-08-08T08:58:28Z</time>
      </trkpt>
      <trkpt lat="45.7132" lon="1.19746">
        <ele>338.08627</ele>
        <time>2026-08-08T08:58:29Z</time>
      </trkpt>
      <trkpt lat="45.71319" lon="1.19743">
        <ele>338.08627</ele>
        <time>2026-08-08T08:58:30Z</time>
      </trkpt>
      <trkpt lat="45.71318" lon="1.1974">
        <ele>338.08627</ele>
        <time>2026-08-08T08:58:31Z</time>
      </trkpt>
      <trkpt lat="45.71317" lon="1.19737">
        <ele>338.08627</ele>
        <time>2026-08-08T08:58:32Z</time>
      </trkpt>
      <trkpt lat="45.71316" lon="1.19734">
        <ele>338.08627</ele>
        <time>2026-08-08T08:58:33Z</time>
      </trkpt>
      <trkpt lat="45.71314" lon="1.19732">
        <ele>338.08627</ele>
        <time>2026-08-08T08:58:34Z</time>
      </trkpt>
      <trkpt lat="45.71313" lon="1.1973">
        <ele>339.08627</ele>
        <time>2026-08-08T08:58:35Z</time>
      </trkpt>
      <trkpt lat="45.71311" lon="1.19726">
        <ele>339.08627</ele>
        <time>2026-08-08T08:58:36Z</time>
      </trkpt>
      <trkpt lat="45.7131" lon="1.19724">
        <ele>339.08627</ele>
        <time>2026-08-08T08:58:37Z</time>
      </trkpt>
      <trkpt lat="45.71309" lon="1.19721">
        <ele>339.08627</ele>
        <time>2026-08-08T08:58:38Z</time>
      </trkpt>
      <trkpt lat="45.71308" lon="1.19719">
        <ele>339.08627</ele>
        <time>2026-08-08T08:58:39Z</time>
      </trkpt>
      <trkpt lat="45.71306" lon="1.19717">
        <ele>339.08627</ele>
        <time>2026-08-08T08:58:40Z</time>
      </trkpt>
      <trkpt lat="45.71304" lon="1.19715">
        <ele>339.08627</ele>
        <time>2026-08-08T08:58:41Z</time>
      </trkpt>
      <trkpt lat="45.71303" lon="1.19713">
        <ele>340.08627</ele>
        <time>2026-08-08T08:58:42Z</time>
      </trkpt>
      <trkpt lat="45.71301" lon="1.19711">
        <ele>340.08627</ele>
        <time>2026-08-08T08:58:43Z</time>
      </trkpt>
      <trkpt lat="45.71299" lon="1.19708">
        <ele>339.08627</ele>
        <time>2026-08-08T08:58:44Z</time>
      </trkpt>
      <trkpt lat="45.71297" lon="1.19704">
        <ele>339.08627</ele>
        <time>2026-08-08T08:58:45Z</time>
      </trkpt>
      <trkpt lat="45.71295" lon="1.19702">
        <ele>340.08627</ele>
        <time>2026-08-08T08:58:46Z</time>
      </trkpt>
      <trkpt lat="45.71294" lon="1.197">
        <ele>340.08627</ele>
        <time>2026-08-08T08:58:47Z</time>
      </trkpt>
      <trkpt lat="45.71293" lon="1.19697">
        <ele>340.08627</ele>
        <time>2026-08-08T08:58:48Z</time>
      </trkpt>
      <trkpt lat="45.71291" lon="1.19695">
        <ele>340.08627</ele>
        <time>2026-08-08T08:58:49Z</time>
      </trkpt>
      <trkpt lat="45.71291" lon="1.19692">
        <ele>340.08627</ele>
        <time>2026-08-08T08:58:50Z</time>
      </trkpt>
      <trkpt lat="45.7129" lon="1.19689">
        <ele>339.08627</ele>
        <time>2026-08-08T08:58:51Z</time>
      </trkpt>
      <trkpt lat="45.7129" lon="1.19687">
        <ele>338.08627</ele>
        <time>2026-08-08T08:58:52Z</time>
      </trkpt>
      <trkpt lat="45.71289" lon="1.19683">
        <ele>337.08627</ele>
        <time>2026-08-08T08:58:53Z</time>
      </trkpt>
      <trkpt lat="45.71288" lon="1.19677">
        <ele>337.08627</ele>
        <time>2026-08-08T08:58:54Z</time>
      </trkpt>
      <trkpt lat="45.71286" lon="1.19672">
        <ele>338.08627</ele>
        <time>2026-08-08T08:58:55Z</time>
      </trkpt>
      <trkpt lat="45.71285" lon="1.19668">
        <ele>338.08627</ele>
        <time>2026-08-08T08:58:56Z</time>
      </trkpt>
      <trkpt lat="45.71283" lon="1.19664">
        <ele>338.08627</ele>
        <time>2026-08-08T08:58:57Z</time>
      </trkpt>
      <trkpt lat="45.71282" lon="1.19658">
        <ele>338.08627</ele>
        <time>2026-08-08T08:58:58Z</time>
      </trkpt>
      <trkpt lat="45.71281" lon="1.19654">
        <ele>338.08627</ele>
        <time>2026-08-08T08:58:59Z</time>
      </trkpt>
      <trkpt lat="45.71279" lon="1.19649">
        <ele>339.08627</ele>
        <time>2026-08-08T08:59:00Z</time>
      </trkpt>
      <trkpt lat="45.71277" lon="1.19644">
        <ele>340.08627</ele>
        <time>2026-08-08T08:59:01Z</time>
      </trkpt>
      <trkpt lat="45.71275" lon="1.19637">
        <ele>342.08627</ele>
        <time>2026-08-08T08:59:02Z</time>
      </trkpt>
      <trkpt lat="45.71273" lon="1.19632">
        <ele>342.08627</ele>
        <time>2026-08-08T08:59:03Z</time>
      </trkpt>
      <trkpt lat="45.71273" lon="1.19626">
        <ele>342.08627</ele>
        <time>2026-08-08T08:59:04Z</time>
      </trkpt>
      <trkpt lat="45.71271" lon="1.1962">
        <ele>342.08627</ele>
        <time>2026-08-08T08:59:05Z</time>
      </trkpt>
      <trkpt lat="45.7127" lon="1.19615">
        <ele>342.08627</ele>
        <time>2026-08-08T08:59:06Z</time>
      </trkpt>
      <trkpt lat="45.71269" lon="1.1961">
        <ele>342.08627</ele>
        <time>2026-08-08T08:59:07Z</time>
      </trkpt>
      <trkpt lat="45.71268" lon="1.19605">
        <ele>343.08627</ele>
        <time>2026-08-08T08:59:08Z</time>
      </trkpt>
      <trkpt lat="45.71267" lon="1.19599">
        <ele>343.08627</ele>
        <time>2026-08-08T08:59:09Z</time>
      </trkpt>
      <trkpt lat="45.71265" lon="1.19593">
        <ele>343.08627</ele>
        <time>2026-08-08T08:59:10Z</time>
      </trkpt>
      <trkpt lat="45.71264" lon="1.19587">
        <ele>343.08627</ele>
        <time>2026-08-08T08:59:11Z</time>
      </trkpt>
      <trkpt lat="45.71262" lon="1.19582">
        <ele>343.08627</ele>
        <time>2026-08-08T08:59:12Z</time>
      </trkpt>
      <trkpt lat="45.7126" lon="1.19577">
        <ele>343.08627</ele>
        <time>2026-08-08T08:59:13Z</time>
      </trkpt>
      <trkpt lat="45.71257" lon="1.19573">
        <ele>342.08627</ele>
        <time>2026-08-08T08:59:14Z</time>
      </trkpt>
      <trkpt lat="45.71255" lon="1.19569">
        <ele>342.08627</ele>
        <time>2026-08-08T08:59:15Z</time>
      </trkpt>
      <trkpt lat="45.71251" lon="1.19563">
        <ele>342.08627</ele>
        <time>2026-08-08T08:59:16Z</time>
      </trkpt>
      <trkpt lat="45.71248" lon="1.19558">
        <ele>342.08627</ele>
        <time>2026-08-08T08:59:17Z</time>
      </trkpt>
      <trkpt lat="45.71244" lon="1.19553">
        <ele>342.08627</ele>
        <time>2026-08-08T08:59:18Z</time>
      </trkpt>
      <trkpt lat="45.71242" lon="1.19549">
        <ele>342.08627</ele>
        <time>2026-08-08T08:59:19Z</time>
      </trkpt>
      <trkpt lat="45.71239" lon="1.19546">
        <ele>342.08627</ele>
        <time>2026-08-08T08:59:20Z</time>
      </trkpt>
      <trkpt lat="45.71236" lon="1.19542">
        <ele>342.08627</ele>
        <time>2026-08-08T08:59:21Z</time>
      </trkpt>
      <trkpt lat="45.71234" lon="1.19538">
        <ele>342.08627</ele>
        <time>2026-08-08T08:59:22Z</time>
      </trkpt>
      <trkpt lat="45.71232" lon="1.19534">
        <ele>342.08627</ele>
        <time>2026-08-08T08:59:23Z</time>
      </trkpt>
      <trkpt lat="45.7123" lon="1.1953">
        <ele>342.08627</ele>
        <time>2026-08-08T08:59:24Z</time>
      </trkpt>
      <trkpt lat="45.71227" lon="1.19526">
        <ele>342.08627</ele>
        <time>2026-08-08T08:59:25Z</time>
      </trkpt>
      <trkpt lat="45.71225" lon="1.19522">
        <ele>342.08627</ele>
        <time>2026-08-08T08:59:26Z</time>
      </trkpt>
      <trkpt lat="45.71224" lon="1.1952">
        <ele>342.08627</ele>
        <time>2026-08-08T08:59:27Z</time>
      </trkpt>
      <trkpt lat="45.71222" lon="1.19516">
        <ele>342.08627</ele>
        <time>2026-08-08T08:59:28Z</time>
      </trkpt>
      <trkpt lat="45.71221" lon="1.19512">
        <ele>342.08627</ele>
        <time>2026-08-08T08:59:29Z</time>
      </trkpt>
      <trkpt lat="45.71218" lon="1.19508">
        <ele>342.08627</ele>
        <time>2026-08-08T08:59:30Z</time>
      </trkpt>
      <trkpt lat="45.71216" lon="1.19503">
        <ele>341.08627</ele>
        <time>2026-08-08T08:59:31Z</time>
      </trkpt>
      <trkpt lat="45.71212" lon="1.19496">
        <ele>342.08627</ele>
        <time>2026-08-08T08:59:32Z</time>
      </trkpt>
      <trkpt lat="45.71209" lon="1.1949">
        <ele>343.08627</ele>
        <time>2026-08-08T08:59:33Z</time>
      </trkpt>
      <trkpt lat="45.71206" lon="1.19485">
        <ele>343.08627</ele>
        <time>2026-08-08T08:59:34Z</time>
      </trkpt>
      <trkpt lat="45.71204" lon="1.19481">
        <ele>343.08627</ele>
        <time>2026-08-08T08:59:35Z</time>
      </trkpt>
      <trkpt lat="45.71202" lon="1.19476">
        <ele>343.08627</ele>
        <time>2026-08-08T08:59:36Z</time>
      </trkpt>
      <trkpt lat="45.712" lon="1.19472">
        <ele>342.08627</ele>
        <time>2026-08-08T08:59:37Z</time>
      </trkpt>
      <trkpt lat="45.71197" lon="1.19468">
        <ele>342.08627</ele>
        <time>2026-08-08T08:59:38Z</time>
      </trkpt>
      <trkpt lat="45.71195" lon="1.19463">
        <ele>342.08627</ele>
        <time>2026-08-08T08:59:39Z</time>
      </trkpt>
      <trkpt lat="45.7119" lon="1.19454">
        <ele>342.08627</ele>
        <time>2026-08-08T08:59:41Z</time>
      </trkpt>
      <trkpt lat="45.71188" lon="1.19449">
        <ele>342.08627</ele>
        <time>2026-08-08T08:59:42Z</time>
      </trkpt>
      <trkpt lat="45.71186" lon="1.19444">
        <ele>343.08627</ele>
        <time>2026-08-08T08:59:43Z</time>
      </trkpt>
      <trkpt lat="45.71184" lon="1.1944">
        <ele>343.08627</ele>
        <time>2026-08-08T08:59:44Z</time>
      </trkpt>
      <trkpt lat="45.71182" lon="1.19436">
        <ele>343.08627</ele>
        <time>2026-08-08T08:59:45Z</time>
      </trkpt>
      <trkpt lat="45.7118" lon="1.19431">
        <ele>343.08627</ele>
        <time>2026-08-08T08:59:46Z</time>
      </trkpt>
      <trkpt lat="45.71179" lon="1.19426">
        <ele>343.08627</ele>
        <time>2026-08-08T08:59:47Z</time>
      </trkpt>
      <trkpt lat="45.71177" lon="1.19421">
        <ele>342.08627</ele>
        <time>2026-08-08T08:59:48Z</time>
      </trkpt>
      <trkpt lat="45.71176" lon="1.19416">
        <ele>342.08627</ele>
        <time>2026-08-08T08:59:49Z</time>
      </trkpt>
      <trkpt lat="45.71175" lon="1.19411">
        <ele>342.08627</ele>
        <time>2026-08-08T08:59:50Z</time>
      </trkpt>
      <trkpt lat="45.71173" lon="1.19406">
        <ele>342.08627</ele>
        <time>2026-08-08T08:59:51Z</time>
      </trkpt>
      <trkpt lat="45.71172" lon="1.19401">
        <ele>342.08627</ele>
        <time>2026-08-08T08:59:52Z</time>
      </trkpt>
      <trkpt lat="45.71171" lon="1.19396">
        <ele>342.08627</ele>
        <time>2026-08-08T08:59:53Z</time>
      </trkpt>
      <trkpt lat="45.71169" lon="1.19392">
        <ele>342.08627</ele>
        <time>2026-08-08T08:59:55Z</time>
      </trkpt>
      <trkpt lat="45.71164" lon="1.1938">
        <ele>341.08627</ele>
        <time>2026-08-08T08:59:57Z</time>
      </trkpt>
      <trkpt lat="45.71163" lon="1.19376">
        <ele>341.08627</ele>
        <time>2026-08-08T08:59:58Z</time>
      </trkpt>
      <trkpt lat="45.71162" lon="1.19373">
        <ele>341.08627</ele>
        <time>2026-08-08T08:59:59Z</time>
      </trkpt>
      <trkpt lat="45.71161" lon="1.19369">
        <ele>341.08627</ele>
        <time>2026-08-08T09:00:00Z</time>
      </trkpt>
      <trkpt lat="45.7116" lon="1.19366">
        <ele>342.08627</ele>
        <time>2026-08-08T09:00:01Z</time>
      </trkpt>
      <trkpt lat="45.71159" lon="1.19364">
        <ele>341.08627</ele>
        <time>2026-08-08T09:00:02Z</time>
      </trkpt>
      <trkpt lat="45.71158" lon="1.19361">
        <ele>341.08627</ele>
        <time>2026-08-08T09:00:03Z</time>
      </trkpt>
      <trkpt lat="45.71156" lon="1.19357">
        <ele>341.08627</ele>
        <time>2026-08-08T09:00:04Z</time>
      </trkpt>
      <trkpt lat="45.71154" lon="1.19355">
        <ele>342.08627</ele>
        <time>2026-08-08T09:00:05Z</time>
      </trkpt>
      <trkpt lat="45.71153" lon="1.19351">
        <ele>342.08627</ele>
        <time>2026-08-08T09:00:06Z</time>
      </trkpt>
      <trkpt lat="45.71151" lon="1.19347">
        <ele>342.08627</ele>
        <time>2026-08-08T09:00:07Z</time>
      </trkpt>
      <trkpt lat="45.7115" lon="1.19344">
        <ele>342.08627</ele>
        <time>2026-08-08T09:00:08Z</time>
      </trkpt>
      <trkpt lat="45.71149" lon="1.19343">
        <ele>343.08627</ele>
        <time>2026-08-08T09:00:09Z</time>
      </trkpt>
      <trkpt lat="45.71149" lon="1.19343">
        <ele>343.08627</ele>
        <time>2026-08-08T09:00:12Z</time>
      </trkpt>
      <trkpt lat="45.71145" lon="1.19314">
        <ele>345.08627</ele>
        <time>2026-08-08T09:01:25Z</time>
      </trkpt>
      <trkpt lat="45.71144" lon="1.19311">
        <ele>345.08627</ele>
        <time>2026-08-08T09:01:26Z</time>
      </trkpt>
      <trkpt lat="45.71143" lon="1.19308">
        <ele>346.08627</ele>
        <time>2026-08-08T09:01:27Z</time>
      </trkpt>
      <trkpt lat="45.71142" lon="1.19304">
        <ele>346.08627</ele>
        <time>2026-08-08T09:01:28Z</time>
      </trkpt>
      <trkpt lat="45.7114" lon="1.19301">
        <ele>346.08627</ele>
        <time>2026-08-08T09:01:29Z</time>
      </trkpt>
      <trkpt lat="45.71139" lon="1.19297">
        <ele>347.08627</ele>
        <time>2026-08-08T09:01:30Z</time>
      </trkpt>
      <trkpt lat="45.71138" lon="1.19293">
        <ele>346.08627</ele>
        <time>2026-08-08T09:01:31Z</time>
      </trkpt>
      <trkpt lat="45.71137" lon="1.1929">
        <ele>346.08627</ele>
        <time>2026-08-08T09:01:32Z</time>
      </trkpt>
      <trkpt lat="45.71136" lon="1.19286">
        <ele>346.08627</ele>
        <time>2026-08-08T09:01:33Z</time>
      </trkpt>
      <trkpt lat="45.71134" lon="1.19282">
        <ele>347.08627</ele>
        <time>2026-08-08T09:01:34Z</time>
      </trkpt>
      <trkpt lat="45.71132" lon="1.19279">
        <ele>347.08627</ele>
        <time>2026-08-08T09:01:35Z</time>
      </trkpt>
      <trkpt lat="45.71131" lon="1.19275">
        <ele>348.08627</ele>
        <time>2026-08-08T09:01:36Z</time>
      </trkpt>
      <trkpt lat="45.7113" lon="1.19272">
        <ele>349.08627</ele>
        <time>2026-08-08T09:01:37Z</time>
      </trkpt>
      <trkpt lat="45.71129" lon="1.19269">
        <ele>349.08627</ele>
        <time>2026-08-08T09:01:38Z</time>
      </trkpt>
      <trkpt lat="45.71127" lon="1.19266">
        <ele>349.08627</ele>
        <time>2026-08-08T09:01:39Z</time>
      </trkpt>
      <trkpt lat="45.71126" lon="1.19262">
        <ele>349.08627</ele>
        <time>2026-08-08T09:01:40Z</time>
      </trkpt>
      <trkpt lat="45.71125" lon="1.19259">
        <ele>349.08627</ele>
        <time>2026-08-08T09:01:41Z</time>
      </trkpt>
      <trkpt lat="45.71124" lon="1.19255">
        <ele>349.08627</ele>
        <time>2026-08-08T09:01:42Z</time>
      </trkpt>
      <trkpt lat="45.71122" lon="1.19251">
        <ele>349.08627</ele>
        <time>2026-08-08T09:01:43Z</time>
      </trkpt>
      <trkpt lat="45.71121" lon="1.19248">
        <ele>349.08627</ele>
        <time>2026-08-08T09:01:44Z</time>
      </trkpt>
      <trkpt lat="45.7112" lon="1.19244">
        <ele>350.08627</ele>
        <time>2026-08-08T09:01:45Z</time>
      </trkpt>
      <trkpt lat="45.71119" lon="1.19241">
        <ele>350.08627</ele>
        <time>2026-08-08T09:01:46Z</time>
      </trkpt>
      <trkpt lat="45.71118" lon="1.19237">
        <ele>350.08627</ele>
        <time>2026-08-08T09:01:47Z</time>
      </trkpt>
      <trkpt lat="45.71117" lon="1.19233">
        <ele>350.08627</ele>
        <time>2026-08-08T09:01:48Z</time>
      </trkpt>
      <trkpt lat="45.71115" lon="1.19229">
        <ele>350.08627</ele>
        <time>2026-08-08T09:01:49Z</time>
      </trkpt>
      <trkpt lat="45.71114" lon="1.19226">
        <ele>351.08627</ele>
        <time>2026-08-08T09:01:50Z</time>
      </trkpt>
      <trkpt lat="45.71113" lon="1.19222">
        <ele>351.08627</ele>
        <time>2026-08-08T09:01:51Z</time>
      </trkpt>
      <trkpt lat="45.71113" lon="1.19218">
        <ele>351.08627</ele>
        <time>2026-08-08T09:01:52Z</time>
      </trkpt>
      <trkpt lat="45.71112" lon="1.19214">
        <ele>352.08627</ele>
        <time>2026-08-08T09:01:53Z</time>
      </trkpt>
      <trkpt lat="45.71112" lon="1.1921">
        <ele>352.08627</ele>
        <time>2026-08-08T09:01:54Z</time>
      </trkpt>
      <trkpt lat="45.71111" lon="1.19206">
        <ele>352.08627</ele>
        <time>2026-08-08T09:01:55Z</time>
      </trkpt>
      <trkpt lat="45.7111" lon="1.19203">
        <ele>353.08627</ele>
        <time>2026-08-08T09:01:56Z</time>
      </trkpt>
      <trkpt lat="45.7111" lon="1.19199">
        <ele>353.08627</ele>
        <time>2026-08-08T09:01:57Z</time>
      </trkpt>
      <trkpt lat="45.71109" lon="1.19196">
        <ele>354.08627</ele>
        <time>2026-08-08T09:01:58Z</time>
      </trkpt>
      <trkpt lat="45.71108" lon="1.19194">
        <ele>354.08627</ele>
        <time>2026-08-08T09:01:59Z</time>
      </trkpt>
      <trkpt lat="45.71108" lon="1.19192">
        <ele>354.08627</ele>
        <time>2026-08-08T09:02:00Z</time>
      </trkpt>
      <trkpt lat="45.71108" lon="1.1919">
        <ele>354.08627</ele>
        <time>2026-08-08T09:02:01Z</time>
      </trkpt>
      <trkpt lat="45.71108" lon="1.19188">
        <ele>354.08627</ele>
        <time>2026-08-08T09:02:02Z</time>
      </trkpt>
      <trkpt lat="45.71107" lon="1.19186">
        <ele>355.08627</ele>
        <time>2026-08-08T09:02:03Z</time>
      </trkpt>
      <trkpt lat="45.71106" lon="1.19184">
        <ele>355.08627</ele>
        <time>2026-08-08T09:02:04Z</time>
      </trkpt>
      <trkpt lat="45.71101" lon="1.1918">
        <ele>355.08627</ele>
        <time>2026-08-08T09:02:06Z</time>
      </trkpt>
      <trkpt lat="45.71098" lon="1.19178">
        <ele>355.08627</ele>
        <time>2026-08-08T09:02:07Z</time>
      </trkpt>
      <trkpt lat="45.71095" lon="1.19176">
        <ele>355.08627</ele>
        <time>2026-08-08T09:02:08Z</time>
      </trkpt>
      <trkpt lat="45.71087" lon="1.19175">
        <ele>354.08627</ele>
        <time>2026-08-08T09:02:10Z</time>
      </trkpt>
      <trkpt lat="45.71083" lon="1.19173">
        <ele>354.08627</ele>
        <time>2026-08-08T09:02:11Z</time>
      </trkpt>
      <trkpt lat="45.71079" lon="1.19173">
        <ele>354.08627</ele>
        <time>2026-08-08T09:02:12Z</time>
      </trkpt>
      <trkpt lat="45.71074" lon="1.19172">
        <ele>354.08627</ele>
        <time>2026-08-08T09:02:13Z</time>
      </trkpt>
      <trkpt lat="45.71069" lon="1.1917">
        <ele>355.08627</ele>
        <time>2026-08-08T09:02:14Z</time>
      </trkpt>
      <trkpt lat="45.71065" lon="1.19169">
        <ele>355.08627</ele>
        <time>2026-08-08T09:02:15Z</time>
      </trkpt>
      <trkpt lat="45.7106" lon="1.19168">
        <ele>355.08627</ele>
        <time>2026-08-08T09:02:16Z</time>
      </trkpt>
      <trkpt lat="45.71055" lon="1.19167">
        <ele>355.08627</ele>
        <time>2026-08-08T09:02:17Z</time>
      </trkpt>
      <trkpt lat="45.7105" lon="1.19165">
        <ele>355.08627</ele>
        <time>2026-08-08T09:02:18Z</time>
      </trkpt>
      <trkpt lat="45.71045" lon="1.19164">
        <ele>355.08627</ele>
        <time>2026-08-08T09:02:19Z</time>
      </trkpt>
      <trkpt lat="45.71035" lon="1.19161">
        <ele>355.08627</ele>
        <time>2026-08-08T09:02:21Z</time>
      </trkpt>
      <trkpt lat="45.7103" lon="1.1916">
        <ele>355.08627</ele>
        <time>2026-08-08T09:02:22Z</time>
      </trkpt>
      <trkpt lat="45.71025" lon="1.19159">
        <ele>356.08627</ele>
        <time>2026-08-08T09:02:23Z</time>
      </trkpt>
      <trkpt lat="45.71019" lon="1.19158">
        <ele>356.08627</ele>
        <time>2026-08-08T09:02:24Z</time>
      </trkpt>
      <trkpt lat="45.71014" lon="1.19158">
        <ele>356.08627</ele>
        <time>2026-08-08T09:02:25Z</time>
      </trkpt>
      <trkpt lat="45.71009" lon="1.19156">
        <ele>356.08627</ele>
        <time>2026-08-08T09:02:26Z</time>
      </trkpt>
      <trkpt lat="45.70999" lon="1.19155">
        <ele>356.08627</ele>
        <time>2026-08-08T09:02:28Z</time>
      </trkpt>
      <trkpt lat="45.70994" lon="1.19153">
        <ele>356.08627</ele>
        <time>2026-08-08T09:02:29Z</time>
      </trkpt>
      <trkpt lat="45.70989" lon="1.19153">
        <ele>356.08627</ele>
        <time>2026-08-08T09:02:30Z</time>
      </trkpt>
      <trkpt lat="45.70984" lon="1.19151">
        <ele>356.08627</ele>
        <time>2026-08-08T09:02:31Z</time>
      </trkpt>
      <trkpt lat="45.70979" lon="1.19149">
        <ele>356.08627</ele>
        <time>2026-08-08T09:02:32Z</time>
      </trkpt>
      <trkpt lat="45.70973" lon="1.19148">
        <ele>356.08627</ele>
        <time>2026-08-08T09:02:33Z</time>
      </trkpt>
      <trkpt lat="45.70963" lon="1.19146">
        <ele>356.08627</ele>
        <time>2026-08-08T09:02:35Z</time>
      </trkpt>
      <trkpt lat="45.70959" lon="1.19145">
        <ele>356.08627</ele>
        <time>2026-08-08T09:02:36Z</time>
      </trkpt>
      <trkpt lat="45.70954" lon="1.19144">
        <ele>356.08627</ele>
        <time>2026-08-08T09:02:37Z</time>
      </trkpt>
      <trkpt lat="45.70948" lon="1.19143">
        <ele>356.08627</ele>
        <time>2026-08-08T09:02:38Z</time>
      </trkpt>
      <trkpt lat="45.70944" lon="1.19141">
        <ele>356.08627</ele>
        <time>2026-08-08T09:02:39Z</time>
      </trkpt>
      <trkpt lat="45.70939" lon="1.1914">
        <ele>356.08627</ele>
        <time>2026-08-08T09:02:40Z</time>
      </trkpt>
      <trkpt lat="45.70934" lon="1.19138">
        <ele>356.08627</ele>
        <time>2026-08-08T09:02:41Z</time>
      </trkpt>
      <trkpt lat="45.70929" lon="1.19137">
        <ele>355.08627</ele>
        <time>2026-08-08T09:02:42Z</time>
      </trkpt>
      <trkpt lat="45.70925" lon="1.19136">
        <ele>355.08627</ele>
        <time>2026-08-08T09:02:43Z</time>
      </trkpt>
      <trkpt lat="45.70919" lon="1.19135">
        <ele>355.08627</ele>
        <time>2026-08-08T09:02:44Z</time>
      </trkpt>
      <trkpt lat="45.70914" lon="1.19134">
        <ele>355.08627</ele>
        <time>2026-08-08T09:02:45Z</time>
      </trkpt>
      <trkpt lat="45.70909" lon="1.19133">
        <ele>355.08627</ele>
        <time>2026-08-08T09:02:46Z</time>
      </trkpt>
      <trkpt lat="45.70904" lon="1.19131">
        <ele>355.08627</ele>
        <time>2026-08-08T09:02:47Z</time>
      </trkpt>
      <trkpt lat="45.70899" lon="1.19131">
        <ele>355.08627</ele>
        <time>2026-08-08T09:02:48Z</time>
      </trkpt>
      <trkpt lat="45.70889" lon="1.19128">
        <ele>355.08627</ele>
        <time>2026-08-08T09:02:50Z</time>
      </trkpt>
      <trkpt lat="45.70884" lon="1.19127">
        <ele>355.08627</ele>
        <time>2026-08-08T09:02:51Z</time>
      </trkpt>
      <trkpt lat="45.70879" lon="1.19125">
        <ele>355.08627</ele>
        <time>2026-08-08T09:02:52Z</time>
      </trkpt>
      <trkpt lat="45.70874" lon="1.19124">
        <ele>355.08627</ele>
        <time>2026-08-08T09:02:53Z</time>
      </trkpt>
      <trkpt lat="45.70869" lon="1.19123">
        <ele>355.08627</ele>
        <time>2026-08-08T09:02:54Z</time>
      </trkpt>
      <trkpt lat="45.70859" lon="1.19121">
        <ele>355.08627</ele>
        <time>2026-08-08T09:02:56Z</time>
      </trkpt>
      <trkpt lat="45.70854" lon="1.1912">
        <ele>355.08627</ele>
        <time>2026-08-08T09:02:57Z</time>
      </trkpt>
      <trkpt lat="45.70849" lon="1.19119">
        <ele>354.08627</ele>
        <time>2026-08-08T09:02:58Z</time>
      </trkpt>
      <trkpt lat="45.70844" lon="1.19118">
        <ele>354.08627</ele>
        <time>2026-08-08T09:02:59Z</time>
      </trkpt>
      <trkpt lat="45.70839" lon="1.19117">
        <ele>354.08627</ele>
        <time>2026-08-08T09:03:00Z</time>
      </trkpt>
      <trkpt lat="45.70834" lon="1.19116">
        <ele>354.08627</ele>
        <time>2026-08-08T09:03:01Z</time>
      </trkpt>
      <trkpt lat="45.70829" lon="1.19116">
        <ele>354.08627</ele>
        <time>2026-08-08T09:03:02Z</time>
      </trkpt>
      <trkpt lat="45.70824" lon="1.19115">
        <ele>354.08627</ele>
        <time>2026-08-08T09:03:03Z</time>
      </trkpt>
      <trkpt lat="45.70819" lon="1.19114">
        <ele>354.08627</ele>
        <time>2026-08-08T09:03:04Z</time>
      </trkpt>
      <trkpt lat="45.70814" lon="1.19113">
        <ele>354.08627</ele>
        <time>2026-08-08T09:03:05Z</time>
      </trkpt>
      <trkpt lat="45.70805" lon="1.19111">
        <ele>354.08627</ele>
        <time>2026-08-08T09:03:07Z</time>
      </trkpt>
      <trkpt lat="45.708" lon="1.1911">
        <ele>355.08627</ele>
        <time>2026-08-08T09:03:08Z</time>
      </trkpt>
      <trkpt lat="45.70796" lon="1.19112">
        <ele>354.08627</ele>
        <time>2026-08-08T09:03:09Z</time>
      </trkpt>
      <trkpt lat="45.70791" lon="1.19115">
        <ele>354.08627</ele>
        <time>2026-08-08T09:03:10Z</time>
      </trkpt>
      <trkpt lat="45.70787" lon="1.1912">
        <ele>354.08627</ele>
        <time>2026-08-08T09:03:11Z</time>
      </trkpt>
      <trkpt lat="45.70778" lon="1.1913">
        <ele>352.08627</ele>
        <time>2026-08-08T09:03:13Z</time>
      </trkpt>
      <trkpt lat="45.70769" lon="1.19139">
        <ele>352.08627</ele>
        <time>2026-08-08T09:03:15Z</time>
      </trkpt>
      <trkpt lat="45.70764" lon="1.19143">
        <ele>352.08627</ele>
        <time>2026-08-08T09:03:16Z</time>
      </trkpt>
      <trkpt lat="45.70756" lon="1.19152">
        <ele>352.08627</ele>
        <time>2026-08-08T09:03:18Z</time>
      </trkpt>
      <trkpt lat="45.70752" lon="1.19157">
        <ele>352.08627</ele>
        <time>2026-08-08T09:03:19Z</time>
      </trkpt>
      <trkpt lat="45.70744" lon="1.19165">
        <ele>351.08627</ele>
        <time>2026-08-08T09:03:21Z</time>
      </trkpt>
      <trkpt lat="45.7074" lon="1.19169">
        <ele>352.08627</ele>
        <time>2026-08-08T09:03:22Z</time>
      </trkpt>
      <trkpt lat="45.70735" lon="1.19173">
        <ele>352.08627</ele>
        <time>2026-08-08T09:03:23Z</time>
      </trkpt>
      <trkpt lat="45.70731" lon="1.19177">
        <ele>352.08627</ele>
        <time>2026-08-08T09:03:24Z</time>
      </trkpt>
      <trkpt lat="45.70727" lon="1.19182">
        <ele>352.08627</ele>
        <time>2026-08-08T09:03:25Z</time>
      </trkpt>
      <trkpt lat="45.70723" lon="1.19186">
        <ele>352.08627</ele>
        <time>2026-08-08T09:03:26Z</time>
      </trkpt>
      <trkpt lat="45.70719" lon="1.1919">
        <ele>352.08627</ele>
        <time>2026-08-08T09:03:27Z</time>
      </trkpt>
      <trkpt lat="45.70711" lon="1.19199">
        <ele>352.08627</ele>
        <time>2026-08-08T09:03:29Z</time>
      </trkpt>
      <trkpt lat="45.70707" lon="1.19203">
        <ele>352.08627</ele>
        <time>2026-08-08T09:03:30Z</time>
      </trkpt>
      <trkpt lat="45.70703" lon="1.19207">
        <ele>352.08627</ele>
        <time>2026-08-08T09:03:31Z</time>
      </trkpt>
      <trkpt lat="45.70699" lon="1.19211">
        <ele>352.08627</ele>
        <time>2026-08-08T09:03:32Z</time>
      </trkpt>
      <trkpt lat="45.70695" lon="1.19215">
        <ele>352.08627</ele>
        <time>2026-08-08T09:03:33Z</time>
      </trkpt>
      <trkpt lat="45.70691" lon="1.19219">
        <ele>352.08627</ele>
        <time>2026-08-08T09:03:34Z</time>
      </trkpt>
      <trkpt lat="45.70688" lon="1.19224">
        <ele>353.08627</ele>
        <time>2026-08-08T09:03:35Z</time>
      </trkpt>
      <trkpt lat="45.70684" lon="1.19228">
        <ele>353.08627</ele>
        <time>2026-08-08T09:03:36Z</time>
      </trkpt>
      <trkpt lat="45.7068" lon="1.19233">
        <ele>353.08627</ele>
        <time>2026-08-08T09:03:37Z</time>
      </trkpt>
      <trkpt lat="45.70676" lon="1.19237">
        <ele>353.08627</ele>
        <time>2026-08-08T09:03:38Z</time>
      </trkpt>
      <trkpt lat="45.70672" lon="1.19241">
        <ele>353.08627</ele>
        <time>2026-08-08T09:03:39Z</time>
      </trkpt>
      <trkpt lat="45.70669" lon="1.19244">
        <ele>353.08627</ele>
        <time>2026-08-08T09:03:40Z</time>
      </trkpt>
      <trkpt lat="45.70665" lon="1.19249">
        <ele>353.08627</ele>
        <time>2026-08-08T09:03:41Z</time>
      </trkpt>
      <trkpt lat="45.70661" lon="1.19253">
        <ele>353.08627</ele>
        <time>2026-08-08T09:03:42Z</time>
      </trkpt>
      <trkpt lat="45.70657" lon="1.19257">
        <ele>353.08627</ele>
        <time>2026-08-08T09:03:43Z</time>
      </trkpt>
      <trkpt lat="45.70653" lon="1.19261">
        <ele>353.08627</ele>
        <time>2026-08-08T09:03:44Z</time>
      </trkpt>
      <trkpt lat="45.7065" lon="1.19265">
        <ele>352.08627</ele>
        <time>2026-08-08T09:03:45Z</time>
      </trkpt>
      <trkpt lat="45.70646" lon="1.19268">
        <ele>352.08627</ele>
        <time>2026-08-08T09:03:46Z</time>
      </trkpt>
      <trkpt lat="45.70642" lon="1.19273">
        <ele>352.08627</ele>
        <time>2026-08-08T09:03:47Z</time>
      </trkpt>
      <trkpt lat="45.70638" lon="1.19276">
        <ele>352.08627</ele>
        <time>2026-08-08T09:03:48Z</time>
      </trkpt>
      <trkpt lat="45.70634" lon="1.1928">
        <ele>353.08627</ele>
        <time>2026-08-08T09:03:49Z</time>
      </trkpt>
      <trkpt lat="45.7063" lon="1.19284">
        <ele>352.08627</ele>
        <time>2026-08-08T09:03:50Z</time>
      </trkpt>
      <trkpt lat="45.70626" lon="1.19289">
        <ele>352.08627</ele>
        <time>2026-08-08T09:03:51Z</time>
      </trkpt>
      <trkpt lat="45.70621" lon="1.19293">
        <ele>352.08627</ele>
        <time>2026-08-08T09:03:52Z</time>
      </trkpt>
      <trkpt lat="45.70617" lon="1.19297">
        <ele>353.08627</ele>
        <time>2026-08-08T09:03:53Z</time>
      </trkpt>
      <trkpt lat="45.70613" lon="1.19302">
        <ele>353.08627</ele>
        <time>2026-08-08T09:03:54Z</time>
      </trkpt>
      <trkpt lat="45.70608" lon="1.19306">
        <ele>353.08627</ele>
        <time>2026-08-08T09:03:55Z</time>
      </trkpt>
      <trkpt lat="45.70604" lon="1.1931">
        <ele>354.08627</ele>
        <time>2026-08-08T09:03:56Z</time>
      </trkpt>
      <trkpt lat="45.706" lon="1.19314">
        <ele>354.08627</ele>
        <time>2026-08-08T09:03:57Z</time>
      </trkpt>
      <trkpt lat="45.70596" lon="1.19318">
        <ele>354.08627</ele>
        <time>2026-08-08T09:03:58Z</time>
      </trkpt>
      <trkpt lat="45.70592" lon="1.19322">
        <ele>354.08627</ele>
        <time>2026-08-08T09:03:59Z</time>
      </trkpt>
      <trkpt lat="45.70588" lon="1.19326">
        <ele>354.08627</ele>
        <time>2026-08-08T09:04:00Z</time>
      </trkpt>
      <trkpt lat="45.70584" lon="1.1933">
        <ele>353.08627</ele>
        <time>2026-08-08T09:04:01Z</time>
      </trkpt>
      <trkpt lat="45.7058" lon="1.19335">
        <ele>354.08627</ele>
        <time>2026-08-08T09:04:02Z</time>
      </trkpt>
      <trkpt lat="45.70576" lon="1.1934">
        <ele>353.08627</ele>
        <time>2026-08-08T09:04:03Z</time>
      </trkpt>
      <trkpt lat="45.70572" lon="1.19344">
        <ele>353.08627</ele>
        <time>2026-08-08T09:04:04Z</time>
      </trkpt>
      <trkpt lat="45.70568" lon="1.19349">
        <ele>353.08627</ele>
        <time>2026-08-08T09:04:05Z</time>
      </trkpt>
      <trkpt lat="45.70564" lon="1.19353">
        <ele>353.08627</ele>
        <time>2026-08-08T09:04:06Z</time>
      </trkpt>
      <trkpt lat="45.7056" lon="1.19358">
        <ele>353.08627</ele>
        <time>2026-08-08T09:04:07Z</time>
      </trkpt>
      <trkpt lat="45.70556" lon="1.19362">
        <ele>353.08627</ele>
        <time>2026-08-08T09:04:08Z</time>
      </trkpt>
      <trkpt lat="45.70552" lon="1.19366">
        <ele>354.08627</ele>
        <time>2026-08-08T09:04:09Z</time>
      </trkpt>
      <trkpt lat="45.70548" lon="1.1937">
        <ele>353.08627</ele>
        <time>2026-08-08T09:04:10Z</time>
      </trkpt>
      <trkpt lat="45.70544" lon="1.19375">
        <ele>353.08627</ele>
        <time>2026-08-08T09:04:11Z</time>
      </trkpt>
      <trkpt lat="45.7054" lon="1.19379">
        <ele>353.08627</ele>
        <time>2026-08-08T09:04:12Z</time>
      </trkpt>
      <trkpt lat="45.70535" lon="1.19384">
        <ele>353.08627</ele>
        <time>2026-08-08T09:04:13Z</time>
      </trkpt>
      <trkpt lat="45.70531" lon="1.19389">
        <ele>354.08627</ele>
        <time>2026-08-08T09:04:14Z</time>
      </trkpt>
      <trkpt lat="45.70527" lon="1.19393">
        <ele>354.08627</ele>
        <time>2026-08-08T09:04:15Z</time>
      </trkpt>
      <trkpt lat="45.70523" lon="1.19398">
        <ele>354.08627</ele>
        <time>2026-08-08T09:04:16Z</time>
      </trkpt>
      <trkpt lat="45.70519" lon="1.19402">
        <ele>354.08627</ele>
        <time>2026-08-08T09:04:17Z</time>
      </trkpt>
      <trkpt lat="45.70516" lon="1.19406">
        <ele>354.08627</ele>
        <time>2026-08-08T09:04:18Z</time>
      </trkpt>
      <trkpt lat="45.70512" lon="1.1941">
        <ele>354.08627</ele>
        <time>2026-08-08T09:04:19Z</time>
      </trkpt>
      <trkpt lat="45.70504" lon="1.19419">
        <ele>355.08627</ele>
        <time>2026-08-08T09:04:21Z</time>
      </trkpt>
      <trkpt lat="45.705" lon="1.19424">
        <ele>354.08627</ele>
        <time>2026-08-08T09:04:22Z</time>
      </trkpt>
      <trkpt lat="45.70496" lon="1.19429">
        <ele>354.08627</ele>
        <time>2026-08-08T09:04:23Z</time>
      </trkpt>
      <trkpt lat="45.70493" lon="1.19435">
        <ele>355.08627</ele>
        <time>2026-08-08T09:04:24Z</time>
      </trkpt>
      <trkpt lat="45.7049" lon="1.1944">
        <ele>355.08627</ele>
        <time>2026-08-08T09:04:25Z</time>
      </trkpt>
      <trkpt lat="45.70486" lon="1.19446">
        <ele>355.08627</ele>
        <time>2026-08-08T09:04:26Z</time>
      </trkpt>
      <trkpt lat="45.70484" lon="1.19452">
        <ele>355.08627</ele>
        <time>2026-08-08T09:04:27Z</time>
      </trkpt>
      <trkpt lat="45.70481" lon="1.19458">
        <ele>355.08627</ele>
        <time>2026-08-08T09:04:28Z</time>
      </trkpt>
      <trkpt lat="45.70478" lon="1.19465">
        <ele>356.08627</ele>
        <time>2026-08-08T09:04:29Z</time>
      </trkpt>
      <trkpt lat="45.70475" lon="1.19471">
        <ele>356.08627</ele>
        <time>2026-08-08T09:04:30Z</time>
      </trkpt>
      <trkpt lat="45.70473" lon="1.19476">
        <ele>356.08627</ele>
        <time>2026-08-08T09:04:31Z</time>
      </trkpt>
      <trkpt lat="45.7047" lon="1.19482">
        <ele>356.08627</ele>
        <time>2026-08-08T09:04:32Z</time>
      </trkpt>
      <trkpt lat="45.70468" lon="1.19489">
        <ele>356.08627</ele>
        <time>2026-08-08T09:04:33Z</time>
      </trkpt>
      <trkpt lat="45.70466" lon="1.19495">
        <ele>357.08627</ele>
        <time>2026-08-08T09:04:34Z</time>
      </trkpt>
      <trkpt lat="45.70464" lon="1.19502">
        <ele>357.08627</ele>
        <time>2026-08-08T09:04:35Z</time>
      </trkpt>
      <trkpt lat="45.70461" lon="1.19507">
        <ele>357.08627</ele>
        <time>2026-08-08T09:04:36Z</time>
      </trkpt>
      <trkpt lat="45.70459" lon="1.19513">
        <ele>357.08627</ele>
        <time>2026-08-08T09:04:37Z</time>
      </trkpt>
      <trkpt lat="45.70457" lon="1.19519">
        <ele>357.08627</ele>
        <time>2026-08-08T09:04:38Z</time>
      </trkpt>
      <trkpt lat="45.70456" lon="1.19524">
        <ele>357.08627</ele>
        <time>2026-08-08T09:04:39Z</time>
      </trkpt>
      <trkpt lat="45.70453" lon="1.19531">
        <ele>357.08627</ele>
        <time>2026-08-08T09:04:40Z</time>
      </trkpt>
      <trkpt lat="45.70451" lon="1.19537">
        <ele>358.08627</ele>
        <time>2026-08-08T09:04:41Z</time>
      </trkpt>
      <trkpt lat="45.70449" lon="1.19543">
        <ele>357.08627</ele>
        <time>2026-08-08T09:04:42Z</time>
      </trkpt>
      <trkpt lat="45.70446" lon="1.19549">
        <ele>357.08627</ele>
        <time>2026-08-08T09:04:43Z</time>
      </trkpt>
      <trkpt lat="45.70444" lon="1.19555">
        <ele>357.08627</ele>
        <time>2026-08-08T09:04:44Z</time>
      </trkpt>
      <trkpt lat="45.70442" lon="1.19562">
        <ele>357.08627</ele>
        <time>2026-08-08T09:04:45Z</time>
      </trkpt>
      <trkpt lat="45.7044" lon="1.19568">
        <ele>358.08627</ele>
        <time>2026-08-08T09:04:46Z</time>
      </trkpt>
      <trkpt lat="45.70438" lon="1.19574">
        <ele>358.08627</ele>
        <time>2026-08-08T09:04:47Z</time>
      </trkpt>
      <trkpt lat="45.70436" lon="1.1958">
        <ele>358.08627</ele>
        <time>2026-08-08T09:04:48Z</time>
      </trkpt>
      <trkpt lat="45.70432" lon="1.19592">
        <ele>358.08627</ele>
        <time>2026-08-08T09:04:50Z</time>
      </trkpt>
      <trkpt lat="45.7043" lon="1.19598">
        <ele>358.08627</ele>
        <time>2026-08-08T09:04:51Z</time>
      </trkpt>
      <trkpt lat="45.70428" lon="1.19604">
        <ele>359.08627</ele>
        <time>2026-08-08T09:04:52Z</time>
      </trkpt>
      <trkpt lat="45.70424" lon="1.19616">
        <ele>358.08627</ele>
        <time>2026-08-08T09:04:54Z</time>
      </trkpt>
      <trkpt lat="45.70422" lon="1.19622">
        <ele>358.08627</ele>
        <time>2026-08-08T09:04:55Z</time>
      </trkpt>
      <trkpt lat="45.7042" lon="1.19627">
        <ele>358.08627</ele>
        <time>2026-08-08T09:04:56Z</time>
      </trkpt>
      <trkpt lat="45.70418" lon="1.19634">
        <ele>358.08627</ele>
        <time>2026-08-08T09:04:57Z</time>
      </trkpt>
      <trkpt lat="45.70415" lon="1.1964">
        <ele>358.08627</ele>
        <time>2026-08-08T09:04:58Z</time>
      </trkpt>
      <trkpt lat="45.70412" lon="1.19645">
        <ele>358.08627</ele>
        <time>2026-08-08T09:04:59Z</time>
      </trkpt>
      <trkpt lat="45.7041" lon="1.19651">
        <ele>358.08627</ele>
        <time>2026-08-08T09:05:00Z</time>
      </trkpt>
      <trkpt lat="45.70408" lon="1.19657">
        <ele>358.08627</ele>
        <time>2026-08-08T09:05:01Z</time>
      </trkpt>
      <trkpt lat="45.70405" lon="1.19662">
        <ele>358.08627</ele>
        <time>2026-08-08T09:05:02Z</time>
      </trkpt>
      <trkpt lat="45.70402" lon="1.19668">
        <ele>358.08627</ele>
        <time>2026-08-08T09:05:03Z</time>
      </trkpt>
      <trkpt lat="45.70399" lon="1.19674">
        <ele>359.08627</ele>
        <time>2026-08-08T09:05:04Z</time>
      </trkpt>
      <trkpt lat="45.70396" lon="1.1968">
        <ele>358.08627</ele>
        <time>2026-08-08T09:05:05Z</time>
      </trkpt>
      <trkpt lat="45.70394" lon="1.19686">
        <ele>358.08627</ele>
        <time>2026-08-08T09:05:06Z</time>
      </trkpt>
      <trkpt lat="45.70391" lon="1.19692">
        <ele>358.08627</ele>
        <time>2026-08-08T09:05:07Z</time>
      </trkpt>
      <trkpt lat="45.70385" lon="1.19705">
        <ele>358.08627</ele>
        <time>2026-08-08T09:05:09Z</time>
      </trkpt>
      <trkpt lat="45.70379" lon="1.19718">
        <ele>358.08627</ele>
        <time>2026-08-08T09:05:11Z</time>
      </trkpt>
      <trkpt lat="45.70376" lon="1.19724">
        <ele>357.08627</ele>
        <time>2026-08-08T09:05:12Z</time>
      </trkpt>
      <trkpt lat="45.70373" lon="1.19731">
        <ele>357.08627</ele>
        <time>2026-08-08T09:05:13Z</time>
      </trkpt>
      <trkpt lat="45.70369" lon="1.19738">
        <ele>357.08627</ele>
        <time>2026-08-08T09:05:14Z</time>
      </trkpt>
      <trkpt lat="45.70365" lon="1.19746">
        <ele>357.08627</ele>
        <time>2026-08-08T09:05:15Z</time>
      </trkpt>
      <trkpt lat="45.70361" lon="1.19753">
        <ele>357.08627</ele>
        <time>2026-08-08T09:05:16Z</time>
      </trkpt>
      <trkpt lat="45.70357" lon="1.19761">
        <ele>356.08627</ele>
        <time>2026-08-08T09:05:17Z</time>
      </trkpt>
      <trkpt lat="45.70353" lon="1.19769">
        <ele>356.08627</ele>
        <time>2026-08-08T09:05:18Z</time>
      </trkpt>
      <trkpt lat="45.70349" lon="1.19777">
        <ele>356.08627</ele>
        <time>2026-08-08T09:05:19Z</time>
      </trkpt>
      <trkpt lat="45.70345" lon="1.19784">
        <ele>356.08627</ele>
        <time>2026-08-08T09:05:20Z</time>
      </trkpt>
      <trkpt lat="45.70341" lon="1.19792">
        <ele>355.08627</ele>
        <time>2026-08-08T09:05:21Z</time>
      </trkpt>
      <trkpt lat="45.70337" lon="1.19801">
        <ele>355.08627</ele>
        <time>2026-08-08T09:05:22Z</time>
      </trkpt>
      <trkpt lat="45.70333" lon="1.19809">
        <ele>354.08627</ele>
        <time>2026-08-08T09:05:23Z</time>
      </trkpt>
      <trkpt lat="45.70329" lon="1.19817">
        <ele>354.08627</ele>
        <time>2026-08-08T09:05:24Z</time>
      </trkpt>
      <trkpt lat="45.70325" lon="1.19825">
        <ele>354.08627</ele>
        <time>2026-08-08T09:05:25Z</time>
      </trkpt>
      <trkpt lat="45.70321" lon="1.19834">
        <ele>354.08627</ele>
        <time>2026-08-08T09:05:26Z</time>
      </trkpt>
      <trkpt lat="45.70317" lon="1.19843">
        <ele>353.08627</ele>
        <time>2026-08-08T09:05:27Z</time>
      </trkpt>
      <trkpt lat="45.70312" lon="1.19852">
        <ele>353.08627</ele>
        <time>2026-08-08T09:05:28Z</time>
      </trkpt>
      <trkpt lat="45.70309" lon="1.1986">
        <ele>353.08627</ele>
        <time>2026-08-08T09:05:29Z</time>
      </trkpt>
      <trkpt lat="45.70305" lon="1.19868">
        <ele>352.08627</ele>
        <time>2026-08-08T09:05:30Z</time>
      </trkpt>
      <trkpt lat="45.703" lon="1.19876">
        <ele>353.08627</ele>
        <time>2026-08-08T09:05:31Z</time>
      </trkpt>
      <trkpt lat="45.70296" lon="1.19885">
        <ele>353.08627</ele>
        <time>2026-08-08T09:05:32Z</time>
      </trkpt>
      <trkpt lat="45.70292" lon="1.19893">
        <ele>352.08627</ele>
        <time>2026-08-08T09:05:33Z</time>
      </trkpt>
      <trkpt lat="45.70285" lon="1.19908">
        <ele>353.08627</ele>
        <time>2026-08-08T09:05:35Z</time>
      </trkpt>
      <trkpt lat="45.70281" lon="1.19915">
        <ele>353.08627</ele>
        <time>2026-08-08T09:05:36Z</time>
      </trkpt>
      <trkpt lat="45.70278" lon="1.19922">
        <ele>353.08627</ele>
        <time>2026-08-08T09:05:37Z</time>
      </trkpt>
      <trkpt lat="45.70275" lon="1.19929">
        <ele>353.08627</ele>
        <time>2026-08-08T09:05:38Z</time>
      </trkpt>
      <trkpt lat="45.70271" lon="1.19935">
        <ele>354.08627</ele>
        <time>2026-08-08T09:05:39Z</time>
      </trkpt>
      <trkpt lat="45.70268" lon="1.19941">
        <ele>354.08627</ele>
        <time>2026-08-08T09:05:40Z</time>
      </trkpt>
      <trkpt lat="45.70265" lon="1.19947">
        <ele>353.08627</ele>
        <time>2026-08-08T09:05:41Z</time>
      </trkpt>
      <trkpt lat="45.70262" lon="1.19953">
        <ele>354.08627</ele>
        <time>2026-08-08T09:05:42Z</time>
      </trkpt>
      <trkpt lat="45.70259" lon="1.19959">
        <ele>354.08627</ele>
        <time>2026-08-08T09:05:43Z</time>
      </trkpt>
      <trkpt lat="45.70257" lon="1.19965">
        <ele>354.08627</ele>
        <time>2026-08-08T09:05:44Z</time>
      </trkpt>
      <trkpt lat="45.70254" lon="1.1997">
        <ele>354.08627</ele>
        <time>2026-08-08T09:05:45Z</time>
      </trkpt>
      <trkpt lat="45.70251" lon="1.19976">
        <ele>354.08627</ele>
        <time>2026-08-08T09:05:46Z</time>
      </trkpt>
      <trkpt lat="45.70249" lon="1.19981">
        <ele>354.08627</ele>
        <time>2026-08-08T09:05:47Z</time>
      </trkpt>
      <trkpt lat="45.70246" lon="1.19986">
        <ele>354.08627</ele>
        <time>2026-08-08T09:05:48Z</time>
      </trkpt>
      <trkpt lat="45.70241" lon="1.19997">
        <ele>355.08627</ele>
        <time>2026-08-08T09:05:50Z</time>
      </trkpt>
      <trkpt lat="45.70236" lon="1.20008">
        <ele>355.08627</ele>
        <time>2026-08-08T09:05:52Z</time>
      </trkpt>
      <trkpt lat="45.70233" lon="1.20014">
        <ele>356.08627</ele>
        <time>2026-08-08T09:05:53Z</time>
      </trkpt>
      <trkpt lat="45.7023" lon="1.20019">
        <ele>356.08627</ele>
        <time>2026-08-08T09:05:54Z</time>
      </trkpt>
      <trkpt lat="45.70224" lon="1.2003">
        <ele>356.08627</ele>
        <time>2026-08-08T09:05:56Z</time>
      </trkpt>
      <trkpt lat="45.70222" lon="1.20035">
        <ele>356.08627</ele>
        <time>2026-08-08T09:05:57Z</time>
      </trkpt>
      <trkpt lat="45.70219" lon="1.20041">
        <ele>356.08627</ele>
        <time>2026-08-08T09:05:58Z</time>
      </trkpt>
      <trkpt lat="45.70214" lon="1.20052">
        <ele>356.08627</ele>
        <time>2026-08-08T09:06:00Z</time>
      </trkpt>
      <trkpt lat="45.70212" lon="1.20057">
        <ele>356.08627</ele>
        <time>2026-08-08T09:06:01Z</time>
      </trkpt>
      <trkpt lat="45.70209" lon="1.20062">
        <ele>356.08627</ele>
        <time>2026-08-08T09:06:02Z</time>
      </trkpt>
      <trkpt lat="45.70206" lon="1.20067">
        <ele>356.08627</ele>
        <time>2026-08-08T09:06:03Z</time>
      </trkpt>
      <trkpt lat="45.70203" lon="1.20071">
        <ele>356.08627</ele>
        <time>2026-08-08T09:06:04Z</time>
      </trkpt>
      <trkpt lat="45.70201" lon="1.20076">
        <ele>357.08627</ele>
        <time>2026-08-08T09:06:05Z</time>
      </trkpt>
      <trkpt lat="45.70198" lon="1.2008">
        <ele>356.08627</ele>
        <time>2026-08-08T09:06:06Z</time>
      </trkpt>
      <trkpt lat="45.70192" lon="1.20089">
        <ele>357.08627</ele>
        <time>2026-08-08T09:06:08Z</time>
      </trkpt>
      <trkpt lat="45.70189" lon="1.20093">
        <ele>357.08627</ele>
        <time>2026-08-08T09:06:09Z</time>
      </trkpt>
      <trkpt lat="45.70186" lon="1.20097">
        <ele>356.08627</ele>
        <time>2026-08-08T09:06:10Z</time>
      </trkpt>
      <trkpt lat="45.70182" lon="1.201">
        <ele>356.08627</ele>
        <time>2026-08-08T09:06:11Z</time>
      </trkpt>
      <trkpt lat="45.70179" lon="1.20104">
        <ele>356.08627</ele>
        <time>2026-08-08T09:06:12Z</time>
      </trkpt>
      <trkpt lat="45.70175" lon="1.20109">
        <ele>356.08627</ele>
        <time>2026-08-08T09:06:13Z</time>
      </trkpt>
      <trkpt lat="45.70171" lon="1.20114">
        <ele>356.08627</ele>
        <time>2026-08-08T09:06:14Z</time>
      </trkpt>
      <trkpt lat="45.70167" lon="1.20119">
        <ele>355.08627</ele>
        <time>2026-08-08T09:06:15Z</time>
      </trkpt>
      <trkpt lat="45.70162" lon="1.20124">
        <ele>355.08627</ele>
        <time>2026-08-08T09:06:16Z</time>
      </trkpt>
      <trkpt lat="45.70156" lon="1.2013">
        <ele>355.08627</ele>
        <time>2026-08-08T09:06:17Z</time>
      </trkpt>
      <trkpt lat="45.7015" lon="1.20135">
        <ele>354.08627</ele>
        <time>2026-08-08T09:06:18Z</time>
      </trkpt>
      <trkpt lat="45.70144" lon="1.2014">
        <ele>354.08627</ele>
        <time>2026-08-08T09:06:19Z</time>
      </trkpt>
      <trkpt lat="45.70138" lon="1.20148">
        <ele>354.08627</ele>
        <time>2026-08-08T09:06:20Z</time>
      </trkpt>
      <trkpt lat="45.70132" lon="1.20156">
        <ele>354.08627</ele>
        <time>2026-08-08T09:06:21Z</time>
      </trkpt>
      <trkpt lat="45.70128" lon="1.20165">
        <ele>353.08627</ele>
        <time>2026-08-08T09:06:22Z</time>
      </trkpt>
      <trkpt lat="45.70124" lon="1.20175">
        <ele>353.08627</ele>
        <time>2026-08-08T09:06:23Z</time>
      </trkpt>
      <trkpt lat="45.70121" lon="1.20185">
        <ele>353.08627</ele>
        <time>2026-08-08T09:06:24Z</time>
      </trkpt>
      <trkpt lat="45.70119" lon="1.20195">
        <ele>352.08627</ele>
        <time>2026-08-08T09:06:25Z</time>
      </trkpt>
      <trkpt lat="45.70117" lon="1.20206">
        <ele>352.08627</ele>
        <time>2026-08-08T09:06:26Z</time>
      </trkpt>
      <trkpt lat="45.70115" lon="1.20218">
        <ele>351.08627</ele>
        <time>2026-08-08T09:06:27Z</time>
      </trkpt>
      <trkpt lat="45.70113" lon="1.20229">
        <ele>350.08627</ele>
        <time>2026-08-08T09:06:28Z</time>
      </trkpt>
      <trkpt lat="45.70109" lon="1.20254">
        <ele>349.08627</ele>
        <time>2026-08-08T09:06:30Z</time>
      </trkpt>
      <trkpt lat="45.70107" lon="1.20267">
        <ele>349.08627</ele>
        <time>2026-08-08T09:06:31Z</time>
      </trkpt>
      <trkpt lat="45.70105" lon="1.2028">
        <ele>348.08627</ele>
        <time>2026-08-08T09:06:32Z</time>
      </trkpt>
      <trkpt lat="45.70103" lon="1.20293">
        <ele>347.08627</ele>
        <time>2026-08-08T09:06:33Z</time>
      </trkpt>
      <trkpt lat="45.701" lon="1.20306">
        <ele>347.08627</ele>
        <time>2026-08-08T09:06:34Z</time>
      </trkpt>
      <trkpt lat="45.70098" lon="1.20319">
        <ele>346.08627</ele>
        <time>2026-08-08T09:06:35Z</time>
      </trkpt>
      <trkpt lat="45.70095" lon="1.20333">
        <ele>346.08627</ele>
        <time>2026-08-08T09:06:36Z</time>
      </trkpt>
      <trkpt lat="45.70093" lon="1.20346">
        <ele>345.08627</ele>
        <time>2026-08-08T09:06:37Z</time>
      </trkpt>
      <trkpt lat="45.7009" lon="1.2036">
        <ele>345.08627</ele>
        <time>2026-08-08T09:06:38Z</time>
      </trkpt>
      <trkpt lat="45.70088" lon="1.20373">
        <ele>345.08627</ele>
        <time>2026-08-08T09:06:39Z</time>
      </trkpt>
      <trkpt lat="45.70086" lon="1.20387">
        <ele>344.08627</ele>
        <time>2026-08-08T09:06:40Z</time>
      </trkpt>
      <trkpt lat="45.70084" lon="1.20401">
        <ele>344.08627</ele>
        <time>2026-08-08T09:06:41Z</time>
      </trkpt>
      <trkpt lat="45.70082" lon="1.20414">
        <ele>343.08627</ele>
        <time>2026-08-08T09:06:42Z</time>
      </trkpt>
      <trkpt lat="45.7008" lon="1.20427">
        <ele>343.08627</ele>
        <time>2026-08-08T09:06:43Z</time>
      </trkpt>
      <trkpt lat="45.70078" lon="1.2044">
        <ele>343.08627</ele>
        <time>2026-08-08T09:06:44Z</time>
      </trkpt>
      <trkpt lat="45.70076" lon="1.20453">
        <ele>343.08627</ele>
        <time>2026-08-08T09:06:45Z</time>
      </trkpt>
      <trkpt lat="45.70074" lon="1.20465">
        <ele>342.08627</ele>
        <time>2026-08-08T09:06:46Z</time>
      </trkpt>
      <trkpt lat="45.7007" lon="1.20488">
        <ele>342.08627</ele>
        <time>2026-08-08T09:06:48Z</time>
      </trkpt>
      <trkpt lat="45.70067" lon="1.20499">
        <ele>342.08627</ele>
        <time>2026-08-08T09:06:49Z</time>
      </trkpt>
      <trkpt lat="45.70066" lon="1.2051">
        <ele>342.08627</ele>
        <time>2026-08-08T09:06:50Z</time>
      </trkpt>
      <trkpt lat="45.70064" lon="1.20521">
        <ele>342.08627</ele>
        <time>2026-08-08T09:06:51Z</time>
      </trkpt>
      <trkpt lat="45.70062" lon="1.20531">
        <ele>342.08627</ele>
        <time>2026-08-08T09:06:52Z</time>
      </trkpt>
      <trkpt lat="45.70061" lon="1.2054">
        <ele>342.08627</ele>
        <time>2026-08-08T09:06:53Z</time>
      </trkpt>
      <trkpt lat="45.70057" lon="1.20559">
        <ele>342.08627</ele>
        <time>2026-08-08T09:06:55Z</time>
      </trkpt>
      <trkpt lat="45.70054" lon="1.2058">
        <ele>340.08627</ele>
        <time>2026-08-08T09:06:57Z</time>
      </trkpt>
      <trkpt lat="45.70053" lon="1.20591">
        <ele>340.08627</ele>
        <time>2026-08-08T09:06:58Z</time>
      </trkpt>
      <trkpt lat="45.70052" lon="1.20599">
        <ele>339.08627</ele>
        <time>2026-08-08T09:06:59Z</time>
      </trkpt>
      <trkpt lat="45.7005" lon="1.20608">
        <ele>339.08627</ele>
        <time>2026-08-08T09:07:00Z</time>
      </trkpt>
      <trkpt lat="45.70048" lon="1.20616">
        <ele>339.08627</ele>
        <time>2026-08-08T09:07:01Z</time>
      </trkpt>
      <trkpt lat="45.70044" lon="1.20633">
        <ele>339.08627</ele>
        <time>2026-08-08T09:07:03Z</time>
      </trkpt>
      <trkpt lat="45.70041" lon="1.20641">
        <ele>340.08627</ele>
        <time>2026-08-08T09:07:04Z</time>
      </trkpt>
      <trkpt lat="45.70035" lon="1.20652">
        <ele>340.08627</ele>
        <time>2026-08-08T09:07:06Z</time>
      </trkpt>
      <trkpt lat="45.70034" lon="1.20657">
        <ele>341.08627</ele>
        <time>2026-08-08T09:07:07Z</time>
      </trkpt>
      <trkpt lat="45.70031" lon="1.20662">
        <ele>342.08627</ele>
        <time>2026-08-08T09:07:08Z</time>
      </trkpt>
      <trkpt lat="45.7003" lon="1.20666">
        <ele>342.08627</ele>
        <time>2026-08-08T09:07:09Z</time>
      </trkpt>
      <trkpt lat="45.7003" lon="1.20671">
        <ele>342.08627</ele>
        <time>2026-08-08T09:07:10Z</time>
      </trkpt>
      <trkpt lat="45.7003" lon="1.20675">
        <ele>342.08627</ele>
        <time>2026-08-08T09:07:11Z</time>
      </trkpt>
      <trkpt lat="45.70032" lon="1.2068">
        <ele>343.08627</ele>
        <time>2026-08-08T09:07:12Z</time>
      </trkpt>
      <trkpt lat="45.70034" lon="1.20683">
        <ele>343.08627</ele>
        <time>2026-08-08T09:07:13Z</time>
      </trkpt>
      <trkpt lat="45.70036" lon="1.20687">
        <ele>342.08627</ele>
        <time>2026-08-08T09:07:14Z</time>
      </trkpt>
      <trkpt lat="45.70038" lon="1.20691">
        <ele>342.08627</ele>
        <time>2026-08-08T09:07:15Z</time>
      </trkpt>
      <trkpt lat="45.7004" lon="1.20695">
        <ele>343.08627</ele>
        <time>2026-08-08T09:07:16Z</time>
      </trkpt>
      <trkpt lat="45.70043" lon="1.20698">
        <ele>343.08627</ele>
        <time>2026-08-08T09:07:17Z</time>
      </trkpt>
      <trkpt lat="45.70045" lon="1.20702">
        <ele>343.08627</ele>
        <time>2026-08-08T09:07:18Z</time>
      </trkpt>
      <trkpt lat="45.70047" lon="1.20705">
        <ele>343.08627</ele>
        <time>2026-08-08T09:07:19Z</time>
      </trkpt>
      <trkpt lat="45.70049" lon="1.20709">
        <ele>343.08627</ele>
        <time>2026-08-08T09:07:20Z</time>
      </trkpt>
      <trkpt lat="45.70051" lon="1.20713">
        <ele>343.08627</ele>
        <time>2026-08-08T09:07:21Z</time>
      </trkpt>
      <trkpt lat="45.70053" lon="1.20717">
        <ele>343.08627</ele>
        <time>2026-08-08T09:07:22Z</time>
      </trkpt>
      <trkpt lat="45.70055" lon="1.20721">
        <ele>343.08627</ele>
        <time>2026-08-08T09:07:23Z</time>
      </trkpt>
      <trkpt lat="45.70059" lon="1.2073">
        <ele>343.08627</ele>
        <time>2026-08-08T09:07:25Z</time>
      </trkpt>
      <trkpt lat="45.70063" lon="1.2074">
        <ele>343.08627</ele>
        <time>2026-08-08T09:07:27Z</time>
      </trkpt>
      <trkpt lat="45.70065" lon="1.20745">
        <ele>343.08627</ele>
        <time>2026-08-08T09:07:28Z</time>
      </trkpt>
      <trkpt lat="45.70071" lon="1.20754">
        <ele>344.08627</ele>
        <time>2026-08-08T09:07:30Z</time>
      </trkpt>
      <trkpt lat="45.70074" lon="1.20759">
        <ele>344.08627</ele>
        <time>2026-08-08T09:07:31Z</time>
      </trkpt>
      <trkpt lat="45.70078" lon="1.20762">
        <ele>345.08627</ele>
        <time>2026-08-08T09:07:32Z</time>
      </trkpt>
      <trkpt lat="45.70081" lon="1.20766">
        <ele>345.08627</ele>
        <time>2026-08-08T09:07:33Z</time>
      </trkpt>
      <trkpt lat="45.70085" lon="1.20769">
        <ele>345.08627</ele>
        <time>2026-08-08T09:07:34Z</time>
      </trkpt>
      <trkpt lat="45.70088" lon="1.20772">
        <ele>346.08627</ele>
        <time>2026-08-08T09:07:35Z</time>
      </trkpt>
      <trkpt lat="45.70091" lon="1.20775">
        <ele>346.08627</ele>
        <time>2026-08-08T09:07:36Z</time>
      </trkpt>
      <trkpt lat="45.70094" lon="1.20778">
        <ele>346.08627</ele>
        <time>2026-08-08T09:07:37Z</time>
      </trkpt>
      <trkpt lat="45.70096" lon="1.20781">
        <ele>345.08627</ele>
        <time>2026-08-08T09:07:38Z</time>
      </trkpt>
      <trkpt lat="45.70098" lon="1.20783">
        <ele>345.08627</ele>
        <time>2026-08-08T09:07:39Z</time>
      </trkpt>
      <trkpt lat="45.70099" lon="1.20787">
        <ele>345.08627</ele>
        <time>2026-08-08T09:07:40Z</time>
      </trkpt>
      <trkpt lat="45.70099" lon="1.20791">
        <ele>345.08627</ele>
        <time>2026-08-08T09:07:41Z</time>
      </trkpt>
      <trkpt lat="45.70098" lon="1.20794">
        <ele>345.08627</ele>
        <time>2026-08-08T09:07:42Z</time>
      </trkpt>
      <trkpt lat="45.70096" lon="1.20797">
        <ele>345.08627</ele>
        <time>2026-08-08T09:07:43Z</time>
      </trkpt>
      <trkpt lat="45.70094" lon="1.208">
        <ele>345.08627</ele>
        <time>2026-08-08T09:07:44Z</time>
      </trkpt>
      <trkpt lat="45.70092" lon="1.20803">
        <ele>345.08627</ele>
        <time>2026-08-08T09:07:45Z</time>
      </trkpt>
      <trkpt lat="45.70089" lon="1.20806">
        <ele>344.08627</ele>
        <time>2026-08-08T09:07:46Z</time>
      </trkpt>
      <trkpt lat="45.70086" lon="1.2081">
        <ele>344.08627</ele>
        <time>2026-08-08T09:07:47Z</time>
      </trkpt>
      <trkpt lat="45.70082" lon="1.20815">
        <ele>344.08627</ele>
        <time>2026-08-08T09:07:48Z</time>
      </trkpt>
      <trkpt lat="45.70079" lon="1.20819">
        <ele>344.08627</ele>
        <time>2026-08-08T09:07:49Z</time>
      </trkpt>
      <trkpt lat="45.70076" lon="1.20823">
        <ele>344.08627</ele>
        <time>2026-08-08T09:07:50Z</time>
      </trkpt>
      <trkpt lat="45.70073" lon="1.20827">
        <ele>344.08627</ele>
        <time>2026-08-08T09:07:51Z</time>
      </trkpt>
      <trkpt lat="45.70069" lon="1.20831">
        <ele>343.08627</ele>
        <time>2026-08-08T09:07:52Z</time>
      </trkpt>
      <trkpt lat="45.70066" lon="1.20836">
        <ele>343.08627</ele>
        <time>2026-08-08T09:07:53Z</time>
      </trkpt>
      <trkpt lat="45.70062" lon="1.2084">
        <ele>343.08627</ele>
        <time>2026-08-08T09:07:54Z</time>
      </trkpt>
      <trkpt lat="45.70059" lon="1.20843">
        <ele>342.08627</ele>
        <time>2026-08-08T09:07:55Z</time>
      </trkpt>
      <trkpt lat="45.70056" lon="1.20847">
        <ele>343.08627</ele>
        <time>2026-08-08T09:07:56Z</time>
      </trkpt>
      <trkpt lat="45.70053" lon="1.2085">
        <ele>343.08627</ele>
        <time>2026-08-08T09:07:57Z</time>
      </trkpt>
      <trkpt lat="45.70052" lon="1.20852">
        <ele>342.08627</ele>
        <time>2026-08-08T09:07:58Z</time>
      </trkpt>
      <trkpt lat="45.7005" lon="1.20854">
        <ele>342.08627</ele>
        <time>2026-08-08T09:07:59Z</time>
      </trkpt>
      <trkpt lat="45.70049" lon="1.20856">
        <ele>342.08627</ele>
        <time>2026-08-08T09:08:00Z</time>
      </trkpt>
      <trkpt lat="45.70049" lon="1.20858">
        <ele>342.08627</ele>
        <time>2026-08-08T09:08:01Z</time>
      </trkpt>
      <trkpt lat="45.70067" lon="1.2089">
        <ele>338.08627</ele>
        <time>2026-08-08T09:08:31Z</time>
      </trkpt>
      <trkpt lat="45.70071" lon="1.20895">
        <ele>337.08627</ele>
        <time>2026-08-08T09:08:32Z</time>
      </trkpt>
      <trkpt lat="45.70075" lon="1.209">
        <ele>337.08627</ele>
        <time>2026-08-08T09:08:33Z</time>
      </trkpt>
      <trkpt lat="45.70079" lon="1.20905">
        <ele>337.08627</ele>
        <time>2026-08-08T09:08:34Z</time>
      </trkpt>
      <trkpt lat="45.70084" lon="1.20911">
        <ele>337.08627</ele>
        <time>2026-08-08T09:08:35Z</time>
      </trkpt>
      <trkpt lat="45.70088" lon="1.20917">
        <ele>337.08627</ele>
        <time>2026-08-08T09:08:36Z</time>
      </trkpt>
      <trkpt lat="45.70092" lon="1.20923">
        <ele>336.08627</ele>
        <time>2026-08-08T09:08:37Z</time>
      </trkpt>
      <trkpt lat="45.70097" lon="1.2093">
        <ele>336.08627</ele>
        <time>2026-08-08T09:08:38Z</time>
      </trkpt>
      <trkpt lat="45.70102" lon="1.20937">
        <ele>335.08627</ele>
        <time>2026-08-08T09:08:39Z</time>
      </trkpt>
      <trkpt lat="45.70106" lon="1.20944">
        <ele>335.08627</ele>
        <time>2026-08-08T09:08:40Z</time>
      </trkpt>
      <trkpt lat="45.7011" lon="1.2095">
        <ele>334.08627</ele>
        <time>2026-08-08T09:08:41Z</time>
      </trkpt>
      <trkpt lat="45.70115" lon="1.20956">
        <ele>334.08627</ele>
        <time>2026-08-08T09:08:42Z</time>
      </trkpt>
      <trkpt lat="45.70119" lon="1.20963">
        <ele>334.08627</ele>
        <time>2026-08-08T09:08:43Z</time>
      </trkpt>
      <trkpt lat="45.70124" lon="1.2097">
        <ele>333.08627</ele>
        <time>2026-08-08T09:08:44Z</time>
      </trkpt>
      <trkpt lat="45.70129" lon="1.20977">
        <ele>333.08627</ele>
        <time>2026-08-08T09:08:45Z</time>
      </trkpt>
      <trkpt lat="45.70133" lon="1.20984">
        <ele>333.08627</ele>
        <time>2026-08-08T09:08:46Z</time>
      </trkpt>
      <trkpt lat="45.70138" lon="1.20991">
        <ele>333.08627</ele>
        <time>2026-08-08T09:08:47Z</time>
      </trkpt>
      <trkpt lat="45.70143" lon="1.20998">
        <ele>333.08627</ele>
        <time>2026-08-08T09:08:48Z</time>
      </trkpt>
      <trkpt lat="45.70149" lon="1.21006">
        <ele>332.08627</ele>
        <time>2026-08-08T09:08:49Z</time>
      </trkpt>
      <trkpt lat="45.70155" lon="1.21012">
        <ele>331.08627</ele>
        <time>2026-08-08T09:08:50Z</time>
      </trkpt>
      <trkpt lat="45.7016" lon="1.2102">
        <ele>330.08627</ele>
        <time>2026-08-08T09:08:51Z</time>
      </trkpt>
      <trkpt lat="45.70166" lon="1.21026">
        <ele>329.08627</ele>
        <time>2026-08-08T09:08:52Z</time>
      </trkpt>
      <trkpt lat="45.70178" lon="1.2104">
        <ele>328.08627</ele>
        <time>2026-08-08T09:08:54Z</time>
      </trkpt>
      <trkpt lat="45.70184" lon="1.21046">
        <ele>328.08627</ele>
        <time>2026-08-08T09:08:55Z</time>
      </trkpt>
      <trkpt lat="45.7019" lon="1.21052">
        <ele>327.08627</ele>
        <time>2026-08-08T09:08:56Z</time>
      </trkpt>
      <trkpt lat="45.70195" lon="1.21059">
        <ele>328.08627</ele>
        <time>2026-08-08T09:08:57Z</time>
      </trkpt>
      <trkpt lat="45.702" lon="1.21065">
        <ele>327.08627</ele>
        <time>2026-08-08T09:08:58Z</time>
      </trkpt>
      <trkpt lat="45.70205" lon="1.2107">
        <ele>327.08627</ele>
        <time>2026-08-08T09:08:59Z</time>
      </trkpt>
      <trkpt lat="45.70209" lon="1.21076">
        <ele>328.08627</ele>
        <time>2026-08-08T09:09:00Z</time>
      </trkpt>
      <trkpt lat="45.70213" lon="1.21082">
        <ele>327.08627</ele>
        <time>2026-08-08T09:09:01Z</time>
      </trkpt>
      <trkpt lat="45.70218" lon="1.21088">
        <ele>327.08627</ele>
        <time>2026-08-08T09:09:02Z</time>
      </trkpt>
      <trkpt lat="45.70224" lon="1.21095">
        <ele>326.08627</ele>
        <time>2026-08-08T09:09:03Z</time>
      </trkpt>
      <trkpt lat="45.70228" lon="1.21104">
        <ele>326.08627</ele>
        <time>2026-08-08T09:09:04Z</time>
      </trkpt>
      <trkpt lat="45.70234" lon="1.21112">
        <ele>325.08627</ele>
        <time>2026-08-08T09:09:05Z</time>
      </trkpt>
      <trkpt lat="45.70239" lon="1.2112">
        <ele>325.08627</ele>
        <time>2026-08-08T09:09:06Z</time>
      </trkpt>
      <trkpt lat="45.70245" lon="1.21128">
        <ele>324.08627</ele>
        <time>2026-08-08T09:09:07Z</time>
      </trkpt>
      <trkpt lat="45.70251" lon="1.21137">
        <ele>324.08627</ele>
        <time>2026-08-08T09:09:08Z</time>
      </trkpt>
      <trkpt lat="45.70257" lon="1.21144">
        <ele>324.08627</ele>
        <time>2026-08-08T09:09:09Z</time>
      </trkpt>
      <trkpt lat="45.70263" lon="1.21151">
        <ele>324.08627</ele>
        <time>2026-08-08T09:09:10Z</time>
      </trkpt>
      <trkpt lat="45.70268" lon="1.21158">
        <ele>323.08627</ele>
        <time>2026-08-08T09:09:11Z</time>
      </trkpt>
      <trkpt lat="45.70274" lon="1.21164">
        <ele>324.08627</ele>
        <time>2026-08-08T09:09:12Z</time>
      </trkpt>
      <trkpt lat="45.7028" lon="1.21168">
        <ele>324.08627</ele>
        <time>2026-08-08T09:09:13Z</time>
      </trkpt>
      <trkpt lat="45.70285" lon="1.21171">
        <ele>324.08627</ele>
        <time>2026-08-08T09:09:14Z</time>
      </trkpt>
      <trkpt lat="45.7029" lon="1.21175">
        <ele>325.08627</ele>
        <time>2026-08-08T09:09:15Z</time>
      </trkpt>
      <trkpt lat="45.703" lon="1.2118">
        <ele>324.08627</ele>
        <time>2026-08-08T09:09:17Z</time>
      </trkpt>
      <trkpt lat="45.70304" lon="1.21182">
        <ele>324.08627</ele>
        <time>2026-08-08T09:09:18Z</time>
      </trkpt>
      <trkpt lat="45.70308" lon="1.21185">
        <ele>325.08627</ele>
        <time>2026-08-08T09:09:19Z</time>
      </trkpt>
      <trkpt lat="45.70315" lon="1.2119">
        <ele>325.08627</ele>
        <time>2026-08-08T09:09:21Z</time>
      </trkpt>
      <trkpt lat="45.70319" lon="1.21191">
        <ele>325.08627</ele>
        <time>2026-08-08T09:09:22Z</time>
      </trkpt>
      <trkpt lat="45.70323" lon="1.21193">
        <ele>325.08627</ele>
        <time>2026-08-08T09:09:23Z</time>
      </trkpt>
      <trkpt lat="45.70326" lon="1.21196">
        <ele>326.08627</ele>
        <time>2026-08-08T09:09:24Z</time>
      </trkpt>
      <trkpt lat="45.7033" lon="1.21198">
        <ele>326.08627</ele>
        <time>2026-08-08T09:09:25Z</time>
      </trkpt>
      <trkpt lat="45.70333" lon="1.212">
        <ele>327.08627</ele>
        <time>2026-08-08T09:09:26Z</time>
      </trkpt>
      <trkpt lat="45.70336" lon="1.21201">
        <ele>327.08627</ele>
        <time>2026-08-08T09:09:27Z</time>
      </trkpt>
      <trkpt lat="45.7034" lon="1.21203">
        <ele>327.08627</ele>
        <time>2026-08-08T09:09:28Z</time>
      </trkpt>
      <trkpt lat="45.70343" lon="1.21205">
        <ele>327.08627</ele>
        <time>2026-08-08T09:09:29Z</time>
      </trkpt>
      <trkpt lat="45.70349" lon="1.21209">
        <ele>328.08627</ele>
        <time>2026-08-08T09:09:31Z</time>
      </trkpt>
      <trkpt lat="45.70355" lon="1.21213">
        <ele>329.08627</ele>
        <time>2026-08-08T09:09:33Z</time>
      </trkpt>
      <trkpt lat="45.70358" lon="1.21216">
        <ele>329.08627</ele>
        <time>2026-08-08T09:09:34Z</time>
      </trkpt>
      <trkpt lat="45.7036" lon="1.2122">
        <ele>330.08627</ele>
        <time>2026-08-08T09:09:35Z</time>
      </trkpt>
      <trkpt lat="45.70363" lon="1.21223">
        <ele>330.08627</ele>
        <time>2026-08-08T09:09:36Z</time>
      </trkpt>
      <trkpt lat="45.70365" lon="1.21225">
        <ele>330.08627</ele>
        <time>2026-08-08T09:09:37Z</time>
      </trkpt>
      <trkpt lat="45.70367" lon="1.21229">
        <ele>331.08627</ele>
        <time>2026-08-08T09:09:38Z</time>
      </trkpt>
      <trkpt lat="45.70369" lon="1.21233">
        <ele>332.08627</ele>
        <time>2026-08-08T09:09:39Z</time>
      </trkpt>
      <trkpt lat="45.70371" lon="1.21237">
        <ele>332.08627</ele>
        <time>2026-08-08T09:09:40Z</time>
      </trkpt>
      <trkpt lat="45.70373" lon="1.2124">
        <ele>333.08627</ele>
        <time>2026-08-08T09:09:41Z</time>
      </trkpt>
      <trkpt lat="45.70377" lon="1.21247">
        <ele>333.08627</ele>
        <time>2026-08-08T09:09:43Z</time>
      </trkpt>
      <trkpt lat="45.70379" lon="1.21251">
        <ele>333.08627</ele>
        <time>2026-08-08T09:09:44Z</time>
      </trkpt>
      <trkpt lat="45.70381" lon="1.21255">
        <ele>333.08627</ele>
        <time>2026-08-08T09:09:45Z</time>
      </trkpt>
      <trkpt lat="45.70383" lon="1.21259">
        <ele>334.08627</ele>
        <time>2026-08-08T09:09:46Z</time>
      </trkpt>
      <trkpt lat="45.70385" lon="1.21263">
        <ele>334.08627</ele>
        <time>2026-08-08T09:09:47Z</time>
      </trkpt>
      <trkpt lat="45.70388" lon="1.21267">
        <ele>335.08627</ele>
        <time>2026-08-08T09:09:48Z</time>
      </trkpt>
      <trkpt lat="45.7039" lon="1.2127">
        <ele>335.08627</ele>
        <time>2026-08-08T09:09:49Z</time>
      </trkpt>
      <trkpt lat="45.70395" lon="1.21277">
        <ele>336.08627</ele>
        <time>2026-08-08T09:09:51Z</time>
      </trkpt>
      <trkpt lat="45.70398" lon="1.2128">
        <ele>336.08627</ele>
        <time>2026-08-08T09:09:52Z</time>
      </trkpt>
      <trkpt lat="45.704" lon="1.21285">
        <ele>337.08627</ele>
        <time>2026-08-08T09:09:53Z</time>
      </trkpt>
      <trkpt lat="45.70403" lon="1.21288">
        <ele>337.08627</ele>
        <time>2026-08-08T09:09:54Z</time>
      </trkpt>
      <trkpt lat="45.70406" lon="1.21292">
        <ele>337.08627</ele>
        <time>2026-08-08T09:09:55Z</time>
      </trkpt>
      <trkpt lat="45.70408" lon="1.21295">
        <ele>337.08627</ele>
        <time>2026-08-08T09:09:56Z</time>
      </trkpt>
      <trkpt lat="45.70411" lon="1.21297">
        <ele>338.08627</ele>
        <time>2026-08-08T09:09:57Z</time>
      </trkpt>
      <trkpt lat="45.70414" lon="1.21301">
        <ele>339.08627</ele>
        <time>2026-08-08T09:09:58Z</time>
      </trkpt>
      <trkpt lat="45.70417" lon="1.21304">
        <ele>339.08627</ele>
        <time>2026-08-08T09:09:59Z</time>
      </trkpt>
      <trkpt lat="45.7042" lon="1.21307">
        <ele>339.08627</ele>
        <time>2026-08-08T09:10:00Z</time>
      </trkpt>
      <trkpt lat="45.70423" lon="1.21309">
        <ele>339.08627</ele>
        <time>2026-08-08T09:10:01Z</time>
      </trkpt>
      <trkpt lat="45.70426" lon="1.21312">
        <ele>339.08627</ele>
        <time>2026-08-08T09:10:02Z</time>
      </trkpt>
      <trkpt lat="45.70429" lon="1.21315">
        <ele>339.08627</ele>
        <time>2026-08-08T09:10:03Z</time>
      </trkpt>
      <trkpt lat="45.70432" lon="1.21318">
        <ele>339.08627</ele>
        <time>2026-08-08T09:10:04Z</time>
      </trkpt>
      <trkpt lat="45.70435" lon="1.2132">
        <ele>340.08627</ele>
        <time>2026-08-08T09:10:05Z</time>
      </trkpt>
      <trkpt lat="45.70438" lon="1.21323">
        <ele>340.08627</ele>
        <time>2026-08-08T09:10:06Z</time>
      </trkpt>
      <trkpt lat="45.70441" lon="1.21325">
        <ele>340.08627</ele>
        <time>2026-08-08T09:10:07Z</time>
      </trkpt>
      <trkpt lat="45.70444" lon="1.21329">
        <ele>340.08627</ele>
        <time>2026-08-08T09:10:08Z</time>
      </trkpt>
      <trkpt lat="45.70446" lon="1.21331">
        <ele>340.08627</ele>
        <time>2026-08-08T09:10:09Z</time>
      </trkpt>
      <trkpt lat="45.70449" lon="1.21334">
        <ele>340.08627</ele>
        <time>2026-08-08T09:10:10Z</time>
      </trkpt>
      <trkpt lat="45.70452" lon="1.21337">
        <ele>340.08627</ele>
        <time>2026-08-08T09:10:11Z</time>
      </trkpt>
      <trkpt lat="45.70455" lon="1.2134">
        <ele>340.08627</ele>
        <time>2026-08-08T09:10:12Z</time>
      </trkpt>
      <trkpt lat="45.70457" lon="1.21343">
        <ele>340.08627</ele>
        <time>2026-08-08T09:10:13Z</time>
      </trkpt>
      <trkpt lat="45.70463" lon="1.21349">
        <ele>341.08627</ele>
        <time>2026-08-08T09:10:15Z</time>
      </trkpt>
      <trkpt lat="45.70466" lon="1.21352">
        <ele>341.08627</ele>
        <time>2026-08-08T09:10:16Z</time>
      </trkpt>
      <trkpt lat="45.70468" lon="1.21354">
        <ele>341.08627</ele>
        <time>2026-08-08T09:10:17Z</time>
      </trkpt>
      <trkpt lat="45.70471" lon="1.21356">
        <ele>341.08627</ele>
        <time>2026-08-08T09:10:18Z</time>
      </trkpt>
      <trkpt lat="45.70473" lon="1.21359">
        <ele>341.08627</ele>
        <time>2026-08-08T09:10:19Z</time>
      </trkpt>
      <trkpt lat="45.70476" lon="1.21362">
        <ele>341.08627</ele>
        <time>2026-08-08T09:10:20Z</time>
      </trkpt>
      <trkpt lat="45.70478" lon="1.21365">
        <ele>342.08627</ele>
        <time>2026-08-08T09:10:21Z</time>
      </trkpt>
      <trkpt lat="45.70481" lon="1.21367">
        <ele>342.08627</ele>
        <time>2026-08-08T09:10:22Z</time>
      </trkpt>
      <trkpt lat="45.70483" lon="1.2137">
        <ele>342.08627</ele>
        <time>2026-08-08T09:10:23Z</time>
      </trkpt>
      <trkpt lat="45.70488" lon="1.21375">
        <ele>342.08627</ele>
        <time>2026-08-08T09:10:25Z</time>
      </trkpt>
      <trkpt lat="45.70491" lon="1.21378">
        <ele>342.08627</ele>
        <time>2026-08-08T09:10:26Z</time>
      </trkpt>
      <trkpt lat="45.70494" lon="1.21381">
        <ele>342.08627</ele>
        <time>2026-08-08T09:10:27Z</time>
      </trkpt>
      <trkpt lat="45.70499" lon="1.21386">
        <ele>343.08627</ele>
        <time>2026-08-08T09:10:29Z</time>
      </trkpt>
      <trkpt lat="45.70505" lon="1.21392">
        <ele>343.08627</ele>
        <time>2026-08-08T09:10:31Z</time>
      </trkpt>
      <trkpt lat="45.70508" lon="1.21395">
        <ele>343.08627</ele>
        <time>2026-08-08T09:10:32Z</time>
      </trkpt>
      <trkpt lat="45.70511" lon="1.21398">
        <ele>343.08627</ele>
        <time>2026-08-08T09:10:33Z</time>
      </trkpt>
      <trkpt lat="45.70515" lon="1.21404">
        <ele>344.08627</ele>
        <time>2026-08-08T09:10:35Z</time>
      </trkpt>
      <trkpt lat="45.70518" lon="1.21407">
        <ele>344.08627</ele>
        <time>2026-08-08T09:10:36Z</time>
      </trkpt>
      <trkpt lat="45.7052" lon="1.2141">
        <ele>344.08627</ele>
        <time>2026-08-08T09:10:37Z</time>
      </trkpt>
      <trkpt lat="45.70523" lon="1.21413">
        <ele>344.08627</ele>
        <time>2026-08-08T09:10:38Z</time>
      </trkpt>
      <trkpt lat="45.70525" lon="1.21416">
        <ele>345.08627</ele>
        <time>2026-08-08T09:10:39Z</time>
      </trkpt>
      <trkpt lat="45.70528" lon="1.21419">
        <ele>345.08627</ele>
        <time>2026-08-08T09:10:40Z</time>
      </trkpt>
      <trkpt lat="45.70532" lon="1.21426">
        <ele>345.08627</ele>
        <time>2026-08-08T09:10:42Z</time>
      </trkpt>
      <trkpt lat="45.70534" lon="1.21429">
        <ele>346.08627</ele>
        <time>2026-08-08T09:10:43Z</time>
      </trkpt>
      <trkpt lat="45.70536" lon="1.21433">
        <ele>346.08627</ele>
        <time>2026-08-08T09:10:44Z</time>
      </trkpt>
      <trkpt lat="45.7054" lon="1.2144">
        <ele>346.08627</ele>
        <time>2026-08-08T09:10:46Z</time>
      </trkpt>
      <trkpt lat="45.70544" lon="1.21447">
        <ele>347.08627</ele>
        <time>2026-08-08T09:10:48Z</time>
      </trkpt>
      <trkpt lat="45.70546" lon="1.21451">
        <ele>347.08627</ele>
        <time>2026-08-08T09:10:49Z</time>
      </trkpt>
      <trkpt lat="45.70548" lon="1.21454">
        <ele>347.08627</ele>
        <time>2026-08-08T09:10:50Z</time>
      </trkpt>
      <trkpt lat="45.7055" lon="1.21458">
        <ele>347.08627</ele>
        <time>2026-08-08T09:10:51Z</time>
      </trkpt>
      <trkpt lat="45.70551" lon="1.21462">
        <ele>347.08627</ele>
        <time>2026-08-08T09:10:52Z</time>
      </trkpt>
      <trkpt lat="45.70556" lon="1.21469">
        <ele>347.08627</ele>
        <time>2026-08-08T09:10:54Z</time>
      </trkpt>
      <trkpt lat="45.7056" lon="1.21476">
        <ele>348.08627</ele>
        <time>2026-08-08T09:10:56Z</time>
      </trkpt>
      <trkpt lat="45.70564" lon="1.21483">
        <ele>348.08627</ele>
        <time>2026-08-08T09:10:58Z</time>
      </trkpt>
      <trkpt lat="45.70566" lon="1.21486">
        <ele>349.08627</ele>
        <time>2026-08-08T09:10:59Z</time>
      </trkpt>
      <trkpt lat="45.70568" lon="1.21489">
        <ele>349.08627</ele>
        <time>2026-08-08T09:11:00Z</time>
      </trkpt>
      <trkpt lat="45.7057" lon="1.21493">
        <ele>349.08627</ele>
        <time>2026-08-08T09:11:01Z</time>
      </trkpt>
      <trkpt lat="45.70571" lon="1.21495">
        <ele>350.08627</ele>
        <time>2026-08-08T09:11:02Z</time>
      </trkpt>
      <trkpt lat="45.70573" lon="1.21499">
        <ele>350.08627</ele>
        <time>2026-08-08T09:11:03Z</time>
      </trkpt>
      <trkpt lat="45.70574" lon="1.21501">
        <ele>350.08627</ele>
        <time>2026-08-08T09:11:04Z</time>
      </trkpt>
      <trkpt lat="45.70576" lon="1.21504">
        <ele>350.08627</ele>
        <time>2026-08-08T09:11:05Z</time>
      </trkpt>
      <trkpt lat="45.70577" lon="1.21507">
        <ele>351.08627</ele>
        <time>2026-08-08T09:11:06Z</time>
      </trkpt>
      <trkpt lat="45.7058" lon="1.2151">
        <ele>351.08627</ele>
        <time>2026-08-08T09:11:07Z</time>
      </trkpt>
      <trkpt lat="45.70581" lon="1.21513">
        <ele>351.08627</ele>
        <time>2026-08-08T09:11:08Z</time>
      </trkpt>
      <trkpt lat="45.70584" lon="1.21516">
        <ele>350.08627</ele>
        <time>2026-08-08T09:11:09Z</time>
      </trkpt>
      <trkpt lat="45.70589" lon="1.21522">
        <ele>351.08627</ele>
        <time>2026-08-08T09:11:11Z</time>
      </trkpt>
      <trkpt lat="45.7059" lon="1.21525">
        <ele>351.08627</ele>
        <time>2026-08-08T09:11:12Z</time>
      </trkpt>
      <trkpt lat="45.70596" lon="1.21529">
        <ele>352.08627</ele>
        <time>2026-08-08T09:11:14Z</time>
      </trkpt>
      <trkpt lat="45.70598" lon="1.2153">
        <ele>353.08627</ele>
        <time>2026-08-08T09:11:15Z</time>
      </trkpt>
      <trkpt lat="45.706" lon="1.2153">
        <ele>352.08627</ele>
        <time>2026-08-08T09:11:16Z</time>
      </trkpt>
      <trkpt lat="45.70601" lon="1.21531">
        <ele>353.08627</ele>
        <time>2026-08-08T09:11:17Z</time>
      </trkpt>
      <trkpt lat="45.70603" lon="1.21533">
        <ele>353.08627</ele>
        <time>2026-08-08T09:11:18Z</time>
      </trkpt>
      <trkpt lat="45.70605" lon="1.21533">
        <ele>353.08627</ele>
        <time>2026-08-08T09:11:19Z</time>
      </trkpt>
      <trkpt lat="45.70606" lon="1.21534">
        <ele>353.08627</ele>
        <time>2026-08-08T09:11:20Z</time>
      </trkpt>
      <trkpt lat="45.70608" lon="1.21536">
        <ele>353.08627</ele>
        <time>2026-08-08T09:11:21Z</time>
      </trkpt>
      <trkpt lat="45.70612" lon="1.2154">
        <ele>353.08627</ele>
        <time>2026-08-08T09:11:23Z</time>
      </trkpt>
      <trkpt lat="45.70615" lon="1.21542">
        <ele>353.08627</ele>
        <time>2026-08-08T09:11:24Z</time>
      </trkpt>
      <trkpt lat="45.70617" lon="1.21545">
        <ele>354.08627</ele>
        <time>2026-08-08T09:11:25Z</time>
      </trkpt>
      <trkpt lat="45.70621" lon="1.21551">
        <ele>355.08627</ele>
        <time>2026-08-08T09:11:27Z</time>
      </trkpt>
      <trkpt lat="45.70622" lon="1.21553">
        <ele>355.08627</ele>
        <time>2026-08-08T09:11:28Z</time>
      </trkpt>
      <trkpt lat="45.70624" lon="1.21557">
        <ele>355.08627</ele>
        <time>2026-08-08T09:11:29Z</time>
      </trkpt>
      <trkpt lat="45.70626" lon="1.2156">
        <ele>356.08627</ele>
        <time>2026-08-08T09:11:30Z</time>
      </trkpt>
      <trkpt lat="45.70629" lon="1.21562">
        <ele>356.08627</ele>
        <time>2026-08-08T09:11:31Z</time>
      </trkpt>
      <trkpt lat="45.70631" lon="1.21565">
        <ele>357.08627</ele>
        <time>2026-08-08T09:11:32Z</time>
      </trkpt>
      <trkpt lat="45.70633" lon="1.21568">
        <ele>357.08627</ele>
        <time>2026-08-08T09:11:33Z</time>
      </trkpt>
      <trkpt lat="45.70636" lon="1.2157">
        <ele>356.08627</ele>
        <time>2026-08-08T09:11:34Z</time>
      </trkpt>
      <trkpt lat="45.70638" lon="1.21574">
        <ele>355.08627</ele>
        <time>2026-08-08T09:11:35Z</time>
      </trkpt>
      <trkpt lat="45.7064" lon="1.21577">
        <ele>356.08627</ele>
        <time>2026-08-08T09:11:36Z</time>
      </trkpt>
      <trkpt lat="45.70643" lon="1.21579">
        <ele>357.08627</ele>
        <time>2026-08-08T09:11:37Z</time>
      </trkpt>
      <trkpt lat="45.70645" lon="1.21582">
        <ele>356.08627</ele>
        <time>2026-08-08T09:11:38Z</time>
      </trkpt>
      <trkpt lat="45.70648" lon="1.21585">
        <ele>356.08627</ele>
        <time>2026-08-08T09:11:39Z</time>
      </trkpt>
      <trkpt lat="45.70651" lon="1.21587">
        <ele>357.08627</ele>
        <time>2026-08-08T09:11:40Z</time>
      </trkpt>
      <trkpt lat="45.70654" lon="1.21589">
        <ele>357.08627</ele>
        <time>2026-08-08T09:11:41Z</time>
      </trkpt>
      <trkpt lat="45.70657" lon="1.21592">
        <ele>357.08627</ele>
        <time>2026-08-08T09:11:42Z</time>
      </trkpt>
      <trkpt lat="45.7066" lon="1.21594">
        <ele>356.08627</ele>
        <time>2026-08-08T09:11:43Z</time>
      </trkpt>
      <trkpt lat="45.70663" lon="1.21595">
        <ele>357.08627</ele>
        <time>2026-08-08T09:11:44Z</time>
      </trkpt>
      <trkpt lat="45.70666" lon="1.21595">
        <ele>356.08627</ele>
        <time>2026-08-08T09:11:45Z</time>
      </trkpt>
      <trkpt lat="45.70669" lon="1.21597">
        <ele>355.08627</ele>
        <time>2026-08-08T09:11:46Z</time>
      </trkpt>
      <trkpt lat="45.70672" lon="1.21598">
        <ele>355.08627</ele>
        <time>2026-08-08T09:11:47Z</time>
      </trkpt>
      <trkpt lat="45.70675" lon="1.21601">
        <ele>357.08627</ele>
        <time>2026-08-08T09:11:48Z</time>
      </trkpt>
      <trkpt lat="45.70679" lon="1.21603">
        <ele>357.08627</ele>
        <time>2026-08-08T09:11:49Z</time>
      </trkpt>
      <trkpt lat="45.70683" lon="1.21604">
        <ele>358.08627</ele>
        <time>2026-08-08T09:11:50Z</time>
      </trkpt>
      <trkpt lat="45.70686" lon="1.21607">
        <ele>358.08627</ele>
        <time>2026-08-08T09:11:51Z</time>
      </trkpt>
      <trkpt lat="45.70689" lon="1.21611">
        <ele>358.08627</ele>
        <time>2026-08-08T09:11:52Z</time>
      </trkpt>
      <trkpt lat="45.70692" lon="1.21613">
        <ele>358.08627</ele>
        <time>2026-08-08T09:11:53Z</time>
      </trkpt>
      <trkpt lat="45.70694" lon="1.21613">
        <ele>358.08627</ele>
        <time>2026-08-08T09:11:54Z</time>
      </trkpt>
      <trkpt lat="45.70697" lon="1.21615">
        <ele>358.08627</ele>
        <time>2026-08-08T09:11:55Z</time>
      </trkpt>
      <trkpt lat="45.707" lon="1.21617">
        <ele>358.08627</ele>
        <time>2026-08-08T09:11:56Z</time>
      </trkpt>
      <trkpt lat="45.70702" lon="1.21618">
        <ele>358.08627</ele>
        <time>2026-08-08T09:11:57Z</time>
      </trkpt>
      <trkpt lat="45.70705" lon="1.2162">
        <ele>358.08627</ele>
        <time>2026-08-08T09:11:58Z</time>
      </trkpt>
      <trkpt lat="45.70707" lon="1.21622">
        <ele>358.08627</ele>
        <time>2026-08-08T09:11:59Z</time>
      </trkpt>
      <trkpt lat="45.7071" lon="1.21624">
        <ele>357.08627</ele>
        <time>2026-08-08T09:12:00Z</time>
      </trkpt>
      <trkpt lat="45.70713" lon="1.21627">
        <ele>357.08627</ele>
        <time>2026-08-08T09:12:01Z</time>
      </trkpt>
      <trkpt lat="45.70716" lon="1.21632">
        <ele>356.08627</ele>
        <time>2026-08-08T09:12:02Z</time>
      </trkpt>
      <trkpt lat="45.7072" lon="1.21638">
        <ele>355.08627</ele>
        <time>2026-08-08T09:12:03Z</time>
      </trkpt>
      <trkpt lat="45.70721" lon="1.21642">
        <ele>355.08627</ele>
        <time>2026-08-08T09:12:04Z</time>
      </trkpt>
      <trkpt lat="45.70722" lon="1.21646">
        <ele>355.08627</ele>
        <time>2026-08-08T09:12:05Z</time>
      </trkpt>
      <trkpt lat="45.70724" lon="1.21651">
        <ele>355.08627</ele>
        <time>2026-08-08T09:12:06Z</time>
      </trkpt>
      <trkpt lat="45.70727" lon="1.21656">
        <ele>355.08627</ele>
        <time>2026-08-08T09:12:07Z</time>
      </trkpt>
      <trkpt lat="45.7073" lon="1.21662">
        <ele>354.08627</ele>
        <time>2026-08-08T09:12:08Z</time>
      </trkpt>
      <trkpt lat="45.70733" lon="1.21666">
        <ele>354.08627</ele>
        <time>2026-08-08T09:12:09Z</time>
      </trkpt>
      <trkpt lat="45.70736" lon="1.2167">
        <ele>354.08627</ele>
        <time>2026-08-08T09:12:10Z</time>
      </trkpt>
      <trkpt lat="45.7074" lon="1.21676">
        <ele>354.08627</ele>
        <time>2026-08-08T09:12:11Z</time>
      </trkpt>
      <trkpt lat="45.70744" lon="1.21682">
        <ele>355.08627</ele>
        <time>2026-08-08T09:12:12Z</time>
      </trkpt>
      <trkpt lat="45.70748" lon="1.21688">
        <ele>354.08627</ele>
        <time>2026-08-08T09:12:13Z</time>
      </trkpt>
      <trkpt lat="45.7075" lon="1.21694">
        <ele>354.08627</ele>
        <time>2026-08-08T09:12:14Z</time>
      </trkpt>
      <trkpt lat="45.70753" lon="1.21698">
        <ele>353.08627</ele>
        <time>2026-08-08T09:12:15Z</time>
      </trkpt>
      <trkpt lat="45.70756" lon="1.21703">
        <ele>353.08627</ele>
        <time>2026-08-08T09:12:16Z</time>
      </trkpt>
      <trkpt lat="45.70759" lon="1.21708">
        <ele>353.08627</ele>
        <time>2026-08-08T09:12:17Z</time>
      </trkpt>
      <trkpt lat="45.70762" lon="1.21712">
        <ele>352.08627</ele>
        <time>2026-08-08T09:12:18Z</time>
      </trkpt>
      <trkpt lat="45.70764" lon="1.21715">
        <ele>352.08627</ele>
        <time>2026-08-08T09:12:19Z</time>
      </trkpt>
      <trkpt lat="45.70767" lon="1.21718">
        <ele>352.08627</ele>
        <time>2026-08-08T09:12:20Z</time>
      </trkpt>
      <trkpt lat="45.7077" lon="1.21721">
        <ele>352.08627</ele>
        <time>2026-08-08T09:12:21Z</time>
      </trkpt>
      <trkpt lat="45.70772" lon="1.21726">
        <ele>352.08627</ele>
        <time>2026-08-08T09:12:22Z</time>
      </trkpt>
      <trkpt lat="45.70774" lon="1.2173">
        <ele>352.08627</ele>
        <time>2026-08-08T09:12:23Z</time>
      </trkpt>
      <trkpt lat="45.70776" lon="1.21735">
        <ele>352.08627</ele>
        <time>2026-08-08T09:12:24Z</time>
      </trkpt>
      <trkpt lat="45.70778" lon="1.2174">
        <ele>351.08627</ele>
        <time>2026-08-08T09:12:25Z</time>
      </trkpt>
      <trkpt lat="45.70778" lon="1.21744">
        <ele>352.08627</ele>
        <time>2026-08-08T09:12:26Z</time>
      </trkpt>
      <trkpt lat="45.70781" lon="1.21748">
        <ele>352.08627</ele>
        <time>2026-08-08T09:12:27Z</time>
      </trkpt>
      <trkpt lat="45.70782" lon="1.21752">
        <ele>352.08627</ele>
        <time>2026-08-08T09:12:28Z</time>
      </trkpt>
      <trkpt lat="45.70785" lon="1.21757">
        <ele>351.08627</ele>
        <time>2026-08-08T09:12:29Z</time>
      </trkpt>
      <trkpt lat="45.70787" lon="1.21762">
        <ele>350.08627</ele>
        <time>2026-08-08T09:12:30Z</time>
      </trkpt>
      <trkpt lat="45.70791" lon="1.21765">
        <ele>348.08627</ele>
        <time>2026-08-08T09:12:31Z</time>
      </trkpt>
      <trkpt lat="45.70793" lon="1.21768">
        <ele>348.08627</ele>
        <time>2026-08-08T09:12:32Z</time>
      </trkpt>
      <trkpt lat="45.70795" lon="1.21772">
        <ele>347.08627</ele>
        <time>2026-08-08T09:12:33Z</time>
      </trkpt>
      <trkpt lat="45.70798" lon="1.21774">
        <ele>346.08627</ele>
        <time>2026-08-08T09:12:34Z</time>
      </trkpt>
      <trkpt lat="45.708" lon="1.21776">
        <ele>345.08627</ele>
        <time>2026-08-08T09:12:35Z</time>
      </trkpt>
      <trkpt lat="45.70802" lon="1.21779">
        <ele>346.08627</ele>
        <time>2026-08-08T09:12:36Z</time>
      </trkpt>
      <trkpt lat="45.70804" lon="1.21782">
        <ele>345.08627</ele>
        <time>2026-08-08T09:12:37Z</time>
      </trkpt>
      <trkpt lat="45.70805" lon="1.21784">
        <ele>345.08627</ele>
        <time>2026-08-08T09:12:38Z</time>
      </trkpt>
      <trkpt lat="45.70807" lon="1.21787">
        <ele>345.08627</ele>
        <time>2026-08-08T09:12:39Z</time>
      </trkpt>
      <trkpt lat="45.70809" lon="1.2179">
        <ele>345.08627</ele>
        <time>2026-08-08T09:12:40Z</time>
      </trkpt>
      <trkpt lat="45.70811" lon="1.21793">
        <ele>345.08627</ele>
        <time>2026-08-08T09:12:41Z</time>
      </trkpt>
      <trkpt lat="45.70813" lon="1.21796">
        <ele>345.08627</ele>
        <time>2026-08-08T09:12:42Z</time>
      </trkpt>
      <trkpt lat="45.70814" lon="1.21799">
        <ele>345.08627</ele>
        <time>2026-08-08T09:12:43Z</time>
      </trkpt>
      <trkpt lat="45.70816" lon="1.21802">
        <ele>345.08627</ele>
        <time>2026-08-08T09:12:44Z</time>
      </trkpt>
      <trkpt lat="45.70819" lon="1.21806">
        <ele>345.08627</ele>
        <time>2026-08-08T09:12:45Z</time>
      </trkpt>
      <trkpt lat="45.7082" lon="1.2181">
        <ele>345.08627</ele>
        <time>2026-08-08T09:12:46Z</time>
      </trkpt>
      <trkpt lat="45.70823" lon="1.21814">
        <ele>345.08627</ele>
        <time>2026-08-08T09:12:47Z</time>
      </trkpt>
      <trkpt lat="45.70827" lon="1.21818">
        <ele>344.08627</ele>
        <time>2026-08-08T09:12:48Z</time>
      </trkpt>
      <trkpt lat="45.7083" lon="1.21822">
        <ele>343.08627</ele>
        <time>2026-08-08T09:12:49Z</time>
      </trkpt>
      <trkpt lat="45.70834" lon="1.21826">
        <ele>342.08627</ele>
        <time>2026-08-08T09:12:50Z</time>
      </trkpt>
      <trkpt lat="45.70838" lon="1.21831">
        <ele>341.08627</ele>
        <time>2026-08-08T09:12:51Z</time>
      </trkpt>
      <trkpt lat="45.70841" lon="1.21833">
        <ele>341.08627</ele>
        <time>2026-08-08T09:12:52Z</time>
      </trkpt>
      <trkpt lat="45.70844" lon="1.21836">
        <ele>341.08627</ele>
        <time>2026-08-08T09:12:53Z</time>
      </trkpt>
      <trkpt lat="45.70847" lon="1.21837">
        <ele>340.08627</ele>
        <time>2026-08-08T09:12:54Z</time>
      </trkpt>
      <trkpt lat="45.7085" lon="1.21839">
        <ele>340.08627</ele>
        <time>2026-08-08T09:12:55Z</time>
      </trkpt>
      <trkpt lat="45.70853" lon="1.21841">
        <ele>339.08627</ele>
        <time>2026-08-08T09:12:56Z</time>
      </trkpt>
      <trkpt lat="45.70857" lon="1.21842">
        <ele>339.08627</ele>
        <time>2026-08-08T09:12:57Z</time>
      </trkpt>
      <trkpt lat="45.70862" lon="1.21842">
        <ele>339.08627</ele>
        <time>2026-08-08T09:12:59Z</time>
      </trkpt>
      <trkpt lat="45.70866" lon="1.21842">
        <ele>339.08627</ele>
        <time>2026-08-08T09:13:00Z</time>
      </trkpt>
      <trkpt lat="45.7087" lon="1.21843">
        <ele>339.08627</ele>
        <time>2026-08-08T09:13:01Z</time>
      </trkpt>
      <trkpt lat="45.70875" lon="1.21842">
        <ele>339.08627</ele>
        <time>2026-08-08T09:13:02Z</time>
      </trkpt>
      <trkpt lat="45.70879" lon="1.21841">
        <ele>338.08627</ele>
        <time>2026-08-08T09:13:03Z</time>
      </trkpt>
      <trkpt lat="45.70882" lon="1.21841">
        <ele>338.08627</ele>
        <time>2026-08-08T09:13:04Z</time>
      </trkpt>
      <trkpt lat="45.70884" lon="1.2184">
        <ele>337.08627</ele>
        <time>2026-08-08T09:13:05Z</time>
      </trkpt>
      <trkpt lat="45.70888" lon="1.2184">
        <ele>337.08627</ele>
        <time>2026-08-08T09:13:06Z</time>
      </trkpt>
      <trkpt lat="45.7089" lon="1.21839">
        <ele>337.08627</ele>
        <time>2026-08-08T09:13:07Z</time>
      </trkpt>
      <trkpt lat="45.70892" lon="1.21839">
        <ele>337.08627</ele>
        <time>2026-08-08T09:13:08Z</time>
      </trkpt>
      <trkpt lat="45.70894" lon="1.2184">
        <ele>338.08627</ele>
        <time>2026-08-08T09:13:09Z</time>
      </trkpt>
      <trkpt lat="45.70897" lon="1.21839">
        <ele>337.08627</ele>
        <time>2026-08-08T09:13:10Z</time>
      </trkpt>
      <trkpt lat="45.70901" lon="1.21839">
        <ele>337.08627</ele>
        <time>2026-08-08T09:13:11Z</time>
      </trkpt>
      <trkpt lat="45.70904" lon="1.21839">
        <ele>337.08627</ele>
        <time>2026-08-08T09:13:12Z</time>
      </trkpt>
      <trkpt lat="45.70907" lon="1.21839">
        <ele>337.08627</ele>
        <time>2026-08-08T09:13:13Z</time>
      </trkpt>
      <trkpt lat="45.7091" lon="1.21839">
        <ele>337.08627</ele>
        <time>2026-08-08T09:13:14Z</time>
      </trkpt>
      <trkpt lat="45.70913" lon="1.21838">
        <ele>338.08627</ele>
        <time>2026-08-08T09:13:15Z</time>
      </trkpt>
      <trkpt lat="45.70916" lon="1.21837">
        <ele>337.08627</ele>
        <time>2026-08-08T09:13:16Z</time>
      </trkpt>
      <trkpt lat="45.70919" lon="1.21837">
        <ele>337.08627</ele>
        <time>2026-08-08T09:13:17Z</time>
      </trkpt>
      <trkpt lat="45.70921" lon="1.21838">
        <ele>337.08627</ele>
        <time>2026-08-08T09:13:18Z</time>
      </trkpt>
      <trkpt lat="45.70924" lon="1.21838">
        <ele>338.08627</ele>
        <time>2026-08-08T09:13:19Z</time>
      </trkpt>
      <trkpt lat="45.70926" lon="1.21838">
        <ele>338.08627</ele>
        <time>2026-08-08T09:13:20Z</time>
      </trkpt>
      <trkpt lat="45.70928" lon="1.21838">
        <ele>338.08627</ele>
        <time>2026-08-08T09:13:21Z</time>
      </trkpt>
      <trkpt lat="45.7093" lon="1.21839">
        <ele>339.08627</ele>
        <time>2026-08-08T09:13:22Z</time>
      </trkpt>
      <trkpt lat="45.70932" lon="1.21839">
        <ele>339.08627</ele>
        <time>2026-08-08T09:13:23Z</time>
      </trkpt>
      <trkpt lat="45.70933" lon="1.21838">
        <ele>339.08627</ele>
        <time>2026-08-08T09:13:24Z</time>
      </trkpt>
      <trkpt lat="45.70936" lon="1.21838">
        <ele>340.08627</ele>
        <time>2026-08-08T09:13:25Z</time>
      </trkpt>
      <trkpt lat="45.70938" lon="1.21838">
        <ele>340.08627</ele>
        <time>2026-08-08T09:13:26Z</time>
      </trkpt>
      <trkpt lat="45.7094" lon="1.21838">
        <ele>340.08627</ele>
        <time>2026-08-08T09:13:27Z</time>
      </trkpt>
      <trkpt lat="45.70941" lon="1.21837">
        <ele>340.08627</ele>
        <time>2026-08-08T09:13:28Z</time>
      </trkpt>
      <trkpt lat="45.70946" lon="1.21834">
        <ele>342.08627</ele>
        <time>2026-08-08T09:13:30Z</time>
      </trkpt>
      <trkpt lat="45.7095" lon="1.21831">
        <ele>342.08627</ele>
        <time>2026-08-08T09:13:31Z</time>
      </trkpt>
      <trkpt lat="45.70952" lon="1.21829">
        <ele>342.08627</ele>
        <time>2026-08-08T09:13:32Z</time>
      </trkpt>
      <trkpt lat="45.70955" lon="1.21828">
        <ele>343.08627</ele>
        <time>2026-08-08T09:13:33Z</time>
      </trkpt>
      <trkpt lat="45.70959" lon="1.21826">
        <ele>343.08627</ele>
        <time>2026-08-08T09:13:34Z</time>
      </trkpt>
      <trkpt lat="45.70962" lon="1.21825">
        <ele>344.08627</ele>
        <time>2026-08-08T09:13:35Z</time>
      </trkpt>
      <trkpt lat="45.70965" lon="1.21824">
        <ele>344.08627</ele>
        <time>2026-08-08T09:13:36Z</time>
      </trkpt>
      <trkpt lat="45.70968" lon="1.21823">
        <ele>345.08627</ele>
        <time>2026-08-08T09:13:37Z</time>
      </trkpt>
      <trkpt lat="45.70971" lon="1.21823">
        <ele>345.08627</ele>
        <time>2026-08-08T09:13:38Z</time>
      </trkpt>
      <trkpt lat="45.70976" lon="1.21824">
        <ele>346.08627</ele>
        <time>2026-08-08T09:13:40Z</time>
      </trkpt>
      <trkpt lat="45.70979" lon="1.21825">
        <ele>347.08627</ele>
        <time>2026-08-08T09:13:41Z</time>
      </trkpt>
      <trkpt lat="45.70982" lon="1.21826">
        <ele>347.08627</ele>
        <time>2026-08-08T09:13:42Z</time>
      </trkpt>
      <trkpt lat="45.70985" lon="1.21827">
        <ele>348.08627</ele>
        <time>2026-08-08T09:13:43Z</time>
      </trkpt>
      <trkpt lat="45.70988" lon="1.21827">
        <ele>348.08627</ele>
        <time>2026-08-08T09:13:44Z</time>
      </trkpt>
      <trkpt lat="45.70991" lon="1.21828">
        <ele>349.08627</ele>
        <time>2026-08-08T09:13:45Z</time>
      </trkpt>
      <trkpt lat="45.70994" lon="1.21828">
        <ele>349.08627</ele>
        <time>2026-08-08T09:13:46Z</time>
      </trkpt>
      <trkpt lat="45.70998" lon="1.21828">
        <ele>349.08627</ele>
        <time>2026-08-08T09:13:47Z</time>
      </trkpt>
      <trkpt lat="45.71001" lon="1.21827">
        <ele>349.08627</ele>
        <time>2026-08-08T09:13:48Z</time>
      </trkpt>
      <trkpt lat="45.71005" lon="1.21828">
        <ele>351.08627</ele>
        <time>2026-08-08T09:13:49Z</time>
      </trkpt>
      <trkpt lat="45.71009" lon="1.21827">
        <ele>352.08627</ele>
        <time>2026-08-08T09:13:50Z</time>
      </trkpt>
      <trkpt lat="45.71013" lon="1.21827">
        <ele>353.08627</ele>
        <time>2026-08-08T09:13:51Z</time>
      </trkpt>
      <trkpt lat="45.71016" lon="1.21826">
        <ele>354.08627</ele>
        <time>2026-08-08T09:13:52Z</time>
      </trkpt>
      <trkpt lat="45.7102" lon="1.21825">
        <ele>354.08627</ele>
        <time>2026-08-08T09:13:53Z</time>
      </trkpt>
      <trkpt lat="45.71023" lon="1.21826">
        <ele>354.08627</ele>
        <time>2026-08-08T09:13:54Z</time>
      </trkpt>
      <trkpt lat="45.71026" lon="1.21826">
        <ele>355.08627</ele>
        <time>2026-08-08T09:13:55Z</time>
      </trkpt>
      <trkpt lat="45.7103" lon="1.21826">
        <ele>355.08627</ele>
        <time>2026-08-08T09:13:56Z</time>
      </trkpt>
      <trkpt lat="45.71033" lon="1.21826">
        <ele>355.08627</ele>
        <time>2026-08-08T09:13:57Z</time>
      </trkpt>
      <trkpt lat="45.71036" lon="1.21827">
        <ele>355.08627</ele>
        <time>2026-08-08T09:13:58Z</time>
      </trkpt>
      <trkpt lat="45.71038" lon="1.21826">
        <ele>355.08627</ele>
        <time>2026-08-08T09:13:59Z</time>
      </trkpt>
      <trkpt lat="45.71041" lon="1.21826">
        <ele>355.08627</ele>
        <time>2026-08-08T09:14:00Z</time>
      </trkpt>
      <trkpt lat="45.71044" lon="1.21826">
        <ele>356.08627</ele>
        <time>2026-08-08T09:14:01Z</time>
      </trkpt>
      <trkpt lat="45.71047" lon="1.21825">
        <ele>356.08627</ele>
        <time>2026-08-08T09:14:02Z</time>
      </trkpt>
      <trkpt lat="45.71049" lon="1.21826">
        <ele>356.08627</ele>
        <time>2026-08-08T09:14:03Z</time>
      </trkpt>
      <trkpt lat="45.71053" lon="1.21825">
        <ele>356.08627</ele>
        <time>2026-08-08T09:14:04Z</time>
      </trkpt>
      <trkpt lat="45.71056" lon="1.21825">
        <ele>357.08627</ele>
        <time>2026-08-08T09:14:05Z</time>
      </trkpt>
      <trkpt lat="45.71059" lon="1.21824">
        <ele>357.08627</ele>
        <time>2026-08-08T09:14:06Z</time>
      </trkpt>
      <trkpt lat="45.71062" lon="1.21824">
        <ele>357.08627</ele>
        <time>2026-08-08T09:14:07Z</time>
      </trkpt>
      <trkpt lat="45.71068" lon="1.21824">
        <ele>357.08627</ele>
        <time>2026-08-08T09:14:09Z</time>
      </trkpt>
      <trkpt lat="45.71071" lon="1.21825">
        <ele>357.08627</ele>
        <time>2026-08-08T09:14:10Z</time>
      </trkpt>
      <trkpt lat="45.71076" lon="1.21824">
        <ele>358.08627</ele>
        <time>2026-08-08T09:14:12Z</time>
      </trkpt>
      <trkpt lat="45.71079" lon="1.21824">
        <ele>358.08627</ele>
        <time>2026-08-08T09:14:13Z</time>
      </trkpt>
      <trkpt lat="45.71082" lon="1.21824">
        <ele>359.08627</ele>
        <time>2026-08-08T09:14:14Z</time>
      </trkpt>
      <trkpt lat="45.71085" lon="1.21824">
        <ele>359.08627</ele>
        <time>2026-08-08T09:14:15Z</time>
      </trkpt>
      <trkpt lat="45.71088" lon="1.21824">
        <ele>359.08627</ele>
        <time>2026-08-08T09:14:16Z</time>
      </trkpt>
      <trkpt lat="45.71091" lon="1.21824">
        <ele>360.08627</ele>
        <time>2026-08-08T09:14:17Z</time>
      </trkpt>
      <trkpt lat="45.71094" lon="1.21824">
        <ele>360.08627</ele>
        <time>2026-08-08T09:14:18Z</time>
      </trkpt>
      <trkpt lat="45.71097" lon="1.21825">
        <ele>361.08627</ele>
        <time>2026-08-08T09:14:19Z</time>
      </trkpt>
      <trkpt lat="45.711" lon="1.21825">
        <ele>361.08627</ele>
        <time>2026-08-08T09:14:20Z</time>
      </trkpt>
      <trkpt lat="45.71103" lon="1.21824">
        <ele>361.08627</ele>
        <time>2026-08-08T09:14:21Z</time>
      </trkpt>
      <trkpt lat="45.71106" lon="1.21824">
        <ele>362.08627</ele>
        <time>2026-08-08T09:14:22Z</time>
      </trkpt>
      <trkpt lat="45.71109" lon="1.21824">
        <ele>362.08627</ele>
        <time>2026-08-08T09:14:23Z</time>
      </trkpt>
      <trkpt lat="45.71112" lon="1.21824">
        <ele>362.08627</ele>
        <time>2026-08-08T09:14:24Z</time>
      </trkpt>
      <trkpt lat="45.71118" lon="1.21823">
        <ele>363.08627</ele>
        <time>2026-08-08T09:14:26Z</time>
      </trkpt>
      <trkpt lat="45.71121" lon="1.21823">
        <ele>363.08627</ele>
        <time>2026-08-08T09:14:27Z</time>
      </trkpt>
      <trkpt lat="45.71124" lon="1.21822">
        <ele>363.08627</ele>
        <time>2026-08-08T09:14:28Z</time>
      </trkpt>
      <trkpt lat="45.71127" lon="1.21822">
        <ele>364.08627</ele>
        <time>2026-08-08T09:14:29Z</time>
      </trkpt>
      <trkpt lat="45.71129" lon="1.21822">
        <ele>364.08627</ele>
        <time>2026-08-08T09:14:30Z</time>
      </trkpt>
      <trkpt lat="45.71132" lon="1.21822">
        <ele>365.08627</ele>
        <time>2026-08-08T09:14:31Z</time>
      </trkpt>
      <trkpt lat="45.71135" lon="1.21823">
        <ele>365.08627</ele>
        <time>2026-08-08T09:14:32Z</time>
      </trkpt>
      <trkpt lat="45.71138" lon="1.21824">
        <ele>365.08627</ele>
        <time>2026-08-08T09:14:33Z</time>
      </trkpt>
      <trkpt lat="45.71141" lon="1.21824">
        <ele>366.08627</ele>
        <time>2026-08-08T09:14:34Z</time>
      </trkpt>
      <trkpt lat="45.71144" lon="1.21825">
        <ele>366.08627</ele>
        <time>2026-08-08T09:14:35Z</time>
      </trkpt>
      <trkpt lat="45.71147" lon="1.21825">
        <ele>366.08627</ele>
        <time>2026-08-08T09:14:36Z</time>
      </trkpt>
      <trkpt lat="45.71151" lon="1.21827">
        <ele>367.08627</ele>
        <time>2026-08-08T09:14:37Z</time>
      </trkpt>
      <trkpt lat="45.71154" lon="1.21828">
        <ele>367.08627</ele>
        <time>2026-08-08T09:14:38Z</time>
      </trkpt>
      <trkpt lat="45.71158" lon="1.21829">
        <ele>367.08627</ele>
        <time>2026-08-08T09:14:39Z</time>
      </trkpt>
      <trkpt lat="45.71162" lon="1.21831">
        <ele>368.08627</ele>
        <time>2026-08-08T09:14:40Z</time>
      </trkpt>
      <trkpt lat="45.71165" lon="1.21833">
        <ele>369.08627</ele>
        <time>2026-08-08T09:14:41Z</time>
      </trkpt>
      <trkpt lat="45.71169" lon="1.21834">
        <ele>369.08627</ele>
        <time>2026-08-08T09:14:42Z</time>
      </trkpt>
      <trkpt lat="45.71172" lon="1.21835">
        <ele>369.08627</ele>
        <time>2026-08-08T09:14:43Z</time>
      </trkpt>
      <trkpt lat="45.71174" lon="1.21836">
        <ele>369.08627</ele>
        <time>2026-08-08T09:14:44Z</time>
      </trkpt>
      <trkpt lat="45.71177" lon="1.21838">
        <ele>369.08627</ele>
        <time>2026-08-08T09:14:45Z</time>
      </trkpt>
      <trkpt lat="45.71179" lon="1.21839">
        <ele>369.08627</ele>
        <time>2026-08-08T09:14:46Z</time>
      </trkpt>
      <trkpt lat="45.71182" lon="1.2184">
        <ele>369.08627</ele>
        <time>2026-08-08T09:14:47Z</time>
      </trkpt>
      <trkpt lat="45.71184" lon="1.21841">
        <ele>369.08627</ele>
        <time>2026-08-08T09:14:48Z</time>
      </trkpt>
      <trkpt lat="45.71187" lon="1.21842">
        <ele>369.08627</ele>
        <time>2026-08-08T09:14:49Z</time>
      </trkpt>
      <trkpt lat="45.71191" lon="1.21842">
        <ele>369.08627</ele>
        <time>2026-08-08T09:14:50Z</time>
      </trkpt>
      <trkpt lat="45.71194" lon="1.21844">
        <ele>369.08627</ele>
        <time>2026-08-08T09:14:51Z</time>
      </trkpt>
      <trkpt lat="45.71197" lon="1.21845">
        <ele>369.08627</ele>
        <time>2026-08-08T09:14:52Z</time>
      </trkpt>
      <trkpt lat="45.712" lon="1.21846">
        <ele>369.08627</ele>
        <time>2026-08-08T09:14:53Z</time>
      </trkpt>
      <trkpt lat="45.71202" lon="1.21847">
        <ele>369.08627</ele>
        <time>2026-08-08T09:14:54Z</time>
      </trkpt>
      <trkpt lat="45.71204" lon="1.21847">
        <ele>369.08627</ele>
        <time>2026-08-08T09:14:55Z</time>
      </trkpt>
      <trkpt lat="45.71207" lon="1.21848">
        <ele>369.08627</ele>
        <time>2026-08-08T09:14:56Z</time>
      </trkpt>
      <trkpt lat="45.7121" lon="1.2185">
        <ele>369.08627</ele>
        <time>2026-08-08T09:14:57Z</time>
      </trkpt>
      <trkpt lat="45.71213" lon="1.21851">
        <ele>369.08627</ele>
        <time>2026-08-08T09:14:58Z</time>
      </trkpt>
      <trkpt lat="45.71215" lon="1.21852">
        <ele>369.08627</ele>
        <time>2026-08-08T09:14:59Z</time>
      </trkpt>
      <trkpt lat="45.71218" lon="1.21853">
        <ele>370.08627</ele>
        <time>2026-08-08T09:15:00Z</time>
      </trkpt>
      <trkpt lat="45.71221" lon="1.21854">
        <ele>370.08627</ele>
        <time>2026-08-08T09:15:01Z</time>
      </trkpt>
      <trkpt lat="45.71224" lon="1.21855">
        <ele>370.08627</ele>
        <time>2026-08-08T09:15:02Z</time>
      </trkpt>
      <trkpt lat="45.71227" lon="1.21857">
        <ele>369.08627</ele>
        <time>2026-08-08T09:15:03Z</time>
      </trkpt>
      <trkpt lat="45.7123" lon="1.21859">
        <ele>369.08627</ele>
        <time>2026-08-08T09:15:04Z</time>
      </trkpt>
      <trkpt lat="45.71232" lon="1.21861">
        <ele>369.08627</ele>
        <time>2026-08-08T09:15:05Z</time>
      </trkpt>
      <trkpt lat="45.71235" lon="1.21863">
        <ele>369.08627</ele>
        <time>2026-08-08T09:15:06Z</time>
      </trkpt>
      <trkpt lat="45.71238" lon="1.21865">
        <ele>369.08627</ele>
        <time>2026-08-08T09:15:07Z</time>
      </trkpt>
      <trkpt lat="45.71241" lon="1.21868">
        <ele>369.08627</ele>
        <time>2026-08-08T09:15:08Z</time>
      </trkpt>
      <trkpt lat="45.71244" lon="1.2187">
        <ele>368.08627</ele>
        <time>2026-08-08T09:15:09Z</time>
      </trkpt>
      <trkpt lat="45.71246" lon="1.21873">
        <ele>369.08627</ele>
        <time>2026-08-08T09:15:10Z</time>
      </trkpt>
      <trkpt lat="45.71249" lon="1.21876">
        <ele>369.08627</ele>
        <time>2026-08-08T09:15:11Z</time>
      </trkpt>
      <trkpt lat="45.71251" lon="1.21878">
        <ele>369.08627</ele>
        <time>2026-08-08T09:15:12Z</time>
      </trkpt>
      <trkpt lat="45.71253" lon="1.2188">
        <ele>369.08627</ele>
        <time>2026-08-08T09:15:13Z</time>
      </trkpt>
      <trkpt lat="45.71255" lon="1.21882">
        <ele>369.08627</ele>
        <time>2026-08-08T09:15:14Z</time>
      </trkpt>
      <trkpt lat="45.71256" lon="1.21884">
        <ele>369.08627</ele>
        <time>2026-08-08T09:15:15Z</time>
      </trkpt>
      <trkpt lat="45.71259" lon="1.21886">
        <ele>368.08627</ele>
        <time>2026-08-08T09:15:16Z</time>
      </trkpt>
      <trkpt lat="45.71262" lon="1.21888">
        <ele>368.08627</ele>
        <time>2026-08-08T09:15:17Z</time>
      </trkpt>
      <trkpt lat="45.71264" lon="1.21891">
        <ele>367.08627</ele>
        <time>2026-08-08T09:15:18Z</time>
      </trkpt>
      <trkpt lat="45.71266" lon="1.21894">
        <ele>367.08627</ele>
        <time>2026-08-08T09:15:19Z</time>
      </trkpt>
      <trkpt lat="45.71268" lon="1.21897">
        <ele>366.08627</ele>
        <time>2026-08-08T09:15:20Z</time>
      </trkpt>
      <trkpt lat="45.7127" lon="1.21901">
        <ele>366.08627</ele>
        <time>2026-08-08T09:15:21Z</time>
      </trkpt>
      <trkpt lat="45.71271" lon="1.21904">
        <ele>365.08627</ele>
        <time>2026-08-08T09:15:22Z</time>
      </trkpt>
      <trkpt lat="45.71273" lon="1.21909">
        <ele>364.08627</ele>
        <time>2026-08-08T09:15:23Z</time>
      </trkpt>
      <trkpt lat="45.71274" lon="1.21912">
        <ele>364.08627</ele>
        <time>2026-08-08T09:15:24Z</time>
      </trkpt>
      <trkpt lat="45.71275" lon="1.21915">
        <ele>364.08627</ele>
        <time>2026-08-08T09:15:25Z</time>
      </trkpt>
      <trkpt lat="45.71276" lon="1.2192">
        <ele>363.08627</ele>
        <time>2026-08-08T09:15:26Z</time>
      </trkpt>
      <trkpt lat="45.71278" lon="1.21923">
        <ele>363.08627</ele>
        <time>2026-08-08T09:15:27Z</time>
      </trkpt>
      <trkpt lat="45.71279" lon="1.21927">
        <ele>363.08627</ele>
        <time>2026-08-08T09:15:28Z</time>
      </trkpt>
      <trkpt lat="45.7128" lon="1.21929">
        <ele>362.08627</ele>
        <time>2026-08-08T09:15:29Z</time>
      </trkpt>
      <trkpt lat="45.71281" lon="1.21933">
        <ele>362.08627</ele>
        <time>2026-08-08T09:15:30Z</time>
      </trkpt>
      <trkpt lat="45.71283" lon="1.21936">
        <ele>362.08627</ele>
        <time>2026-08-08T09:15:31Z</time>
      </trkpt>
      <trkpt lat="45.71283" lon="1.2194">
        <ele>362.08627</ele>
        <time>2026-08-08T09:15:32Z</time>
      </trkpt>
      <trkpt lat="45.71284" lon="1.21943">
        <ele>362.08627</ele>
        <time>2026-08-08T09:15:33Z</time>
      </trkpt>
      <trkpt lat="45.71284" lon="1.21947">
        <ele>361.08627</ele>
        <time>2026-08-08T09:15:34Z</time>
      </trkpt>
      <trkpt lat="45.71285" lon="1.2195">
        <ele>361.08627</ele>
        <time>2026-08-08T09:15:35Z</time>
      </trkpt>
      <trkpt lat="45.71286" lon="1.21954">
        <ele>361.08627</ele>
        <time>2026-08-08T09:15:36Z</time>
      </trkpt>
      <trkpt lat="45.71287" lon="1.21957">
        <ele>361.08627</ele>
        <time>2026-08-08T09:15:37Z</time>
      </trkpt>
      <trkpt lat="45.71287" lon="1.2196">
        <ele>360.08627</ele>
        <time>2026-08-08T09:15:38Z</time>
      </trkpt>
      <trkpt lat="45.71288" lon="1.21963">
        <ele>360.08627</ele>
        <time>2026-08-08T09:15:39Z</time>
      </trkpt>
      <trkpt lat="45.71289" lon="1.21966">
        <ele>360.08627</ele>
        <time>2026-08-08T09:15:40Z</time>
      </trkpt>
      <trkpt lat="45.7129" lon="1.2197">
        <ele>360.08627</ele>
        <time>2026-08-08T09:15:41Z</time>
      </trkpt>
      <trkpt lat="45.71291" lon="1.21974">
        <ele>360.08627</ele>
        <time>2026-08-08T09:15:42Z</time>
      </trkpt>
      <trkpt lat="45.71293" lon="1.21978">
        <ele>360.08627</ele>
        <time>2026-08-08T09:15:43Z</time>
      </trkpt>
      <trkpt lat="45.71294" lon="1.21982">
        <ele>360.08627</ele>
        <time>2026-08-08T09:15:44Z</time>
      </trkpt>
      <trkpt lat="45.71295" lon="1.21986">
        <ele>360.08627</ele>
        <time>2026-08-08T09:15:45Z</time>
      </trkpt>
      <trkpt lat="45.71295" lon="1.21989">
        <ele>360.08627</ele>
        <time>2026-08-08T09:15:46Z</time>
      </trkpt>
      <trkpt lat="45.71296" lon="1.21993">
        <ele>360.08627</ele>
        <time>2026-08-08T09:15:47Z</time>
      </trkpt>
      <trkpt lat="45.71297" lon="1.21997">
        <ele>360.08627</ele>
        <time>2026-08-08T09:15:48Z</time>
      </trkpt>
      <trkpt lat="45.71298" lon="1.22002">
        <ele>360.08627</ele>
        <time>2026-08-08T09:15:49Z</time>
      </trkpt>
      <trkpt lat="45.713" lon="1.22005">
        <ele>360.08627</ele>
        <time>2026-08-08T09:15:50Z</time>
      </trkpt>
      <trkpt lat="45.71301" lon="1.22009">
        <ele>360.08627</ele>
        <time>2026-08-08T09:15:51Z</time>
      </trkpt>
      <trkpt lat="45.71302" lon="1.22012">
        <ele>359.08627</ele>
        <time>2026-08-08T09:15:52Z</time>
      </trkpt>
      <trkpt lat="45.71304" lon="1.22015">
        <ele>359.08627</ele>
        <time>2026-08-08T09:15:53Z</time>
      </trkpt>
      <trkpt lat="45.71305" lon="1.22019">
        <ele>359.08627</ele>
        <time>2026-08-08T09:15:54Z</time>
      </trkpt>
      <trkpt lat="45.71306" lon="1.22022">
        <ele>359.08627</ele>
        <time>2026-08-08T09:15:55Z</time>
      </trkpt>
      <trkpt lat="45.71308" lon="1.22025">
        <ele>359.08627</ele>
        <time>2026-08-08T09:15:56Z</time>
      </trkpt>
      <trkpt lat="45.71309" lon="1.22028">
        <ele>359.08627</ele>
        <time>2026-08-08T09:15:57Z</time>
      </trkpt>
      <trkpt lat="45.7131" lon="1.2203">
        <ele>359.08627</ele>
        <time>2026-08-08T09:15:58Z</time>
      </trkpt>
      <trkpt lat="45.71312" lon="1.22031">
        <ele>359.08627</ele>
        <time>2026-08-08T09:15:59Z</time>
      </trkpt>
      <trkpt lat="45.71313" lon="1.22034">
        <ele>360.08627</ele>
        <time>2026-08-08T09:16:00Z</time>
      </trkpt>
      <trkpt lat="45.71313" lon="1.22036">
        <ele>360.08627</ele>
        <time>2026-08-08T09:16:01Z</time>
      </trkpt>
      <trkpt lat="45.71314" lon="1.22039">
        <ele>360.08627</ele>
        <time>2026-08-08T09:16:02Z</time>
      </trkpt>
      <trkpt lat="45.71315" lon="1.22042">
        <ele>360.08627</ele>
        <time>2026-08-08T09:16:03Z</time>
      </trkpt>
      <trkpt lat="45.71316" lon="1.22044">
        <ele>360.08627</ele>
        <time>2026-08-08T09:16:04Z</time>
      </trkpt>
      <trkpt lat="45.71317" lon="1.22047">
        <ele>360.08627</ele>
        <time>2026-08-08T09:16:05Z</time>
      </trkpt>
      <trkpt lat="45.71318" lon="1.22049">
        <ele>359.08627</ele>
        <time>2026-08-08T09:16:06Z</time>
      </trkpt>
      <trkpt lat="45.71319" lon="1.22051">
        <ele>360.08627</ele>
        <time>2026-08-08T09:16:07Z</time>
      </trkpt>
      <trkpt lat="45.7132" lon="1.22053">
        <ele>360.08627</ele>
        <time>2026-08-08T09:16:08Z</time>
      </trkpt>
      <trkpt lat="45.71322" lon="1.22056">
        <ele>361.08627</ele>
        <time>2026-08-08T09:16:09Z</time>
      </trkpt>
      <trkpt lat="45.71324" lon="1.22059">
        <ele>360.08627</ele>
        <time>2026-08-08T09:16:10Z</time>
      </trkpt>
      <trkpt lat="45.71325" lon="1.22062">
        <ele>360.08627</ele>
        <time>2026-08-08T09:16:11Z</time>
      </trkpt>
      <trkpt lat="45.71326" lon="1.22065">
        <ele>360.08627</ele>
        <time>2026-08-08T09:16:12Z</time>
      </trkpt>
      <trkpt lat="45.71327" lon="1.22068">
        <ele>360.08627</ele>
        <time>2026-08-08T09:16:13Z</time>
      </trkpt>
      <trkpt lat="45.71329" lon="1.2207">
        <ele>360.08627</ele>
        <time>2026-08-08T09:16:14Z</time>
      </trkpt>
      <trkpt lat="45.7133" lon="1.22073">
        <ele>361.08627</ele>
        <time>2026-08-08T09:16:15Z</time>
      </trkpt>
      <trkpt lat="45.71331" lon="1.22075">
        <ele>362.08627</ele>
        <time>2026-08-08T09:16:16Z</time>
      </trkpt>
      <trkpt lat="45.71332" lon="1.22078">
        <ele>362.08627</ele>
        <time>2026-08-08T09:16:17Z</time>
      </trkpt>
      <trkpt lat="45.71333" lon="1.22079">
        <ele>361.08627</ele>
        <time>2026-08-08T09:16:18Z</time>
      </trkpt>
      <trkpt lat="45.71334" lon="1.22081">
        <ele>361.08627</ele>
        <time>2026-08-08T09:16:19Z</time>
      </trkpt>
      <trkpt lat="45.71335" lon="1.22084">
        <ele>361.08627</ele>
        <time>2026-08-08T09:16:20Z</time>
      </trkpt>
      <trkpt lat="45.71337" lon="1.22088">
        <ele>361.08627</ele>
        <time>2026-08-08T09:16:21Z</time>
      </trkpt>
      <trkpt lat="45.71338" lon="1.2209">
        <ele>361.08627</ele>
        <time>2026-08-08T09:16:22Z</time>
      </trkpt>
      <trkpt lat="45.71339" lon="1.22093">
        <ele>361.08627</ele>
        <time>2026-08-08T09:16:23Z</time>
      </trkpt>
      <trkpt lat="45.7134" lon="1.22096">
        <ele>360.08627</ele>
        <time>2026-08-08T09:16:24Z</time>
      </trkpt>
      <trkpt lat="45.71341" lon="1.22099">
        <ele>360.08627</ele>
        <time>2026-08-08T09:16:25Z</time>
      </trkpt>
      <trkpt lat="45.71343" lon="1.22101">
        <ele>360.08627</ele>
        <time>2026-08-08T09:16:26Z</time>
      </trkpt>
      <trkpt lat="45.71345" lon="1.22102">
        <ele>361.08627</ele>
        <time>2026-08-08T09:16:27Z</time>
      </trkpt>
      <trkpt lat="45.71347" lon="1.22107">
        <ele>360.08627</ele>
        <time>2026-08-08T09:16:29Z</time>
      </trkpt>
      <trkpt lat="45.71348" lon="1.22109">
        <ele>360.08627</ele>
        <time>2026-08-08T09:16:30Z</time>
      </trkpt>
      <trkpt lat="45.71353" lon="1.22115">
        <ele>360.08627</ele>
        <time>2026-08-08T09:16:32Z</time>
      </trkpt>
      <trkpt lat="45.71355" lon="1.22117">
        <ele>359.08627</ele>
        <time>2026-08-08T09:16:33Z</time>
      </trkpt>
      <trkpt lat="45.71357" lon="1.22118">
        <ele>359.08627</ele>
        <time>2026-08-08T09:16:34Z</time>
      </trkpt>
      <trkpt lat="45.71359" lon="1.22121">
        <ele>359.08627</ele>
        <time>2026-08-08T09:16:35Z</time>
      </trkpt>
      <trkpt lat="45.71361" lon="1.22123">
        <ele>359.08627</ele>
        <time>2026-08-08T09:16:36Z</time>
      </trkpt>
      <trkpt lat="45.71363" lon="1.22124">
        <ele>359.08627</ele>
        <time>2026-08-08T09:16:37Z</time>
      </trkpt>
      <trkpt lat="45.71365" lon="1.22126">
        <ele>360.08627</ele>
        <time>2026-08-08T09:16:38Z</time>
      </trkpt>
      <trkpt lat="45.71368" lon="1.22128">
        <ele>360.08627</ele>
        <time>2026-08-08T09:16:39Z</time>
      </trkpt>
      <trkpt lat="45.71369" lon="1.22131">
        <ele>360.08627</ele>
        <time>2026-08-08T09:16:40Z</time>
      </trkpt>
      <trkpt lat="45.71371" lon="1.22133">
        <ele>360.08627</ele>
        <time>2026-08-08T09:16:41Z</time>
      </trkpt>
      <trkpt lat="45.71373" lon="1.22135">
        <ele>360.08627</ele>
        <time>2026-08-08T09:16:42Z</time>
      </trkpt>
      <trkpt lat="45.71375" lon="1.22136">
        <ele>360.08627</ele>
        <time>2026-08-08T09:16:43Z</time>
      </trkpt>
      <trkpt lat="45.71377" lon="1.22138">
        <ele>360.08627</ele>
        <time>2026-08-08T09:16:44Z</time>
      </trkpt>
      <trkpt lat="45.71379" lon="1.2214">
        <ele>360.08627</ele>
        <time>2026-08-08T09:16:45Z</time>
      </trkpt>
      <trkpt lat="45.71381" lon="1.22142">
        <ele>360.08627</ele>
        <time>2026-08-08T09:16:46Z</time>
      </trkpt>
      <trkpt lat="45.71383" lon="1.22144">
        <ele>360.08627</ele>
        <time>2026-08-08T09:16:47Z</time>
      </trkpt>
      <trkpt lat="45.71385" lon="1.22145">
        <ele>361.08627</ele>
        <time>2026-08-08T09:16:48Z</time>
      </trkpt>
      <trkpt lat="45.71386" lon="1.22148">
        <ele>360.08627</ele>
        <time>2026-08-08T09:16:49Z</time>
      </trkpt>
      <trkpt lat="45.71388" lon="1.2215">
        <ele>360.08627</ele>
        <time>2026-08-08T09:16:50Z</time>
      </trkpt>
      <trkpt lat="45.7139" lon="1.22152">
        <ele>361.08627</ele>
        <time>2026-08-08T09:16:51Z</time>
      </trkpt>
      <trkpt lat="45.71392" lon="1.22154">
        <ele>361.08627</ele>
        <time>2026-08-08T09:16:52Z</time>
      </trkpt>
      <trkpt lat="45.71393" lon="1.22156">
        <ele>361.08627</ele>
        <time>2026-08-08T09:16:53Z</time>
      </trkpt>
      <trkpt lat="45.71395" lon="1.22158">
        <ele>361.08627</ele>
        <time>2026-08-08T09:16:54Z</time>
      </trkpt>
      <trkpt lat="45.71397" lon="1.2216">
        <ele>361.08627</ele>
        <time>2026-08-08T09:16:55Z</time>
      </trkpt>
      <trkpt lat="45.71399" lon="1.22161">
        <ele>361.08627</ele>
        <time>2026-08-08T09:16:56Z</time>
      </trkpt>
      <trkpt lat="45.71401" lon="1.22163">
        <ele>361.08627</ele>
        <time>2026-08-08T09:16:57Z</time>
      </trkpt>
      <trkpt lat="45.71402" lon="1.22164">
        <ele>361.08627</ele>
        <time>2026-08-08T09:16:58Z</time>
      </trkpt>
      <trkpt lat="45.71404" lon="1.22166">
        <ele>361.08627</ele>
        <time>2026-08-08T09:16:59Z</time>
      </trkpt>
      <trkpt lat="45.71405" lon="1.22168">
        <ele>361.08627</ele>
        <time>2026-08-08T09:17:00Z</time>
      </trkpt>
      <trkpt lat="45.71407" lon="1.2217">
        <ele>360.08627</ele>
        <time>2026-08-08T09:17:01Z</time>
      </trkpt>
      <trkpt lat="45.71409" lon="1.22171">
        <ele>361.08627</ele>
        <time>2026-08-08T09:17:02Z</time>
      </trkpt>
      <trkpt lat="45.71411" lon="1.22173">
        <ele>362.08627</ele>
        <time>2026-08-08T09:17:03Z</time>
      </trkpt>
      <trkpt lat="45.71412" lon="1.22175">
        <ele>362.08627</ele>
        <time>2026-08-08T09:17:04Z</time>
      </trkpt>
      <trkpt lat="45.71414" lon="1.22177">
        <ele>362.08627</ele>
        <time>2026-08-08T09:17:05Z</time>
      </trkpt>
      <trkpt lat="45.71416" lon="1.22178">
        <ele>362.08627</ele>
        <time>2026-08-08T09:17:06Z</time>
      </trkpt>
      <trkpt lat="45.71418" lon="1.2218">
        <ele>362.08627</ele>
        <time>2026-08-08T09:17:07Z</time>
      </trkpt>
      <trkpt lat="45.71419" lon="1.22181">
        <ele>362.08627</ele>
        <time>2026-08-08T09:17:08Z</time>
      </trkpt>
      <trkpt lat="45.71421" lon="1.22183">
        <ele>363.08627</ele>
        <time>2026-08-08T09:17:09Z</time>
      </trkpt>
      <trkpt lat="45.71422" lon="1.22185">
        <ele>362.08627</ele>
        <time>2026-08-08T09:17:10Z</time>
      </trkpt>
      <trkpt lat="45.71423" lon="1.22187">
        <ele>362.08627</ele>
        <time>2026-08-08T09:17:11Z</time>
      </trkpt>
      <trkpt lat="45.71425" lon="1.22189">
        <ele>363.08627</ele>
        <time>2026-08-08T09:17:12Z</time>
      </trkpt>
      <trkpt lat="45.71427" lon="1.22191">
        <ele>363.08627</ele>
        <time>2026-08-08T09:17:13Z</time>
      </trkpt>
      <trkpt lat="45.71428" lon="1.22193">
        <ele>363.08627</ele>
        <time>2026-08-08T09:17:14Z</time>
      </trkpt>
      <trkpt lat="45.7143" lon="1.22195">
        <ele>363.08627</ele>
        <time>2026-08-08T09:17:15Z</time>
      </trkpt>
      <trkpt lat="45.71432" lon="1.22198">
        <ele>363.08627</ele>
        <time>2026-08-08T09:17:16Z</time>
      </trkpt>
      <trkpt lat="45.71433" lon="1.222">
        <ele>363.08627</ele>
        <time>2026-08-08T09:17:17Z</time>
      </trkpt>
      <trkpt lat="45.71435" lon="1.22202">
        <ele>362.08627</ele>
        <time>2026-08-08T09:17:18Z</time>
      </trkpt>
      <trkpt lat="45.71438" lon="1.22205">
        <ele>363.08627</ele>
        <time>2026-08-08T09:17:19Z</time>
      </trkpt>
      <trkpt lat="45.71439" lon="1.22207">
        <ele>363.08627</ele>
        <time>2026-08-08T09:17:20Z</time>
      </trkpt>
      <trkpt lat="45.71442" lon="1.22209">
        <ele>364.08627</ele>
        <time>2026-08-08T09:17:21Z</time>
      </trkpt>
      <trkpt lat="45.71443" lon="1.22211">
        <ele>364.08627</ele>
        <time>2026-08-08T09:17:22Z</time>
      </trkpt>
      <trkpt lat="45.71445" lon="1.22212">
        <ele>364.08627</ele>
        <time>2026-08-08T09:17:23Z</time>
      </trkpt>
      <trkpt lat="45.71447" lon="1.22213">
        <ele>363.08627</ele>
        <time>2026-08-08T09:17:24Z</time>
      </trkpt>
      <trkpt lat="45.7145" lon="1.22215">
        <ele>363.08627</ele>
        <time>2026-08-08T09:17:25Z</time>
      </trkpt>
      <trkpt lat="45.71452" lon="1.22217">
        <ele>363.08627</ele>
        <time>2026-08-08T09:17:26Z</time>
      </trkpt>
      <trkpt lat="45.71454" lon="1.22219">
        <ele>363.08627</ele>
        <time>2026-08-08T09:17:27Z</time>
      </trkpt>
      <trkpt lat="45.71456" lon="1.22221">
        <ele>363.08627</ele>
        <time>2026-08-08T09:17:28Z</time>
      </trkpt>
      <trkpt lat="45.71458" lon="1.22223">
        <ele>363.08627</ele>
        <time>2026-08-08T09:17:29Z</time>
      </trkpt>
      <trkpt lat="45.7146" lon="1.22225">
        <ele>363.08627</ele>
        <time>2026-08-08T09:17:30Z</time>
      </trkpt>
      <trkpt lat="45.71462" lon="1.22226">
        <ele>363.08627</ele>
        <time>2026-08-08T09:17:31Z</time>
      </trkpt>
      <trkpt lat="45.71465" lon="1.22227">
        <ele>364.08627</ele>
        <time>2026-08-08T09:17:32Z</time>
      </trkpt>
      <trkpt lat="45.71467" lon="1.22229">
        <ele>365.08627</ele>
        <time>2026-08-08T09:17:33Z</time>
      </trkpt>
      <trkpt lat="45.7147" lon="1.2223">
        <ele>365.08627</ele>
        <time>2026-08-08T09:17:34Z</time>
      </trkpt>
      <trkpt lat="45.71473" lon="1.22231">
        <ele>365.08627</ele>
        <time>2026-08-08T09:17:35Z</time>
      </trkpt>
      <trkpt lat="45.71476" lon="1.22233">
        <ele>366.08627</ele>
        <time>2026-08-08T09:17:36Z</time>
      </trkpt>
      <trkpt lat="45.71478" lon="1.22234">
        <ele>366.08627</ele>
        <time>2026-08-08T09:17:37Z</time>
      </trkpt>
      <trkpt lat="45.71481" lon="1.22236">
        <ele>367.08627</ele>
        <time>2026-08-08T09:17:38Z</time>
      </trkpt>
      <trkpt lat="45.71484" lon="1.22237">
        <ele>367.08627</ele>
        <time>2026-08-08T09:17:39Z</time>
      </trkpt>
      <trkpt lat="45.71486" lon="1.22239">
        <ele>367.08627</ele>
        <time>2026-08-08T09:17:40Z</time>
      </trkpt>
      <trkpt lat="45.71488" lon="1.2224">
        <ele>367.08627</ele>
        <time>2026-08-08T09:17:41Z</time>
      </trkpt>
      <trkpt lat="45.7149" lon="1.22242">
        <ele>368.08627</ele>
        <time>2026-08-08T09:17:42Z</time>
      </trkpt>
      <trkpt lat="45.71493" lon="1.22243">
        <ele>367.08627</ele>
        <time>2026-08-08T09:17:43Z</time>
      </trkpt>
      <trkpt lat="45.71495" lon="1.22245">
        <ele>368.08627</ele>
        <time>2026-08-08T09:17:44Z</time>
      </trkpt>
      <trkpt lat="45.71497" lon="1.22246">
        <ele>368.08627</ele>
        <time>2026-08-08T09:17:45Z</time>
      </trkpt>
      <trkpt lat="45.715" lon="1.22247">
        <ele>367.08627</ele>
        <time>2026-08-08T09:17:46Z</time>
      </trkpt>
      <trkpt lat="45.71502" lon="1.22249">
        <ele>368.08627</ele>
        <time>2026-08-08T09:17:47Z</time>
      </trkpt>
      <trkpt lat="45.71505" lon="1.2225">
        <ele>368.08627</ele>
        <time>2026-08-08T09:17:48Z</time>
      </trkpt>
      <trkpt lat="45.71507" lon="1.22252">
        <ele>368.08627</ele>
        <time>2026-08-08T09:17:49Z</time>
      </trkpt>
      <trkpt lat="45.7151" lon="1.22254">
        <ele>368.08627</ele>
        <time>2026-08-08T09:17:50Z</time>
      </trkpt>
      <trkpt lat="45.71512" lon="1.22256">
        <ele>369.08627</ele>
        <time>2026-08-08T09:17:51Z</time>
      </trkpt>
      <trkpt lat="45.71514" lon="1.22258">
        <ele>368.08627</ele>
        <time>2026-08-08T09:17:52Z</time>
      </trkpt>
      <trkpt lat="45.71517" lon="1.22261">
        <ele>369.08627</ele>
        <time>2026-08-08T09:17:53Z</time>
      </trkpt>
      <trkpt lat="45.7152" lon="1.22262">
        <ele>369.08627</ele>
        <time>2026-08-08T09:17:54Z</time>
      </trkpt>
      <trkpt lat="45.71523" lon="1.22263">
        <ele>369.08627</ele>
        <time>2026-08-08T09:17:55Z</time>
      </trkpt>
      <trkpt lat="45.71525" lon="1.22265">
        <ele>369.08627</ele>
        <time>2026-08-08T09:17:56Z</time>
      </trkpt>
      <trkpt lat="45.71528" lon="1.22267">
        <ele>369.08627</ele>
        <time>2026-08-08T09:17:57Z</time>
      </trkpt>
      <trkpt lat="45.7153" lon="1.22268">
        <ele>369.08627</ele>
        <time>2026-08-08T09:17:58Z</time>
      </trkpt>
      <trkpt lat="45.71533" lon="1.22269">
        <ele>370.08627</ele>
        <time>2026-08-08T09:17:59Z</time>
      </trkpt>
      <trkpt lat="45.71535" lon="1.2227">
        <ele>370.08627</ele>
        <time>2026-08-08T09:18:00Z</time>
      </trkpt>
      <trkpt lat="45.71537" lon="1.22272">
        <ele>369.08627</ele>
        <time>2026-08-08T09:18:01Z</time>
      </trkpt>
      <trkpt lat="45.71538" lon="1.22272">
        <ele>370.08627</ele>
        <time>2026-08-08T09:18:02Z</time>
      </trkpt>
      <trkpt lat="45.7154" lon="1.22273">
        <ele>370.08627</ele>
        <time>2026-08-08T09:18:03Z</time>
      </trkpt>
      <trkpt lat="45.71542" lon="1.22274">
        <ele>371.08627</ele>
        <time>2026-08-08T09:18:04Z</time>
      </trkpt>
      <trkpt lat="45.71544" lon="1.22276">
        <ele>371.08627</ele>
        <time>2026-08-08T09:18:05Z</time>
      </trkpt>
      <trkpt lat="45.71546" lon="1.22277">
        <ele>371.08627</ele>
        <time>2026-08-08T09:18:06Z</time>
      </trkpt>
      <trkpt lat="45.71548" lon="1.22279">
        <ele>372.08627</ele>
        <time>2026-08-08T09:18:07Z</time>
      </trkpt>
      <trkpt lat="45.7155" lon="1.2228">
        <ele>373.08627</ele>
        <time>2026-08-08T09:18:08Z</time>
      </trkpt>
      <trkpt lat="45.71552" lon="1.22281">
        <ele>373.08627</ele>
        <time>2026-08-08T09:18:09Z</time>
      </trkpt>
      <trkpt lat="45.71554" lon="1.22283">
        <ele>372.08627</ele>
        <time>2026-08-08T09:18:10Z</time>
      </trkpt>
      <trkpt lat="45.71556" lon="1.22285">
        <ele>372.08627</ele>
        <time>2026-08-08T09:18:11Z</time>
      </trkpt>
      <trkpt lat="45.71558" lon="1.22286">
        <ele>372.08627</ele>
        <time>2026-08-08T09:18:12Z</time>
      </trkpt>
      <trkpt lat="45.7156" lon="1.22287">
        <ele>372.08627</ele>
        <time>2026-08-08T09:18:13Z</time>
      </trkpt>
      <trkpt lat="45.71563" lon="1.22287">
        <ele>373.08627</ele>
        <time>2026-08-08T09:18:14Z</time>
      </trkpt>
      <trkpt lat="45.71565" lon="1.22289">
        <ele>373.08627</ele>
        <time>2026-08-08T09:18:15Z</time>
      </trkpt>
      <trkpt lat="45.71566" lon="1.2229">
        <ele>373.08627</ele>
        <time>2026-08-08T09:18:16Z</time>
      </trkpt>
      <trkpt lat="45.71569" lon="1.22292">
        <ele>373.08627</ele>
        <time>2026-08-08T09:18:17Z</time>
      </trkpt>
      <trkpt lat="45.71571" lon="1.22293">
        <ele>373.08627</ele>
        <time>2026-08-08T09:18:18Z</time>
      </trkpt>
      <trkpt lat="45.71573" lon="1.22294">
        <ele>373.08627</ele>
        <time>2026-08-08T09:18:19Z</time>
      </trkpt>
      <trkpt lat="45.71575" lon="1.22296">
        <ele>373.08627</ele>
        <time>2026-08-08T09:18:20Z</time>
      </trkpt>
      <trkpt lat="45.71578" lon="1.22297">
        <ele>374.08627</ele>
        <time>2026-08-08T09:18:21Z</time>
      </trkpt>
      <trkpt lat="45.71579" lon="1.22298">
        <ele>374.08627</ele>
        <time>2026-08-08T09:18:22Z</time>
      </trkpt>
      <trkpt lat="45.71581" lon="1.22299">
        <ele>374.08627</ele>
        <time>2026-08-08T09:18:23Z</time>
      </trkpt>
      <trkpt lat="45.71584" lon="1.22301">
        <ele>374.08627</ele>
        <time>2026-08-08T09:18:24Z</time>
      </trkpt>
      <trkpt lat="45.71585" lon="1.22302">
        <ele>375.08627</ele>
        <time>2026-08-08T09:18:25Z</time>
      </trkpt>
      <trkpt lat="45.71587" lon="1.22303">
        <ele>375.08627</ele>
        <time>2026-08-08T09:18:26Z</time>
      </trkpt>
      <trkpt lat="45.71589" lon="1.22304">
        <ele>375.08627</ele>
        <time>2026-08-08T09:18:27Z</time>
      </trkpt>
      <trkpt lat="45.7159" lon="1.22305">
        <ele>375.08627</ele>
        <time>2026-08-08T09:18:28Z</time>
      </trkpt>
      <trkpt lat="45.71592" lon="1.22306">
        <ele>374.08627</ele>
        <time>2026-08-08T09:18:29Z</time>
      </trkpt>
      <trkpt lat="45.71594" lon="1.22307">
        <ele>374.08627</ele>
        <time>2026-08-08T09:18:30Z</time>
      </trkpt>
      <trkpt lat="45.71595" lon="1.22309">
        <ele>374.08627</ele>
        <time>2026-08-08T09:18:31Z</time>
      </trkpt>
      <trkpt lat="45.71597" lon="1.2231">
        <ele>374.08627</ele>
        <time>2026-08-08T09:18:32Z</time>
      </trkpt>
      <trkpt lat="45.71597" lon="1.22311">
        <ele>374.08627</ele>
        <time>2026-08-08T09:18:33Z</time>
      </trkpt>
      <trkpt lat="45.71598" lon="1.22313">
        <ele>374.08627</ele>
        <time>2026-08-08T09:18:34Z</time>
      </trkpt>
      <trkpt lat="45.71599" lon="1.22314">
        <ele>375.08627</ele>
        <time>2026-08-08T09:18:35Z</time>
      </trkpt>
      <trkpt lat="45.71601" lon="1.22314">
        <ele>374.08627</ele>
        <time>2026-08-08T09:18:36Z</time>
      </trkpt>
      <trkpt lat="45.71604" lon="1.22315">
        <ele>374.08627</ele>
        <time>2026-08-08T09:18:37Z</time>
      </trkpt>
      <trkpt lat="45.71606" lon="1.22316">
        <ele>375.08627</ele>
        <time>2026-08-08T09:18:38Z</time>
      </trkpt>
      <trkpt lat="45.71609" lon="1.22318">
        <ele>375.08627</ele>
        <time>2026-08-08T09:18:39Z</time>
      </trkpt>
      <trkpt lat="45.71612" lon="1.22319">
        <ele>376.08627</ele>
        <time>2026-08-08T09:18:40Z</time>
      </trkpt>
      <trkpt lat="45.71615" lon="1.22319">
        <ele>375.08627</ele>
        <time>2026-08-08T09:18:41Z</time>
      </trkpt>
      <trkpt lat="45.71618" lon="1.22321">
        <ele>375.08627</ele>
        <time>2026-08-08T09:18:42Z</time>
      </trkpt>
      <trkpt lat="45.71621" lon="1.22324">
        <ele>376.08627</ele>
        <time>2026-08-08T09:18:43Z</time>
      </trkpt>
      <trkpt lat="45.71623" lon="1.22325">
        <ele>376.08627</ele>
        <time>2026-08-08T09:18:44Z</time>
      </trkpt>
      <trkpt lat="45.71626" lon="1.22327">
        <ele>376.08627</ele>
        <time>2026-08-08T09:18:45Z</time>
      </trkpt>
      <trkpt lat="45.71628" lon="1.22329">
        <ele>376.08627</ele>
        <time>2026-08-08T09:18:46Z</time>
      </trkpt>
      <trkpt lat="45.7163" lon="1.22331">
        <ele>376.08627</ele>
        <time>2026-08-08T09:18:47Z</time>
      </trkpt>
      <trkpt lat="45.71632" lon="1.22333">
        <ele>376.08627</ele>
        <time>2026-08-08T09:18:48Z</time>
      </trkpt>
      <trkpt lat="45.71634" lon="1.22334">
        <ele>377.08627</ele>
        <time>2026-08-08T09:18:49Z</time>
      </trkpt>
      <trkpt lat="45.71637" lon="1.22336">
        <ele>377.08627</ele>
        <time>2026-08-08T09:18:50Z</time>
      </trkpt>
      <trkpt lat="45.71639" lon="1.22338">
        <ele>377.08627</ele>
        <time>2026-08-08T09:18:51Z</time>
      </trkpt>
      <trkpt lat="45.71642" lon="1.22339">
        <ele>377.08627</ele>
        <time>2026-08-08T09:18:52Z</time>
      </trkpt>
      <trkpt lat="45.71644" lon="1.22341">
        <ele>377.08627</ele>
        <time>2026-08-08T09:18:53Z</time>
      </trkpt>
      <trkpt lat="45.71647" lon="1.22343">
        <ele>377.08627</ele>
        <time>2026-08-08T09:18:54Z</time>
      </trkpt>
      <trkpt lat="45.7165" lon="1.22345">
        <ele>377.08627</ele>
        <time>2026-08-08T09:18:55Z</time>
      </trkpt>
      <trkpt lat="45.71653" lon="1.22347">
        <ele>378.08627</ele>
        <time>2026-08-08T09:18:56Z</time>
      </trkpt>
      <trkpt lat="45.71656" lon="1.22348">
        <ele>378.08627</ele>
        <time>2026-08-08T09:18:57Z</time>
      </trkpt>
      <trkpt lat="45.71659" lon="1.2235">
        <ele>379.08627</ele>
        <time>2026-08-08T09:18:58Z</time>
      </trkpt>
      <trkpt lat="45.71662" lon="1.22351">
        <ele>379.08627</ele>
        <time>2026-08-08T09:18:59Z</time>
      </trkpt>
      <trkpt lat="45.71665" lon="1.22352">
        <ele>379.08627</ele>
        <time>2026-08-08T09:19:00Z</time>
      </trkpt>
      <trkpt lat="45.71668" lon="1.22354">
        <ele>380.08627</ele>
        <time>2026-08-08T09:19:01Z</time>
      </trkpt>
      <trkpt lat="45.71671" lon="1.22355">
        <ele>380.08627</ele>
        <time>2026-08-08T09:19:02Z</time>
      </trkpt>
      <trkpt lat="45.71674" lon="1.22356">
        <ele>380.08627</ele>
        <time>2026-08-08T09:19:03Z</time>
      </trkpt>
      <trkpt lat="45.71677" lon="1.22357">
        <ele>380.08627</ele>
        <time>2026-08-08T09:19:04Z</time>
      </trkpt>
      <trkpt lat="45.7168" lon="1.22358">
        <ele>381.08627</ele>
        <time>2026-08-08T09:19:05Z</time>
      </trkpt>
      <trkpt lat="45.71683" lon="1.2236">
        <ele>381.08627</ele>
        <time>2026-08-08T09:19:06Z</time>
      </trkpt>
      <trkpt lat="45.71686" lon="1.22361">
        <ele>381.08627</ele>
        <time>2026-08-08T09:19:07Z</time>
      </trkpt>
      <trkpt lat="45.71689" lon="1.22362">
        <ele>381.08627</ele>
        <time>2026-08-08T09:19:08Z</time>
      </trkpt>
      <trkpt lat="45.71692" lon="1.22364">
        <ele>382.08627</ele>
        <time>2026-08-08T09:19:09Z</time>
      </trkpt>
      <trkpt lat="45.71694" lon="1.22364">
        <ele>382.08627</ele>
        <time>2026-08-08T09:19:10Z</time>
      </trkpt>
      <trkpt lat="45.71696" lon="1.22366">
        <ele>382.08627</ele>
        <time>2026-08-08T09:19:11Z</time>
      </trkpt>
      <trkpt lat="45.71698" lon="1.22368">
        <ele>382.08627</ele>
        <time>2026-08-08T09:19:12Z</time>
      </trkpt>
      <trkpt lat="45.71701" lon="1.22369">
        <ele>382.08627</ele>
        <time>2026-08-08T09:19:13Z</time>
      </trkpt>
      <trkpt lat="45.71703" lon="1.2237">
        <ele>382.08627</ele>
        <time>2026-08-08T09:19:14Z</time>
      </trkpt>
      <trkpt lat="45.71706" lon="1.22371">
        <ele>383.08627</ele>
        <time>2026-08-08T09:19:15Z</time>
      </trkpt>
      <trkpt lat="45.71709" lon="1.22372">
        <ele>384.08627</ele>
        <time>2026-08-08T09:19:16Z</time>
      </trkpt>
      <trkpt lat="45.71712" lon="1.22374">
        <ele>384.08627</ele>
        <time>2026-08-08T09:19:17Z</time>
      </trkpt>
      <trkpt lat="45.71714" lon="1.22375">
        <ele>384.08627</ele>
        <time>2026-08-08T09:19:18Z</time>
      </trkpt>
      <trkpt lat="45.71716" lon="1.22376">
        <ele>384.08627</ele>
        <time>2026-08-08T09:19:19Z</time>
      </trkpt>
      <trkpt lat="45.71719" lon="1.22378">
        <ele>384.08627</ele>
        <time>2026-08-08T09:19:20Z</time>
      </trkpt>
      <trkpt lat="45.71721" lon="1.22379">
        <ele>385.08627</ele>
        <time>2026-08-08T09:19:21Z</time>
      </trkpt>
      <trkpt lat="45.71724" lon="1.22381">
        <ele>385.08627</ele>
        <time>2026-08-08T09:19:22Z</time>
      </trkpt>
      <trkpt lat="45.71726" lon="1.22383">
        <ele>385.08627</ele>
        <time>2026-08-08T09:19:23Z</time>
      </trkpt>
      <trkpt lat="45.71728" lon="1.22384">
        <ele>385.08627</ele>
        <time>2026-08-08T09:19:24Z</time>
      </trkpt>
      <trkpt lat="45.71731" lon="1.22385">
        <ele>386.08627</ele>
        <time>2026-08-08T09:19:25Z</time>
      </trkpt>
      <trkpt lat="45.71733" lon="1.22387">
        <ele>386.08627</ele>
        <time>2026-08-08T09:19:26Z</time>
      </trkpt>
      <trkpt lat="45.71736" lon="1.22388">
        <ele>387.08627</ele>
        <time>2026-08-08T09:19:27Z</time>
      </trkpt>
      <trkpt lat="45.71738" lon="1.22389">
        <ele>387.08627</ele>
        <time>2026-08-08T09:19:28Z</time>
      </trkpt>
      <trkpt lat="45.7174" lon="1.2239">
        <ele>388.08627</ele>
        <time>2026-08-08T09:19:29Z</time>
      </trkpt>
      <trkpt lat="45.71743" lon="1.22391">
        <ele>388.08627</ele>
        <time>2026-08-08T09:19:30Z</time>
      </trkpt>
      <trkpt lat="45.71745" lon="1.22392">
        <ele>389.08627</ele>
        <time>2026-08-08T09:19:31Z</time>
      </trkpt>
      <trkpt lat="45.71747" lon="1.22392">
        <ele>389.08627</ele>
        <time>2026-08-08T09:19:32Z</time>
      </trkpt>
      <trkpt lat="45.71749" lon="1.22394">
        <ele>390.08627</ele>
        <time>2026-08-08T09:19:33Z</time>
      </trkpt>
      <trkpt lat="45.71751" lon="1.22394">
        <ele>389.08627</ele>
        <time>2026-08-08T09:19:34Z</time>
      </trkpt>
      <trkpt lat="45.71752" lon="1.22394">
        <ele>389.08627</ele>
        <time>2026-08-08T09:19:35Z</time>
      </trkpt>
      <trkpt lat="45.71754" lon="1.22395">
        <ele>390.08627</ele>
        <time>2026-08-08T09:19:36Z</time>
      </trkpt>
      <trkpt lat="45.71755" lon="1.22395">
        <ele>391.08627</ele>
        <time>2026-08-08T09:19:37Z</time>
      </trkpt>
      <trkpt lat="45.71756" lon="1.22396">
        <ele>391.08627</ele>
        <time>2026-08-08T09:19:38Z</time>
      </trkpt>
      <trkpt lat="45.71758" lon="1.22397">
        <ele>391.08627</ele>
        <time>2026-08-08T09:19:39Z</time>
      </trkpt>
      <trkpt lat="45.7176" lon="1.22397">
        <ele>392.08627</ele>
        <time>2026-08-08T09:19:40Z</time>
      </trkpt>
      <trkpt lat="45.71762" lon="1.22399">
        <ele>391.08627</ele>
        <time>2026-08-08T09:19:41Z</time>
      </trkpt>
      <trkpt lat="45.71764" lon="1.224">
        <ele>392.08627</ele>
        <time>2026-08-08T09:19:42Z</time>
      </trkpt>
      <trkpt lat="45.71767" lon="1.22401">
        <ele>392.08627</ele>
        <time>2026-08-08T09:19:43Z</time>
      </trkpt>
      <trkpt lat="45.71769" lon="1.22401">
        <ele>391.08627</ele>
        <time>2026-08-08T09:19:44Z</time>
      </trkpt>
      <trkpt lat="45.71771" lon="1.22402">
        <ele>392.08627</ele>
        <time>2026-08-08T09:19:45Z</time>
      </trkpt>
      <trkpt lat="45.71774" lon="1.22403">
        <ele>392.08627</ele>
        <time>2026-08-08T09:19:46Z</time>
      </trkpt>
      <trkpt lat="45.71777" lon="1.22404">
        <ele>391.08627</ele>
        <time>2026-08-08T09:19:47Z</time>
      </trkpt>
      <trkpt lat="45.7178" lon="1.22405">
        <ele>392.08627</ele>
        <time>2026-08-08T09:19:48Z</time>
      </trkpt>
      <trkpt lat="45.71783" lon="1.22406">
        <ele>392.08627</ele>
        <time>2026-08-08T09:19:49Z</time>
      </trkpt>
      <trkpt lat="45.71786" lon="1.22407">
        <ele>392.08627</ele>
        <time>2026-08-08T09:19:50Z</time>
      </trkpt>
      <trkpt lat="45.71789" lon="1.22409">
        <ele>392.08627</ele>
        <time>2026-08-08T09:19:51Z</time>
      </trkpt>
      <trkpt lat="45.71793" lon="1.2241">
        <ele>392.08627</ele>
        <time>2026-08-08T09:19:52Z</time>
      </trkpt>
      <trkpt lat="45.71796" lon="1.22412">
        <ele>393.08627</ele>
        <time>2026-08-08T09:19:53Z</time>
      </trkpt>
      <trkpt lat="45.71799" lon="1.22413">
        <ele>393.08627</ele>
        <time>2026-08-08T09:19:54Z</time>
      </trkpt>
      <trkpt lat="45.71802" lon="1.22413">
        <ele>392.08627</ele>
        <time>2026-08-08T09:19:55Z</time>
      </trkpt>
      <trkpt lat="45.71805" lon="1.22414">
        <ele>392.08627</ele>
        <time>2026-08-08T09:19:56Z</time>
      </trkpt>
      <trkpt lat="45.71808" lon="1.22415">
        <ele>392.08627</ele>
        <time>2026-08-08T09:19:57Z</time>
      </trkpt>
      <trkpt lat="45.71812" lon="1.22418">
        <ele>392.08627</ele>
        <time>2026-08-08T09:19:58Z</time>
      </trkpt>
      <trkpt lat="45.71815" lon="1.22419">
        <ele>392.08627</ele>
        <time>2026-08-08T09:19:59Z</time>
      </trkpt>
      <trkpt lat="45.71818" lon="1.2242">
        <ele>392.08627</ele>
        <time>2026-08-08T09:20:00Z</time>
      </trkpt>
      <trkpt lat="45.71822" lon="1.22422">
        <ele>393.08627</ele>
        <time>2026-08-08T09:20:01Z</time>
      </trkpt>
      <trkpt lat="45.71826" lon="1.22423">
        <ele>393.08627</ele>
        <time>2026-08-08T09:20:02Z</time>
      </trkpt>
      <trkpt lat="45.7183" lon="1.22424">
        <ele>394.08627</ele>
        <time>2026-08-08T09:20:03Z</time>
      </trkpt>
      <trkpt lat="45.71834" lon="1.22425">
        <ele>394.08627</ele>
        <time>2026-08-08T09:20:04Z</time>
      </trkpt>
      <trkpt lat="45.71837" lon="1.22427">
        <ele>394.08627</ele>
        <time>2026-08-08T09:20:05Z</time>
      </trkpt>
      <trkpt lat="45.71841" lon="1.22428">
        <ele>394.08627</ele>
        <time>2026-08-08T09:20:06Z</time>
      </trkpt>
      <trkpt lat="45.71845" lon="1.22428">
        <ele>394.08627</ele>
        <time>2026-08-08T09:20:07Z</time>
      </trkpt>
      <trkpt lat="45.71848" lon="1.22428">
        <ele>393.08627</ele>
        <time>2026-08-08T09:20:08Z</time>
      </trkpt>
      <trkpt lat="45.71851" lon="1.2243">
        <ele>394.08627</ele>
        <time>2026-08-08T09:20:09Z</time>
      </trkpt>
      <trkpt lat="45.71854" lon="1.2243">
        <ele>393.08627</ele>
        <time>2026-08-08T09:20:10Z</time>
      </trkpt>
      <trkpt lat="45.71857" lon="1.22431">
        <ele>393.08627</ele>
        <time>2026-08-08T09:20:11Z</time>
      </trkpt>
      <trkpt lat="45.71861" lon="1.22432">
        <ele>393.08627</ele>
        <time>2026-08-08T09:20:12Z</time>
      </trkpt>
      <trkpt lat="45.71865" lon="1.22433">
        <ele>394.08627</ele>
        <time>2026-08-08T09:20:13Z</time>
      </trkpt>
      <trkpt lat="45.71869" lon="1.22433">
        <ele>394.08627</ele>
        <time>2026-08-08T09:20:14Z</time>
      </trkpt>
      <trkpt lat="45.71872" lon="1.22433">
        <ele>394.08627</ele>
        <time>2026-08-08T09:20:15Z</time>
      </trkpt>
      <trkpt lat="45.71877" lon="1.22433">
        <ele>394.08627</ele>
        <time>2026-08-08T09:20:16Z</time>
      </trkpt>
      <trkpt lat="45.71882" lon="1.22434">
        <ele>394.08627</ele>
        <time>2026-08-08T09:20:17Z</time>
      </trkpt>
      <trkpt lat="45.71887" lon="1.22434">
        <ele>394.08627</ele>
        <time>2026-08-08T09:20:18Z</time>
      </trkpt>
      <trkpt lat="45.71892" lon="1.22435">
        <ele>394.08627</ele>
        <time>2026-08-08T09:20:19Z</time>
      </trkpt>
      <trkpt lat="45.71896" lon="1.22436">
        <ele>394.08627</ele>
        <time>2026-08-08T09:20:20Z</time>
      </trkpt>
      <trkpt lat="45.719" lon="1.22437">
        <ele>393.08627</ele>
        <time>2026-08-08T09:20:21Z</time>
      </trkpt>
      <trkpt lat="45.71905" lon="1.22437">
        <ele>393.08627</ele>
        <time>2026-08-08T09:20:22Z</time>
      </trkpt>
      <trkpt lat="45.71909" lon="1.22438">
        <ele>393.08627</ele>
        <time>2026-08-08T09:20:23Z</time>
      </trkpt>
      <trkpt lat="45.71912" lon="1.22438">
        <ele>393.08627</ele>
        <time>2026-08-08T09:20:24Z</time>
      </trkpt>
      <trkpt lat="45.71916" lon="1.22439">
        <ele>393.08627</ele>
        <time>2026-08-08T09:20:25Z</time>
      </trkpt>
      <trkpt lat="45.7192" lon="1.22439">
        <ele>393.08627</ele>
        <time>2026-08-08T09:20:26Z</time>
      </trkpt>
      <trkpt lat="45.71925" lon="1.22439">
        <ele>393.08627</ele>
        <time>2026-08-08T09:20:27Z</time>
      </trkpt>
      <trkpt lat="45.71929" lon="1.22438">
        <ele>393.08627</ele>
        <time>2026-08-08T09:20:28Z</time>
      </trkpt>
      <trkpt lat="45.71932" lon="1.22438">
        <ele>393.08627</ele>
        <time>2026-08-08T09:20:29Z</time>
      </trkpt>
      <trkpt lat="45.71934" lon="1.22438">
        <ele>392.08627</ele>
        <time>2026-08-08T09:20:30Z</time>
      </trkpt>
      <trkpt lat="45.71937" lon="1.22438">
        <ele>391.08627</ele>
        <time>2026-08-08T09:20:31Z</time>
      </trkpt>
      <trkpt lat="45.71939" lon="1.22438">
        <ele>390.08627</ele>
        <time>2026-08-08T09:20:32Z</time>
      </trkpt>
      <trkpt lat="45.71941" lon="1.22438">
        <ele>390.08627</ele>
        <time>2026-08-08T09:20:33Z</time>
      </trkpt>
      <trkpt lat="45.71943" lon="1.22438">
        <ele>389.08627</ele>
        <time>2026-08-08T09:20:35Z</time>
      </trkpt>
      <trkpt lat="45.71943" lon="1.22438">
        <ele>388.08627</ele>
        <time>2026-08-08T09:20:36Z</time>
      </trkpt>
      <trkpt lat="45.71944" lon="1.22439">
        <ele>388.08627</ele>
        <time>2026-08-08T09:20:37Z</time>
      </trkpt>
      <trkpt lat="45.71944" lon="1.22439">
        <ele>388.08627</ele>
        <time>2026-08-08T09:20:38Z</time>
      </trkpt>
      <trkpt lat="45.7197" lon="1.22439">
        <ele>383.08627</ele>
        <time>2026-08-08T09:21:09Z</time>
      </trkpt>
      <trkpt lat="45.71974" lon="1.22439">
        <ele>382.08627</ele>
        <time>2026-08-08T09:21:10Z</time>
      </trkpt>
      <trkpt lat="45.71978" lon="1.22439">
        <ele>382.08627</ele>
        <time>2026-08-08T09:21:11Z</time>
      </trkpt>
      <trkpt lat="45.71982" lon="1.22439">
        <ele>381.08627</ele>
        <time>2026-08-08T09:21:12Z</time>
      </trkpt>
      <trkpt lat="45.71986" lon="1.2244">
        <ele>381.08627</ele>
        <time>2026-08-08T09:21:13Z</time>
      </trkpt>
      <trkpt lat="45.7199" lon="1.2244">
        <ele>381.08627</ele>
        <time>2026-08-08T09:21:14Z</time>
      </trkpt>
      <trkpt lat="45.71994" lon="1.22441">
        <ele>381.08627</ele>
        <time>2026-08-08T09:21:15Z</time>
      </trkpt>
      <trkpt lat="45.71999" lon="1.22441">
        <ele>381.08627</ele>
        <time>2026-08-08T09:21:16Z</time>
      </trkpt>
      <trkpt lat="45.72004" lon="1.2244">
        <ele>381.08627</ele>
        <time>2026-08-08T09:21:17Z</time>
      </trkpt>
      <trkpt lat="45.7201" lon="1.22442">
        <ele>380.08627</ele>
        <time>2026-08-08T09:21:18Z</time>
      </trkpt>
      <trkpt lat="45.72015" lon="1.22443">
        <ele>380.08627</ele>
        <time>2026-08-08T09:21:19Z</time>
      </trkpt>
      <trkpt lat="45.7202" lon="1.22444">
        <ele>380.08627</ele>
        <time>2026-08-08T09:21:20Z</time>
      </trkpt>
      <trkpt lat="45.72025" lon="1.22445">
        <ele>380.08627</ele>
        <time>2026-08-08T09:21:21Z</time>
      </trkpt>
      <trkpt lat="45.7203" lon="1.22445">
        <ele>380.08627</ele>
        <time>2026-08-08T09:21:22Z</time>
      </trkpt>
      <trkpt lat="45.72034" lon="1.22447">
        <ele>379.08627</ele>
        <time>2026-08-08T09:21:23Z</time>
      </trkpt>
      <trkpt lat="45.7204" lon="1.22448">
        <ele>379.08627</ele>
        <time>2026-08-08T09:21:24Z</time>
      </trkpt>
      <trkpt lat="45.72045" lon="1.22448">
        <ele>379.08627</ele>
        <time>2026-08-08T09:21:25Z</time>
      </trkpt>
      <trkpt lat="45.72051" lon="1.2245">
        <ele>378.08627</ele>
        <time>2026-08-08T09:21:26Z</time>
      </trkpt>
      <trkpt lat="45.72056" lon="1.22451">
        <ele>378.08627</ele>
        <time>2026-08-08T09:21:27Z</time>
      </trkpt>
      <trkpt lat="45.72061" lon="1.22451">
        <ele>377.08627</ele>
        <time>2026-08-08T09:21:28Z</time>
      </trkpt>
      <trkpt lat="45.72067" lon="1.22452">
        <ele>377.08627</ele>
        <time>2026-08-08T09:21:29Z</time>
      </trkpt>
      <trkpt lat="45.72072" lon="1.22454">
        <ele>377.08627</ele>
        <time>2026-08-08T09:21:30Z</time>
      </trkpt>
      <trkpt lat="45.72077" lon="1.22455">
        <ele>376.08627</ele>
        <time>2026-08-08T09:21:31Z</time>
      </trkpt>
      <trkpt lat="45.72082" lon="1.22457">
        <ele>376.08627</ele>
        <time>2026-08-08T09:21:32Z</time>
      </trkpt>
      <trkpt lat="45.72088" lon="1.22458">
        <ele>376.08627</ele>
        <time>2026-08-08T09:21:33Z</time>
      </trkpt>
      <trkpt lat="45.72093" lon="1.2246">
        <ele>376.08627</ele>
        <time>2026-08-08T09:21:34Z</time>
      </trkpt>
      <trkpt lat="45.72098" lon="1.22461">
        <ele>376.08627</ele>
        <time>2026-08-08T09:21:35Z</time>
      </trkpt>
      <trkpt lat="45.72103" lon="1.22462">
        <ele>375.08627</ele>
        <time>2026-08-08T09:21:36Z</time>
      </trkpt>
      <trkpt lat="45.72108" lon="1.22463">
        <ele>375.08627</ele>
        <time>2026-08-08T09:21:37Z</time>
      </trkpt>
      <trkpt lat="45.72114" lon="1.22463">
        <ele>375.08627</ele>
        <time>2026-08-08T09:21:38Z</time>
      </trkpt>
      <trkpt lat="45.72119" lon="1.22465">
        <ele>374.08627</ele>
        <time>2026-08-08T09:21:39Z</time>
      </trkpt>
      <trkpt lat="45.72124" lon="1.22466">
        <ele>374.08627</ele>
        <time>2026-08-08T09:21:40Z</time>
      </trkpt>
      <trkpt lat="45.72129" lon="1.22467">
        <ele>374.08627</ele>
        <time>2026-08-08T09:21:41Z</time>
      </trkpt>
      <trkpt lat="45.72134" lon="1.22469">
        <ele>374.08627</ele>
        <time>2026-08-08T09:21:42Z</time>
      </trkpt>
      <trkpt lat="45.72138" lon="1.2247">
        <ele>374.08627</ele>
        <time>2026-08-08T09:21:43Z</time>
      </trkpt>
      <trkpt lat="45.72143" lon="1.22471">
        <ele>374.08627</ele>
        <time>2026-08-08T09:21:44Z</time>
      </trkpt>
      <trkpt lat="45.72147" lon="1.22471">
        <ele>374.08627</ele>
        <time>2026-08-08T09:21:45Z</time>
      </trkpt>
      <trkpt lat="45.72151" lon="1.22472">
        <ele>373.08627</ele>
        <time>2026-08-08T09:21:46Z</time>
      </trkpt>
      <trkpt lat="45.72155" lon="1.22473">
        <ele>373.08627</ele>
        <time>2026-08-08T09:21:47Z</time>
      </trkpt>
      <trkpt lat="45.7216" lon="1.22475">
        <ele>373.08627</ele>
        <time>2026-08-08T09:21:48Z</time>
      </trkpt>
      <trkpt lat="45.72164" lon="1.22475">
        <ele>373.08627</ele>
        <time>2026-08-08T09:21:49Z</time>
      </trkpt>
      <trkpt lat="45.72168" lon="1.22476">
        <ele>373.08627</ele>
        <time>2026-08-08T09:21:50Z</time>
      </trkpt>
      <trkpt lat="45.72173" lon="1.22477">
        <ele>373.08627</ele>
        <time>2026-08-08T09:21:51Z</time>
      </trkpt>
      <trkpt lat="45.72177" lon="1.22477">
        <ele>372.08627</ele>
        <time>2026-08-08T09:21:52Z</time>
      </trkpt>
      <trkpt lat="45.72181" lon="1.22478">
        <ele>372.08627</ele>
        <time>2026-08-08T09:21:53Z</time>
      </trkpt>
      <trkpt lat="45.72186" lon="1.22479">
        <ele>372.08627</ele>
        <time>2026-08-08T09:21:54Z</time>
      </trkpt>
      <trkpt lat="45.72191" lon="1.22479">
        <ele>372.08627</ele>
        <time>2026-08-08T09:21:55Z</time>
      </trkpt>
      <trkpt lat="45.72195" lon="1.22479">
        <ele>372.08627</ele>
        <time>2026-08-08T09:21:56Z</time>
      </trkpt>
      <trkpt lat="45.722" lon="1.22479">
        <ele>372.08627</ele>
        <time>2026-08-08T09:21:57Z</time>
      </trkpt>
      <trkpt lat="45.72204" lon="1.22478">
        <ele>372.08627</ele>
        <time>2026-08-08T09:21:58Z</time>
      </trkpt>
      <trkpt lat="45.72209" lon="1.22477">
        <ele>372.08627</ele>
        <time>2026-08-08T09:21:59Z</time>
      </trkpt>
      <trkpt lat="45.72213" lon="1.22476">
        <ele>372.08627</ele>
        <time>2026-08-08T09:22:00Z</time>
      </trkpt>
      <trkpt lat="45.72219" lon="1.22476">
        <ele>371.08627</ele>
        <time>2026-08-08T09:22:01Z</time>
      </trkpt>
      <trkpt lat="45.72223" lon="1.22475">
        <ele>371.08627</ele>
        <time>2026-08-08T09:22:02Z</time>
      </trkpt>
      <trkpt lat="45.72227" lon="1.22474">
        <ele>371.08627</ele>
        <time>2026-08-08T09:22:03Z</time>
      </trkpt>
      <trkpt lat="45.72231" lon="1.22473">
        <ele>371.08627</ele>
        <time>2026-08-08T09:22:04Z</time>
      </trkpt>
      <trkpt lat="45.72235" lon="1.22472">
        <ele>371.08627</ele>
        <time>2026-08-08T09:22:05Z</time>
      </trkpt>
      <trkpt lat="45.7224" lon="1.22471">
        <ele>371.08627</ele>
        <time>2026-08-08T09:22:06Z</time>
      </trkpt>
      <trkpt lat="45.72244" lon="1.22469">
        <ele>371.08627</ele>
        <time>2026-08-08T09:22:07Z</time>
      </trkpt>
      <trkpt lat="45.72249" lon="1.22467">
        <ele>371.08627</ele>
        <time>2026-08-08T09:22:08Z</time>
      </trkpt>
      <trkpt lat="45.72253" lon="1.22466">
        <ele>370.08627</ele>
        <time>2026-08-08T09:22:09Z</time>
      </trkpt>
      <trkpt lat="45.72258" lon="1.22464">
        <ele>371.08627</ele>
        <time>2026-08-08T09:22:10Z</time>
      </trkpt>
      <trkpt lat="45.72263" lon="1.22463">
        <ele>371.08627</ele>
        <time>2026-08-08T09:22:11Z</time>
      </trkpt>
      <trkpt lat="45.72267" lon="1.22462">
        <ele>371.08627</ele>
        <time>2026-08-08T09:22:12Z</time>
      </trkpt>
      <trkpt lat="45.72271" lon="1.2246">
        <ele>371.08627</ele>
        <time>2026-08-08T09:22:13Z</time>
      </trkpt>
      <trkpt lat="45.72274" lon="1.22459">
        <ele>371.08627</ele>
        <time>2026-08-08T09:22:14Z</time>
      </trkpt>
      <trkpt lat="45.72278" lon="1.22459">
        <ele>371.08627</ele>
        <time>2026-08-08T09:22:15Z</time>
      </trkpt>
      <trkpt lat="45.72281" lon="1.22458">
        <ele>371.08627</ele>
        <time>2026-08-08T09:22:16Z</time>
      </trkpt>
      <trkpt lat="45.72283" lon="1.22457">
        <ele>370.08627</ele>
        <time>2026-08-08T09:22:17Z</time>
      </trkpt>
      <trkpt lat="45.72285" lon="1.22457">
        <ele>370.08627</ele>
        <time>2026-08-08T09:22:18Z</time>
      </trkpt>
      <trkpt lat="45.72288" lon="1.22458">
        <ele>369.08627</ele>
        <time>2026-08-08T09:22:19Z</time>
      </trkpt>
      <trkpt lat="45.7229" lon="1.22458">
        <ele>369.08627</ele>
        <time>2026-08-08T09:22:20Z</time>
      </trkpt>
      <trkpt lat="45.72292" lon="1.22459">
        <ele>368.08627</ele>
        <time>2026-08-08T09:22:21Z</time>
      </trkpt>
      <trkpt lat="45.72295" lon="1.2246">
        <ele>368.08627</ele>
        <time>2026-08-08T09:22:22Z</time>
      </trkpt>
      <trkpt lat="45.72297" lon="1.22461">
        <ele>367.08627</ele>
        <time>2026-08-08T09:22:23Z</time>
      </trkpt>
      <trkpt lat="45.72299" lon="1.22463">
        <ele>367.08627</ele>
        <time>2026-08-08T09:22:24Z</time>
      </trkpt>
      <trkpt lat="45.72301" lon="1.22466">
        <ele>367.08627</ele>
        <time>2026-08-08T09:22:25Z</time>
      </trkpt>
      <trkpt lat="45.72303" lon="1.22468">
        <ele>367.08627</ele>
        <time>2026-08-08T09:22:26Z</time>
      </trkpt>
      <trkpt lat="45.72304" lon="1.22471">
        <ele>366.08627</ele>
        <time>2026-08-08T09:22:27Z</time>
      </trkpt>
      <trkpt lat="45.72306" lon="1.22475">
        <ele>366.08627</ele>
        <time>2026-08-08T09:22:28Z</time>
      </trkpt>
      <trkpt lat="45.72307" lon="1.22479">
        <ele>365.08627</ele>
        <time>2026-08-08T09:22:29Z</time>
      </trkpt>
      <trkpt lat="45.72307" lon="1.22482">
        <ele>365.08627</ele>
        <time>2026-08-08T09:22:30Z</time>
      </trkpt>
      <trkpt lat="45.72307" lon="1.22484">
        <ele>364.08627</ele>
        <time>2026-08-08T09:22:31Z</time>
      </trkpt>
      <trkpt lat="45.72307" lon="1.22487">
        <ele>363.08627</ele>
        <time>2026-08-08T09:22:32Z</time>
      </trkpt>
      <trkpt lat="45.72309" lon="1.22491">
        <ele>362.08627</ele>
        <time>2026-08-08T09:22:33Z</time>
      </trkpt>
      <trkpt lat="45.72311" lon="1.22495">
        <ele>361.08627</ele>
        <time>2026-08-08T09:22:34Z</time>
      </trkpt>
      <trkpt lat="45.72314" lon="1.22499">
        <ele>360.08627</ele>
        <time>2026-08-08T09:22:35Z</time>
      </trkpt>
      <trkpt lat="45.72318" lon="1.22503">
        <ele>360.08627</ele>
        <time>2026-08-08T09:22:36Z</time>
      </trkpt>
      <trkpt lat="45.72323" lon="1.22506">
        <ele>359.08627</ele>
        <time>2026-08-08T09:22:37Z</time>
      </trkpt>
      <trkpt lat="45.72327" lon="1.22508">
        <ele>359.08627</ele>
        <time>2026-08-08T09:22:38Z</time>
      </trkpt>
      <trkpt lat="45.72332" lon="1.2251">
        <ele>359.08627</ele>
        <time>2026-08-08T09:22:39Z</time>
      </trkpt>
      <trkpt lat="45.72337" lon="1.22512">
        <ele>359.08627</ele>
        <time>2026-08-08T09:22:40Z</time>
      </trkpt>
      <trkpt lat="45.72342" lon="1.22513">
        <ele>358.08627</ele>
        <time>2026-08-08T09:22:41Z</time>
      </trkpt>
      <trkpt lat="45.72347" lon="1.22514">
        <ele>358.08627</ele>
        <time>2026-08-08T09:22:42Z</time>
      </trkpt>
      <trkpt lat="45.72352" lon="1.22515">
        <ele>357.08627</ele>
        <time>2026-08-08T09:22:43Z</time>
      </trkpt>
      <trkpt lat="45.72357" lon="1.22516">
        <ele>357.08627</ele>
        <time>2026-08-08T09:22:44Z</time>
      </trkpt>
      <trkpt lat="45.72363" lon="1.22517">
        <ele>357.08627</ele>
        <time>2026-08-08T09:22:45Z</time>
      </trkpt>
      <trkpt lat="45.7237" lon="1.22518">
        <ele>356.08627</ele>
        <time>2026-08-08T09:22:46Z</time>
      </trkpt>
      <trkpt lat="45.72375" lon="1.22518">
        <ele>356.08627</ele>
        <time>2026-08-08T09:22:47Z</time>
      </trkpt>
      <trkpt lat="45.72381" lon="1.22519">
        <ele>356.08627</ele>
        <time>2026-08-08T09:22:48Z</time>
      </trkpt>
      <trkpt lat="45.72386" lon="1.2252">
        <ele>356.08627</ele>
        <time>2026-08-08T09:22:49Z</time>
      </trkpt>
      <trkpt lat="45.72391" lon="1.2252">
        <ele>356.08627</ele>
        <time>2026-08-08T09:22:50Z</time>
      </trkpt>
      <trkpt lat="45.72396" lon="1.22521">
        <ele>356.08627</ele>
        <time>2026-08-08T09:22:51Z</time>
      </trkpt>
      <trkpt lat="45.724" lon="1.22521">
        <ele>356.08627</ele>
        <time>2026-08-08T09:22:52Z</time>
      </trkpt>
      <trkpt lat="45.72406" lon="1.2252">
        <ele>355.08627</ele>
        <time>2026-08-08T09:22:53Z</time>
      </trkpt>
      <trkpt lat="45.72411" lon="1.2252">
        <ele>355.08627</ele>
        <time>2026-08-08T09:22:54Z</time>
      </trkpt>
      <trkpt lat="45.72416" lon="1.22521">
        <ele>355.08627</ele>
        <time>2026-08-08T09:22:55Z</time>
      </trkpt>
      <trkpt lat="45.7242" lon="1.22521">
        <ele>354.08627</ele>
        <time>2026-08-08T09:22:56Z</time>
      </trkpt>
      <trkpt lat="45.72424" lon="1.22522">
        <ele>353.08627</ele>
        <time>2026-08-08T09:22:57Z</time>
      </trkpt>
      <trkpt lat="45.72428" lon="1.22522">
        <ele>352.08627</ele>
        <time>2026-08-08T09:22:58Z</time>
      </trkpt>
      <trkpt lat="45.72432" lon="1.2252">
        <ele>350.08627</ele>
        <time>2026-08-08T09:22:59Z</time>
      </trkpt>
      <trkpt lat="45.72436" lon="1.2252">
        <ele>348.08627</ele>
        <time>2026-08-08T09:23:00Z</time>
      </trkpt>
      <trkpt lat="45.7244" lon="1.22519">
        <ele>347.08627</ele>
        <time>2026-08-08T09:23:01Z</time>
      </trkpt>
      <trkpt lat="45.72444" lon="1.22519">
        <ele>345.08627</ele>
        <time>2026-08-08T09:23:02Z</time>
      </trkpt>
      <trkpt lat="45.72447" lon="1.22516">
        <ele>343.08627</ele>
        <time>2026-08-08T09:23:03Z</time>
      </trkpt>
      <trkpt lat="45.72452" lon="1.22514">
        <ele>341.08627</ele>
        <time>2026-08-08T09:23:04Z</time>
      </trkpt>
      <trkpt lat="45.72456" lon="1.22514">
        <ele>339.08627</ele>
        <time>2026-08-08T09:23:05Z</time>
      </trkpt>
      <trkpt lat="45.72459" lon="1.22512">
        <ele>338.08627</ele>
        <time>2026-08-08T09:23:06Z</time>
      </trkpt>
      <trkpt lat="45.72463" lon="1.22511">
        <ele>336.08627</ele>
        <time>2026-08-08T09:23:07Z</time>
      </trkpt>
      <trkpt lat="45.72467" lon="1.2251">
        <ele>333.08627</ele>
        <time>2026-08-08T09:23:08Z</time>
      </trkpt>
      <trkpt lat="45.7247" lon="1.22509">
        <ele>331.08627</ele>
        <time>2026-08-08T09:23:09Z</time>
      </trkpt>
      <trkpt lat="45.72474" lon="1.22506">
        <ele>329.08627</ele>
        <time>2026-08-08T09:23:10Z</time>
      </trkpt>
      <trkpt lat="45.72478" lon="1.22503">
        <ele>327.08627</ele>
        <time>2026-08-08T09:23:11Z</time>
      </trkpt>
      <trkpt lat="45.72483" lon="1.22501">
        <ele>326.08627</ele>
        <time>2026-08-08T09:23:12Z</time>
      </trkpt>
      <trkpt lat="45.72487" lon="1.225">
        <ele>324.08627</ele>
        <time>2026-08-08T09:23:13Z</time>
      </trkpt>
      <trkpt lat="45.7249" lon="1.22497">
        <ele>322.08627</ele>
        <time>2026-08-08T09:23:14Z</time>
      </trkpt>
      <trkpt lat="45.72494" lon="1.22495">
        <ele>320.08627</ele>
        <time>2026-08-08T09:23:15Z</time>
      </trkpt>
      <trkpt lat="45.72498" lon="1.22493">
        <ele>318.08627</ele>
        <time>2026-08-08T09:23:16Z</time>
      </trkpt>
      <trkpt lat="45.72502" lon="1.22491">
        <ele>316.08627</ele>
        <time>2026-08-08T09:23:17Z</time>
      </trkpt>
      <trkpt lat="45.72505" lon="1.22489">
        <ele>314.08627</ele>
        <time>2026-08-08T09:23:18Z</time>
      </trkpt>
      <trkpt lat="45.72508" lon="1.22487">
        <ele>311.08627</ele>
        <time>2026-08-08T09:23:19Z</time>
      </trkpt>
      <trkpt lat="45.72511" lon="1.22487">
        <ele>310.08627</ele>
        <time>2026-08-08T09:23:20Z</time>
      </trkpt>
      <trkpt lat="45.72515" lon="1.22485">
        <ele>308.08627</ele>
        <time>2026-08-08T09:23:21Z</time>
      </trkpt>
      <trkpt lat="45.72518" lon="1.22483">
        <ele>305.08627</ele>
        <time>2026-08-08T09:23:22Z</time>
      </trkpt>
      <trkpt lat="45.72519" lon="1.22483">
        <ele>305.08627</ele>
        <time>2026-08-08T09:23:23Z</time>
      </trkpt>
      <trkpt lat="45.72521" lon="1.22481">
        <ele>302.08627</ele>
        <time>2026-08-08T09:23:24Z</time>
      </trkpt>
      <trkpt lat="45.72523" lon="1.22479">
        <ele>299.08627</ele>
        <time>2026-08-08T09:23:25Z</time>
      </trkpt>
      <trkpt lat="45.72527" lon="1.22476">
        <ele>296.08627</ele>
        <time>2026-08-08T09:23:26Z</time>
      </trkpt>
      <trkpt lat="45.72531" lon="1.22471">
        <ele>291.08627</ele>
        <time>2026-08-08T09:23:27Z</time>
      </trkpt>
      <trkpt lat="45.72533" lon="1.22467">
        <ele>287.08627</ele>
        <time>2026-08-08T09:23:28Z</time>
      </trkpt>
      <trkpt lat="45.72536" lon="1.22461">
        <ele>282.08627</ele>
        <time>2026-08-08T09:23:29Z</time>
      </trkpt>
      <trkpt lat="45.72536" lon="1.22455">
        <ele>277.08627</ele>
        <time>2026-08-08T09:23:30Z</time>
      </trkpt>
      <trkpt lat="45.72539" lon="1.22447">
        <ele>271.08627</ele>
        <time>2026-08-08T09:23:31Z</time>
      </trkpt>
      <trkpt lat="45.72542" lon="1.22442">
        <ele>266.08627</ele>
        <time>2026-08-08T09:23:32Z</time>
      </trkpt>
      <trkpt lat="45.72545" lon="1.22433">
        <ele>260.08627</ele>
        <time>2026-08-08T09:23:33Z</time>
      </trkpt>
      <trkpt lat="45.72546" lon="1.22426">
        <ele>253.08627</ele>
        <time>2026-08-08T09:23:34Z</time>
      </trkpt>
      <trkpt lat="45.72548" lon="1.22415">
        <ele>246.08627</ele>
        <time>2026-08-08T09:23:35Z</time>
      </trkpt>
      <trkpt lat="45.72549" lon="1.22404">
        <ele>238.08627</ele>
        <time>2026-08-08T09:23:36Z</time>
      </trkpt>
      <trkpt lat="45.72549" lon="1.22394">
        <ele>231.08627</ele>
        <time>2026-08-08T09:23:37Z</time>
      </trkpt>
      <trkpt lat="45.72549" lon="1.22385">
        <ele>224.08627</ele>
        <time>2026-08-08T09:23:38Z</time>
      </trkpt>
      <trkpt lat="45.72549" lon="1.22375">
        <ele>218.08627</ele>
        <time>2026-08-08T09:23:39Z</time>
      </trkpt>
      <trkpt lat="45.72549" lon="1.22367">
        <ele>211.08627</ele>
        <time>2026-08-08T09:23:40Z</time>
      </trkpt>
      <trkpt lat="45.72548" lon="1.22356">
        <ele>205.08627</ele>
        <time>2026-08-08T09:23:41Z</time>
      </trkpt>
      <trkpt lat="45.72548" lon="1.22347">
        <ele>200.08627</ele>
        <time>2026-08-08T09:23:42Z</time>
      </trkpt>
      <trkpt lat="45.72549" lon="1.22338">
        <ele>194.08627</ele>
        <time>2026-08-08T09:23:43Z</time>
      </trkpt>
      <trkpt lat="45.7255" lon="1.2233">
        <ele>189.08627</ele>
        <time>2026-08-08T09:23:44Z</time>
      </trkpt>
      <trkpt lat="45.72552" lon="1.22323">
        <ele>183.08627</ele>
        <time>2026-08-08T09:23:45Z</time>
      </trkpt>
      <trkpt lat="45.72553" lon="1.22315">
        <ele>178.08627</ele>
        <time>2026-08-08T09:23:46Z</time>
      </trkpt>
      <trkpt lat="45.72555" lon="1.2231">
        <ele>173.08627</ele>
        <time>2026-08-08T09:23:47Z</time>
      </trkpt>
      <trkpt lat="45.72557" lon="1.22302">
        <ele>168.08627</ele>
        <time>2026-08-08T09:23:48Z</time>
      </trkpt>
      <trkpt lat="45.72557" lon="1.22295">
        <ele>162.08627</ele>
        <time>2026-08-08T09:23:49Z</time>
      </trkpt>
      <trkpt lat="45.72558" lon="1.2229">
        <ele>157.08627</ele>
        <time>2026-08-08T09:23:50Z</time>
      </trkpt>
      <trkpt lat="45.7256" lon="1.22284">
        <ele>152.08627</ele>
        <time>2026-08-08T09:23:51Z</time>
      </trkpt>
      <trkpt lat="45.72562" lon="1.22277">
        <ele>147.08627</ele>
        <time>2026-08-08T09:23:52Z</time>
      </trkpt>
      <trkpt lat="45.72563" lon="1.22273">
        <ele>142.08627</ele>
        <time>2026-08-08T09:23:53Z</time>
      </trkpt>
      <trkpt lat="45.72565" lon="1.22266">
        <ele>137.08627</ele>
        <time>2026-08-08T09:23:54Z</time>
      </trkpt>
      <trkpt lat="45.72567" lon="1.2226">
        <ele>133.08627</ele>
        <time>2026-08-08T09:23:55Z</time>
      </trkpt>
      <trkpt lat="45.72636" lon="1.22535">
        <ele>338.08627</ele>
        <time>2026-08-08T09:23:57Z</time>
      </trkpt>
      <trkpt lat="45.72641" lon="1.22535">
        <ele>338.08627</ele>
        <time>2026-08-08T09:23:58Z</time>
      </trkpt>
      <trkpt lat="45.72646" lon="1.22535">
        <ele>337.08627</ele>
        <time>2026-08-08T09:23:59Z</time>
      </trkpt>
      <trkpt lat="45.72648" lon="1.22536">
        <ele>335.08627</ele>
        <time>2026-08-08T09:24:00Z</time>
      </trkpt>
      <trkpt lat="45.72652" lon="1.22536">
        <ele>335.08627</ele>
        <time>2026-08-08T09:24:01Z</time>
      </trkpt>
      <trkpt lat="45.72655" lon="1.22536">
        <ele>336.08627</ele>
        <time>2026-08-08T09:24:02Z</time>
      </trkpt>
      <trkpt lat="45.72659" lon="1.22536">
        <ele>335.08627</ele>
        <time>2026-08-08T09:24:03Z</time>
      </trkpt>
      <trkpt lat="45.72663" lon="1.22537">
        <ele>335.08627</ele>
        <time>2026-08-08T09:24:04Z</time>
      </trkpt>
      <trkpt lat="45.72667" lon="1.22538">
        <ele>335.08627</ele>
        <time>2026-08-08T09:24:05Z</time>
      </trkpt>
      <trkpt lat="45.7267" lon="1.22539">
        <ele>335.08627</ele>
        <time>2026-08-08T09:24:06Z</time>
      </trkpt>
      <trkpt lat="45.72675" lon="1.2254">
        <ele>335.08627</ele>
        <time>2026-08-08T09:24:07Z</time>
      </trkpt>
      <trkpt lat="45.7268" lon="1.2254">
        <ele>335.08627</ele>
        <time>2026-08-08T09:24:08Z</time>
      </trkpt>
      <trkpt lat="45.72684" lon="1.22542">
        <ele>335.08627</ele>
        <time>2026-08-08T09:24:09Z</time>
      </trkpt>
      <trkpt lat="45.72687" lon="1.22544">
        <ele>334.08627</ele>
        <time>2026-08-08T09:24:10Z</time>
      </trkpt>
      <trkpt lat="45.72691" lon="1.22546">
        <ele>334.08627</ele>
        <time>2026-08-08T09:24:11Z</time>
      </trkpt>
      <trkpt lat="45.72694" lon="1.22548">
        <ele>334.08627</ele>
        <time>2026-08-08T09:24:12Z</time>
      </trkpt>
      <trkpt lat="45.72696" lon="1.22551">
        <ele>334.08627</ele>
        <time>2026-08-08T09:24:13Z</time>
      </trkpt>
      <trkpt lat="45.727" lon="1.22553">
        <ele>334.08627</ele>
        <time>2026-08-08T09:24:14Z</time>
      </trkpt>
      <trkpt lat="45.72705" lon="1.22555">
        <ele>334.08627</ele>
        <time>2026-08-08T09:24:15Z</time>
      </trkpt>
      <trkpt lat="45.72708" lon="1.22557">
        <ele>334.08627</ele>
        <time>2026-08-08T09:24:16Z</time>
      </trkpt>
      <trkpt lat="45.72712" lon="1.2256">
        <ele>333.08627</ele>
        <time>2026-08-08T09:24:17Z</time>
      </trkpt>
      <trkpt lat="45.72715" lon="1.22563">
        <ele>333.08627</ele>
        <time>2026-08-08T09:24:18Z</time>
      </trkpt>
      <trkpt lat="45.7272" lon="1.22566">
        <ele>335.08627</ele>
        <time>2026-08-08T09:24:19Z</time>
      </trkpt>
      <trkpt lat="45.72723" lon="1.2257">
        <ele>336.08627</ele>
        <time>2026-08-08T09:24:20Z</time>
      </trkpt>
      <trkpt lat="45.72727" lon="1.22573">
        <ele>337.08627</ele>
        <time>2026-08-08T09:24:21Z</time>
      </trkpt>
      <trkpt lat="45.72731" lon="1.22576">
        <ele>337.08627</ele>
        <time>2026-08-08T09:24:22Z</time>
      </trkpt>
      <trkpt lat="45.72734" lon="1.22579">
        <ele>337.08627</ele>
        <time>2026-08-08T09:24:23Z</time>
      </trkpt>
      <trkpt lat="45.72737" lon="1.22583">
        <ele>337.08627</ele>
        <time>2026-08-08T09:24:24Z</time>
      </trkpt>
      <trkpt lat="45.7274" lon="1.22587">
        <ele>337.08627</ele>
        <time>2026-08-08T09:24:25Z</time>
      </trkpt>
      <trkpt lat="45.72743" lon="1.2259">
        <ele>337.08627</ele>
        <time>2026-08-08T09:24:26Z</time>
      </trkpt>
      <trkpt lat="45.72746" lon="1.22594">
        <ele>337.08627</ele>
        <time>2026-08-08T09:24:27Z</time>
      </trkpt>
      <trkpt lat="45.7275" lon="1.22598">
        <ele>337.08627</ele>
        <time>2026-08-08T09:24:28Z</time>
      </trkpt>
      <trkpt lat="45.72753" lon="1.22601">
        <ele>337.08627</ele>
        <time>2026-08-08T09:24:29Z</time>
      </trkpt>
      <trkpt lat="45.72756" lon="1.22604">
        <ele>337.08627</ele>
        <time>2026-08-08T09:24:30Z</time>
      </trkpt>
      <trkpt lat="45.72758" lon="1.22608">
        <ele>338.08627</ele>
        <time>2026-08-08T09:24:31Z</time>
      </trkpt>
      <trkpt lat="45.72761" lon="1.22611">
        <ele>338.08627</ele>
        <time>2026-08-08T09:24:32Z</time>
      </trkpt>
      <trkpt lat="45.72763" lon="1.22614">
        <ele>338.08627</ele>
        <time>2026-08-08T09:24:33Z</time>
      </trkpt>
      <trkpt lat="45.72765" lon="1.22618">
        <ele>338.08627</ele>
        <time>2026-08-08T09:24:34Z</time>
      </trkpt>
      <trkpt lat="45.72767" lon="1.22622">
        <ele>339.08627</ele>
        <time>2026-08-08T09:24:35Z</time>
      </trkpt>
      <trkpt lat="45.72769" lon="1.22625">
        <ele>339.08627</ele>
        <time>2026-08-08T09:24:36Z</time>
      </trkpt>
      <trkpt lat="45.7277" lon="1.22629">
        <ele>339.08627</ele>
        <time>2026-08-08T09:24:37Z</time>
      </trkpt>
      <trkpt lat="45.72771" lon="1.22632">
        <ele>340.08627</ele>
        <time>2026-08-08T09:24:38Z</time>
      </trkpt>
      <trkpt lat="45.72773" lon="1.22637">
        <ele>340.08627</ele>
        <time>2026-08-08T09:24:39Z</time>
      </trkpt>
      <trkpt lat="45.72774" lon="1.22641">
        <ele>341.08627</ele>
        <time>2026-08-08T09:24:40Z</time>
      </trkpt>
      <trkpt lat="45.72775" lon="1.22645">
        <ele>341.08627</ele>
        <time>2026-08-08T09:24:41Z</time>
      </trkpt>
      <trkpt lat="45.72776" lon="1.22649">
        <ele>341.08627</ele>
        <time>2026-08-08T09:24:42Z</time>
      </trkpt>
      <trkpt lat="45.72778" lon="1.22653">
        <ele>342.08627</ele>
        <time>2026-08-08T09:24:43Z</time>
      </trkpt>
      <trkpt lat="45.72779" lon="1.22657">
        <ele>342.08627</ele>
        <time>2026-08-08T09:24:44Z</time>
      </trkpt>
      <trkpt lat="45.72781" lon="1.22661">
        <ele>342.08627</ele>
        <time>2026-08-08T09:24:45Z</time>
      </trkpt>
      <trkpt lat="45.72783" lon="1.22664">
        <ele>342.08627</ele>
        <time>2026-08-08T09:24:46Z</time>
      </trkpt>
      <trkpt lat="45.72784" lon="1.22668">
        <ele>342.08627</ele>
        <time>2026-08-08T09:24:47Z</time>
      </trkpt>
      <trkpt lat="45.72786" lon="1.22671">
        <ele>342.08627</ele>
        <time>2026-08-08T09:24:48Z</time>
      </trkpt>
      <trkpt lat="45.72788" lon="1.22674">
        <ele>341.08627</ele>
        <time>2026-08-08T09:24:49Z</time>
      </trkpt>
      <trkpt lat="45.7279" lon="1.22677">
        <ele>342.08627</ele>
        <time>2026-08-08T09:24:50Z</time>
      </trkpt>
      <trkpt lat="45.72792" lon="1.2268">
        <ele>341.08627</ele>
        <time>2026-08-08T09:24:51Z</time>
      </trkpt>
      <trkpt lat="45.72794" lon="1.22683">
        <ele>342.08627</ele>
        <time>2026-08-08T09:24:52Z</time>
      </trkpt>
      <trkpt lat="45.72796" lon="1.22686">
        <ele>342.08627</ele>
        <time>2026-08-08T09:24:53Z</time>
      </trkpt>
      <trkpt lat="45.72798" lon="1.2269">
        <ele>342.08627</ele>
        <time>2026-08-08T09:24:54Z</time>
      </trkpt>
      <trkpt lat="45.728" lon="1.22693">
        <ele>343.08627</ele>
        <time>2026-08-08T09:24:55Z</time>
      </trkpt>
      <trkpt lat="45.72802" lon="1.22696">
        <ele>343.08627</ele>
        <time>2026-08-08T09:24:56Z</time>
      </trkpt>
      <trkpt lat="45.72804" lon="1.22699">
        <ele>343.08627</ele>
        <time>2026-08-08T09:24:57Z</time>
      </trkpt>
      <trkpt lat="45.72806" lon="1.22702">
        <ele>344.08627</ele>
        <time>2026-08-08T09:24:58Z</time>
      </trkpt>
      <trkpt lat="45.72808" lon="1.22705">
        <ele>344.08627</ele>
        <time>2026-08-08T09:24:59Z</time>
      </trkpt>
      <trkpt lat="45.7281" lon="1.22707">
        <ele>345.08627</ele>
        <time>2026-08-08T09:25:00Z</time>
      </trkpt>
      <trkpt lat="45.72813" lon="1.2271">
        <ele>345.08627</ele>
        <time>2026-08-08T09:25:01Z</time>
      </trkpt>
      <trkpt lat="45.72816" lon="1.22713">
        <ele>346.08627</ele>
        <time>2026-08-08T09:25:02Z</time>
      </trkpt>
      <trkpt lat="45.72818" lon="1.22716">
        <ele>346.08627</ele>
        <time>2026-08-08T09:25:03Z</time>
      </trkpt>
      <trkpt lat="45.7282" lon="1.2272">
        <ele>345.08627</ele>
        <time>2026-08-08T09:25:04Z</time>
      </trkpt>
      <trkpt lat="45.72821" lon="1.22724">
        <ele>346.08627</ele>
        <time>2026-08-08T09:25:05Z</time>
      </trkpt>
      <trkpt lat="45.72824" lon="1.22728">
        <ele>345.08627</ele>
        <time>2026-08-08T09:25:06Z</time>
      </trkpt>
      <trkpt lat="45.72826" lon="1.22732">
        <ele>346.08627</ele>
        <time>2026-08-08T09:25:07Z</time>
      </trkpt>
      <trkpt lat="45.72828" lon="1.22736">
        <ele>346.08627</ele>
        <time>2026-08-08T09:25:08Z</time>
      </trkpt>
      <trkpt lat="45.7283" lon="1.2274">
        <ele>347.08627</ele>
        <time>2026-08-08T09:25:09Z</time>
      </trkpt>
      <trkpt lat="45.72832" lon="1.22743">
        <ele>347.08627</ele>
        <time>2026-08-08T09:25:10Z</time>
      </trkpt>
      <trkpt lat="45.72834" lon="1.22747">
        <ele>347.08627</ele>
        <time>2026-08-08T09:25:11Z</time>
      </trkpt>
      <trkpt lat="45.72836" lon="1.22751">
        <ele>348.08627</ele>
        <time>2026-08-08T09:25:12Z</time>
      </trkpt>
      <trkpt lat="45.72838" lon="1.22755">
        <ele>348.08627</ele>
        <time>2026-08-08T09:25:13Z</time>
      </trkpt>
      <trkpt lat="45.72841" lon="1.22758">
        <ele>348.08627</ele>
        <time>2026-08-08T09:25:14Z</time>
      </trkpt>
      <trkpt lat="45.72843" lon="1.22762">
        <ele>348.08627</ele>
        <time>2026-08-08T09:25:15Z</time>
      </trkpt>
      <trkpt lat="45.72845" lon="1.22765">
        <ele>348.08627</ele>
        <time>2026-08-08T09:25:16Z</time>
      </trkpt>
      <trkpt lat="45.72847" lon="1.22769">
        <ele>348.08627</ele>
        <time>2026-08-08T09:25:17Z</time>
      </trkpt>
      <trkpt lat="45.72849" lon="1.22772">
        <ele>348.08627</ele>
        <time>2026-08-08T09:25:18Z</time>
      </trkpt>
      <trkpt lat="45.72851" lon="1.22774">
        <ele>348.08627</ele>
        <time>2026-08-08T09:25:19Z</time>
      </trkpt>
      <trkpt lat="45.72853" lon="1.22776">
        <ele>348.08627</ele>
        <time>2026-08-08T09:25:20Z</time>
      </trkpt>
      <trkpt lat="45.72855" lon="1.22779">
        <ele>348.08627</ele>
        <time>2026-08-08T09:25:21Z</time>
      </trkpt>
      <trkpt lat="45.72856" lon="1.22783">
        <ele>348.08627</ele>
        <time>2026-08-08T09:25:22Z</time>
      </trkpt>
      <trkpt lat="45.72858" lon="1.22786">
        <ele>348.08627</ele>
        <time>2026-08-08T09:25:23Z</time>
      </trkpt>
      <trkpt lat="45.7286" lon="1.22789">
        <ele>349.08627</ele>
        <time>2026-08-08T09:25:24Z</time>
      </trkpt>
      <trkpt lat="45.72862" lon="1.22792">
        <ele>349.08627</ele>
        <time>2026-08-08T09:25:25Z</time>
      </trkpt>
      <trkpt lat="45.72864" lon="1.22795">
        <ele>349.08627</ele>
        <time>2026-08-08T09:25:26Z</time>
      </trkpt>
      <trkpt lat="45.72866" lon="1.22798">
        <ele>350.08627</ele>
        <time>2026-08-08T09:25:27Z</time>
      </trkpt>
      <trkpt lat="45.72868" lon="1.22802">
        <ele>350.08627</ele>
        <time>2026-08-08T09:25:28Z</time>
      </trkpt>
      <trkpt lat="45.7287" lon="1.22805">
        <ele>351.08627</ele>
        <time>2026-08-08T09:25:29Z</time>
      </trkpt>
      <trkpt lat="45.72872" lon="1.22808">
        <ele>351.08627</ele>
        <time>2026-08-08T09:25:30Z</time>
      </trkpt>
      <trkpt lat="45.72874" lon="1.22812">
        <ele>351.08627</ele>
        <time>2026-08-08T09:25:31Z</time>
      </trkpt>
      <trkpt lat="45.72875" lon="1.22815">
        <ele>352.08627</ele>
        <time>2026-08-08T09:25:32Z</time>
      </trkpt>
      <trkpt lat="45.72877" lon="1.22819">
        <ele>352.08627</ele>
        <time>2026-08-08T09:25:33Z</time>
      </trkpt>
      <trkpt lat="45.72879" lon="1.22822">
        <ele>352.08627</ele>
        <time>2026-08-08T09:25:34Z</time>
      </trkpt>
      <trkpt lat="45.72881" lon="1.22825">
        <ele>352.08627</ele>
        <time>2026-08-08T09:25:35Z</time>
      </trkpt>
      <trkpt lat="45.72883" lon="1.22829">
        <ele>353.08627</ele>
        <time>2026-08-08T09:25:36Z</time>
      </trkpt>
      <trkpt lat="45.72885" lon="1.22833">
        <ele>354.08627</ele>
        <time>2026-08-08T09:25:37Z</time>
      </trkpt>
      <trkpt lat="45.72887" lon="1.22837">
        <ele>354.08627</ele>
        <time>2026-08-08T09:25:38Z</time>
      </trkpt>
      <trkpt lat="45.7289" lon="1.2284">
        <ele>354.08627</ele>
        <time>2026-08-08T09:25:39Z</time>
      </trkpt>
      <trkpt lat="45.72892" lon="1.22843">
        <ele>354.08627</ele>
        <time>2026-08-08T09:25:40Z</time>
      </trkpt>
      <trkpt lat="45.72894" lon="1.22847">
        <ele>355.08627</ele>
        <time>2026-08-08T09:25:41Z</time>
      </trkpt>
      <trkpt lat="45.72896" lon="1.2285">
        <ele>354.08627</ele>
        <time>2026-08-08T09:25:42Z</time>
      </trkpt>
      <trkpt lat="45.72899" lon="1.22854">
        <ele>354.08627</ele>
        <time>2026-08-08T09:25:43Z</time>
      </trkpt>
      <trkpt lat="45.729" lon="1.22858">
        <ele>355.08627</ele>
        <time>2026-08-08T09:25:44Z</time>
      </trkpt>
      <trkpt lat="45.72903" lon="1.22861">
        <ele>356.08627</ele>
        <time>2026-08-08T09:25:45Z</time>
      </trkpt>
      <trkpt lat="45.72905" lon="1.22864">
        <ele>356.08627</ele>
        <time>2026-08-08T09:25:46Z</time>
      </trkpt>
      <trkpt lat="45.72907" lon="1.22868">
        <ele>356.08627</ele>
        <time>2026-08-08T09:25:47Z</time>
      </trkpt>
      <trkpt lat="45.72909" lon="1.22871">
        <ele>357.08627</ele>
        <time>2026-08-08T09:25:48Z</time>
      </trkpt>
      <trkpt lat="45.72911" lon="1.22873">
        <ele>357.08627</ele>
        <time>2026-08-08T09:25:49Z</time>
      </trkpt>
      <trkpt lat="45.72912" lon="1.22876">
        <ele>357.08627</ele>
        <time>2026-08-08T09:25:50Z</time>
      </trkpt>
      <trkpt lat="45.72915" lon="1.22878">
        <ele>358.08627</ele>
        <time>2026-08-08T09:25:51Z</time>
      </trkpt>
      <trkpt lat="45.72916" lon="1.2288">
        <ele>358.08627</ele>
        <time>2026-08-08T09:25:52Z</time>
      </trkpt>
      <trkpt lat="45.72918" lon="1.22884">
        <ele>359.08627</ele>
        <time>2026-08-08T09:25:53Z</time>
      </trkpt>
      <trkpt lat="45.7292" lon="1.22888">
        <ele>359.08627</ele>
        <time>2026-08-08T09:25:54Z</time>
      </trkpt>
      <trkpt lat="45.72922" lon="1.22891">
        <ele>359.08627</ele>
        <time>2026-08-08T09:25:55Z</time>
      </trkpt>
      <trkpt lat="45.72924" lon="1.22894">
        <ele>360.08627</ele>
        <time>2026-08-08T09:25:56Z</time>
      </trkpt>
      <trkpt lat="45.72926" lon="1.22897">
        <ele>360.08627</ele>
        <time>2026-08-08T09:25:57Z</time>
      </trkpt>
      <trkpt lat="45.72928" lon="1.22899">
        <ele>360.08627</ele>
        <time>2026-08-08T09:25:58Z</time>
      </trkpt>
      <trkpt lat="45.72929" lon="1.22902">
        <ele>361.08627</ele>
        <time>2026-08-08T09:25:59Z</time>
      </trkpt>
      <trkpt lat="45.7293" lon="1.22905">
        <ele>361.08627</ele>
        <time>2026-08-08T09:26:00Z</time>
      </trkpt>
      <trkpt lat="45.72932" lon="1.22908">
        <ele>361.08627</ele>
        <time>2026-08-08T09:26:01Z</time>
      </trkpt>
      <trkpt lat="45.72934" lon="1.22911">
        <ele>361.08627</ele>
        <time>2026-08-08T09:26:02Z</time>
      </trkpt>
      <trkpt lat="45.72936" lon="1.22914">
        <ele>360.08627</ele>
        <time>2026-08-08T09:26:03Z</time>
      </trkpt>
      <trkpt lat="45.72938" lon="1.22917">
        <ele>361.08627</ele>
        <time>2026-08-08T09:26:04Z</time>
      </trkpt>
      <trkpt lat="45.7294" lon="1.2292">
        <ele>361.08627</ele>
        <time>2026-08-08T09:26:05Z</time>
      </trkpt>
      <trkpt lat="45.72942" lon="1.22923">
        <ele>361.08627</ele>
        <time>2026-08-08T09:26:06Z</time>
      </trkpt>
      <trkpt lat="45.72943" lon="1.22925">
        <ele>361.08627</ele>
        <time>2026-08-08T09:26:07Z</time>
      </trkpt>
      <trkpt lat="45.72945" lon="1.22928">
        <ele>362.08627</ele>
        <time>2026-08-08T09:26:08Z</time>
      </trkpt>
      <trkpt lat="45.72946" lon="1.22931">
        <ele>362.08627</ele>
        <time>2026-08-08T09:26:09Z</time>
      </trkpt>
      <trkpt lat="45.72948" lon="1.22934">
        <ele>362.08627</ele>
        <time>2026-08-08T09:26:10Z</time>
      </trkpt>
      <trkpt lat="45.72949" lon="1.22937">
        <ele>362.08627</ele>
        <time>2026-08-08T09:26:11Z</time>
      </trkpt>
      <trkpt lat="45.72951" lon="1.2294">
        <ele>362.08627</ele>
        <time>2026-08-08T09:26:12Z</time>
      </trkpt>
      <trkpt lat="45.72952" lon="1.22942">
        <ele>362.08627</ele>
        <time>2026-08-08T09:26:13Z</time>
      </trkpt>
      <trkpt lat="45.72953" lon="1.22945">
        <ele>362.08627</ele>
        <time>2026-08-08T09:26:14Z</time>
      </trkpt>
      <trkpt lat="45.72954" lon="1.22948">
        <ele>363.08627</ele>
        <time>2026-08-08T09:26:15Z</time>
      </trkpt>
      <trkpt lat="45.72956" lon="1.2295">
        <ele>363.08627</ele>
        <time>2026-08-08T09:26:16Z</time>
      </trkpt>
      <trkpt lat="45.72957" lon="1.22953">
        <ele>364.08627</ele>
        <time>2026-08-08T09:26:17Z</time>
      </trkpt>
      <trkpt lat="45.72958" lon="1.22956">
        <ele>364.08627</ele>
        <time>2026-08-08T09:26:18Z</time>
      </trkpt>
      <trkpt lat="45.72959" lon="1.22959">
        <ele>363.08627</ele>
        <time>2026-08-08T09:26:19Z</time>
      </trkpt>
      <trkpt lat="45.7296" lon="1.22962">
        <ele>363.08627</ele>
        <time>2026-08-08T09:26:20Z</time>
      </trkpt>
      <trkpt lat="45.72961" lon="1.22964">
        <ele>363.08627</ele>
        <time>2026-08-08T09:26:21Z</time>
      </trkpt>
      <trkpt lat="45.72962" lon="1.22967">
        <ele>364.08627</ele>
        <time>2026-08-08T09:26:22Z</time>
      </trkpt>
      <trkpt lat="45.72963" lon="1.22969">
        <ele>364.08627</ele>
        <time>2026-08-08T09:26:23Z</time>
      </trkpt>
      <trkpt lat="45.72965" lon="1.22971">
        <ele>364.08627</ele>
        <time>2026-08-08T09:26:24Z</time>
      </trkpt>
      <trkpt lat="45.72967" lon="1.22973">
        <ele>364.08627</ele>
        <time>2026-08-08T09:26:25Z</time>
      </trkpt>
      <trkpt lat="45.72969" lon="1.22975">
        <ele>364.08627</ele>
        <time>2026-08-08T09:26:26Z</time>
      </trkpt>
      <trkpt lat="45.7297" lon="1.22978">
        <ele>365.08627</ele>
        <time>2026-08-08T09:26:27Z</time>
      </trkpt>
      <trkpt lat="45.72971" lon="1.22981">
        <ele>365.08627</ele>
        <time>2026-08-08T09:26:28Z</time>
      </trkpt>
      <trkpt lat="45.72973" lon="1.22983">
        <ele>366.08627</ele>
        <time>2026-08-08T09:26:29Z</time>
      </trkpt>
      <trkpt lat="45.72975" lon="1.22985">
        <ele>366.08627</ele>
        <time>2026-08-08T09:26:30Z</time>
      </trkpt>
      <trkpt lat="45.72976" lon="1.22986">
        <ele>366.08627</ele>
        <time>2026-08-08T09:26:31Z</time>
      </trkpt>
      <trkpt lat="45.72978" lon="1.22987">
        <ele>366.08627</ele>
        <time>2026-08-08T09:26:32Z</time>
      </trkpt>
      <trkpt lat="45.72979" lon="1.22987">
        <ele>367.08627</ele>
        <time>2026-08-08T09:26:33Z</time>
      </trkpt>
      <trkpt lat="45.72979" lon="1.22987">
        <ele>367.08627</ele>
        <time>2026-08-08T09:26:34Z</time>
      </trkpt>
      <trkpt lat="45.72979" lon="1.22987">
        <ele>367.08627</ele>
        <time>2026-08-08T09:26:36Z</time>
      </trkpt>
      <trkpt lat="45.72985" lon="1.22952">
        <ele>371.08627</ele>
        <time>2026-08-08T09:26:58Z</time>
      </trkpt>
      <trkpt lat="45.72985" lon="1.22948">
        <ele>371.08627</ele>
        <time>2026-08-08T09:26:59Z</time>
      </trkpt>
      <trkpt lat="45.72986" lon="1.22945">
        <ele>371.08627</ele>
        <time>2026-08-08T09:27:00Z</time>
      </trkpt>
      <trkpt lat="45.72986" lon="1.22941">
        <ele>371.08627</ele>
        <time>2026-08-08T09:27:01Z</time>
      </trkpt>
      <trkpt lat="45.72986" lon="1.22938">
        <ele>371.08627</ele>
        <time>2026-08-08T09:27:02Z</time>
      </trkpt>
      <trkpt lat="45.72986" lon="1.22934">
        <ele>372.08627</ele>
        <time>2026-08-08T09:27:03Z</time>
      </trkpt>
      <trkpt lat="45.72986" lon="1.2293">
        <ele>372.08627</ele>
        <time>2026-08-08T09:27:04Z</time>
      </trkpt>
      <trkpt lat="45.72984" lon="1.22926">
        <ele>372.08627</ele>
        <time>2026-08-08T09:27:05Z</time>
      </trkpt>
      <trkpt lat="45.72985" lon="1.22921">
        <ele>373.08627</ele>
        <time>2026-08-08T09:27:06Z</time>
      </trkpt>
      <trkpt lat="45.72984" lon="1.22918">
        <ele>374.08627</ele>
        <time>2026-08-08T09:27:07Z</time>
      </trkpt>
      <trkpt lat="45.72984" lon="1.22914">
        <ele>373.08627</ele>
        <time>2026-08-08T09:27:08Z</time>
      </trkpt>
      <trkpt lat="45.72984" lon="1.2291">
        <ele>372.08627</ele>
        <time>2026-08-08T09:27:09Z</time>
      </trkpt>
      <trkpt lat="45.72985" lon="1.22905">
        <ele>372.08627</ele>
        <time>2026-08-08T09:27:10Z</time>
      </trkpt>
      <trkpt lat="45.72985" lon="1.229">
        <ele>371.08627</ele>
        <time>2026-08-08T09:27:11Z</time>
      </trkpt>
      <trkpt lat="45.72985" lon="1.22895">
        <ele>371.08627</ele>
        <time>2026-08-08T09:27:12Z</time>
      </trkpt>
      <trkpt lat="45.72986" lon="1.22891">
        <ele>370.08627</ele>
        <time>2026-08-08T09:27:13Z</time>
      </trkpt>
      <trkpt lat="45.72986" lon="1.22886">
        <ele>370.08627</ele>
        <time>2026-08-08T09:27:14Z</time>
      </trkpt>
      <trkpt lat="45.72986" lon="1.2288">
        <ele>370.08627</ele>
        <time>2026-08-08T09:27:15Z</time>
      </trkpt>
      <trkpt lat="45.72986" lon="1.22875">
        <ele>369.08627</ele>
        <time>2026-08-08T09:27:16Z</time>
      </trkpt>
      <trkpt lat="45.72987" lon="1.2287">
        <ele>368.08627</ele>
        <time>2026-08-08T09:27:17Z</time>
      </trkpt>
      <trkpt lat="45.72987" lon="1.22864">
        <ele>369.08627</ele>
        <time>2026-08-08T09:27:18Z</time>
      </trkpt>
      <trkpt lat="45.72987" lon="1.22858">
        <ele>370.08627</ele>
        <time>2026-08-08T09:27:19Z</time>
      </trkpt>
      <trkpt lat="45.72987" lon="1.22852">
        <ele>370.08627</ele>
        <time>2026-08-08T09:27:20Z</time>
      </trkpt>
      <trkpt lat="45.72986" lon="1.22846">
        <ele>370.08627</ele>
        <time>2026-08-08T09:27:21Z</time>
      </trkpt>
      <trkpt lat="45.72987" lon="1.22841">
        <ele>370.08627</ele>
        <time>2026-08-08T09:27:22Z</time>
      </trkpt>
      <trkpt lat="45.72988" lon="1.22836">
        <ele>370.08627</ele>
        <time>2026-08-08T09:27:23Z</time>
      </trkpt>
      <trkpt lat="45.72987" lon="1.22831">
        <ele>370.08627</ele>
        <time>2026-08-08T09:27:24Z</time>
      </trkpt>
      <trkpt lat="45.72988" lon="1.22827">
        <ele>370.08627</ele>
        <time>2026-08-08T09:27:25Z</time>
      </trkpt>
      <trkpt lat="45.72988" lon="1.22821">
        <ele>370.08627</ele>
        <time>2026-08-08T09:27:26Z</time>
      </trkpt>
      <trkpt lat="45.72989" lon="1.22816">
        <ele>370.08627</ele>
        <time>2026-08-08T09:27:27Z</time>
      </trkpt>
      <trkpt lat="45.72989" lon="1.2281">
        <ele>370.08627</ele>
        <time>2026-08-08T09:27:28Z</time>
      </trkpt>
      <trkpt lat="45.7299" lon="1.22805">
        <ele>369.08627</ele>
        <time>2026-08-08T09:27:29Z</time>
      </trkpt>
      <trkpt lat="45.7299" lon="1.228">
        <ele>369.08627</ele>
        <time>2026-08-08T09:27:30Z</time>
      </trkpt>
      <trkpt lat="45.72991" lon="1.22795">
        <ele>369.08627</ele>
        <time>2026-08-08T09:27:31Z</time>
      </trkpt>
      <trkpt lat="45.72991" lon="1.22789">
        <ele>369.08627</ele>
        <time>2026-08-08T09:27:32Z</time>
      </trkpt>
      <trkpt lat="45.72992" lon="1.22785">
        <ele>369.08627</ele>
        <time>2026-08-08T09:27:33Z</time>
      </trkpt>
      <trkpt lat="45.72993" lon="1.2278">
        <ele>369.08627</ele>
        <time>2026-08-08T09:27:34Z</time>
      </trkpt>
      <trkpt lat="45.72995" lon="1.22777">
        <ele>369.08627</ele>
        <time>2026-08-08T09:27:35Z</time>
      </trkpt>
      <trkpt lat="45.72996" lon="1.22773">
        <ele>369.08627</ele>
        <time>2026-08-08T09:27:36Z</time>
      </trkpt>
      <trkpt lat="45.72997" lon="1.22769">
        <ele>369.08627</ele>
        <time>2026-08-08T09:27:37Z</time>
      </trkpt>
      <trkpt lat="45.72997" lon="1.22766">
        <ele>369.08627</ele>
        <time>2026-08-08T09:27:38Z</time>
      </trkpt>
      <trkpt lat="45.72998" lon="1.22762">
        <ele>369.08627</ele>
        <time>2026-08-08T09:27:39Z</time>
      </trkpt>
      <trkpt lat="45.72999" lon="1.22759">
        <ele>369.08627</ele>
        <time>2026-08-08T09:27:40Z</time>
      </trkpt>
      <trkpt lat="45.73" lon="1.22756">
        <ele>368.08627</ele>
        <time>2026-08-08T09:27:41Z</time>
      </trkpt>
      <trkpt lat="45.73" lon="1.22753">
        <ele>368.08627</ele>
        <time>2026-08-08T09:27:42Z</time>
      </trkpt>
      <trkpt lat="45.73" lon="1.22751">
        <ele>367.08627</ele>
        <time>2026-08-08T09:27:43Z</time>
      </trkpt>
      <trkpt lat="45.73001" lon="1.2275">
        <ele>367.08627</ele>
        <time>2026-08-08T09:27:44Z</time>
      </trkpt>
      <trkpt lat="45.73001" lon="1.2275">
        <ele>367.08627</ele>
        <time>2026-08-08T09:27:45Z</time>
      </trkpt>
      <trkpt lat="45.73002" lon="1.2275">
        <ele>367.08627</ele>
        <time>2026-08-08T09:27:46Z</time>
      </trkpt>
      <trkpt lat="45.73002" lon="1.2275">
        <ele>367.08627</ele>
        <time>2026-08-08T09:27:47Z</time>
      </trkpt>
      <trkpt lat="45.73002" lon="1.2275">
        <ele>367.08627</ele>
        <time>2026-08-08T09:27:48Z</time>
      </trkpt>
      <trkpt lat="45.73009" lon="1.22724">
        <ele>361.08627</ele>
        <time>2026-08-08T09:28:41Z</time>
      </trkpt>
      <trkpt lat="45.7301" lon="1.2272">
        <ele>360.08627</ele>
        <time>2026-08-08T09:28:42Z</time>
      </trkpt>
      <trkpt lat="45.73011" lon="1.22716">
        <ele>360.08627</ele>
        <time>2026-08-08T09:28:43Z</time>
      </trkpt>
      <trkpt lat="45.73012" lon="1.22712">
        <ele>359.08627</ele>
        <time>2026-08-08T09:28:44Z</time>
      </trkpt>
      <trkpt lat="45.73013" lon="1.22707">
        <ele>358.08627</ele>
        <time>2026-08-08T09:28:45Z</time>
      </trkpt>
      <trkpt lat="45.73014" lon="1.22702">
        <ele>358.08627</ele>
        <time>2026-08-08T09:28:46Z</time>
      </trkpt>
      <trkpt lat="45.73015" lon="1.22696">
        <ele>358.08627</ele>
        <time>2026-08-08T09:28:47Z</time>
      </trkpt>
      <trkpt lat="45.73016" lon="1.22692">
        <ele>357.08627</ele>
        <time>2026-08-08T09:28:48Z</time>
      </trkpt>
      <trkpt lat="45.73018" lon="1.22689">
        <ele>357.08627</ele>
        <time>2026-08-08T09:28:49Z</time>
      </trkpt>
      <trkpt lat="45.73019" lon="1.22684">
        <ele>357.08627</ele>
        <time>2026-08-08T09:28:50Z</time>
      </trkpt>
      <trkpt lat="45.7302" lon="1.22681">
        <ele>356.08627</ele>
        <time>2026-08-08T09:28:51Z</time>
      </trkpt>
      <trkpt lat="45.73021" lon="1.22678">
        <ele>356.08627</ele>
        <time>2026-08-08T09:28:52Z</time>
      </trkpt>
      <trkpt lat="45.73022" lon="1.22673">
        <ele>356.08627</ele>
        <time>2026-08-08T09:28:53Z</time>
      </trkpt>
      <trkpt lat="45.73022" lon="1.22669">
        <ele>356.08627</ele>
        <time>2026-08-08T09:28:54Z</time>
      </trkpt>
      <trkpt lat="45.73023" lon="1.22665">
        <ele>356.08627</ele>
        <time>2026-08-08T09:28:55Z</time>
      </trkpt>
      <trkpt lat="45.73024" lon="1.22661">
        <ele>355.08627</ele>
        <time>2026-08-08T09:28:56Z</time>
      </trkpt>
      <trkpt lat="45.73024" lon="1.22657">
        <ele>355.08627</ele>
        <time>2026-08-08T09:28:57Z</time>
      </trkpt>
      <trkpt lat="45.73025" lon="1.22653">
        <ele>354.08627</ele>
        <time>2026-08-08T09:28:58Z</time>
      </trkpt>
      <trkpt lat="45.73026" lon="1.22649">
        <ele>354.08627</ele>
        <time>2026-08-08T09:28:59Z</time>
      </trkpt>
      <trkpt lat="45.73028" lon="1.22645">
        <ele>353.08627</ele>
        <time>2026-08-08T09:29:00Z</time>
      </trkpt>
      <trkpt lat="45.73028" lon="1.22639">
        <ele>352.08627</ele>
        <time>2026-08-08T09:29:01Z</time>
      </trkpt>
      <trkpt lat="45.7303" lon="1.22633">
        <ele>352.08627</ele>
        <time>2026-08-08T09:29:02Z</time>
      </trkpt>
      <trkpt lat="45.73031" lon="1.22628">
        <ele>352.08627</ele>
        <time>2026-08-08T09:29:03Z</time>
      </trkpt>
      <trkpt lat="45.73033" lon="1.22623">
        <ele>351.08627</ele>
        <time>2026-08-08T09:29:04Z</time>
      </trkpt>
      <trkpt lat="45.73035" lon="1.22618">
        <ele>350.08627</ele>
        <time>2026-08-08T09:29:05Z</time>
      </trkpt>
      <trkpt lat="45.73037" lon="1.22613">
        <ele>350.08627</ele>
        <time>2026-08-08T09:29:06Z</time>
      </trkpt>
      <trkpt lat="45.7304" lon="1.22608">
        <ele>349.08627</ele>
        <time>2026-08-08T09:29:07Z</time>
      </trkpt>
      <trkpt lat="45.73041" lon="1.22604">
        <ele>348.08627</ele>
        <time>2026-08-08T09:29:08Z</time>
      </trkpt>
      <trkpt lat="45.73044" lon="1.22599">
        <ele>348.08627</ele>
        <time>2026-08-08T09:29:09Z</time>
      </trkpt>
      <trkpt lat="45.73047" lon="1.22595">
        <ele>347.08627</ele>
        <time>2026-08-08T09:29:10Z</time>
      </trkpt>
      <trkpt lat="45.73049" lon="1.2259">
        <ele>347.08627</ele>
        <time>2026-08-08T09:29:11Z</time>
      </trkpt>
      <trkpt lat="45.73053" lon="1.22586">
        <ele>348.08627</ele>
        <time>2026-08-08T09:29:12Z</time>
      </trkpt>
      <trkpt lat="45.73056" lon="1.22582">
        <ele>347.08627</ele>
        <time>2026-08-08T09:29:13Z</time>
      </trkpt>
      <trkpt lat="45.73058" lon="1.22578">
        <ele>347.08627</ele>
        <time>2026-08-08T09:29:14Z</time>
      </trkpt>
      <trkpt lat="45.73061" lon="1.22574">
        <ele>346.08627</ele>
        <time>2026-08-08T09:29:15Z</time>
      </trkpt>
      <trkpt lat="45.73064" lon="1.22569">
        <ele>346.08627</ele>
        <time>2026-08-08T09:29:16Z</time>
      </trkpt>
      <trkpt lat="45.73067" lon="1.22565">
        <ele>346.08627</ele>
        <time>2026-08-08T09:29:17Z</time>
      </trkpt>
      <trkpt lat="45.7307" lon="1.22562">
        <ele>346.08627</ele>
        <time>2026-08-08T09:29:18Z</time>
      </trkpt>
      <trkpt lat="45.73074" lon="1.22558">
        <ele>345.08627</ele>
        <time>2026-08-08T09:29:19Z</time>
      </trkpt>
      <trkpt lat="45.73078" lon="1.22556">
        <ele>345.08627</ele>
        <time>2026-08-08T09:29:20Z</time>
      </trkpt>
      <trkpt lat="45.73081" lon="1.22554">
        <ele>344.08627</ele>
        <time>2026-08-08T09:29:21Z</time>
      </trkpt>
      <trkpt lat="45.73085" lon="1.22552">
        <ele>343.08627</ele>
        <time>2026-08-08T09:29:22Z</time>
      </trkpt>
      <trkpt lat="45.73088" lon="1.22551">
        <ele>343.08627</ele>
        <time>2026-08-08T09:29:23Z</time>
      </trkpt>
      <trkpt lat="45.73091" lon="1.2255">
        <ele>343.08627</ele>
        <time>2026-08-08T09:29:24Z</time>
      </trkpt>
      <trkpt lat="45.73094" lon="1.22549">
        <ele>343.08627</ele>
        <time>2026-08-08T09:29:25Z</time>
      </trkpt>
      <trkpt lat="45.73098" lon="1.22548">
        <ele>342.08627</ele>
        <time>2026-08-08T09:29:26Z</time>
      </trkpt>
      <trkpt lat="45.73101" lon="1.22547">
        <ele>342.08627</ele>
        <time>2026-08-08T09:29:27Z</time>
      </trkpt>
      <trkpt lat="45.73104" lon="1.22545">
        <ele>343.08627</ele>
        <time>2026-08-08T09:29:28Z</time>
      </trkpt>
      <trkpt lat="45.73107" lon="1.22544">
        <ele>343.08627</ele>
        <time>2026-08-08T09:29:29Z</time>
      </trkpt>
      <trkpt lat="45.73111" lon="1.22542">
        <ele>343.08627</ele>
        <time>2026-08-08T09:29:30Z</time>
      </trkpt>
      <trkpt lat="45.73114" lon="1.22539">
        <ele>344.08627</ele>
        <time>2026-08-08T09:29:31Z</time>
      </trkpt>
      <trkpt lat="45.73117" lon="1.22537">
        <ele>344.08627</ele>
        <time>2026-08-08T09:29:32Z</time>
      </trkpt>
      <trkpt lat="45.73121" lon="1.22534">
        <ele>344.08627</ele>
        <time>2026-08-08T09:29:33Z</time>
      </trkpt>
      <trkpt lat="45.73123" lon="1.2253">
        <ele>345.08627</ele>
        <time>2026-08-08T09:29:34Z</time>
      </trkpt>
      <trkpt lat="45.73126" lon="1.22527">
        <ele>344.08627</ele>
        <time>2026-08-08T09:29:35Z</time>
      </trkpt>
      <trkpt lat="45.73129" lon="1.22524">
        <ele>345.08627</ele>
        <time>2026-08-08T09:29:36Z</time>
      </trkpt>
      <trkpt lat="45.73132" lon="1.22521">
        <ele>345.08627</ele>
        <time>2026-08-08T09:29:37Z</time>
      </trkpt>
      <trkpt lat="45.73136" lon="1.22517">
        <ele>345.08627</ele>
        <time>2026-08-08T09:29:38Z</time>
      </trkpt>
      <trkpt lat="45.73139" lon="1.22514">
        <ele>345.08627</ele>
        <time>2026-08-08T09:29:39Z</time>
      </trkpt>
      <trkpt lat="45.73141" lon="1.2251">
        <ele>346.08627</ele>
        <time>2026-08-08T09:29:40Z</time>
      </trkpt>
      <trkpt lat="45.73144" lon="1.22506">
        <ele>346.08627</ele>
        <time>2026-08-08T09:29:41Z</time>
      </trkpt>
      <trkpt lat="45.73148" lon="1.22502">
        <ele>347.08627</ele>
        <time>2026-08-08T09:29:42Z</time>
      </trkpt>
      <trkpt lat="45.7315" lon="1.22498">
        <ele>347.08627</ele>
        <time>2026-08-08T09:29:43Z</time>
      </trkpt>
      <trkpt lat="45.73152" lon="1.22492">
        <ele>348.08627</ele>
        <time>2026-08-08T09:29:44Z</time>
      </trkpt>
      <trkpt lat="45.73154" lon="1.22487">
        <ele>349.08627</ele>
        <time>2026-08-08T09:29:45Z</time>
      </trkpt>
      <trkpt lat="45.73155" lon="1.22482">
        <ele>349.08627</ele>
        <time>2026-08-08T09:29:46Z</time>
      </trkpt>
      <trkpt lat="45.73155" lon="1.22477">
        <ele>349.08627</ele>
        <time>2026-08-08T09:29:47Z</time>
      </trkpt>
      <trkpt lat="45.73155" lon="1.22471">
        <ele>350.08627</ele>
        <time>2026-08-08T09:29:48Z</time>
      </trkpt>
      <trkpt lat="45.73154" lon="1.22465">
        <ele>350.08627</ele>
        <time>2026-08-08T09:29:49Z</time>
      </trkpt>
      <trkpt lat="45.73154" lon="1.2246">
        <ele>350.08627</ele>
        <time>2026-08-08T09:29:50Z</time>
      </trkpt>
      <trkpt lat="45.73153" lon="1.22454">
        <ele>351.08627</ele>
        <time>2026-08-08T09:29:51Z</time>
      </trkpt>
      <trkpt lat="45.73152" lon="1.22449">
        <ele>351.08627</ele>
        <time>2026-08-08T09:29:52Z</time>
      </trkpt>
      <trkpt lat="45.73151" lon="1.22443">
        <ele>351.08627</ele>
        <time>2026-08-08T09:29:53Z</time>
      </trkpt>
      <trkpt lat="45.7315" lon="1.22438">
        <ele>351.08627</ele>
        <time>2026-08-08T09:29:54Z</time>
      </trkpt>
      <trkpt lat="45.7315" lon="1.22432">
        <ele>352.08627</ele>
        <time>2026-08-08T09:29:55Z</time>
      </trkpt>
      <trkpt lat="45.73149" lon="1.22426">
        <ele>352.08627</ele>
        <time>2026-08-08T09:29:56Z</time>
      </trkpt>
      <trkpt lat="45.73149" lon="1.22421">
        <ele>353.08627</ele>
        <time>2026-08-08T09:29:57Z</time>
      </trkpt>
      <trkpt lat="45.73148" lon="1.22416">
        <ele>354.08627</ele>
        <time>2026-08-08T09:29:58Z</time>
      </trkpt>
      <trkpt lat="45.73148" lon="1.22412">
        <ele>355.08627</ele>
        <time>2026-08-08T09:29:59Z</time>
      </trkpt>
      <trkpt lat="45.73147" lon="1.22407">
        <ele>355.08627</ele>
        <time>2026-08-08T09:30:00Z</time>
      </trkpt>
      <trkpt lat="45.73147" lon="1.22403">
        <ele>356.08627</ele>
        <time>2026-08-08T09:30:01Z</time>
      </trkpt>
      <trkpt lat="45.73146" lon="1.22399">
        <ele>357.08627</ele>
        <time>2026-08-08T09:30:02Z</time>
      </trkpt>
      <trkpt lat="45.73145" lon="1.22393">
        <ele>357.08627</ele>
        <time>2026-08-08T09:30:03Z</time>
      </trkpt>
      <trkpt lat="45.73143" lon="1.22389">
        <ele>358.08627</ele>
        <time>2026-08-08T09:30:04Z</time>
      </trkpt>
      <trkpt lat="45.73142" lon="1.22384">
        <ele>358.08627</ele>
        <time>2026-08-08T09:30:05Z</time>
      </trkpt>
      <trkpt lat="45.7314" lon="1.22379">
        <ele>358.08627</ele>
        <time>2026-08-08T09:30:06Z</time>
      </trkpt>
      <trkpt lat="45.73139" lon="1.22375">
        <ele>358.08627</ele>
        <time>2026-08-08T09:30:07Z</time>
      </trkpt>
      <trkpt lat="45.73137" lon="1.22371">
        <ele>358.08627</ele>
        <time>2026-08-08T09:30:08Z</time>
      </trkpt>
      <trkpt lat="45.73136" lon="1.22367">
        <ele>359.08627</ele>
        <time>2026-08-08T09:30:09Z</time>
      </trkpt>
      <trkpt lat="45.73136" lon="1.22362">
        <ele>359.08627</ele>
        <time>2026-08-08T09:30:10Z</time>
      </trkpt>
      <trkpt lat="45.73134" lon="1.22357">
        <ele>360.08627</ele>
        <time>2026-08-08T09:30:11Z</time>
      </trkpt>
      <trkpt lat="45.73133" lon="1.22352">
        <ele>361.08627</ele>
        <time>2026-08-08T09:30:12Z</time>
      </trkpt>
      <trkpt lat="45.73132" lon="1.22347">
        <ele>362.08627</ele>
        <time>2026-08-08T09:30:13Z</time>
      </trkpt>
      <trkpt lat="45.73131" lon="1.22342">
        <ele>363.08627</ele>
        <time>2026-08-08T09:30:14Z</time>
      </trkpt>
      <trkpt lat="45.73129" lon="1.22337">
        <ele>363.08627</ele>
        <time>2026-08-08T09:30:15Z</time>
      </trkpt>
      <trkpt lat="45.73128" lon="1.22333">
        <ele>363.08627</ele>
        <time>2026-08-08T09:30:16Z</time>
      </trkpt>
      <trkpt lat="45.73128" lon="1.22328">
        <ele>364.08627</ele>
        <time>2026-08-08T09:30:17Z</time>
      </trkpt>
      <trkpt lat="45.73127" lon="1.22324">
        <ele>364.08627</ele>
        <time>2026-08-08T09:30:18Z</time>
      </trkpt>
      <trkpt lat="45.73126" lon="1.2232">
        <ele>364.08627</ele>
        <time>2026-08-08T09:30:19Z</time>
      </trkpt>
      <trkpt lat="45.73125" lon="1.22315">
        <ele>364.08627</ele>
        <time>2026-08-08T09:30:20Z</time>
      </trkpt>
      <trkpt lat="45.73124" lon="1.2231">
        <ele>363.08627</ele>
        <time>2026-08-08T09:30:21Z</time>
      </trkpt>
      <trkpt lat="45.73123" lon="1.22305">
        <ele>363.08627</ele>
        <time>2026-08-08T09:30:22Z</time>
      </trkpt>
      <trkpt lat="45.73122" lon="1.223">
        <ele>363.08627</ele>
        <time>2026-08-08T09:30:23Z</time>
      </trkpt>
      <trkpt lat="45.73121" lon="1.22295">
        <ele>363.08627</ele>
        <time>2026-08-08T09:30:24Z</time>
      </trkpt>
      <trkpt lat="45.73119" lon="1.2229">
        <ele>363.08627</ele>
        <time>2026-08-08T09:30:25Z</time>
      </trkpt>
      <trkpt lat="45.73118" lon="1.22285">
        <ele>363.08627</ele>
        <time>2026-08-08T09:30:26Z</time>
      </trkpt>
      <trkpt lat="45.73117" lon="1.2228">
        <ele>363.08627</ele>
        <time>2026-08-08T09:30:27Z</time>
      </trkpt>
      <trkpt lat="45.73115" lon="1.22275">
        <ele>362.08627</ele>
        <time>2026-08-08T09:30:28Z</time>
      </trkpt>
      <trkpt lat="45.73114" lon="1.2227">
        <ele>363.08627</ele>
        <time>2026-08-08T09:30:29Z</time>
      </trkpt>
      <trkpt lat="45.73112" lon="1.22266">
        <ele>362.08627</ele>
        <time>2026-08-08T09:30:30Z</time>
      </trkpt>
      <trkpt lat="45.73111" lon="1.22261">
        <ele>362.08627</ele>
        <time>2026-08-08T09:30:31Z</time>
      </trkpt>
      <trkpt lat="45.7311" lon="1.22256">
        <ele>362.08627</ele>
        <time>2026-08-08T09:30:32Z</time>
      </trkpt>
      <trkpt lat="45.73109" lon="1.22251">
        <ele>362.08627</ele>
        <time>2026-08-08T09:30:33Z</time>
      </trkpt>
      <trkpt lat="45.73108" lon="1.22247">
        <ele>362.08627</ele>
        <time>2026-08-08T09:30:34Z</time>
      </trkpt>
      <trkpt lat="45.73107" lon="1.22242">
        <ele>363.08627</ele>
        <time>2026-08-08T09:30:35Z</time>
      </trkpt>
      <trkpt lat="45.73105" lon="1.22238">
        <ele>362.08627</ele>
        <time>2026-08-08T09:30:36Z</time>
      </trkpt>
      <trkpt lat="45.73104" lon="1.22234">
        <ele>361.08627</ele>
        <time>2026-08-08T09:30:37Z</time>
      </trkpt>
      <trkpt lat="45.73103" lon="1.2223">
        <ele>362.08627</ele>
        <time>2026-08-08T09:30:38Z</time>
      </trkpt>
      <trkpt lat="45.73102" lon="1.22226">
        <ele>361.08627</ele>
        <time>2026-08-08T09:30:39Z</time>
      </trkpt>
      <trkpt lat="45.73101" lon="1.22222">
        <ele>361.08627</ele>
        <time>2026-08-08T09:30:40Z</time>
      </trkpt>
      <trkpt lat="45.731" lon="1.22218">
        <ele>361.08627</ele>
        <time>2026-08-08T09:30:41Z</time>
      </trkpt>
      <trkpt lat="45.73098" lon="1.22215">
        <ele>361.08627</ele>
        <time>2026-08-08T09:30:42Z</time>
      </trkpt>
      <trkpt lat="45.73097" lon="1.22211">
        <ele>361.08627</ele>
        <time>2026-08-08T09:30:43Z</time>
      </trkpt>
      <trkpt lat="45.73096" lon="1.22207">
        <ele>361.08627</ele>
        <time>2026-08-08T09:30:44Z</time>
      </trkpt>
      <trkpt lat="45.73095" lon="1.22203">
        <ele>361.08627</ele>
        <time>2026-08-08T09:30:45Z</time>
      </trkpt>
      <trkpt lat="45.73094" lon="1.22199">
        <ele>361.08627</ele>
        <time>2026-08-08T09:30:46Z</time>
      </trkpt>
      <trkpt lat="45.73093" lon="1.22196">
        <ele>361.08627</ele>
        <time>2026-08-08T09:30:47Z</time>
      </trkpt>
      <trkpt lat="45.73092" lon="1.22193">
        <ele>361.08627</ele>
        <time>2026-08-08T09:30:48Z</time>
      </trkpt>
      <trkpt lat="45.7309" lon="1.22189">
        <ele>361.08627</ele>
        <time>2026-08-08T09:30:49Z</time>
      </trkpt>
      <trkpt lat="45.7309" lon="1.22185">
        <ele>361.08627</ele>
        <time>2026-08-08T09:30:50Z</time>
      </trkpt>
      <trkpt lat="45.73089" lon="1.22182">
        <ele>361.08627</ele>
        <time>2026-08-08T09:30:51Z</time>
      </trkpt>
      <trkpt lat="45.73089" lon="1.22179">
        <ele>361.08627</ele>
        <time>2026-08-08T09:30:52Z</time>
      </trkpt>
      <trkpt lat="45.73089" lon="1.22177">
        <ele>361.08627</ele>
        <time>2026-08-08T09:30:53Z</time>
      </trkpt>
      <trkpt lat="45.7309" lon="1.22174">
        <ele>361.08627</ele>
        <time>2026-08-08T09:30:54Z</time>
      </trkpt>
      <trkpt lat="45.7309" lon="1.22172">
        <ele>361.08627</ele>
        <time>2026-08-08T09:30:55Z</time>
      </trkpt>
      <trkpt lat="45.7309" lon="1.22172">
        <ele>361.08627</ele>
        <time>2026-08-08T09:30:56Z</time>
      </trkpt>
      <trkpt lat="45.7309" lon="1.22172">
        <ele>361.08627</ele>
        <time>2026-08-08T09:30:57Z</time>
      </trkpt>
      <trkpt lat="45.7309" lon="1.22172">
        <ele>361.08627</ele>
        <time>2026-08-08T09:30:58Z</time>
      </trkpt>
      <trkpt lat="45.73106" lon="1.22172">
        <ele>361.08627</ele>
        <time>2026-08-08T09:31:35Z</time>
      </trkpt>
      <trkpt lat="45.73109" lon="1.22173">
        <ele>360.08627</ele>
        <time>2026-08-08T09:31:36Z</time>
      </trkpt>
      <trkpt lat="45.73112" lon="1.22173">
        <ele>360.08627</ele>
        <time>2026-08-08T09:31:37Z</time>
      </trkpt>
      <trkpt lat="45.73115" lon="1.22173">
        <ele>359.08627</ele>
        <time>2026-08-08T09:31:38Z</time>
      </trkpt>
      <trkpt lat="45.73118" lon="1.22172">
        <ele>359.08627</ele>
        <time>2026-08-08T09:31:39Z</time>
      </trkpt>
      <trkpt lat="45.73121" lon="1.22172">
        <ele>359.08627</ele>
        <time>2026-08-08T09:31:40Z</time>
      </trkpt>
      <trkpt lat="45.73123" lon="1.22173">
        <ele>359.08627</ele>
        <time>2026-08-08T09:31:41Z</time>
      </trkpt>
      <trkpt lat="45.73126" lon="1.22172">
        <ele>359.08627</ele>
        <time>2026-08-08T09:31:42Z</time>
      </trkpt>
      <trkpt lat="45.73129" lon="1.22173">
        <ele>360.08627</ele>
        <time>2026-08-08T09:31:43Z</time>
      </trkpt>
      <trkpt lat="45.73131" lon="1.22173">
        <ele>360.08627</ele>
        <time>2026-08-08T09:31:44Z</time>
      </trkpt>
      <trkpt lat="45.73134" lon="1.22172">
        <ele>360.08627</ele>
        <time>2026-08-08T09:31:45Z</time>
      </trkpt>
      <trkpt lat="45.73137" lon="1.22171">
        <ele>360.08627</ele>
        <time>2026-08-08T09:31:46Z</time>
      </trkpt>
      <trkpt lat="45.73141" lon="1.22172">
        <ele>361.08627</ele>
        <time>2026-08-08T09:31:47Z</time>
      </trkpt>
      <trkpt lat="45.73144" lon="1.22172">
        <ele>361.08627</ele>
        <time>2026-08-08T09:31:48Z</time>
      </trkpt>
      <trkpt lat="45.73146" lon="1.22171">
        <ele>361.08627</ele>
        <time>2026-08-08T09:31:49Z</time>
      </trkpt>
      <trkpt lat="45.73149" lon="1.22171">
        <ele>361.08627</ele>
        <time>2026-08-08T09:31:50Z</time>
      </trkpt>
      <trkpt lat="45.73152" lon="1.22171">
        <ele>361.08627</ele>
        <time>2026-08-08T09:31:51Z</time>
      </trkpt>
      <trkpt lat="45.73155" lon="1.22171">
        <ele>362.08627</ele>
        <time>2026-08-08T09:31:52Z</time>
      </trkpt>
      <trkpt lat="45.73158" lon="1.2217">
        <ele>362.08627</ele>
        <time>2026-08-08T09:31:53Z</time>
      </trkpt>
      <trkpt lat="45.7316" lon="1.2217">
        <ele>362.08627</ele>
        <time>2026-08-08T09:31:54Z</time>
      </trkpt>
      <trkpt lat="45.73163" lon="1.2217">
        <ele>362.08627</ele>
        <time>2026-08-08T09:31:55Z</time>
      </trkpt>
      <trkpt lat="45.73166" lon="1.2217">
        <ele>362.08627</ele>
        <time>2026-08-08T09:31:56Z</time>
      </trkpt>
      <trkpt lat="45.73168" lon="1.2217">
        <ele>362.08627</ele>
        <time>2026-08-08T09:31:57Z</time>
      </trkpt>
      <trkpt lat="45.73173" lon="1.22169">
        <ele>362.08627</ele>
        <time>2026-08-08T09:31:58Z</time>
      </trkpt>
      <trkpt lat="45.73175" lon="1.22169">
        <ele>363.08627</ele>
        <time>2026-08-08T09:31:59Z</time>
      </trkpt>
      <trkpt lat="45.73178" lon="1.22168">
        <ele>363.08627</ele>
        <time>2026-08-08T09:32:00Z</time>
      </trkpt>
      <trkpt lat="45.73181" lon="1.22168">
        <ele>363.08627</ele>
        <time>2026-08-08T09:32:01Z</time>
      </trkpt>
      <trkpt lat="45.73183" lon="1.22169">
        <ele>363.08627</ele>
        <time>2026-08-08T09:32:02Z</time>
      </trkpt>
      <trkpt lat="45.73185" lon="1.22169">
        <ele>364.08627</ele>
        <time>2026-08-08T09:32:03Z</time>
      </trkpt>
      <trkpt lat="45.73188" lon="1.22169">
        <ele>364.08627</ele>
        <time>2026-08-08T09:32:04Z</time>
      </trkpt>
      <trkpt lat="45.73191" lon="1.22169">
        <ele>365.08627</ele>
        <time>2026-08-08T09:32:05Z</time>
      </trkpt>
      <trkpt lat="45.73194" lon="1.22169">
        <ele>365.08627</ele>
        <time>2026-08-08T09:32:06Z</time>
      </trkpt>
      <trkpt lat="45.73197" lon="1.22169">
        <ele>365.08627</ele>
        <time>2026-08-08T09:32:07Z</time>
      </trkpt>
      <trkpt lat="45.732" lon="1.22169">
        <ele>364.08627</ele>
        <time>2026-08-08T09:32:08Z</time>
      </trkpt>
      <trkpt lat="45.73203" lon="1.22169">
        <ele>365.08627</ele>
        <time>2026-08-08T09:32:09Z</time>
      </trkpt>
      <trkpt lat="45.73206" lon="1.22168">
        <ele>365.08627</ele>
        <time>2026-08-08T09:32:10Z</time>
      </trkpt>
      <trkpt lat="45.7321" lon="1.22168">
        <ele>366.08627</ele>
        <time>2026-08-08T09:32:11Z</time>
      </trkpt>
      <trkpt lat="45.73213" lon="1.22168">
        <ele>367.08627</ele>
        <time>2026-08-08T09:32:12Z</time>
      </trkpt>
      <trkpt lat="45.73216" lon="1.22169">
        <ele>367.08627</ele>
        <time>2026-08-08T09:32:13Z</time>
      </trkpt>
      <trkpt lat="45.73219" lon="1.22169">
        <ele>367.08627</ele>
        <time>2026-08-08T09:32:14Z</time>
      </trkpt>
      <trkpt lat="45.73222" lon="1.22168">
        <ele>367.08627</ele>
        <time>2026-08-08T09:32:15Z</time>
      </trkpt>
      <trkpt lat="45.73225" lon="1.22167">
        <ele>367.08627</ele>
        <time>2026-08-08T09:32:16Z</time>
      </trkpt>
      <trkpt lat="45.73228" lon="1.22166">
        <ele>368.08627</ele>
        <time>2026-08-08T09:32:17Z</time>
      </trkpt>
      <trkpt lat="45.7323" lon="1.22163">
        <ele>367.08627</ele>
        <time>2026-08-08T09:32:18Z</time>
      </trkpt>
      <trkpt lat="45.73232" lon="1.22161">
        <ele>367.08627</ele>
        <time>2026-08-08T09:32:19Z</time>
      </trkpt>
      <trkpt lat="45.73235" lon="1.22158">
        <ele>367.08627</ele>
        <time>2026-08-08T09:32:20Z</time>
      </trkpt>
      <trkpt lat="45.73237" lon="1.22155">
        <ele>367.08627</ele>
        <time>2026-08-08T09:32:21Z</time>
      </trkpt>
      <trkpt lat="45.7324" lon="1.22153">
        <ele>368.08627</ele>
        <time>2026-08-08T09:32:22Z</time>
      </trkpt>
      <trkpt lat="45.73242" lon="1.22151">
        <ele>368.08627</ele>
        <time>2026-08-08T09:32:23Z</time>
      </trkpt>
      <trkpt lat="45.73244" lon="1.22147">
        <ele>368.08627</ele>
        <time>2026-08-08T09:32:24Z</time>
      </trkpt>
      <trkpt lat="45.73246" lon="1.22144">
        <ele>368.08627</ele>
        <time>2026-08-08T09:32:25Z</time>
      </trkpt>
      <trkpt lat="45.73248" lon="1.22141">
        <ele>369.08627</ele>
        <time>2026-08-08T09:32:26Z</time>
      </trkpt>
      <trkpt lat="45.7325" lon="1.22138">
        <ele>369.08627</ele>
        <time>2026-08-08T09:32:27Z</time>
      </trkpt>
      <trkpt lat="45.73252" lon="1.22136">
        <ele>369.08627</ele>
        <time>2026-08-08T09:32:28Z</time>
      </trkpt>
      <trkpt lat="45.73254" lon="1.22133">
        <ele>370.08627</ele>
        <time>2026-08-08T09:32:29Z</time>
      </trkpt>
      <trkpt lat="45.73256" lon="1.22131">
        <ele>370.08627</ele>
        <time>2026-08-08T09:32:30Z</time>
      </trkpt>
      <trkpt lat="45.73258" lon="1.22129">
        <ele>371.08627</ele>
        <time>2026-08-08T09:32:31Z</time>
      </trkpt>
      <trkpt lat="45.7326" lon="1.22126">
        <ele>371.08627</ele>
        <time>2026-08-08T09:32:32Z</time>
      </trkpt>
      <trkpt lat="45.73262" lon="1.22124">
        <ele>371.08627</ele>
        <time>2026-08-08T09:32:33Z</time>
      </trkpt>
      <trkpt lat="45.73265" lon="1.22121">
        <ele>372.08627</ele>
        <time>2026-08-08T09:32:34Z</time>
      </trkpt>
      <trkpt lat="45.73267" lon="1.22118">
        <ele>372.08627</ele>
        <time>2026-08-08T09:32:35Z</time>
      </trkpt>
      <trkpt lat="45.73269" lon="1.22115">
        <ele>372.08627</ele>
        <time>2026-08-08T09:32:36Z</time>
      </trkpt>
      <trkpt lat="45.73271" lon="1.22112">
        <ele>372.08627</ele>
        <time>2026-08-08T09:32:37Z</time>
      </trkpt>
      <trkpt lat="45.73274" lon="1.22109">
        <ele>372.08627</ele>
        <time>2026-08-08T09:32:38Z</time>
      </trkpt>
      <trkpt lat="45.73276" lon="1.22106">
        <ele>372.08627</ele>
        <time>2026-08-08T09:32:39Z</time>
      </trkpt>
      <trkpt lat="45.73278" lon="1.22103">
        <ele>371.08627</ele>
        <time>2026-08-08T09:32:40Z</time>
      </trkpt>
      <trkpt lat="45.7328" lon="1.22101">
        <ele>371.08627</ele>
        <time>2026-08-08T09:32:41Z</time>
      </trkpt>
      <trkpt lat="45.73282" lon="1.22098">
        <ele>371.08627</ele>
        <time>2026-08-08T09:32:42Z</time>
      </trkpt>
      <trkpt lat="45.73284" lon="1.22095">
        <ele>370.08627</ele>
        <time>2026-08-08T09:32:43Z</time>
      </trkpt>
      <trkpt lat="45.73286" lon="1.22093">
        <ele>370.08627</ele>
        <time>2026-08-08T09:32:44Z</time>
      </trkpt>
      <trkpt lat="45.73287" lon="1.22092">
        <ele>370.08627</ele>
        <time>2026-08-08T09:32:45Z</time>
      </trkpt>
      <trkpt lat="45.73288" lon="1.2209">
        <ele>370.08627</ele>
        <time>2026-08-08T09:32:46Z</time>
      </trkpt>
      <trkpt lat="45.73289" lon="1.22088">
        <ele>370.08627</ele>
        <time>2026-08-08T09:32:47Z</time>
      </trkpt>
      <trkpt lat="45.7329" lon="1.22087">
        <ele>370.08627</ele>
        <time>2026-08-08T09:32:48Z</time>
      </trkpt>
      <trkpt lat="45.7329" lon="1.22086">
        <ele>370.08627</ele>
        <time>2026-08-08T09:32:50Z</time>
      </trkpt>
      <trkpt lat="45.73291" lon="1.22086">
        <ele>370.08627</ele>
        <time>2026-08-08T09:32:51Z</time>
      </trkpt>
      <trkpt lat="45.73291" lon="1.22086">
        <ele>370.08627</ele>
        <time>2026-08-08T09:32:52Z</time>
      </trkpt>
      <trkpt lat="45.73291" lon="1.22086">
        <ele>370.08627</ele>
        <time>2026-08-08T09:32:53Z</time>
      </trkpt>
      <trkpt lat="45.73289" lon="1.2207">
        <ele>370.08627</ele>
        <time>2026-08-08T09:33:12Z</time>
      </trkpt>
      <trkpt lat="45.73288" lon="1.22067">
        <ele>370.08627</ele>
        <time>2026-08-08T09:33:13Z</time>
      </trkpt>
      <trkpt lat="45.73286" lon="1.22063">
        <ele>370.08627</ele>
        <time>2026-08-08T09:33:14Z</time>
      </trkpt>
      <trkpt lat="45.73285" lon="1.22059">
        <ele>370.08627</ele>
        <time>2026-08-08T09:33:15Z</time>
      </trkpt>
      <trkpt lat="45.73283" lon="1.22055">
        <ele>370.08627</ele>
        <time>2026-08-08T09:33:16Z</time>
      </trkpt>
      <trkpt lat="45.73281" lon="1.22051">
        <ele>370.08627</ele>
        <time>2026-08-08T09:33:17Z</time>
      </trkpt>
      <trkpt lat="45.7328" lon="1.22046">
        <ele>370.08627</ele>
        <time>2026-08-08T09:33:18Z</time>
      </trkpt>
      <trkpt lat="45.73278" lon="1.22041">
        <ele>371.08627</ele>
        <time>2026-08-08T09:33:19Z</time>
      </trkpt>
      <trkpt lat="45.73276" lon="1.22037">
        <ele>371.08627</ele>
        <time>2026-08-08T09:33:20Z</time>
      </trkpt>
      <trkpt lat="45.73275" lon="1.22033">
        <ele>371.08627</ele>
        <time>2026-08-08T09:33:21Z</time>
      </trkpt>
      <trkpt lat="45.73273" lon="1.22028">
        <ele>372.08627</ele>
        <time>2026-08-08T09:33:22Z</time>
      </trkpt>
      <trkpt lat="45.73272" lon="1.22024">
        <ele>372.08627</ele>
        <time>2026-08-08T09:33:23Z</time>
      </trkpt>
      <trkpt lat="45.7327" lon="1.22019">
        <ele>373.08627</ele>
        <time>2026-08-08T09:33:24Z</time>
      </trkpt>
      <trkpt lat="45.73269" lon="1.22014">
        <ele>373.08627</ele>
        <time>2026-08-08T09:33:25Z</time>
      </trkpt>
      <trkpt lat="45.73268" lon="1.2201">
        <ele>373.08627</ele>
        <time>2026-08-08T09:33:26Z</time>
      </trkpt>
      <trkpt lat="45.73266" lon="1.22006">
        <ele>373.08627</ele>
        <time>2026-08-08T09:33:27Z</time>
      </trkpt>
      <trkpt lat="45.73265" lon="1.22001">
        <ele>374.08627</ele>
        <time>2026-08-08T09:33:28Z</time>
      </trkpt>
      <trkpt lat="45.73264" lon="1.21997">
        <ele>374.08627</ele>
        <time>2026-08-08T09:33:29Z</time>
      </trkpt>
      <trkpt lat="45.73264" lon="1.21993">
        <ele>374.08627</ele>
        <time>2026-08-08T09:33:30Z</time>
      </trkpt>
      <trkpt lat="45.73263" lon="1.2199">
        <ele>374.08627</ele>
        <time>2026-08-08T09:33:31Z</time>
      </trkpt>
      <trkpt lat="45.73261" lon="1.21986">
        <ele>374.08627</ele>
        <time>2026-08-08T09:33:32Z</time>
      </trkpt>
      <trkpt lat="45.7326" lon="1.21982">
        <ele>374.08627</ele>
        <time>2026-08-08T09:33:33Z</time>
      </trkpt>
      <trkpt lat="45.7326" lon="1.21978">
        <ele>374.08627</ele>
        <time>2026-08-08T09:33:34Z</time>
      </trkpt>
      <trkpt lat="45.73258" lon="1.21974">
        <ele>375.08627</ele>
        <time>2026-08-08T09:33:35Z</time>
      </trkpt>
      <trkpt lat="45.73257" lon="1.21971">
        <ele>375.08627</ele>
        <time>2026-08-08T09:33:36Z</time>
      </trkpt>
      <trkpt lat="45.73256" lon="1.21967">
        <ele>375.08627</ele>
        <time>2026-08-08T09:33:37Z</time>
      </trkpt>
      <trkpt lat="45.73255" lon="1.21963">
        <ele>376.08627</ele>
        <time>2026-08-08T09:33:38Z</time>
      </trkpt>
      <trkpt lat="45.73254" lon="1.2196">
        <ele>376.08627</ele>
        <time>2026-08-08T09:33:39Z</time>
      </trkpt>
      <trkpt lat="45.73253" lon="1.21955">
        <ele>376.08627</ele>
        <time>2026-08-08T09:33:40Z</time>
      </trkpt>
      <trkpt lat="45.73252" lon="1.21952">
        <ele>375.08627</ele>
        <time>2026-08-08T09:33:41Z</time>
      </trkpt>
      <trkpt lat="45.7325" lon="1.21948">
        <ele>375.08627</ele>
        <time>2026-08-08T09:33:42Z</time>
      </trkpt>
      <trkpt lat="45.73249" lon="1.21946">
        <ele>375.08627</ele>
        <time>2026-08-08T09:33:43Z</time>
      </trkpt>
      <trkpt lat="45.73248" lon="1.2194">
        <ele>375.08627</ele>
        <time>2026-08-08T09:33:44Z</time>
      </trkpt>
      <trkpt lat="45.73246" lon="1.21936">
        <ele>375.08627</ele>
        <time>2026-08-08T09:33:45Z</time>
      </trkpt>
      <trkpt lat="45.73245" lon="1.21931">
        <ele>376.08627</ele>
        <time>2026-08-08T09:33:46Z</time>
      </trkpt>
      <trkpt lat="45.73243" lon="1.21927">
        <ele>376.08627</ele>
        <time>2026-08-08T09:33:47Z</time>
      </trkpt>
      <trkpt lat="45.73242" lon="1.21922">
        <ele>376.08627</ele>
        <time>2026-08-08T09:33:48Z</time>
      </trkpt>
      <trkpt lat="45.7324" lon="1.21918">
        <ele>376.08627</ele>
        <time>2026-08-08T09:33:49Z</time>
      </trkpt>
      <trkpt lat="45.73239" lon="1.21913">
        <ele>376.08627</ele>
        <time>2026-08-08T09:33:50Z</time>
      </trkpt>
      <trkpt lat="45.73237" lon="1.21909">
        <ele>376.08627</ele>
        <time>2026-08-08T09:33:51Z</time>
      </trkpt>
      <trkpt lat="45.73235" lon="1.21904">
        <ele>376.08627</ele>
        <time>2026-08-08T09:33:52Z</time>
      </trkpt>
      <trkpt lat="45.73234" lon="1.21899">
        <ele>376.08627</ele>
        <time>2026-08-08T09:33:53Z</time>
      </trkpt>
      <trkpt lat="45.73232" lon="1.21894">
        <ele>377.08627</ele>
        <time>2026-08-08T09:33:54Z</time>
      </trkpt>
      <trkpt lat="45.7323" lon="1.21889">
        <ele>377.08627</ele>
        <time>2026-08-08T09:33:55Z</time>
      </trkpt>
      <trkpt lat="45.73229" lon="1.21885">
        <ele>377.08627</ele>
        <time>2026-08-08T09:33:56Z</time>
      </trkpt>
      <trkpt lat="45.73227" lon="1.21881">
        <ele>377.08627</ele>
        <time>2026-08-08T09:33:57Z</time>
      </trkpt>
      <trkpt lat="45.73226" lon="1.21877">
        <ele>377.08627</ele>
        <time>2026-08-08T09:33:58Z</time>
      </trkpt>
      <trkpt lat="45.73226" lon="1.21874">
        <ele>377.08627</ele>
        <time>2026-08-08T09:33:59Z</time>
      </trkpt>
      <trkpt lat="45.73227" lon="1.21871">
        <ele>376.08627</ele>
        <time>2026-08-08T09:34:00Z</time>
      </trkpt>
      <trkpt lat="45.7323" lon="1.21869">
        <ele>376.08627</ele>
        <time>2026-08-08T09:34:01Z</time>
      </trkpt>
      <trkpt lat="45.73232" lon="1.21866">
        <ele>376.08627</ele>
        <time>2026-08-08T09:34:02Z</time>
      </trkpt>
      <trkpt lat="45.73234" lon="1.21865">
        <ele>376.08627</ele>
        <time>2026-08-08T09:34:03Z</time>
      </trkpt>
      <trkpt lat="45.73237" lon="1.21864">
        <ele>375.08627</ele>
        <time>2026-08-08T09:34:04Z</time>
      </trkpt>
      <trkpt lat="45.7324" lon="1.21864">
        <ele>375.08627</ele>
        <time>2026-08-08T09:34:05Z</time>
      </trkpt>
      <trkpt lat="45.73243" lon="1.21864">
        <ele>374.08627</ele>
        <time>2026-08-08T09:34:06Z</time>
      </trkpt>
      <trkpt lat="45.73246" lon="1.21865">
        <ele>374.08627</ele>
        <time>2026-08-08T09:34:07Z</time>
      </trkpt>
      <trkpt lat="45.73249" lon="1.21866">
        <ele>374.08627</ele>
        <time>2026-08-08T09:34:08Z</time>
      </trkpt>
      <trkpt lat="45.73252" lon="1.21866">
        <ele>374.08627</ele>
        <time>2026-08-08T09:34:09Z</time>
      </trkpt>
      <trkpt lat="45.73254" lon="1.21867">
        <ele>373.08627</ele>
        <time>2026-08-08T09:34:10Z</time>
      </trkpt>
      <trkpt lat="45.73257" lon="1.21867">
        <ele>373.08627</ele>
        <time>2026-08-08T09:34:11Z</time>
      </trkpt>
      <trkpt lat="45.7326" lon="1.21867">
        <ele>373.08627</ele>
        <time>2026-08-08T09:34:12Z</time>
      </trkpt>
      <trkpt lat="45.73262" lon="1.21868">
        <ele>372.08627</ele>
        <time>2026-08-08T09:34:14Z</time>
      </trkpt>
      <trkpt lat="45.73265" lon="1.21869">
        <ele>372.08627</ele>
        <time>2026-08-08T09:34:15Z</time>
      </trkpt>
      <trkpt lat="45.73267" lon="1.2187">
        <ele>372.08627</ele>
        <time>2026-08-08T09:34:16Z</time>
      </trkpt>
      <trkpt lat="45.73271" lon="1.2187">
        <ele>371.08627</ele>
        <time>2026-08-08T09:34:17Z</time>
      </trkpt>
      <trkpt lat="45.73274" lon="1.21871">
        <ele>371.08627</ele>
        <time>2026-08-08T09:34:18Z</time>
      </trkpt>
      <trkpt lat="45.73277" lon="1.21871">
        <ele>371.08627</ele>
        <time>2026-08-08T09:34:19Z</time>
      </trkpt>
      <trkpt lat="45.7328" lon="1.21873">
        <ele>371.08627</ele>
        <time>2026-08-08T09:34:20Z</time>
      </trkpt>
      <trkpt lat="45.73284" lon="1.21873">
        <ele>370.08627</ele>
        <time>2026-08-08T09:34:21Z</time>
      </trkpt>
      <trkpt lat="45.73287" lon="1.21874">
        <ele>370.08627</ele>
        <time>2026-08-08T09:34:22Z</time>
      </trkpt>
      <trkpt lat="45.7329" lon="1.21876">
        <ele>370.08627</ele>
        <time>2026-08-08T09:34:23Z</time>
      </trkpt>
      <trkpt lat="45.73293" lon="1.21877">
        <ele>370.08627</ele>
        <time>2026-08-08T09:34:24Z</time>
      </trkpt>
      <trkpt lat="45.73295" lon="1.21878">
        <ele>370.08627</ele>
        <time>2026-08-08T09:34:25Z</time>
      </trkpt>
      <trkpt lat="45.73298" lon="1.21878">
        <ele>369.08627</ele>
        <time>2026-08-08T09:34:26Z</time>
      </trkpt>
      <trkpt lat="45.733" lon="1.21879">
        <ele>369.08627</ele>
        <time>2026-08-08T09:34:27Z</time>
      </trkpt>
      <trkpt lat="45.73302" lon="1.21879">
        <ele>369.08627</ele>
        <time>2026-08-08T09:34:28Z</time>
      </trkpt>
      <trkpt lat="45.73304" lon="1.2188">
        <ele>369.08627</ele>
        <time>2026-08-08T09:34:29Z</time>
      </trkpt>
      <trkpt lat="45.73307" lon="1.21881">
        <ele>369.08627</ele>
        <time>2026-08-08T09:34:30Z</time>
      </trkpt>
      <trkpt lat="45.73309" lon="1.21881">
        <ele>369.08627</ele>
        <time>2026-08-08T09:34:31Z</time>
      </trkpt>
      <trkpt lat="45.73312" lon="1.21882">
        <ele>369.08627</ele>
        <time>2026-08-08T09:34:32Z</time>
      </trkpt>
      <trkpt lat="45.73315" lon="1.21883">
        <ele>369.08627</ele>
        <time>2026-08-08T09:34:33Z</time>
      </trkpt>
      <trkpt lat="45.73317" lon="1.21883">
        <ele>369.08627</ele>
        <time>2026-08-08T09:34:34Z</time>
      </trkpt>
      <trkpt lat="45.7332" lon="1.21884">
        <ele>369.08627</ele>
        <time>2026-08-08T09:34:35Z</time>
      </trkpt>
      <trkpt lat="45.73323" lon="1.21884">
        <ele>368.08627</ele>
        <time>2026-08-08T09:34:36Z</time>
      </trkpt>
      <trkpt lat="45.73327" lon="1.21885">
        <ele>368.08627</ele>
        <time>2026-08-08T09:34:37Z</time>
      </trkpt>
      <trkpt lat="45.7333" lon="1.21885">
        <ele>368.08627</ele>
        <time>2026-08-08T09:34:38Z</time>
      </trkpt>
      <trkpt lat="45.73333" lon="1.21886">
        <ele>368.08627</ele>
        <time>2026-08-08T09:34:39Z</time>
      </trkpt>
      <trkpt lat="45.73337" lon="1.21886">
        <ele>368.08627</ele>
        <time>2026-08-08T09:34:40Z</time>
      </trkpt>
      <trkpt lat="45.7334" lon="1.21887">
        <ele>368.08627</ele>
        <time>2026-08-08T09:34:41Z</time>
      </trkpt>
      <trkpt lat="45.73343" lon="1.21888">
        <ele>367.08627</ele>
        <time>2026-08-08T09:34:42Z</time>
      </trkpt>
      <trkpt lat="45.73346" lon="1.21888">
        <ele>367.08627</ele>
        <time>2026-08-08T09:34:43Z</time>
      </trkpt>
      <trkpt lat="45.7335" lon="1.21889">
        <ele>367.08627</ele>
        <time>2026-08-08T09:34:44Z</time>
      </trkpt>
      <trkpt lat="45.73354" lon="1.21889">
        <ele>367.08627</ele>
        <time>2026-08-08T09:34:45Z</time>
      </trkpt>
      <trkpt lat="45.73357" lon="1.2189">
        <ele>367.08627</ele>
        <time>2026-08-08T09:34:46Z</time>
      </trkpt>
      <trkpt lat="45.73361" lon="1.21891">
        <ele>367.08627</ele>
        <time>2026-08-08T09:34:47Z</time>
      </trkpt>
      <trkpt lat="45.73364" lon="1.21892">
        <ele>367.08627</ele>
        <time>2026-08-08T09:34:48Z</time>
      </trkpt>
      <trkpt lat="45.73367" lon="1.21892">
        <ele>367.08627</ele>
        <time>2026-08-08T09:34:49Z</time>
      </trkpt>
      <trkpt lat="45.73371" lon="1.21892">
        <ele>366.08627</ele>
        <time>2026-08-08T09:34:50Z</time>
      </trkpt>
      <trkpt lat="45.73375" lon="1.21893">
        <ele>367.08627</ele>
        <time>2026-08-08T09:34:51Z</time>
      </trkpt>
      <trkpt lat="45.73379" lon="1.21895">
        <ele>367.08627</ele>
        <time>2026-08-08T09:34:52Z</time>
      </trkpt>
      <trkpt lat="45.73383" lon="1.21895">
        <ele>367.08627</ele>
        <time>2026-08-08T09:34:53Z</time>
      </trkpt>
      <trkpt lat="45.73387" lon="1.21894">
        <ele>367.08627</ele>
        <time>2026-08-08T09:34:54Z</time>
      </trkpt>
      <trkpt lat="45.73392" lon="1.21893">
        <ele>367.08627</ele>
        <time>2026-08-08T09:34:55Z</time>
      </trkpt>
      <trkpt lat="45.73396" lon="1.21891">
        <ele>367.08627</ele>
        <time>2026-08-08T09:34:56Z</time>
      </trkpt>
      <trkpt lat="45.73399" lon="1.21888">
        <ele>368.08627</ele>
        <time>2026-08-08T09:34:57Z</time>
      </trkpt>
      <trkpt lat="45.73403" lon="1.21886">
        <ele>368.08627</ele>
        <time>2026-08-08T09:34:58Z</time>
      </trkpt>
      <trkpt lat="45.73407" lon="1.21883">
        <ele>368.08627</ele>
        <time>2026-08-08T09:34:59Z</time>
      </trkpt>
      <trkpt lat="45.73411" lon="1.21879">
        <ele>368.08627</ele>
        <time>2026-08-08T09:35:00Z</time>
      </trkpt>
      <trkpt lat="45.73414" lon="1.21876">
        <ele>368.08627</ele>
        <time>2026-08-08T09:35:01Z</time>
      </trkpt>
      <trkpt lat="45.73418" lon="1.21873">
        <ele>368.08627</ele>
        <time>2026-08-08T09:35:02Z</time>
      </trkpt>
      <trkpt lat="45.73421" lon="1.2187">
        <ele>368.08627</ele>
        <time>2026-08-08T09:35:03Z</time>
      </trkpt>
      <trkpt lat="45.73424" lon="1.21867">
        <ele>368.08627</ele>
        <time>2026-08-08T09:35:04Z</time>
      </trkpt>
      <trkpt lat="45.73428" lon="1.21865">
        <ele>368.08627</ele>
        <time>2026-08-08T09:35:05Z</time>
      </trkpt>
      <trkpt lat="45.73431" lon="1.21861">
        <ele>368.08627</ele>
        <time>2026-08-08T09:35:06Z</time>
      </trkpt>
      <trkpt lat="45.73435" lon="1.21858">
        <ele>368.08627</ele>
        <time>2026-08-08T09:35:07Z</time>
      </trkpt>
      <trkpt lat="45.73438" lon="1.21856">
        <ele>368.08627</ele>
        <time>2026-08-08T09:35:08Z</time>
      </trkpt>
      <trkpt lat="45.73441" lon="1.21853">
        <ele>368.08627</ele>
        <time>2026-08-08T09:35:09Z</time>
      </trkpt>
      <trkpt lat="45.73444" lon="1.2185">
        <ele>368.08627</ele>
        <time>2026-08-08T09:35:10Z</time>
      </trkpt>
      <trkpt lat="45.73448" lon="1.21847">
        <ele>368.08627</ele>
        <time>2026-08-08T09:35:11Z</time>
      </trkpt>
      <trkpt lat="45.73451" lon="1.21844">
        <ele>368.08627</ele>
        <time>2026-08-08T09:35:12Z</time>
      </trkpt>
      <trkpt lat="45.73455" lon="1.21841">
        <ele>368.08627</ele>
        <time>2026-08-08T09:35:13Z</time>
      </trkpt>
      <trkpt lat="45.73459" lon="1.21838">
        <ele>367.08627</ele>
        <time>2026-08-08T09:35:14Z</time>
      </trkpt>
      <trkpt lat="45.73462" lon="1.21835">
        <ele>367.08627</ele>
        <time>2026-08-08T09:35:15Z</time>
      </trkpt>
      <trkpt lat="45.73465" lon="1.21831">
        <ele>367.08627</ele>
        <time>2026-08-08T09:35:16Z</time>
      </trkpt>
      <trkpt lat="45.73467" lon="1.21828">
        <ele>367.08627</ele>
        <time>2026-08-08T09:35:17Z</time>
      </trkpt>
      <trkpt lat="45.7347" lon="1.21825">
        <ele>367.08627</ele>
        <time>2026-08-08T09:35:18Z</time>
      </trkpt>
      <trkpt lat="45.73472" lon="1.21821">
        <ele>366.08627</ele>
        <time>2026-08-08T09:35:19Z</time>
      </trkpt>
      <trkpt lat="45.73475" lon="1.21817">
        <ele>367.08627</ele>
        <time>2026-08-08T09:35:20Z</time>
      </trkpt>
      <trkpt lat="45.73478" lon="1.21812">
        <ele>366.08627</ele>
        <time>2026-08-08T09:35:21Z</time>
      </trkpt>
      <trkpt lat="45.73481" lon="1.21808">
        <ele>366.08627</ele>
        <time>2026-08-08T09:35:22Z</time>
      </trkpt>
      <trkpt lat="45.73484" lon="1.21805">
        <ele>366.08627</ele>
        <time>2026-08-08T09:35:23Z</time>
      </trkpt>
      <trkpt lat="45.73488" lon="1.21803">
        <ele>366.08627</ele>
        <time>2026-08-08T09:35:24Z</time>
      </trkpt>
      <trkpt lat="45.73492" lon="1.21801">
        <ele>366.08627</ele>
        <time>2026-08-08T09:35:25Z</time>
      </trkpt>
      <trkpt lat="45.73496" lon="1.218">
        <ele>366.08627</ele>
        <time>2026-08-08T09:35:26Z</time>
      </trkpt>
      <trkpt lat="45.735" lon="1.21798">
        <ele>366.08627</ele>
        <time>2026-08-08T09:35:27Z</time>
      </trkpt>
      <trkpt lat="45.73504" lon="1.21796">
        <ele>366.08627</ele>
        <time>2026-08-08T09:35:28Z</time>
      </trkpt>
      <trkpt lat="45.73508" lon="1.21794">
        <ele>366.08627</ele>
        <time>2026-08-08T09:35:29Z</time>
      </trkpt>
      <trkpt lat="45.73512" lon="1.21792">
        <ele>365.08627</ele>
        <time>2026-08-08T09:35:30Z</time>
      </trkpt>
      <trkpt lat="45.73516" lon="1.21791">
        <ele>365.08627</ele>
        <time>2026-08-08T09:35:31Z</time>
      </trkpt>
      <trkpt lat="45.7352" lon="1.21788">
        <ele>365.08627</ele>
        <time>2026-08-08T09:35:32Z</time>
      </trkpt>
      <trkpt lat="45.73525" lon="1.21785">
        <ele>365.08627</ele>
        <time>2026-08-08T09:35:33Z</time>
      </trkpt>
      <trkpt lat="45.73529" lon="1.21781">
        <ele>364.08627</ele>
        <time>2026-08-08T09:35:34Z</time>
      </trkpt>
      <trkpt lat="45.73532" lon="1.21776">
        <ele>364.08627</ele>
        <time>2026-08-08T09:35:35Z</time>
      </trkpt>
      <trkpt lat="45.73535" lon="1.21772">
        <ele>363.08627</ele>
        <time>2026-08-08T09:35:36Z</time>
      </trkpt>
      <trkpt lat="45.73538" lon="1.21768">
        <ele>363.08627</ele>
        <time>2026-08-08T09:35:37Z</time>
      </trkpt>
      <trkpt lat="45.73541" lon="1.21764">
        <ele>363.08627</ele>
        <time>2026-08-08T09:35:38Z</time>
      </trkpt>
      <trkpt lat="45.73543" lon="1.21761">
        <ele>363.08627</ele>
        <time>2026-08-08T09:35:39Z</time>
      </trkpt>
      <trkpt lat="45.73546" lon="1.21756">
        <ele>362.08627</ele>
        <time>2026-08-08T09:35:40Z</time>
      </trkpt>
      <trkpt lat="45.73548" lon="1.21752">
        <ele>362.08627</ele>
        <time>2026-08-08T09:35:41Z</time>
      </trkpt>
      <trkpt lat="45.73551" lon="1.21748">
        <ele>362.08627</ele>
        <time>2026-08-08T09:35:42Z</time>
      </trkpt>
      <trkpt lat="45.73553" lon="1.21745">
        <ele>361.08627</ele>
        <time>2026-08-08T09:35:43Z</time>
      </trkpt>
      <trkpt lat="45.73556" lon="1.21741">
        <ele>361.08627</ele>
        <time>2026-08-08T09:35:44Z</time>
      </trkpt>
      <trkpt lat="45.73559" lon="1.21737">
        <ele>360.08627</ele>
        <time>2026-08-08T09:35:45Z</time>
      </trkpt>
      <trkpt lat="45.73561" lon="1.21733">
        <ele>360.08627</ele>
        <time>2026-08-08T09:35:46Z</time>
      </trkpt>
      <trkpt lat="45.73563" lon="1.2173">
        <ele>360.08627</ele>
        <time>2026-08-08T09:35:47Z</time>
      </trkpt>
      <trkpt lat="45.73565" lon="1.21728">
        <ele>360.08627</ele>
        <time>2026-08-08T09:35:48Z</time>
      </trkpt>
      <trkpt lat="45.73566" lon="1.21725">
        <ele>360.08627</ele>
        <time>2026-08-08T09:35:49Z</time>
      </trkpt>
      <trkpt lat="45.73568" lon="1.21722">
        <ele>359.08627</ele>
        <time>2026-08-08T09:35:50Z</time>
      </trkpt>
      <trkpt lat="45.73571" lon="1.21718">
        <ele>359.08627</ele>
        <time>2026-08-08T09:35:51Z</time>
      </trkpt>
      <trkpt lat="45.73573" lon="1.21714">
        <ele>358.08627</ele>
        <time>2026-08-08T09:35:52Z</time>
      </trkpt>
      <trkpt lat="45.73575" lon="1.2171">
        <ele>358.08627</ele>
        <time>2026-08-08T09:35:53Z</time>
      </trkpt>
      <trkpt lat="45.73578" lon="1.21706">
        <ele>358.08627</ele>
        <time>2026-08-08T09:35:54Z</time>
      </trkpt>
      <trkpt lat="45.73581" lon="1.21702">
        <ele>358.08627</ele>
        <time>2026-08-08T09:35:55Z</time>
      </trkpt>
      <trkpt lat="45.73583" lon="1.21698">
        <ele>357.08627</ele>
        <time>2026-08-08T09:35:56Z</time>
      </trkpt>
      <trkpt lat="45.73586" lon="1.21695">
        <ele>357.08627</ele>
        <time>2026-08-08T09:35:57Z</time>
      </trkpt>
      <trkpt lat="45.73589" lon="1.21691">
        <ele>357.08627</ele>
        <time>2026-08-08T09:35:58Z</time>
      </trkpt>
      <trkpt lat="45.73592" lon="1.21687">
        <ele>357.08627</ele>
        <time>2026-08-08T09:35:59Z</time>
      </trkpt>
      <trkpt lat="45.73594" lon="1.21683">
        <ele>357.08627</ele>
        <time>2026-08-08T09:36:00Z</time>
      </trkpt>
      <trkpt lat="45.73597" lon="1.21679">
        <ele>356.08627</ele>
        <time>2026-08-08T09:36:01Z</time>
      </trkpt>
      <trkpt lat="45.73599" lon="1.21676">
        <ele>356.08627</ele>
        <time>2026-08-08T09:36:02Z</time>
      </trkpt>
      <trkpt lat="45.73601" lon="1.21673">
        <ele>356.08627</ele>
        <time>2026-08-08T09:36:03Z</time>
      </trkpt>
      <trkpt lat="45.73604" lon="1.21669">
        <ele>356.08627</ele>
        <time>2026-08-08T09:36:04Z</time>
      </trkpt>
      <trkpt lat="45.73607" lon="1.21665">
        <ele>355.08627</ele>
        <time>2026-08-08T09:36:05Z</time>
      </trkpt>
      <trkpt lat="45.7361" lon="1.21661">
        <ele>355.08627</ele>
        <time>2026-08-08T09:36:06Z</time>
      </trkpt>
      <trkpt lat="45.73613" lon="1.21656">
        <ele>355.08627</ele>
        <time>2026-08-08T09:36:07Z</time>
      </trkpt>
      <trkpt lat="45.73616" lon="1.21652">
        <ele>354.08627</ele>
        <time>2026-08-08T09:36:08Z</time>
      </trkpt>
      <trkpt lat="45.73619" lon="1.21649">
        <ele>354.08627</ele>
        <time>2026-08-08T09:36:09Z</time>
      </trkpt>
      <trkpt lat="45.73622" lon="1.21645">
        <ele>354.08627</ele>
        <time>2026-08-08T09:36:10Z</time>
      </trkpt>
      <trkpt lat="45.73624" lon="1.2164">
        <ele>353.08627</ele>
        <time>2026-08-08T09:36:11Z</time>
      </trkpt>
      <trkpt lat="45.73627" lon="1.21635">
        <ele>353.08627</ele>
        <time>2026-08-08T09:36:12Z</time>
      </trkpt>
      <trkpt lat="45.73629" lon="1.21631">
        <ele>353.08627</ele>
        <time>2026-08-08T09:36:13Z</time>
      </trkpt>
      <trkpt lat="45.73632" lon="1.21627">
        <ele>353.08627</ele>
        <time>2026-08-08T09:36:14Z</time>
      </trkpt>
      <trkpt lat="45.73635" lon="1.21624">
        <ele>353.08627</ele>
        <time>2026-08-08T09:36:15Z</time>
      </trkpt>
      <trkpt lat="45.73638" lon="1.2162">
        <ele>352.08627</ele>
        <time>2026-08-08T09:36:16Z</time>
      </trkpt>
      <trkpt lat="45.73641" lon="1.21615">
        <ele>352.08627</ele>
        <time>2026-08-08T09:36:17Z</time>
      </trkpt>
      <trkpt lat="45.73644" lon="1.21612">
        <ele>352.08627</ele>
        <time>2026-08-08T09:36:18Z</time>
      </trkpt>
      <trkpt lat="45.73647" lon="1.21608">
        <ele>352.08627</ele>
        <time>2026-08-08T09:36:19Z</time>
      </trkpt>
      <trkpt lat="45.73649" lon="1.21603">
        <ele>352.08627</ele>
        <time>2026-08-08T09:36:20Z</time>
      </trkpt>
      <trkpt lat="45.73652" lon="1.21599">
        <ele>352.08627</ele>
        <time>2026-08-08T09:36:21Z</time>
      </trkpt>
      <trkpt lat="45.73655" lon="1.21594">
        <ele>352.08627</ele>
        <time>2026-08-08T09:36:22Z</time>
      </trkpt>
      <trkpt lat="45.73659" lon="1.2159">
        <ele>352.08627</ele>
        <time>2026-08-08T09:36:23Z</time>
      </trkpt>
      <trkpt lat="45.73662" lon="1.21585">
        <ele>352.08627</ele>
        <time>2026-08-08T09:36:24Z</time>
      </trkpt>
      <trkpt lat="45.73665" lon="1.21581">
        <ele>352.08627</ele>
        <time>2026-08-08T09:36:25Z</time>
      </trkpt>
      <trkpt lat="45.73668" lon="1.21577">
        <ele>352.08627</ele>
        <time>2026-08-08T09:36:26Z</time>
      </trkpt>
      <trkpt lat="45.73671" lon="1.21572">
        <ele>351.08627</ele>
        <time>2026-08-08T09:36:27Z</time>
      </trkpt>
      <trkpt lat="45.73674" lon="1.21568">
        <ele>351.08627</ele>
        <time>2026-08-08T09:36:28Z</time>
      </trkpt>
      <trkpt lat="45.73677" lon="1.21563">
        <ele>351.08627</ele>
        <time>2026-08-08T09:36:29Z</time>
      </trkpt>
      <trkpt lat="45.73681" lon="1.21558">
        <ele>351.08627</ele>
        <time>2026-08-08T09:36:30Z</time>
      </trkpt>
      <trkpt lat="45.73683" lon="1.21554">
        <ele>351.08627</ele>
        <time>2026-08-08T09:36:31Z</time>
      </trkpt>
      <trkpt lat="45.73686" lon="1.21549">
        <ele>351.08627</ele>
        <time>2026-08-08T09:36:32Z</time>
      </trkpt>
      <trkpt lat="45.73689" lon="1.21545">
        <ele>351.08627</ele>
        <time>2026-08-08T09:36:33Z</time>
      </trkpt>
      <trkpt lat="45.73692" lon="1.2154">
        <ele>350.08627</ele>
        <time>2026-08-08T09:36:34Z</time>
      </trkpt>
      <trkpt lat="45.73696" lon="1.21536">
        <ele>350.08627</ele>
        <time>2026-08-08T09:36:35Z</time>
      </trkpt>
      <trkpt lat="45.73698" lon="1.21531">
        <ele>350.08627</ele>
        <time>2026-08-08T09:36:36Z</time>
      </trkpt>
      <trkpt lat="45.73701" lon="1.21527">
        <ele>350.08627</ele>
        <time>2026-08-08T09:36:37Z</time>
      </trkpt>
      <trkpt lat="45.73704" lon="1.21523">
        <ele>350.08627</ele>
        <time>2026-08-08T09:36:38Z</time>
      </trkpt>
      <trkpt lat="45.73707" lon="1.21518">
        <ele>350.08627</ele>
        <time>2026-08-08T09:36:39Z</time>
      </trkpt>
      <trkpt lat="45.7371" lon="1.21513">
        <ele>350.08627</ele>
        <time>2026-08-08T09:36:40Z</time>
      </trkpt>
      <trkpt lat="45.73713" lon="1.2151">
        <ele>350.08627</ele>
        <time>2026-08-08T09:36:41Z</time>
      </trkpt>
      <trkpt lat="45.73715" lon="1.21505">
        <ele>350.08627</ele>
        <time>2026-08-08T09:36:42Z</time>
      </trkpt>
      <trkpt lat="45.73718" lon="1.21501">
        <ele>349.08627</ele>
        <time>2026-08-08T09:36:43Z</time>
      </trkpt>
      <trkpt lat="45.73721" lon="1.21498">
        <ele>349.08627</ele>
        <time>2026-08-08T09:36:44Z</time>
      </trkpt>
      <trkpt lat="45.73724" lon="1.21494">
        <ele>349.08627</ele>
        <time>2026-08-08T09:36:45Z</time>
      </trkpt>
      <trkpt lat="45.73726" lon="1.2149">
        <ele>349.08627</ele>
        <time>2026-08-08T09:36:46Z</time>
      </trkpt>
      <trkpt lat="45.73729" lon="1.21486">
        <ele>348.08627</ele>
        <time>2026-08-08T09:36:47Z</time>
      </trkpt>
      <trkpt lat="45.73732" lon="1.21482">
        <ele>349.08627</ele>
        <time>2026-08-08T09:36:48Z</time>
      </trkpt>
      <trkpt lat="45.73734" lon="1.21478">
        <ele>348.08627</ele>
        <time>2026-08-08T09:36:49Z</time>
      </trkpt>
      <trkpt lat="45.73735" lon="1.21474">
        <ele>348.08627</ele>
        <time>2026-08-08T09:36:50Z</time>
      </trkpt>
      <trkpt lat="45.73738" lon="1.2147">
        <ele>348.08627</ele>
        <time>2026-08-08T09:36:51Z</time>
      </trkpt>
      <trkpt lat="45.7374" lon="1.21466">
        <ele>348.08627</ele>
        <time>2026-08-08T09:36:52Z</time>
      </trkpt>
      <trkpt lat="45.73743" lon="1.21462">
        <ele>347.08627</ele>
        <time>2026-08-08T09:36:53Z</time>
      </trkpt>
      <trkpt lat="45.73745" lon="1.21459">
        <ele>347.08627</ele>
        <time>2026-08-08T09:36:54Z</time>
      </trkpt>
      <trkpt lat="45.73746" lon="1.21455">
        <ele>347.08627</ele>
        <time>2026-08-08T09:36:55Z</time>
      </trkpt>
      <trkpt lat="45.73748" lon="1.21453">
        <ele>347.08627</ele>
        <time>2026-08-08T09:36:56Z</time>
      </trkpt>
      <trkpt lat="45.73751" lon="1.21451">
        <ele>347.08627</ele>
        <time>2026-08-08T09:36:57Z</time>
      </trkpt>
      <trkpt lat="45.73752" lon="1.21449">
        <ele>347.08627</ele>
        <time>2026-08-08T09:36:58Z</time>
      </trkpt>
      <trkpt lat="45.73752" lon="1.21448">
        <ele>347.08627</ele>
        <time>2026-08-08T09:36:59Z</time>
      </trkpt>
      <trkpt lat="45.73752" lon="1.21448">
        <ele>347.08627</ele>
        <time>2026-08-08T09:37:00Z</time>
      </trkpt>
      <trkpt lat="45.73753" lon="1.21448">
        <ele>347.08627</ele>
        <time>2026-08-08T09:37:01Z</time>
      </trkpt>
      <trkpt lat="45.73753" lon="1.21448">
        <ele>347.08627</ele>
        <time>2026-08-08T09:37:02Z</time>
      </trkpt>
      <trkpt lat="45.73753" lon="1.21448">
        <ele>347.08627</ele>
        <time>2026-08-08T09:37:03Z</time>
      </trkpt>
      <trkpt lat="45.73767" lon="1.21427">
        <ele>349.08627</ele>
        <time>2026-08-08T09:45:04Z</time>
      </trkpt>
      <trkpt lat="45.73768" lon="1.21425">
        <ele>349.08627</ele>
        <time>2026-08-08T09:45:05Z</time>
      </trkpt>
      <trkpt lat="45.73771" lon="1.21423">
        <ele>349.08627</ele>
        <time>2026-08-08T09:45:06Z</time>
      </trkpt>
      <trkpt lat="45.73772" lon="1.2142">
        <ele>349.08627</ele>
        <time>2026-08-08T09:45:07Z</time>
      </trkpt>
      <trkpt lat="45.73774" lon="1.21417">
        <ele>349.08627</ele>
        <time>2026-08-08T09:45:08Z</time>
      </trkpt>
      <trkpt lat="45.73776" lon="1.21414">
        <ele>349.08627</ele>
        <time>2026-08-08T09:45:09Z</time>
      </trkpt>
      <trkpt lat="45.73779" lon="1.2141">
        <ele>349.08627</ele>
        <time>2026-08-08T09:45:10Z</time>
      </trkpt>
      <trkpt lat="45.73782" lon="1.21406">
        <ele>349.08627</ele>
        <time>2026-08-08T09:45:11Z</time>
      </trkpt>
      <trkpt lat="45.73784" lon="1.21403">
        <ele>349.08627</ele>
        <time>2026-08-08T09:45:12Z</time>
      </trkpt>
      <trkpt lat="45.73787" lon="1.21399">
        <ele>349.08627</ele>
        <time>2026-08-08T09:45:13Z</time>
      </trkpt>
      <trkpt lat="45.7379" lon="1.21394">
        <ele>349.08627</ele>
        <time>2026-08-08T09:45:14Z</time>
      </trkpt>
      <trkpt lat="45.73793" lon="1.2139">
        <ele>349.08627</ele>
        <time>2026-08-08T09:45:15Z</time>
      </trkpt>
      <trkpt lat="45.73796" lon="1.21386">
        <ele>348.08627</ele>
        <time>2026-08-08T09:45:16Z</time>
      </trkpt>
      <trkpt lat="45.73799" lon="1.21382">
        <ele>348.08627</ele>
        <time>2026-08-08T09:45:17Z</time>
      </trkpt>
      <trkpt lat="45.73802" lon="1.21378">
        <ele>348.08627</ele>
        <time>2026-08-08T09:45:18Z</time>
      </trkpt>
      <trkpt lat="45.73805" lon="1.21374">
        <ele>348.08627</ele>
        <time>2026-08-08T09:45:19Z</time>
      </trkpt>
      <trkpt lat="45.73808" lon="1.2137">
        <ele>348.08627</ele>
        <time>2026-08-08T09:45:20Z</time>
      </trkpt>
      <trkpt lat="45.73811" lon="1.21365">
        <ele>349.08627</ele>
        <time>2026-08-08T09:45:21Z</time>
      </trkpt>
      <trkpt lat="45.73814" lon="1.21361">
        <ele>349.08627</ele>
        <time>2026-08-08T09:45:22Z</time>
      </trkpt>
      <trkpt lat="45.73817" lon="1.21357">
        <ele>349.08627</ele>
        <time>2026-08-08T09:45:23Z</time>
      </trkpt>
      <trkpt lat="45.7382" lon="1.21352">
        <ele>349.08627</ele>
        <time>2026-08-08T09:45:24Z</time>
      </trkpt>
      <trkpt lat="45.73824" lon="1.21347">
        <ele>350.08627</ele>
        <time>2026-08-08T09:45:25Z</time>
      </trkpt>
      <trkpt lat="45.73826" lon="1.21343">
        <ele>350.08627</ele>
        <time>2026-08-08T09:45:26Z</time>
      </trkpt>
      <trkpt lat="45.7383" lon="1.21338">
        <ele>350.08627</ele>
        <time>2026-08-08T09:45:27Z</time>
      </trkpt>
      <trkpt lat="45.73832" lon="1.21333">
        <ele>350.08627</ele>
        <time>2026-08-08T09:45:28Z</time>
      </trkpt>
      <trkpt lat="45.73836" lon="1.21328">
        <ele>350.08627</ele>
        <time>2026-08-08T09:45:29Z</time>
      </trkpt>
      <trkpt lat="45.73839" lon="1.21323">
        <ele>351.08627</ele>
        <time>2026-08-08T09:45:30Z</time>
      </trkpt>
      <trkpt lat="45.73842" lon="1.21318">
        <ele>351.08627</ele>
        <time>2026-08-08T09:45:31Z</time>
      </trkpt>
      <trkpt lat="45.73844" lon="1.21313">
        <ele>351.08627</ele>
        <time>2026-08-08T09:45:32Z</time>
      </trkpt>
      <trkpt lat="45.73847" lon="1.21309">
        <ele>351.08627</ele>
        <time>2026-08-08T09:45:33Z</time>
      </trkpt>
      <trkpt lat="45.7385" lon="1.21304">
        <ele>351.08627</ele>
        <time>2026-08-08T09:45:34Z</time>
      </trkpt>
      <trkpt lat="45.73853" lon="1.21299">
        <ele>351.08627</ele>
        <time>2026-08-08T09:45:35Z</time>
      </trkpt>
      <trkpt lat="45.73856" lon="1.21295">
        <ele>351.08627</ele>
        <time>2026-08-08T09:45:36Z</time>
      </trkpt>
      <trkpt lat="45.73858" lon="1.2129">
        <ele>352.08627</ele>
        <time>2026-08-08T09:45:37Z</time>
      </trkpt>
      <trkpt lat="45.73861" lon="1.21286">
        <ele>352.08627</ele>
        <time>2026-08-08T09:45:38Z</time>
      </trkpt>
      <trkpt lat="45.73864" lon="1.21282">
        <ele>352.08627</ele>
        <time>2026-08-08T09:45:39Z</time>
      </trkpt>
      <trkpt lat="45.73867" lon="1.21277">
        <ele>352.08627</ele>
        <time>2026-08-08T09:45:40Z</time>
      </trkpt>
      <trkpt lat="45.7387" lon="1.21273">
        <ele>353.08627</ele>
        <time>2026-08-08T09:45:41Z</time>
      </trkpt>
      <trkpt lat="45.73872" lon="1.21268">
        <ele>353.08627</ele>
        <time>2026-08-08T09:45:42Z</time>
      </trkpt>
      <trkpt lat="45.73875" lon="1.21263">
        <ele>353.08627</ele>
        <time>2026-08-08T09:45:43Z</time>
      </trkpt>
      <trkpt lat="45.73877" lon="1.21258">
        <ele>353.08627</ele>
        <time>2026-08-08T09:45:44Z</time>
      </trkpt>
      <trkpt lat="45.7388" lon="1.21253">
        <ele>354.08627</ele>
        <time>2026-08-08T09:45:45Z</time>
      </trkpt>
      <trkpt lat="45.73882" lon="1.21248">
        <ele>353.08627</ele>
        <time>2026-08-08T09:45:46Z</time>
      </trkpt>
      <trkpt lat="45.73884" lon="1.21243">
        <ele>353.08627</ele>
        <time>2026-08-08T09:45:47Z</time>
      </trkpt>
      <trkpt lat="45.73887" lon="1.21238">
        <ele>353.08627</ele>
        <time>2026-08-08T09:45:48Z</time>
      </trkpt>
      <trkpt lat="45.73889" lon="1.21233">
        <ele>354.08627</ele>
        <time>2026-08-08T09:45:49Z</time>
      </trkpt>
      <trkpt lat="45.73891" lon="1.21228">
        <ele>354.08627</ele>
        <time>2026-08-08T09:45:50Z</time>
      </trkpt>
      <trkpt lat="45.73893" lon="1.21223">
        <ele>354.08627</ele>
        <time>2026-08-08T09:45:51Z</time>
      </trkpt>
      <trkpt lat="45.73895" lon="1.21218">
        <ele>354.08627</ele>
        <time>2026-08-08T09:45:52Z</time>
      </trkpt>
      <trkpt lat="45.73898" lon="1.21213">
        <ele>354.08627</ele>
        <time>2026-08-08T09:45:53Z</time>
      </trkpt>
      <trkpt lat="45.73899" lon="1.21209">
        <ele>354.08627</ele>
        <time>2026-08-08T09:45:54Z</time>
      </trkpt>
      <trkpt lat="45.73901" lon="1.21205">
        <ele>354.08627</ele>
        <time>2026-08-08T09:45:55Z</time>
      </trkpt>
      <trkpt lat="45.73903" lon="1.21201">
        <ele>355.08627</ele>
        <time>2026-08-08T09:45:56Z</time>
      </trkpt>
      <trkpt lat="45.73905" lon="1.21197">
        <ele>355.08627</ele>
        <time>2026-08-08T09:45:57Z</time>
      </trkpt>
      <trkpt lat="45.73907" lon="1.21193">
        <ele>355.08627</ele>
        <time>2026-08-08T09:45:58Z</time>
      </trkpt>
      <trkpt lat="45.73908" lon="1.2119">
        <ele>355.08627</ele>
        <time>2026-08-08T09:45:59Z</time>
      </trkpt>
      <trkpt lat="45.7391" lon="1.21187">
        <ele>355.08627</ele>
        <time>2026-08-08T09:46:00Z</time>
      </trkpt>
      <trkpt lat="45.73911" lon="1.21184">
        <ele>355.08627</ele>
        <time>2026-08-08T09:46:01Z</time>
      </trkpt>
      <trkpt lat="45.73912" lon="1.2118">
        <ele>355.08627</ele>
        <time>2026-08-08T09:46:02Z</time>
      </trkpt>
      <trkpt lat="45.73914" lon="1.21177">
        <ele>355.08627</ele>
        <time>2026-08-08T09:46:03Z</time>
      </trkpt>
      <trkpt lat="45.73916" lon="1.21174">
        <ele>355.08627</ele>
        <time>2026-08-08T09:46:04Z</time>
      </trkpt>
      <trkpt lat="45.73917" lon="1.2117">
        <ele>355.08627</ele>
        <time>2026-08-08T09:46:05Z</time>
      </trkpt>
      <trkpt lat="45.73918" lon="1.21167">
        <ele>355.08627</ele>
        <time>2026-08-08T09:46:06Z</time>
      </trkpt>
      <trkpt lat="45.7392" lon="1.21163">
        <ele>355.08627</ele>
        <time>2026-08-08T09:46:07Z</time>
      </trkpt>
      <trkpt lat="45.73921" lon="1.21159">
        <ele>356.08627</ele>
        <time>2026-08-08T09:46:08Z</time>
      </trkpt>
      <trkpt lat="45.73922" lon="1.21155">
        <ele>356.08627</ele>
        <time>2026-08-08T09:46:09Z</time>
      </trkpt>
      <trkpt lat="45.73924" lon="1.21152">
        <ele>356.08627</ele>
        <time>2026-08-08T09:46:10Z</time>
      </trkpt>
      <trkpt lat="45.73926" lon="1.21148">
        <ele>356.08627</ele>
        <time>2026-08-08T09:46:11Z</time>
      </trkpt>
      <trkpt lat="45.73927" lon="1.21145">
        <ele>356.08627</ele>
        <time>2026-08-08T09:46:12Z</time>
      </trkpt>
      <trkpt lat="45.73929" lon="1.21142">
        <ele>356.08627</ele>
        <time>2026-08-08T09:46:13Z</time>
      </trkpt>
      <trkpt lat="45.7393" lon="1.21139">
        <ele>356.08627</ele>
        <time>2026-08-08T09:46:14Z</time>
      </trkpt>
      <trkpt lat="45.73932" lon="1.21135">
        <ele>356.08627</ele>
        <time>2026-08-08T09:46:15Z</time>
      </trkpt>
      <trkpt lat="45.73933" lon="1.21132">
        <ele>356.08627</ele>
        <time>2026-08-08T09:46:16Z</time>
      </trkpt>
      <trkpt lat="45.73935" lon="1.21128">
        <ele>356.08627</ele>
        <time>2026-08-08T09:46:17Z</time>
      </trkpt>
      <trkpt lat="45.73937" lon="1.21125">
        <ele>356.08627</ele>
        <time>2026-08-08T09:46:18Z</time>
      </trkpt>
      <trkpt lat="45.73938" lon="1.21121">
        <ele>355.08627</ele>
        <time>2026-08-08T09:46:19Z</time>
      </trkpt>
      <trkpt lat="45.7394" lon="1.21117">
        <ele>355.08627</ele>
        <time>2026-08-08T09:46:20Z</time>
      </trkpt>
      <trkpt lat="45.73942" lon="1.21114">
        <ele>355.08627</ele>
        <time>2026-08-08T09:46:21Z</time>
      </trkpt>
      <trkpt lat="45.73944" lon="1.2111">
        <ele>356.08627</ele>
        <time>2026-08-08T09:46:22Z</time>
      </trkpt>
      <trkpt lat="45.73946" lon="1.21106">
        <ele>356.08627</ele>
        <time>2026-08-08T09:46:23Z</time>
      </trkpt>
      <trkpt lat="45.73948" lon="1.21102">
        <ele>356.08627</ele>
        <time>2026-08-08T09:46:24Z</time>
      </trkpt>
      <trkpt lat="45.7395" lon="1.21099">
        <ele>356.08627</ele>
        <time>2026-08-08T09:46:25Z</time>
      </trkpt>
      <trkpt lat="45.73953" lon="1.21095">
        <ele>356.08627</ele>
        <time>2026-08-08T09:46:26Z</time>
      </trkpt>
      <trkpt lat="45.73955" lon="1.21092">
        <ele>356.08627</ele>
        <time>2026-08-08T09:46:27Z</time>
      </trkpt>
      <trkpt lat="45.73958" lon="1.21088">
        <ele>356.08627</ele>
        <time>2026-08-08T09:46:28Z</time>
      </trkpt>
      <trkpt lat="45.73961" lon="1.21085">
        <ele>355.08627</ele>
        <time>2026-08-08T09:46:29Z</time>
      </trkpt>
      <trkpt lat="45.73964" lon="1.21081">
        <ele>355.08627</ele>
        <time>2026-08-08T09:46:30Z</time>
      </trkpt>
      <trkpt lat="45.73967" lon="1.21077">
        <ele>355.08627</ele>
        <time>2026-08-08T09:46:31Z</time>
      </trkpt>
      <trkpt lat="45.7397" lon="1.21073">
        <ele>354.08627</ele>
        <time>2026-08-08T09:46:32Z</time>
      </trkpt>
      <trkpt lat="45.73973" lon="1.21068">
        <ele>354.08627</ele>
        <time>2026-08-08T09:46:33Z</time>
      </trkpt>
      <trkpt lat="45.73976" lon="1.21064">
        <ele>354.08627</ele>
        <time>2026-08-08T09:46:34Z</time>
      </trkpt>
      <trkpt lat="45.73979" lon="1.2106">
        <ele>353.08627</ele>
        <time>2026-08-08T09:46:35Z</time>
      </trkpt>
      <trkpt lat="45.73982" lon="1.21055">
        <ele>353.08627</ele>
        <time>2026-08-08T09:46:36Z</time>
      </trkpt>
      <trkpt lat="45.73985" lon="1.21051">
        <ele>353.08627</ele>
        <time>2026-08-08T09:46:37Z</time>
      </trkpt>
      <trkpt lat="45.73988" lon="1.21047">
        <ele>352.08627</ele>
        <time>2026-08-08T09:46:38Z</time>
      </trkpt>
      <trkpt lat="45.73992" lon="1.21044">
        <ele>352.08627</ele>
        <time>2026-08-08T09:46:39Z</time>
      </trkpt>
      <trkpt lat="45.73995" lon="1.2104">
        <ele>352.08627</ele>
        <time>2026-08-08T09:46:40Z</time>
      </trkpt>
      <trkpt lat="45.73998" lon="1.21036">
        <ele>352.08627</ele>
        <time>2026-08-08T09:46:41Z</time>
      </trkpt>
      <trkpt lat="45.74001" lon="1.21032">
        <ele>351.08627</ele>
        <time>2026-08-08T09:46:42Z</time>
      </trkpt>
      <trkpt lat="45.74005" lon="1.21029">
        <ele>351.08627</ele>
        <time>2026-08-08T09:46:43Z</time>
      </trkpt>
      <trkpt lat="45.74008" lon="1.21026">
        <ele>351.08627</ele>
        <time>2026-08-08T09:46:44Z</time>
      </trkpt>
      <trkpt lat="45.74011" lon="1.21023">
        <ele>351.08627</ele>
        <time>2026-08-08T09:46:45Z</time>
      </trkpt>
      <trkpt lat="45.74014" lon="1.21019">
        <ele>351.08627</ele>
        <time>2026-08-08T09:46:46Z</time>
      </trkpt>
      <trkpt lat="45.74017" lon="1.21016">
        <ele>351.08627</ele>
        <time>2026-08-08T09:46:47Z</time>
      </trkpt>
      <trkpt lat="45.7402" lon="1.21014">
        <ele>351.08627</ele>
        <time>2026-08-08T09:46:48Z</time>
      </trkpt>
      <trkpt lat="45.74023" lon="1.21011">
        <ele>350.08627</ele>
        <time>2026-08-08T09:46:49Z</time>
      </trkpt>
      <trkpt lat="45.74026" lon="1.21008">
        <ele>350.08627</ele>
        <time>2026-08-08T09:46:50Z</time>
      </trkpt>
      <trkpt lat="45.74029" lon="1.21005">
        <ele>350.08627</ele>
        <time>2026-08-08T09:46:51Z</time>
      </trkpt>
      <trkpt lat="45.74032" lon="1.21002">
        <ele>350.08627</ele>
        <time>2026-08-08T09:46:52Z</time>
      </trkpt>
      <trkpt lat="45.74035" lon="1.20999">
        <ele>350.08627</ele>
        <time>2026-08-08T09:46:53Z</time>
      </trkpt>
      <trkpt lat="45.74038" lon="1.20996">
        <ele>351.08627</ele>
        <time>2026-08-08T09:46:54Z</time>
      </trkpt>
      <trkpt lat="45.7404" lon="1.20994">
        <ele>351.08627</ele>
        <time>2026-08-08T09:46:55Z</time>
      </trkpt>
      <trkpt lat="45.74043" lon="1.20991">
        <ele>351.08627</ele>
        <time>2026-08-08T09:46:56Z</time>
      </trkpt>
      <trkpt lat="45.74045" lon="1.20989">
        <ele>351.08627</ele>
        <time>2026-08-08T09:46:57Z</time>
      </trkpt>
      <trkpt lat="45.74048" lon="1.20986">
        <ele>351.08627</ele>
        <time>2026-08-08T09:46:58Z</time>
      </trkpt>
      <trkpt lat="45.7405" lon="1.20984">
        <ele>351.08627</ele>
        <time>2026-08-08T09:46:59Z</time>
      </trkpt>
      <trkpt lat="45.74053" lon="1.20983">
        <ele>351.08627</ele>
        <time>2026-08-08T09:47:00Z</time>
      </trkpt>
      <trkpt lat="45.74056" lon="1.20983">
        <ele>351.08627</ele>
        <time>2026-08-08T09:47:01Z</time>
      </trkpt>
      <trkpt lat="45.74059" lon="1.20983">
        <ele>351.08627</ele>
        <time>2026-08-08T09:47:02Z</time>
      </trkpt>
      <trkpt lat="45.74063" lon="1.20983">
        <ele>351.08627</ele>
        <time>2026-08-08T09:47:03Z</time>
      </trkpt>
      <trkpt lat="45.74067" lon="1.20983">
        <ele>351.08627</ele>
        <time>2026-08-08T09:47:04Z</time>
      </trkpt>
      <trkpt lat="45.7407" lon="1.20983">
        <ele>351.08627</ele>
        <time>2026-08-08T09:47:05Z</time>
      </trkpt>
      <trkpt lat="45.74073" lon="1.20982">
        <ele>351.08627</ele>
        <time>2026-08-08T09:47:06Z</time>
      </trkpt>
      <trkpt lat="45.74076" lon="1.20983">
        <ele>351.08627</ele>
        <time>2026-08-08T09:47:07Z</time>
      </trkpt>
      <trkpt lat="45.74079" lon="1.20984">
        <ele>351.08627</ele>
        <time>2026-08-08T09:47:08Z</time>
      </trkpt>
      <trkpt lat="45.74082" lon="1.20984">
        <ele>351.08627</ele>
        <time>2026-08-08T09:47:09Z</time>
      </trkpt>
      <trkpt lat="45.74084" lon="1.20984">
        <ele>351.08627</ele>
        <time>2026-08-08T09:47:10Z</time>
      </trkpt>
      <trkpt lat="45.74086" lon="1.20986">
        <ele>351.08627</ele>
        <time>2026-08-08T09:47:11Z</time>
      </trkpt>
      <trkpt lat="45.74089" lon="1.20987">
        <ele>351.08627</ele>
        <time>2026-08-08T09:47:12Z</time>
      </trkpt>
      <trkpt lat="45.74091" lon="1.20988">
        <ele>351.08627</ele>
        <time>2026-08-08T09:47:13Z</time>
      </trkpt>
      <trkpt lat="45.74093" lon="1.20989">
        <ele>351.08627</ele>
        <time>2026-08-08T09:47:14Z</time>
      </trkpt>
      <trkpt lat="45.74096" lon="1.20991">
        <ele>351.08627</ele>
        <time>2026-08-08T09:47:15Z</time>
      </trkpt>
      <trkpt lat="45.74098" lon="1.20992">
        <ele>351.08627</ele>
        <time>2026-08-08T09:47:16Z</time>
      </trkpt>
      <trkpt lat="45.74101" lon="1.20993">
        <ele>351.08627</ele>
        <time>2026-08-08T09:47:17Z</time>
      </trkpt>
      <trkpt lat="45.74104" lon="1.20996">
        <ele>351.08627</ele>
        <time>2026-08-08T09:47:18Z</time>
      </trkpt>
      <trkpt lat="45.74107" lon="1.20998">
        <ele>351.08627</ele>
        <time>2026-08-08T09:47:19Z</time>
      </trkpt>
      <trkpt lat="45.7411" lon="1.21">
        <ele>351.08627</ele>
        <time>2026-08-08T09:47:20Z</time>
      </trkpt>
      <trkpt lat="45.74114" lon="1.21">
        <ele>349.08627</ele>
        <time>2026-08-08T09:47:21Z</time>
      </trkpt>
      <trkpt lat="45.74117" lon="1.21002">
        <ele>350.08627</ele>
        <time>2026-08-08T09:47:22Z</time>
      </trkpt>
      <trkpt lat="45.7412" lon="1.21003">
        <ele>349.08627</ele>
        <time>2026-08-08T09:47:23Z</time>
      </trkpt>
      <trkpt lat="45.74123" lon="1.21005">
        <ele>349.08627</ele>
        <time>2026-08-08T09:47:24Z</time>
      </trkpt>
      <trkpt lat="45.74127" lon="1.21005">
        <ele>348.08627</ele>
        <time>2026-08-08T09:47:25Z</time>
      </trkpt>
      <trkpt lat="45.7413" lon="1.21008">
        <ele>348.08627</ele>
        <time>2026-08-08T09:47:26Z</time>
      </trkpt>
      <trkpt lat="45.74134" lon="1.21009">
        <ele>348.08627</ele>
        <time>2026-08-08T09:47:27Z</time>
      </trkpt>
      <trkpt lat="45.74137" lon="1.21011">
        <ele>348.08627</ele>
        <time>2026-08-08T09:47:28Z</time>
      </trkpt>
      <trkpt lat="45.7414" lon="1.21013">
        <ele>348.08627</ele>
        <time>2026-08-08T09:47:29Z</time>
      </trkpt>
      <trkpt lat="45.74144" lon="1.21015">
        <ele>348.08627</ele>
        <time>2026-08-08T09:47:30Z</time>
      </trkpt>
      <trkpt lat="45.74148" lon="1.21017">
        <ele>348.08627</ele>
        <time>2026-08-08T09:47:31Z</time>
      </trkpt>
      <trkpt lat="45.74151" lon="1.21018">
        <ele>348.08627</ele>
        <time>2026-08-08T09:47:32Z</time>
      </trkpt>
      <trkpt lat="45.74154" lon="1.21019">
        <ele>348.08627</ele>
        <time>2026-08-08T09:47:33Z</time>
      </trkpt>
      <trkpt lat="45.74158" lon="1.2102">
        <ele>348.08627</ele>
        <time>2026-08-08T09:47:34Z</time>
      </trkpt>
      <trkpt lat="45.74161" lon="1.21021">
        <ele>348.08627</ele>
        <time>2026-08-08T09:47:35Z</time>
      </trkpt>
      <trkpt lat="45.74164" lon="1.21022">
        <ele>348.08627</ele>
        <time>2026-08-08T09:47:36Z</time>
      </trkpt>
      <trkpt lat="45.74166" lon="1.21024">
        <ele>348.08627</ele>
        <time>2026-08-08T09:47:37Z</time>
      </trkpt>
      <trkpt lat="45.7417" lon="1.21025">
        <ele>348.08627</ele>
        <time>2026-08-08T09:47:38Z</time>
      </trkpt>
      <trkpt lat="45.74173" lon="1.21027">
        <ele>349.08627</ele>
        <time>2026-08-08T09:47:39Z</time>
      </trkpt>
      <trkpt lat="45.74176" lon="1.21029">
        <ele>349.08627</ele>
        <time>2026-08-08T09:47:40Z</time>
      </trkpt>
      <trkpt lat="45.7418" lon="1.21031">
        <ele>349.08627</ele>
        <time>2026-08-08T09:47:41Z</time>
      </trkpt>
      <trkpt lat="45.74183" lon="1.21033">
        <ele>349.08627</ele>
        <time>2026-08-08T09:47:42Z</time>
      </trkpt>
      <trkpt lat="45.74186" lon="1.21036">
        <ele>349.08627</ele>
        <time>2026-08-08T09:47:43Z</time>
      </trkpt>
      <trkpt lat="45.7419" lon="1.21039">
        <ele>350.08627</ele>
        <time>2026-08-08T09:47:44Z</time>
      </trkpt>
      <trkpt lat="45.74193" lon="1.21042">
        <ele>350.08627</ele>
        <time>2026-08-08T09:47:45Z</time>
      </trkpt>
      <trkpt lat="45.74197" lon="1.21045">
        <ele>350.08627</ele>
        <time>2026-08-08T09:47:46Z</time>
      </trkpt>
      <trkpt lat="45.74201" lon="1.21047">
        <ele>350.08627</ele>
        <time>2026-08-08T09:47:47Z</time>
      </trkpt>
      <trkpt lat="45.74204" lon="1.21049">
        <ele>350.08627</ele>
        <time>2026-08-08T09:47:48Z</time>
      </trkpt>
      <trkpt lat="45.74208" lon="1.21052">
        <ele>350.08627</ele>
        <time>2026-08-08T09:47:49Z</time>
      </trkpt>
      <trkpt lat="45.74211" lon="1.21055">
        <ele>350.08627</ele>
        <time>2026-08-08T09:47:50Z</time>
      </trkpt>
      <trkpt lat="45.74214" lon="1.21057">
        <ele>350.08627</ele>
        <time>2026-08-08T09:47:51Z</time>
      </trkpt>
      <trkpt lat="45.74218" lon="1.21059">
        <ele>351.08627</ele>
        <time>2026-08-08T09:47:52Z</time>
      </trkpt>
      <trkpt lat="45.74221" lon="1.21061">
        <ele>351.08627</ele>
        <time>2026-08-08T09:47:53Z</time>
      </trkpt>
      <trkpt lat="45.74225" lon="1.21063">
        <ele>351.08627</ele>
        <time>2026-08-08T09:47:54Z</time>
      </trkpt>
      <trkpt lat="45.74228" lon="1.21066">
        <ele>351.08627</ele>
        <time>2026-08-08T09:47:55Z</time>
      </trkpt>
      <trkpt lat="45.74232" lon="1.21068">
        <ele>351.08627</ele>
        <time>2026-08-08T09:47:56Z</time>
      </trkpt>
      <trkpt lat="45.74235" lon="1.21069">
        <ele>351.08627</ele>
        <time>2026-08-08T09:47:57Z</time>
      </trkpt>
      <trkpt lat="45.74238" lon="1.21071">
        <ele>351.08627</ele>
        <time>2026-08-08T09:47:58Z</time>
      </trkpt>
      <trkpt lat="45.74241" lon="1.21072">
        <ele>352.08627</ele>
        <time>2026-08-08T09:47:59Z</time>
      </trkpt>
      <trkpt lat="45.74244" lon="1.21073">
        <ele>352.08627</ele>
        <time>2026-08-08T09:48:00Z</time>
      </trkpt>
      <trkpt lat="45.74247" lon="1.21075">
        <ele>352.08627</ele>
        <time>2026-08-08T09:48:01Z</time>
      </trkpt>
      <trkpt lat="45.7425" lon="1.21077">
        <ele>352.08627</ele>
        <time>2026-08-08T09:48:02Z</time>
      </trkpt>
      <trkpt lat="45.74253" lon="1.21079">
        <ele>353.08627</ele>
        <time>2026-08-08T09:48:03Z</time>
      </trkpt>
      <trkpt lat="45.74256" lon="1.21081">
        <ele>353.08627</ele>
        <time>2026-08-08T09:48:04Z</time>
      </trkpt>
      <trkpt lat="45.74259" lon="1.21082">
        <ele>353.08627</ele>
        <time>2026-08-08T09:48:05Z</time>
      </trkpt>
      <trkpt lat="45.74262" lon="1.21084">
        <ele>353.08627</ele>
        <time>2026-08-08T09:48:06Z</time>
      </trkpt>
      <trkpt lat="45.74265" lon="1.21085">
        <ele>353.08627</ele>
        <time>2026-08-08T09:48:07Z</time>
      </trkpt>
      <trkpt lat="45.74267" lon="1.21087">
        <ele>354.08627</ele>
        <time>2026-08-08T09:48:08Z</time>
      </trkpt>
      <trkpt lat="45.7427" lon="1.21089">
        <ele>354.08627</ele>
        <time>2026-08-08T09:48:09Z</time>
      </trkpt>
      <trkpt lat="45.74273" lon="1.21091">
        <ele>354.08627</ele>
        <time>2026-08-08T09:48:10Z</time>
      </trkpt>
      <trkpt lat="45.74276" lon="1.21094">
        <ele>354.08627</ele>
        <time>2026-08-08T09:48:11Z</time>
      </trkpt>
      <trkpt lat="45.74279" lon="1.21095">
        <ele>354.08627</ele>
        <time>2026-08-08T09:48:12Z</time>
      </trkpt>
      <trkpt lat="45.74282" lon="1.21097">
        <ele>354.08627</ele>
        <time>2026-08-08T09:48:13Z</time>
      </trkpt>
      <trkpt lat="45.74285" lon="1.21099">
        <ele>355.08627</ele>
        <time>2026-08-08T09:48:14Z</time>
      </trkpt>
      <trkpt lat="45.74288" lon="1.21101">
        <ele>355.08627</ele>
        <time>2026-08-08T09:48:15Z</time>
      </trkpt>
      <trkpt lat="45.74291" lon="1.21103">
        <ele>355.08627</ele>
        <time>2026-08-08T09:48:16Z</time>
      </trkpt>
      <trkpt lat="45.74294" lon="1.21104">
        <ele>355.08627</ele>
        <time>2026-08-08T09:48:17Z</time>
      </trkpt>
      <trkpt lat="45.74297" lon="1.21106">
        <ele>355.08627</ele>
        <time>2026-08-08T09:48:18Z</time>
      </trkpt>
      <trkpt lat="45.743" lon="1.21107">
        <ele>355.08627</ele>
        <time>2026-08-08T09:48:19Z</time>
      </trkpt>
      <trkpt lat="45.74303" lon="1.21109">
        <ele>355.08627</ele>
        <time>2026-08-08T09:48:20Z</time>
      </trkpt>
      <trkpt lat="45.74306" lon="1.21109">
        <ele>355.08627</ele>
        <time>2026-08-08T09:48:21Z</time>
      </trkpt>
      <trkpt lat="45.74308" lon="1.2111">
        <ele>355.08627</ele>
        <time>2026-08-08T09:48:22Z</time>
      </trkpt>
      <trkpt lat="45.74311" lon="1.21111">
        <ele>355.08627</ele>
        <time>2026-08-08T09:48:23Z</time>
      </trkpt>
      <trkpt lat="45.74314" lon="1.21113">
        <ele>355.08627</ele>
        <time>2026-08-08T09:48:24Z</time>
      </trkpt>
      <trkpt lat="45.74317" lon="1.21115">
        <ele>355.08627</ele>
        <time>2026-08-08T09:48:25Z</time>
      </trkpt>
      <trkpt lat="45.7432" lon="1.21117">
        <ele>355.08627</ele>
        <time>2026-08-08T09:48:26Z</time>
      </trkpt>
      <trkpt lat="45.74323" lon="1.2112">
        <ele>355.08627</ele>
        <time>2026-08-08T09:48:27Z</time>
      </trkpt>
      <trkpt lat="45.74326" lon="1.21122">
        <ele>355.08627</ele>
        <time>2026-08-08T09:48:28Z</time>
      </trkpt>
      <trkpt lat="45.74329" lon="1.21123">
        <ele>355.08627</ele>
        <time>2026-08-08T09:48:29Z</time>
      </trkpt>
      <trkpt lat="45.74332" lon="1.21125">
        <ele>356.08627</ele>
        <time>2026-08-08T09:48:30Z</time>
      </trkpt>
      <trkpt lat="45.74335" lon="1.21127">
        <ele>356.08627</ele>
        <time>2026-08-08T09:48:31Z</time>
      </trkpt>
      <trkpt lat="45.74338" lon="1.21128">
        <ele>356.08627</ele>
        <time>2026-08-08T09:48:32Z</time>
      </trkpt>
      <trkpt lat="45.74341" lon="1.21129">
        <ele>356.08627</ele>
        <time>2026-08-08T09:48:33Z</time>
      </trkpt>
      <trkpt lat="45.74344" lon="1.21132">
        <ele>356.08627</ele>
        <time>2026-08-08T09:48:34Z</time>
      </trkpt>
      <trkpt lat="45.74348" lon="1.21134">
        <ele>356.08627</ele>
        <time>2026-08-08T09:48:35Z</time>
      </trkpt>
      <trkpt lat="45.74351" lon="1.21135">
        <ele>356.08627</ele>
        <time>2026-08-08T09:48:36Z</time>
      </trkpt>
      <trkpt lat="45.74354" lon="1.21137">
        <ele>356.08627</ele>
        <time>2026-08-08T09:48:37Z</time>
      </trkpt>
      <trkpt lat="45.74357" lon="1.21139">
        <ele>356.08627</ele>
        <time>2026-08-08T09:48:38Z</time>
      </trkpt>
      <trkpt lat="45.74359" lon="1.21141">
        <ele>356.08627</ele>
        <time>2026-08-08T09:48:39Z</time>
      </trkpt>
      <trkpt lat="45.74362" lon="1.21143">
        <ele>356.08627</ele>
        <time>2026-08-08T09:48:40Z</time>
      </trkpt>
      <trkpt lat="45.74365" lon="1.21145">
        <ele>357.08627</ele>
        <time>2026-08-08T09:48:41Z</time>
      </trkpt>
      <trkpt lat="45.74368" lon="1.21148">
        <ele>357.08627</ele>
        <time>2026-08-08T09:48:42Z</time>
      </trkpt>
      <trkpt lat="45.7437" lon="1.2115">
        <ele>357.08627</ele>
        <time>2026-08-08T09:48:43Z</time>
      </trkpt>
      <trkpt lat="45.74373" lon="1.21152">
        <ele>357.08627</ele>
        <time>2026-08-08T09:48:44Z</time>
      </trkpt>
      <trkpt lat="45.74375" lon="1.21152">
        <ele>356.08627</ele>
        <time>2026-08-08T09:48:45Z</time>
      </trkpt>
      <trkpt lat="45.74378" lon="1.21154">
        <ele>356.08627</ele>
        <time>2026-08-08T09:48:46Z</time>
      </trkpt>
      <trkpt lat="45.7438" lon="1.21156">
        <ele>356.08627</ele>
        <time>2026-08-08T09:48:47Z</time>
      </trkpt>
      <trkpt lat="45.74383" lon="1.21158">
        <ele>356.08627</ele>
        <time>2026-08-08T09:48:48Z</time>
      </trkpt>
      <trkpt lat="45.74386" lon="1.21159">
        <ele>356.08627</ele>
        <time>2026-08-08T09:48:49Z</time>
      </trkpt>
      <trkpt lat="45.74388" lon="1.21162">
        <ele>356.08627</ele>
        <time>2026-08-08T09:48:50Z</time>
      </trkpt>
      <trkpt lat="45.7439" lon="1.21163">
        <ele>356.08627</ele>
        <time>2026-08-08T09:48:51Z</time>
      </trkpt>
      <trkpt lat="45.74392" lon="1.21164">
        <ele>356.08627</ele>
        <time>2026-08-08T09:48:52Z</time>
      </trkpt>
      <trkpt lat="45.74393" lon="1.21165">
        <ele>356.08627</ele>
        <time>2026-08-08T09:48:53Z</time>
      </trkpt>
      <trkpt lat="45.74395" lon="1.21167">
        <ele>357.08627</ele>
        <time>2026-08-08T09:48:54Z</time>
      </trkpt>
      <trkpt lat="45.74397" lon="1.21168">
        <ele>357.08627</ele>
        <time>2026-08-08T09:48:55Z</time>
      </trkpt>
      <trkpt lat="45.744" lon="1.21169">
        <ele>357.08627</ele>
        <time>2026-08-08T09:48:56Z</time>
      </trkpt>
      <trkpt lat="45.74402" lon="1.21169">
        <ele>357.08627</ele>
        <time>2026-08-08T09:48:57Z</time>
      </trkpt>
      <trkpt lat="45.74403" lon="1.21171">
        <ele>357.08627</ele>
        <time>2026-08-08T09:48:58Z</time>
      </trkpt>
      <trkpt lat="45.74405" lon="1.21171">
        <ele>357.08627</ele>
        <time>2026-08-08T09:48:59Z</time>
      </trkpt>
      <trkpt lat="45.74407" lon="1.21173">
        <ele>357.08627</ele>
        <time>2026-08-08T09:49:00Z</time>
      </trkpt>
      <trkpt lat="45.74409" lon="1.21175">
        <ele>357.08627</ele>
        <time>2026-08-08T09:49:01Z</time>
      </trkpt>
      <trkpt lat="45.74411" lon="1.21176">
        <ele>357.08627</ele>
        <time>2026-08-08T09:49:02Z</time>
      </trkpt>
      <trkpt lat="45.74413" lon="1.21178">
        <ele>357.08627</ele>
        <time>2026-08-08T09:49:03Z</time>
      </trkpt>
      <trkpt lat="45.74416" lon="1.21179">
        <ele>357.08627</ele>
        <time>2026-08-08T09:49:04Z</time>
      </trkpt>
      <trkpt lat="45.74418" lon="1.21181">
        <ele>357.08627</ele>
        <time>2026-08-08T09:49:05Z</time>
      </trkpt>
      <trkpt lat="45.74421" lon="1.21183">
        <ele>358.08627</ele>
        <time>2026-08-08T09:49:06Z</time>
      </trkpt>
      <trkpt lat="45.74424" lon="1.21185">
        <ele>358.08627</ele>
        <time>2026-08-08T09:49:07Z</time>
      </trkpt>
      <trkpt lat="45.74428" lon="1.21187">
        <ele>359.08627</ele>
        <time>2026-08-08T09:49:08Z</time>
      </trkpt>
      <trkpt lat="45.7443" lon="1.21189">
        <ele>359.08627</ele>
        <time>2026-08-08T09:49:09Z</time>
      </trkpt>
      <trkpt lat="45.74432" lon="1.21191">
        <ele>359.08627</ele>
        <time>2026-08-08T09:49:10Z</time>
      </trkpt>
      <trkpt lat="45.74434" lon="1.21192">
        <ele>360.08627</ele>
        <time>2026-08-08T09:49:11Z</time>
      </trkpt>
      <trkpt lat="45.74437" lon="1.21193">
        <ele>360.08627</ele>
        <time>2026-08-08T09:49:12Z</time>
      </trkpt>
      <trkpt lat="45.7444" lon="1.21195">
        <ele>360.08627</ele>
        <time>2026-08-08T09:49:13Z</time>
      </trkpt>
      <trkpt lat="45.74442" lon="1.21196">
        <ele>360.08627</ele>
        <time>2026-08-08T09:49:14Z</time>
      </trkpt>
      <trkpt lat="45.74444" lon="1.21197">
        <ele>359.08627</ele>
        <time>2026-08-08T09:49:15Z</time>
      </trkpt>
      <trkpt lat="45.74447" lon="1.21199">
        <ele>359.08627</ele>
        <time>2026-08-08T09:49:16Z</time>
      </trkpt>
      <trkpt lat="45.74449" lon="1.21201">
        <ele>359.08627</ele>
        <time>2026-08-08T09:49:17Z</time>
      </trkpt>
      <trkpt lat="45.74452" lon="1.21202">
        <ele>359.08627</ele>
        <time>2026-08-08T09:49:18Z</time>
      </trkpt>
      <trkpt lat="45.74454" lon="1.21204">
        <ele>359.08627</ele>
        <time>2026-08-08T09:49:19Z</time>
      </trkpt>
      <trkpt lat="45.74457" lon="1.21205">
        <ele>359.08627</ele>
        <time>2026-08-08T09:49:20Z</time>
      </trkpt>
      <trkpt lat="45.7446" lon="1.21206">
        <ele>359.08627</ele>
        <time>2026-08-08T09:49:21Z</time>
      </trkpt>
      <trkpt lat="45.74463" lon="1.21208">
        <ele>359.08627</ele>
        <time>2026-08-08T09:49:22Z</time>
      </trkpt>
      <trkpt lat="45.74466" lon="1.2121">
        <ele>359.08627</ele>
        <time>2026-08-08T09:49:23Z</time>
      </trkpt>
      <trkpt lat="45.74469" lon="1.21211">
        <ele>358.08627</ele>
        <time>2026-08-08T09:49:24Z</time>
      </trkpt>
      <trkpt lat="45.74471" lon="1.21212">
        <ele>358.08627</ele>
        <time>2026-08-08T09:49:25Z</time>
      </trkpt>
      <trkpt lat="45.74473" lon="1.21214">
        <ele>358.08627</ele>
        <time>2026-08-08T09:49:26Z</time>
      </trkpt>
      <trkpt lat="45.74475" lon="1.21216">
        <ele>358.08627</ele>
        <time>2026-08-08T09:49:27Z</time>
      </trkpt>
      <trkpt lat="45.74478" lon="1.21218">
        <ele>358.08627</ele>
        <time>2026-08-08T09:49:28Z</time>
      </trkpt>
      <trkpt lat="45.74481" lon="1.2122">
        <ele>359.08627</ele>
        <time>2026-08-08T09:49:29Z</time>
      </trkpt>
      <trkpt lat="45.74483" lon="1.21222">
        <ele>359.08627</ele>
        <time>2026-08-08T09:49:30Z</time>
      </trkpt>
      <trkpt lat="45.74486" lon="1.21223">
        <ele>359.08627</ele>
        <time>2026-08-08T09:49:31Z</time>
      </trkpt>
      <trkpt lat="45.74489" lon="1.21225">
        <ele>359.08627</ele>
        <time>2026-08-08T09:49:32Z</time>
      </trkpt>
      <trkpt lat="45.74492" lon="1.21226">
        <ele>359.08627</ele>
        <time>2026-08-08T09:49:33Z</time>
      </trkpt>
      <trkpt lat="45.74494" lon="1.21227">
        <ele>359.08627</ele>
        <time>2026-08-08T09:49:34Z</time>
      </trkpt>
      <trkpt lat="45.74496" lon="1.21228">
        <ele>360.08627</ele>
        <time>2026-08-08T09:49:35Z</time>
      </trkpt>
      <trkpt lat="45.74498" lon="1.21229">
        <ele>360.08627</ele>
        <time>2026-08-08T09:49:36Z</time>
      </trkpt>
      <trkpt lat="45.745" lon="1.21231">
        <ele>360.08627</ele>
        <time>2026-08-08T09:49:37Z</time>
      </trkpt>
      <trkpt lat="45.74503" lon="1.21232">
        <ele>361.08627</ele>
        <time>2026-08-08T09:49:38Z</time>
      </trkpt>
      <trkpt lat="45.74505" lon="1.21234">
        <ele>361.08627</ele>
        <time>2026-08-08T09:49:39Z</time>
      </trkpt>
      <trkpt lat="45.74508" lon="1.21235">
        <ele>361.08627</ele>
        <time>2026-08-08T09:49:40Z</time>
      </trkpt>
      <trkpt lat="45.74511" lon="1.21237">
        <ele>361.08627</ele>
        <time>2026-08-08T09:49:41Z</time>
      </trkpt>
      <trkpt lat="45.74514" lon="1.21239">
        <ele>361.08627</ele>
        <time>2026-08-08T09:49:42Z</time>
      </trkpt>
      <trkpt lat="45.74516" lon="1.21241">
        <ele>361.08627</ele>
        <time>2026-08-08T09:49:43Z</time>
      </trkpt>
      <trkpt lat="45.74519" lon="1.21243">
        <ele>362.08627</ele>
        <time>2026-08-08T09:49:44Z</time>
      </trkpt>
      <trkpt lat="45.74521" lon="1.21245">
        <ele>362.08627</ele>
        <time>2026-08-08T09:49:45Z</time>
      </trkpt>
      <trkpt lat="45.74523" lon="1.21246">
        <ele>363.08627</ele>
        <time>2026-08-08T09:49:46Z</time>
      </trkpt>
      <trkpt lat="45.74526" lon="1.21247">
        <ele>363.08627</ele>
        <time>2026-08-08T09:49:47Z</time>
      </trkpt>
      <trkpt lat="45.74528" lon="1.21249">
        <ele>363.08627</ele>
        <time>2026-08-08T09:49:48Z</time>
      </trkpt>
      <trkpt lat="45.74531" lon="1.2125">
        <ele>363.08627</ele>
        <time>2026-08-08T09:49:49Z</time>
      </trkpt>
      <trkpt lat="45.74534" lon="1.21252">
        <ele>363.08627</ele>
        <time>2026-08-08T09:49:50Z</time>
      </trkpt>
      <trkpt lat="45.74537" lon="1.21254">
        <ele>363.08627</ele>
        <time>2026-08-08T09:49:51Z</time>
      </trkpt>
      <trkpt lat="45.74539" lon="1.21255">
        <ele>363.08627</ele>
        <time>2026-08-08T09:49:52Z</time>
      </trkpt>
      <trkpt lat="45.74543" lon="1.21256">
        <ele>363.08627</ele>
        <time>2026-08-08T09:49:53Z</time>
      </trkpt>
      <trkpt lat="45.74546" lon="1.21258">
        <ele>363.08627</ele>
        <time>2026-08-08T09:49:54Z</time>
      </trkpt>
      <trkpt lat="45.74549" lon="1.21258">
        <ele>363.08627</ele>
        <time>2026-08-08T09:49:55Z</time>
      </trkpt>
      <trkpt lat="45.74552" lon="1.21259">
        <ele>363.08627</ele>
        <time>2026-08-08T09:49:56Z</time>
      </trkpt>
      <trkpt lat="45.74555" lon="1.21259">
        <ele>363.08627</ele>
        <time>2026-08-08T09:49:57Z</time>
      </trkpt>
      <trkpt lat="45.74559" lon="1.2126">
        <ele>363.08627</ele>
        <time>2026-08-08T09:49:58Z</time>
      </trkpt>
      <trkpt lat="45.74562" lon="1.21262">
        <ele>363.08627</ele>
        <time>2026-08-08T09:49:59Z</time>
      </trkpt>
      <trkpt lat="45.74564" lon="1.21263">
        <ele>363.08627</ele>
        <time>2026-08-08T09:50:00Z</time>
      </trkpt>
      <trkpt lat="45.74567" lon="1.21264">
        <ele>363.08627</ele>
        <time>2026-08-08T09:50:01Z</time>
      </trkpt>
      <trkpt lat="45.74569" lon="1.21265">
        <ele>363.08627</ele>
        <time>2026-08-08T09:50:02Z</time>
      </trkpt>
      <trkpt lat="45.74572" lon="1.21266">
        <ele>363.08627</ele>
        <time>2026-08-08T09:50:03Z</time>
      </trkpt>
      <trkpt lat="45.74575" lon="1.21268">
        <ele>363.08627</ele>
        <time>2026-08-08T09:50:04Z</time>
      </trkpt>
      <trkpt lat="45.74579" lon="1.21269">
        <ele>363.08627</ele>
        <time>2026-08-08T09:50:05Z</time>
      </trkpt>
      <trkpt lat="45.74582" lon="1.2127">
        <ele>363.08627</ele>
        <time>2026-08-08T09:50:06Z</time>
      </trkpt>
      <trkpt lat="45.74585" lon="1.21272">
        <ele>364.08627</ele>
        <time>2026-08-08T09:50:07Z</time>
      </trkpt>
      <trkpt lat="45.74587" lon="1.21273">
        <ele>363.08627</ele>
        <time>2026-08-08T09:50:08Z</time>
      </trkpt>
      <trkpt lat="45.7459" lon="1.21275">
        <ele>364.08627</ele>
        <time>2026-08-08T09:50:09Z</time>
      </trkpt>
      <trkpt lat="45.74593" lon="1.21277">
        <ele>364.08627</ele>
        <time>2026-08-08T09:50:10Z</time>
      </trkpt>
      <trkpt lat="45.74596" lon="1.21279">
        <ele>364.08627</ele>
        <time>2026-08-08T09:50:11Z</time>
      </trkpt>
      <trkpt lat="45.74599" lon="1.21281">
        <ele>364.08627</ele>
        <time>2026-08-08T09:50:12Z</time>
      </trkpt>
      <trkpt lat="45.74601" lon="1.21284">
        <ele>364.08627</ele>
        <time>2026-08-08T09:50:13Z</time>
      </trkpt>
      <trkpt lat="45.74604" lon="1.21287">
        <ele>365.08627</ele>
        <time>2026-08-08T09:50:14Z</time>
      </trkpt>
      <trkpt lat="45.74605" lon="1.21291">
        <ele>365.08627</ele>
        <time>2026-08-08T09:50:15Z</time>
      </trkpt>
      <trkpt lat="45.74607" lon="1.21294">
        <ele>365.08627</ele>
        <time>2026-08-08T09:50:16Z</time>
      </trkpt>
      <trkpt lat="45.7461" lon="1.21296">
        <ele>365.08627</ele>
        <time>2026-08-08T09:50:17Z</time>
      </trkpt>
      <trkpt lat="45.74613" lon="1.21297">
        <ele>365.08627</ele>
        <time>2026-08-08T09:50:18Z</time>
      </trkpt>
      <trkpt lat="45.74615" lon="1.21299">
        <ele>365.08627</ele>
        <time>2026-08-08T09:50:19Z</time>
      </trkpt>
      <trkpt lat="45.74618" lon="1.213">
        <ele>365.08627</ele>
        <time>2026-08-08T09:50:20Z</time>
      </trkpt>
      <trkpt lat="45.74622" lon="1.213">
        <ele>366.08627</ele>
        <time>2026-08-08T09:50:21Z</time>
      </trkpt>
      <trkpt lat="45.74625" lon="1.21301">
        <ele>366.08627</ele>
        <time>2026-08-08T09:50:22Z</time>
      </trkpt>
      <trkpt lat="45.74628" lon="1.213">
        <ele>366.08627</ele>
        <time>2026-08-08T09:50:23Z</time>
      </trkpt>
      <trkpt lat="45.74631" lon="1.213">
        <ele>366.08627</ele>
        <time>2026-08-08T09:50:24Z</time>
      </trkpt>
      <trkpt lat="45.74633" lon="1.21299">
        <ele>366.08627</ele>
        <time>2026-08-08T09:50:25Z</time>
      </trkpt>
      <trkpt lat="45.74636" lon="1.21297">
        <ele>365.08627</ele>
        <time>2026-08-08T09:50:26Z</time>
      </trkpt>
      <trkpt lat="45.74638" lon="1.21296">
        <ele>366.08627</ele>
        <time>2026-08-08T09:50:27Z</time>
      </trkpt>
      <trkpt lat="45.74641" lon="1.21294">
        <ele>366.08627</ele>
        <time>2026-08-08T09:50:28Z</time>
      </trkpt>
      <trkpt lat="45.74643" lon="1.21293">
        <ele>365.08627</ele>
        <time>2026-08-08T09:50:29Z</time>
      </trkpt>
      <trkpt lat="45.74646" lon="1.21292">
        <ele>365.08627</ele>
        <time>2026-08-08T09:50:30Z</time>
      </trkpt>
      <trkpt lat="45.74649" lon="1.21291">
        <ele>365.08627</ele>
        <time>2026-08-08T09:50:31Z</time>
      </trkpt>
      <trkpt lat="45.74651" lon="1.21289">
        <ele>365.08627</ele>
        <time>2026-08-08T09:50:32Z</time>
      </trkpt>
      <trkpt lat="45.74654" lon="1.21287">
        <ele>365.08627</ele>
        <time>2026-08-08T09:50:33Z</time>
      </trkpt>
      <trkpt lat="45.74656" lon="1.21284">
        <ele>365.08627</ele>
        <time>2026-08-08T09:50:34Z</time>
      </trkpt>
      <trkpt lat="45.74658" lon="1.2128">
        <ele>365.08627</ele>
        <time>2026-08-08T09:50:35Z</time>
      </trkpt>
      <trkpt lat="45.7466" lon="1.21277">
        <ele>366.08627</ele>
        <time>2026-08-08T09:50:36Z</time>
      </trkpt>
      <trkpt lat="45.74662" lon="1.21273">
        <ele>366.08627</ele>
        <time>2026-08-08T09:50:37Z</time>
      </trkpt>
      <trkpt lat="45.74665" lon="1.21269">
        <ele>366.08627</ele>
        <time>2026-08-08T09:50:38Z</time>
      </trkpt>
      <trkpt lat="45.74667" lon="1.21266">
        <ele>366.08627</ele>
        <time>2026-08-08T09:50:39Z</time>
      </trkpt>
      <trkpt lat="45.74669" lon="1.21263">
        <ele>366.08627</ele>
        <time>2026-08-08T09:50:40Z</time>
      </trkpt>
      <trkpt lat="45.74672" lon="1.2126">
        <ele>366.08627</ele>
        <time>2026-08-08T09:50:41Z</time>
      </trkpt>
      <trkpt lat="45.74674" lon="1.21257">
        <ele>366.08627</ele>
        <time>2026-08-08T09:50:42Z</time>
      </trkpt>
      <trkpt lat="45.74676" lon="1.21253">
        <ele>366.08627</ele>
        <time>2026-08-08T09:50:43Z</time>
      </trkpt>
      <trkpt lat="45.74678" lon="1.2125">
        <ele>366.08627</ele>
        <time>2026-08-08T09:50:44Z</time>
      </trkpt>
      <trkpt lat="45.7468" lon="1.21246">
        <ele>367.08627</ele>
        <time>2026-08-08T09:50:45Z</time>
      </trkpt>
      <trkpt lat="45.74683" lon="1.21242">
        <ele>367.08627</ele>
        <time>2026-08-08T09:50:46Z</time>
      </trkpt>
      <trkpt lat="45.74685" lon="1.21239">
        <ele>367.08627</ele>
        <time>2026-08-08T09:50:47Z</time>
      </trkpt>
      <trkpt lat="45.74688" lon="1.21236">
        <ele>367.08627</ele>
        <time>2026-08-08T09:50:48Z</time>
      </trkpt>
      <trkpt lat="45.74691" lon="1.21232">
        <ele>368.08627</ele>
        <time>2026-08-08T09:50:49Z</time>
      </trkpt>
      <trkpt lat="45.74694" lon="1.21227">
        <ele>368.08627</ele>
        <time>2026-08-08T09:50:50Z</time>
      </trkpt>
      <trkpt lat="45.74696" lon="1.21223">
        <ele>368.08627</ele>
        <time>2026-08-08T09:50:51Z</time>
      </trkpt>
      <trkpt lat="45.74699" lon="1.21218">
        <ele>368.08627</ele>
        <time>2026-08-08T09:50:52Z</time>
      </trkpt>
      <trkpt lat="45.74702" lon="1.21216">
        <ele>367.08627</ele>
        <time>2026-08-08T09:50:53Z</time>
      </trkpt>
      <trkpt lat="45.74706" lon="1.21214">
        <ele>367.08627</ele>
        <time>2026-08-08T09:50:54Z</time>
      </trkpt>
      <trkpt lat="45.7471" lon="1.21213">
        <ele>367.08627</ele>
        <time>2026-08-08T09:50:55Z</time>
      </trkpt>
      <trkpt lat="45.74713" lon="1.21214">
        <ele>367.08627</ele>
        <time>2026-08-08T09:50:56Z</time>
      </trkpt>
      <trkpt lat="45.74716" lon="1.21215">
        <ele>367.08627</ele>
        <time>2026-08-08T09:50:57Z</time>
      </trkpt>
      <trkpt lat="45.74718" lon="1.21218">
        <ele>367.08627</ele>
        <time>2026-08-08T09:50:58Z</time>
      </trkpt>
      <trkpt lat="45.7472" lon="1.21221">
        <ele>367.08627</ele>
        <time>2026-08-08T09:50:59Z</time>
      </trkpt>
      <trkpt lat="45.74723" lon="1.21224">
        <ele>367.08627</ele>
        <time>2026-08-08T09:51:00Z</time>
      </trkpt>
      <trkpt lat="45.74726" lon="1.21226">
        <ele>367.08627</ele>
        <time>2026-08-08T09:51:01Z</time>
      </trkpt>
      <trkpt lat="45.74728" lon="1.21228">
        <ele>367.08627</ele>
        <time>2026-08-08T09:51:02Z</time>
      </trkpt>
      <trkpt lat="45.74731" lon="1.21231">
        <ele>368.08627</ele>
        <time>2026-08-08T09:51:03Z</time>
      </trkpt>
      <trkpt lat="45.74733" lon="1.21233">
        <ele>368.08627</ele>
        <time>2026-08-08T09:51:04Z</time>
      </trkpt>
      <trkpt lat="45.74735" lon="1.21235">
        <ele>368.08627</ele>
        <time>2026-08-08T09:51:05Z</time>
      </trkpt>
      <trkpt lat="45.74738" lon="1.21238">
        <ele>368.08627</ele>
        <time>2026-08-08T09:51:06Z</time>
      </trkpt>
      <trkpt lat="45.7474" lon="1.2124">
        <ele>368.08627</ele>
        <time>2026-08-08T09:51:07Z</time>
      </trkpt>
      <trkpt lat="45.74743" lon="1.21242">
        <ele>368.08627</ele>
        <time>2026-08-08T09:51:08Z</time>
      </trkpt>
      <trkpt lat="45.74746" lon="1.21243">
        <ele>368.08627</ele>
        <time>2026-08-08T09:51:09Z</time>
      </trkpt>
      <trkpt lat="45.74748" lon="1.21246">
        <ele>368.08627</ele>
        <time>2026-08-08T09:51:10Z</time>
      </trkpt>
      <trkpt lat="45.74751" lon="1.21247">
        <ele>368.08627</ele>
        <time>2026-08-08T09:51:11Z</time>
      </trkpt>
      <trkpt lat="45.74754" lon="1.21248">
        <ele>369.08627</ele>
        <time>2026-08-08T09:51:12Z</time>
      </trkpt>
      <trkpt lat="45.74756" lon="1.21248">
        <ele>369.08627</ele>
        <time>2026-08-08T09:51:13Z</time>
      </trkpt>
      <trkpt lat="45.74759" lon="1.21249">
        <ele>369.08627</ele>
        <time>2026-08-08T09:51:14Z</time>
      </trkpt>
      <trkpt lat="45.74762" lon="1.21249">
        <ele>369.08627</ele>
        <time>2026-08-08T09:51:15Z</time>
      </trkpt>
      <trkpt lat="45.74765" lon="1.21249">
        <ele>369.08627</ele>
        <time>2026-08-08T09:51:16Z</time>
      </trkpt>
      <trkpt lat="45.74768" lon="1.21249">
        <ele>369.08627</ele>
        <time>2026-08-08T09:51:17Z</time>
      </trkpt>
      <trkpt lat="45.7477" lon="1.21249">
        <ele>369.08627</ele>
        <time>2026-08-08T09:51:18Z</time>
      </trkpt>
      <trkpt lat="45.74773" lon="1.21249">
        <ele>369.08627</ele>
        <time>2026-08-08T09:51:19Z</time>
      </trkpt>
      <trkpt lat="45.74775" lon="1.21249">
        <ele>369.08627</ele>
        <time>2026-08-08T09:51:20Z</time>
      </trkpt>
      <trkpt lat="45.74778" lon="1.21249">
        <ele>369.08627</ele>
        <time>2026-08-08T09:51:21Z</time>
      </trkpt>
      <trkpt lat="45.74781" lon="1.21249">
        <ele>370.08627</ele>
        <time>2026-08-08T09:51:22Z</time>
      </trkpt>
      <trkpt lat="45.74784" lon="1.21249">
        <ele>370.08627</ele>
        <time>2026-08-08T09:51:23Z</time>
      </trkpt>
      <trkpt lat="45.74787" lon="1.21249">
        <ele>370.08627</ele>
        <time>2026-08-08T09:51:24Z</time>
      </trkpt>
      <trkpt lat="45.74789" lon="1.21249">
        <ele>370.08627</ele>
        <time>2026-08-08T09:51:25Z</time>
      </trkpt>
      <trkpt lat="45.74792" lon="1.21248">
        <ele>370.08627</ele>
        <time>2026-08-08T09:51:26Z</time>
      </trkpt>
      <trkpt lat="45.74795" lon="1.21248">
        <ele>370.08627</ele>
        <time>2026-08-08T09:51:27Z</time>
      </trkpt>
      <trkpt lat="45.74797" lon="1.21248">
        <ele>370.08627</ele>
        <time>2026-08-08T09:51:28Z</time>
      </trkpt>
      <trkpt lat="45.74799" lon="1.21248">
        <ele>370.08627</ele>
        <time>2026-08-08T09:51:29Z</time>
      </trkpt>
      <trkpt lat="45.74802" lon="1.21248">
        <ele>371.08627</ele>
        <time>2026-08-08T09:51:30Z</time>
      </trkpt>
      <trkpt lat="45.74805" lon="1.21249">
        <ele>371.08627</ele>
        <time>2026-08-08T09:51:31Z</time>
      </trkpt>
      <trkpt lat="45.74807" lon="1.21249">
        <ele>371.08627</ele>
        <time>2026-08-08T09:51:32Z</time>
      </trkpt>
      <trkpt lat="45.7481" lon="1.21249">
        <ele>371.08627</ele>
        <time>2026-08-08T09:51:33Z</time>
      </trkpt>
      <trkpt lat="45.74813" lon="1.2125">
        <ele>371.08627</ele>
        <time>2026-08-08T09:51:34Z</time>
      </trkpt>
      <trkpt lat="45.74816" lon="1.21251">
        <ele>371.08627</ele>
        <time>2026-08-08T09:51:35Z</time>
      </trkpt>
      <trkpt lat="45.74819" lon="1.21252">
        <ele>371.08627</ele>
        <time>2026-08-08T09:51:36Z</time>
      </trkpt>
      <trkpt lat="45.74821" lon="1.21254">
        <ele>372.08627</ele>
        <time>2026-08-08T09:51:37Z</time>
      </trkpt>
      <trkpt lat="45.74824" lon="1.21255">
        <ele>372.08627</ele>
        <time>2026-08-08T09:51:38Z</time>
      </trkpt>
      <trkpt lat="45.74826" lon="1.21256">
        <ele>372.08627</ele>
        <time>2026-08-08T09:51:39Z</time>
      </trkpt>
      <trkpt lat="45.74829" lon="1.21258">
        <ele>372.08627</ele>
        <time>2026-08-08T09:51:40Z</time>
      </trkpt>
      <trkpt lat="45.74831" lon="1.21259">
        <ele>373.08627</ele>
        <time>2026-08-08T09:51:41Z</time>
      </trkpt>
      <trkpt lat="45.74833" lon="1.21261">
        <ele>373.08627</ele>
        <time>2026-08-08T09:51:42Z</time>
      </trkpt>
      <trkpt lat="45.74835" lon="1.21262">
        <ele>373.08627</ele>
        <time>2026-08-08T09:51:43Z</time>
      </trkpt>
      <trkpt lat="45.74838" lon="1.21262">
        <ele>373.08627</ele>
        <time>2026-08-08T09:51:44Z</time>
      </trkpt>
      <trkpt lat="45.74841" lon="1.21262">
        <ele>373.08627</ele>
        <time>2026-08-08T09:51:45Z</time>
      </trkpt>
      <trkpt lat="45.74843" lon="1.21262">
        <ele>373.08627</ele>
        <time>2026-08-08T09:51:46Z</time>
      </trkpt>
      <trkpt lat="45.74846" lon="1.21263">
        <ele>373.08627</ele>
        <time>2026-08-08T09:51:47Z</time>
      </trkpt>
      <trkpt lat="45.74848" lon="1.21264">
        <ele>373.08627</ele>
        <time>2026-08-08T09:51:48Z</time>
      </trkpt>
      <trkpt lat="45.74851" lon="1.21264">
        <ele>374.08627</ele>
        <time>2026-08-08T09:51:49Z</time>
      </trkpt>
      <trkpt lat="45.74854" lon="1.21264">
        <ele>374.08627</ele>
        <time>2026-08-08T09:51:50Z</time>
      </trkpt>
      <trkpt lat="45.74857" lon="1.21265">
        <ele>374.08627</ele>
        <time>2026-08-08T09:51:51Z</time>
      </trkpt>
      <trkpt lat="45.74859" lon="1.21267">
        <ele>373.08627</ele>
        <time>2026-08-08T09:51:52Z</time>
      </trkpt>
      <trkpt lat="45.74862" lon="1.2127">
        <ele>374.08627</ele>
        <time>2026-08-08T09:51:53Z</time>
      </trkpt>
      <trkpt lat="45.74864" lon="1.21272">
        <ele>374.08627</ele>
        <time>2026-08-08T09:51:54Z</time>
      </trkpt>
      <trkpt lat="45.74867" lon="1.21275">
        <ele>374.08627</ele>
        <time>2026-08-08T09:51:55Z</time>
      </trkpt>
      <trkpt lat="45.7487" lon="1.21277">
        <ele>375.08627</ele>
        <time>2026-08-08T09:51:56Z</time>
      </trkpt>
      <trkpt lat="45.74873" lon="1.21279">
        <ele>375.08627</ele>
        <time>2026-08-08T09:51:57Z</time>
      </trkpt>
      <trkpt lat="45.74875" lon="1.21282">
        <ele>375.08627</ele>
        <time>2026-08-08T09:51:58Z</time>
      </trkpt>
      <trkpt lat="45.74877" lon="1.21284">
        <ele>375.08627</ele>
        <time>2026-08-08T09:51:59Z</time>
      </trkpt>
      <trkpt lat="45.7488" lon="1.21287">
        <ele>375.08627</ele>
        <time>2026-08-08T09:52:00Z</time>
      </trkpt>
      <trkpt lat="45.74883" lon="1.21289">
        <ele>375.08627</ele>
        <time>2026-08-08T09:52:01Z</time>
      </trkpt>
      <trkpt lat="45.74886" lon="1.21291">
        <ele>375.08627</ele>
        <time>2026-08-08T09:52:02Z</time>
      </trkpt>
      <trkpt lat="45.74888" lon="1.21293">
        <ele>375.08627</ele>
        <time>2026-08-08T09:52:03Z</time>
      </trkpt>
      <trkpt lat="45.74891" lon="1.21295">
        <ele>375.08627</ele>
        <time>2026-08-08T09:52:04Z</time>
      </trkpt>
      <trkpt lat="45.74893" lon="1.21297">
        <ele>375.08627</ele>
        <time>2026-08-08T09:52:05Z</time>
      </trkpt>
      <trkpt lat="45.74896" lon="1.21299">
        <ele>375.08627</ele>
        <time>2026-08-08T09:52:06Z</time>
      </trkpt>
      <trkpt lat="45.74898" lon="1.213">
        <ele>376.08627</ele>
        <time>2026-08-08T09:52:07Z</time>
      </trkpt>
      <trkpt lat="45.74901" lon="1.21301">
        <ele>376.08627</ele>
        <time>2026-08-08T09:52:08Z</time>
      </trkpt>
      <trkpt lat="45.74904" lon="1.21301">
        <ele>377.08627</ele>
        <time>2026-08-08T09:52:09Z</time>
      </trkpt>
      <trkpt lat="45.74906" lon="1.21301">
        <ele>377.08627</ele>
        <time>2026-08-08T09:52:10Z</time>
      </trkpt>
      <trkpt lat="45.74909" lon="1.21299">
        <ele>377.08627</ele>
        <time>2026-08-08T09:52:11Z</time>
      </trkpt>
      <trkpt lat="45.74912" lon="1.21297">
        <ele>377.08627</ele>
        <time>2026-08-08T09:52:12Z</time>
      </trkpt>
      <trkpt lat="45.74914" lon="1.21296">
        <ele>377.08627</ele>
        <time>2026-08-08T09:52:13Z</time>
      </trkpt>
      <trkpt lat="45.74917" lon="1.21294">
        <ele>377.08627</ele>
        <time>2026-08-08T09:52:14Z</time>
      </trkpt>
      <trkpt lat="45.7492" lon="1.21293">
        <ele>378.08627</ele>
        <time>2026-08-08T09:52:15Z</time>
      </trkpt>
      <trkpt lat="45.74922" lon="1.21292">
        <ele>378.08627</ele>
        <time>2026-08-08T09:52:16Z</time>
      </trkpt>
      <trkpt lat="45.74925" lon="1.2129">
        <ele>378.08627</ele>
        <time>2026-08-08T09:52:17Z</time>
      </trkpt>
      <trkpt lat="45.74928" lon="1.21289">
        <ele>378.08627</ele>
        <time>2026-08-08T09:52:18Z</time>
      </trkpt>
      <trkpt lat="45.74931" lon="1.21287">
        <ele>378.08627</ele>
        <time>2026-08-08T09:52:19Z</time>
      </trkpt>
      <trkpt lat="45.74935" lon="1.21286">
        <ele>378.08627</ele>
        <time>2026-08-08T09:52:20Z</time>
      </trkpt>
      <trkpt lat="45.74938" lon="1.21285">
        <ele>378.08627</ele>
        <time>2026-08-08T09:52:21Z</time>
      </trkpt>
      <trkpt lat="45.74941" lon="1.21283">
        <ele>378.08627</ele>
        <time>2026-08-08T09:52:22Z</time>
      </trkpt>
      <trkpt lat="45.74944" lon="1.21282">
        <ele>378.08627</ele>
        <time>2026-08-08T09:52:23Z</time>
      </trkpt>
      <trkpt lat="45.74946" lon="1.21281">
        <ele>377.08627</ele>
        <time>2026-08-08T09:52:24Z</time>
      </trkpt>
      <trkpt lat="45.74949" lon="1.2128">
        <ele>377.08627</ele>
        <time>2026-08-08T09:52:25Z</time>
      </trkpt>
      <trkpt lat="45.74951" lon="1.21279">
        <ele>378.08627</ele>
        <time>2026-08-08T09:52:26Z</time>
      </trkpt>
      <trkpt lat="45.74954" lon="1.21278">
        <ele>377.08627</ele>
        <time>2026-08-08T09:52:27Z</time>
      </trkpt>
      <trkpt lat="45.74957" lon="1.21277">
        <ele>377.08627</ele>
        <time>2026-08-08T09:52:28Z</time>
      </trkpt>
      <trkpt lat="45.7496" lon="1.21275">
        <ele>377.08627</ele>
        <time>2026-08-08T09:52:29Z</time>
      </trkpt>
      <trkpt lat="45.74963" lon="1.21274">
        <ele>377.08627</ele>
        <time>2026-08-08T09:52:30Z</time>
      </trkpt>
      <trkpt lat="45.74967" lon="1.21273">
        <ele>377.08627</ele>
        <time>2026-08-08T09:52:31Z</time>
      </trkpt>
      <trkpt lat="45.74971" lon="1.21271">
        <ele>377.08627</ele>
        <time>2026-08-08T09:52:32Z</time>
      </trkpt>
      <trkpt lat="45.74975" lon="1.2127">
        <ele>377.08627</ele>
        <time>2026-08-08T09:52:33Z</time>
      </trkpt>
      <trkpt lat="45.74978" lon="1.21269">
        <ele>376.08627</ele>
        <time>2026-08-08T09:52:34Z</time>
      </trkpt>
      <trkpt lat="45.74983" lon="1.21269">
        <ele>376.08627</ele>
        <time>2026-08-08T09:52:35Z</time>
      </trkpt>
      <trkpt lat="45.74987" lon="1.21269">
        <ele>375.08627</ele>
        <time>2026-08-08T09:52:36Z</time>
      </trkpt>
      <trkpt lat="45.74991" lon="1.21269">
        <ele>375.08627</ele>
        <time>2026-08-08T09:52:37Z</time>
      </trkpt>
      <trkpt lat="45.74996" lon="1.2127">
        <ele>375.08627</ele>
        <time>2026-08-08T09:52:38Z</time>
      </trkpt>
      <trkpt lat="45.75" lon="1.21271">
        <ele>374.08627</ele>
        <time>2026-08-08T09:52:39Z</time>
      </trkpt>
      <trkpt lat="45.75004" lon="1.21272">
        <ele>374.08627</ele>
        <time>2026-08-08T09:52:40Z</time>
      </trkpt>
      <trkpt lat="45.75008" lon="1.21272">
        <ele>374.08627</ele>
        <time>2026-08-08T09:52:41Z</time>
      </trkpt>
      <trkpt lat="45.75012" lon="1.21273">
        <ele>374.08627</ele>
        <time>2026-08-08T09:52:42Z</time>
      </trkpt>
      <trkpt lat="45.75015" lon="1.21275">
        <ele>373.08627</ele>
        <time>2026-08-08T09:52:43Z</time>
      </trkpt>
      <trkpt lat="45.75019" lon="1.21276">
        <ele>373.08627</ele>
        <time>2026-08-08T09:52:44Z</time>
      </trkpt>
      <trkpt lat="45.75023" lon="1.21276">
        <ele>373.08627</ele>
        <time>2026-08-08T09:52:45Z</time>
      </trkpt>
      <trkpt lat="45.75027" lon="1.21277">
        <ele>373.08627</ele>
        <time>2026-08-08T09:52:46Z</time>
      </trkpt>
      <trkpt lat="45.75031" lon="1.21278">
        <ele>372.08627</ele>
        <time>2026-08-08T09:52:47Z</time>
      </trkpt>
      <trkpt lat="45.75035" lon="1.21278">
        <ele>372.08627</ele>
        <time>2026-08-08T09:52:48Z</time>
      </trkpt>
      <trkpt lat="45.7504" lon="1.21279">
        <ele>372.08627</ele>
        <time>2026-08-08T09:52:49Z</time>
      </trkpt>
      <trkpt lat="45.75044" lon="1.21281">
        <ele>372.08627</ele>
        <time>2026-08-08T09:52:50Z</time>
      </trkpt>
      <trkpt lat="45.75049" lon="1.21282">
        <ele>372.08627</ele>
        <time>2026-08-08T09:52:51Z</time>
      </trkpt>
      <trkpt lat="45.75053" lon="1.21284">
        <ele>372.08627</ele>
        <time>2026-08-08T09:52:52Z</time>
      </trkpt>
      <trkpt lat="45.75057" lon="1.21287">
        <ele>372.08627</ele>
        <time>2026-08-08T09:52:53Z</time>
      </trkpt>
      <trkpt lat="45.75061" lon="1.21291">
        <ele>373.08627</ele>
        <time>2026-08-08T09:52:54Z</time>
      </trkpt>
      <trkpt lat="45.75063" lon="1.21296">
        <ele>373.08627</ele>
        <time>2026-08-08T09:52:55Z</time>
      </trkpt>
      <trkpt lat="45.75065" lon="1.213">
        <ele>373.08627</ele>
        <time>2026-08-08T09:52:56Z</time>
      </trkpt>
      <trkpt lat="45.75067" lon="1.21304">
        <ele>373.08627</ele>
        <time>2026-08-08T09:52:57Z</time>
      </trkpt>
      <trkpt lat="45.75069" lon="1.21308">
        <ele>373.08627</ele>
        <time>2026-08-08T09:52:58Z</time>
      </trkpt>
      <trkpt lat="45.75071" lon="1.21312">
        <ele>373.08627</ele>
        <time>2026-08-08T09:52:59Z</time>
      </trkpt>
      <trkpt lat="45.75072" lon="1.21314">
        <ele>373.08627</ele>
        <time>2026-08-08T09:53:00Z</time>
      </trkpt>
      <trkpt lat="45.75072" lon="1.21315">
        <ele>373.08627</ele>
        <time>2026-08-08T09:53:01Z</time>
      </trkpt>
      <trkpt lat="45.75073" lon="1.21317">
        <ele>373.08627</ele>
        <time>2026-08-08T09:53:02Z</time>
      </trkpt>
      <trkpt lat="45.75074" lon="1.21319">
        <ele>374.08627</ele>
        <time>2026-08-08T09:53:03Z</time>
      </trkpt>
      <trkpt lat="45.75074" lon="1.21322">
        <ele>374.08627</ele>
        <time>2026-08-08T09:53:04Z</time>
      </trkpt>
      <trkpt lat="45.75075" lon="1.21323">
        <ele>374.08627</ele>
        <time>2026-08-08T09:53:05Z</time>
      </trkpt>
      <trkpt lat="45.75075" lon="1.21324">
        <ele>374.08627</ele>
        <time>2026-08-08T09:53:06Z</time>
      </trkpt>
      <trkpt lat="45.75083" lon="1.21344">
        <ele>376.08627</ele>
        <time>2026-08-08T09:53:45Z</time>
      </trkpt>
      <trkpt lat="45.75085" lon="1.21348">
        <ele>376.08627</ele>
        <time>2026-08-08T09:53:46Z</time>
      </trkpt>
      <trkpt lat="45.75086" lon="1.21351">
        <ele>377.08627</ele>
        <time>2026-08-08T09:53:47Z</time>
      </trkpt>
      <trkpt lat="45.75087" lon="1.21354">
        <ele>377.08627</ele>
        <time>2026-08-08T09:53:48Z</time>
      </trkpt>
      <trkpt lat="45.75087" lon="1.21358">
        <ele>377.08627</ele>
        <time>2026-08-08T09:53:49Z</time>
      </trkpt>
      <trkpt lat="45.75088" lon="1.21361">
        <ele>377.08627</ele>
        <time>2026-08-08T09:53:50Z</time>
      </trkpt>
      <trkpt lat="45.75089" lon="1.21364">
        <ele>377.08627</ele>
        <time>2026-08-08T09:53:51Z</time>
      </trkpt>
      <trkpt lat="45.7509" lon="1.21367">
        <ele>377.08627</ele>
        <time>2026-08-08T09:53:52Z</time>
      </trkpt>
      <trkpt lat="45.75092" lon="1.2137">
        <ele>377.08627</ele>
        <time>2026-08-08T09:53:53Z</time>
      </trkpt>
      <trkpt lat="45.75093" lon="1.21373">
        <ele>377.08627</ele>
        <time>2026-08-08T09:53:54Z</time>
      </trkpt>
      <trkpt lat="45.75095" lon="1.21377">
        <ele>377.08627</ele>
        <time>2026-08-08T09:53:55Z</time>
      </trkpt>
      <trkpt lat="45.75096" lon="1.21381">
        <ele>377.08627</ele>
        <time>2026-08-08T09:53:56Z</time>
      </trkpt>
      <trkpt lat="45.75098" lon="1.21385">
        <ele>378.08627</ele>
        <time>2026-08-08T09:53:57Z</time>
      </trkpt>
      <trkpt lat="45.75099" lon="1.21389">
        <ele>378.08627</ele>
        <time>2026-08-08T09:53:58Z</time>
      </trkpt>
      <trkpt lat="45.751" lon="1.21394">
        <ele>378.08627</ele>
        <time>2026-08-08T09:53:59Z</time>
      </trkpt>
      <trkpt lat="45.75102" lon="1.21398">
        <ele>378.08627</ele>
        <time>2026-08-08T09:54:00Z</time>
      </trkpt>
      <trkpt lat="45.75103" lon="1.21402">
        <ele>378.08627</ele>
        <time>2026-08-08T09:54:01Z</time>
      </trkpt>
      <trkpt lat="45.75105" lon="1.21405">
        <ele>378.08627</ele>
        <time>2026-08-08T09:54:02Z</time>
      </trkpt>
      <trkpt lat="45.75107" lon="1.21409">
        <ele>378.08627</ele>
        <time>2026-08-08T09:54:03Z</time>
      </trkpt>
      <trkpt lat="45.75108" lon="1.21412">
        <ele>377.08627</ele>
        <time>2026-08-08T09:54:04Z</time>
      </trkpt>
      <trkpt lat="45.75109" lon="1.21416">
        <ele>377.08627</ele>
        <time>2026-08-08T09:54:05Z</time>
      </trkpt>
      <trkpt lat="45.7511" lon="1.21419">
        <ele>377.08627</ele>
        <time>2026-08-08T09:54:06Z</time>
      </trkpt>
      <trkpt lat="45.75112" lon="1.21423">
        <ele>377.08627</ele>
        <time>2026-08-08T09:54:07Z</time>
      </trkpt>
      <trkpt lat="45.75113" lon="1.21427">
        <ele>377.08627</ele>
        <time>2026-08-08T09:54:08Z</time>
      </trkpt>
      <trkpt lat="45.75115" lon="1.21431">
        <ele>377.08627</ele>
        <time>2026-08-08T09:54:09Z</time>
      </trkpt>
      <trkpt lat="45.75116" lon="1.21436">
        <ele>377.08627</ele>
        <time>2026-08-08T09:54:10Z</time>
      </trkpt>
      <trkpt lat="45.75118" lon="1.2144">
        <ele>378.08627</ele>
        <time>2026-08-08T09:54:11Z</time>
      </trkpt>
      <trkpt lat="45.75119" lon="1.21445">
        <ele>378.08627</ele>
        <time>2026-08-08T09:54:12Z</time>
      </trkpt>
      <trkpt lat="45.75121" lon="1.21449">
        <ele>378.08627</ele>
        <time>2026-08-08T09:54:13Z</time>
      </trkpt>
      <trkpt lat="45.75123" lon="1.21453">
        <ele>378.08627</ele>
        <time>2026-08-08T09:54:14Z</time>
      </trkpt>
      <trkpt lat="45.75125" lon="1.21457">
        <ele>378.08627</ele>
        <time>2026-08-08T09:54:15Z</time>
      </trkpt>
      <trkpt lat="45.75126" lon="1.21462">
        <ele>378.08627</ele>
        <time>2026-08-08T09:54:16Z</time>
      </trkpt>
      <trkpt lat="45.75129" lon="1.21466">
        <ele>378.08627</ele>
        <time>2026-08-08T09:54:17Z</time>
      </trkpt>
      <trkpt lat="45.75132" lon="1.2147">
        <ele>378.08627</ele>
        <time>2026-08-08T09:54:18Z</time>
      </trkpt>
      <trkpt lat="45.75134" lon="1.21474">
        <ele>378.08627</ele>
        <time>2026-08-08T09:54:19Z</time>
      </trkpt>
      <trkpt lat="45.75136" lon="1.21478">
        <ele>378.08627</ele>
        <time>2026-08-08T09:54:20Z</time>
      </trkpt>
      <trkpt lat="45.75137" lon="1.21481">
        <ele>378.08627</ele>
        <time>2026-08-08T09:54:21Z</time>
      </trkpt>
      <trkpt lat="45.75139" lon="1.21485">
        <ele>378.08627</ele>
        <time>2026-08-08T09:54:22Z</time>
      </trkpt>
      <trkpt lat="45.7514" lon="1.21489">
        <ele>378.08627</ele>
        <time>2026-08-08T09:54:23Z</time>
      </trkpt>
      <trkpt lat="45.75143" lon="1.21493">
        <ele>378.08627</ele>
        <time>2026-08-08T09:54:24Z</time>
      </trkpt>
      <trkpt lat="45.75145" lon="1.21498">
        <ele>378.08627</ele>
        <time>2026-08-08T09:54:25Z</time>
      </trkpt>
      <trkpt lat="45.75146" lon="1.21503">
        <ele>378.08627</ele>
        <time>2026-08-08T09:54:26Z</time>
      </trkpt>
      <trkpt lat="45.75148" lon="1.21507">
        <ele>377.08627</ele>
        <time>2026-08-08T09:54:27Z</time>
      </trkpt>
      <trkpt lat="45.7515" lon="1.21512">
        <ele>377.08627</ele>
        <time>2026-08-08T09:54:28Z</time>
      </trkpt>
      <trkpt lat="45.75152" lon="1.21516">
        <ele>377.08627</ele>
        <time>2026-08-08T09:54:29Z</time>
      </trkpt>
      <trkpt lat="45.75155" lon="1.2152">
        <ele>377.08627</ele>
        <time>2026-08-08T09:54:30Z</time>
      </trkpt>
      <trkpt lat="45.75157" lon="1.21525">
        <ele>377.08627</ele>
        <time>2026-08-08T09:54:31Z</time>
      </trkpt>
      <trkpt lat="45.75159" lon="1.2153">
        <ele>377.08627</ele>
        <time>2026-08-08T09:54:32Z</time>
      </trkpt>
      <trkpt lat="45.75162" lon="1.21536">
        <ele>378.08627</ele>
        <time>2026-08-08T09:54:33Z</time>
      </trkpt>
      <trkpt lat="45.75164" lon="1.2154">
        <ele>377.08627</ele>
        <time>2026-08-08T09:54:34Z</time>
      </trkpt>
      <trkpt lat="45.75167" lon="1.21544">
        <ele>377.08627</ele>
        <time>2026-08-08T09:54:35Z</time>
      </trkpt>
      <trkpt lat="45.75169" lon="1.21548">
        <ele>376.08627</ele>
        <time>2026-08-08T09:54:36Z</time>
      </trkpt>
      <trkpt lat="45.75171" lon="1.21552">
        <ele>376.08627</ele>
        <time>2026-08-08T09:54:37Z</time>
      </trkpt>
      <trkpt lat="45.75173" lon="1.21557">
        <ele>376.08627</ele>
        <time>2026-08-08T09:54:38Z</time>
      </trkpt>
      <trkpt lat="45.75176" lon="1.2156">
        <ele>376.08627</ele>
        <time>2026-08-08T09:54:39Z</time>
      </trkpt>
      <trkpt lat="45.75178" lon="1.21564">
        <ele>377.08627</ele>
        <time>2026-08-08T09:54:40Z</time>
      </trkpt>
      <trkpt lat="45.75181" lon="1.2157">
        <ele>377.08627</ele>
        <time>2026-08-08T09:54:41Z</time>
      </trkpt>
      <trkpt lat="45.75183" lon="1.21574">
        <ele>376.08627</ele>
        <time>2026-08-08T09:54:42Z</time>
      </trkpt>
      <trkpt lat="45.75185" lon="1.21579">
        <ele>377.08627</ele>
        <time>2026-08-08T09:54:43Z</time>
      </trkpt>
      <trkpt lat="45.75187" lon="1.21583">
        <ele>376.08627</ele>
        <time>2026-08-08T09:54:44Z</time>
      </trkpt>
      <trkpt lat="45.75189" lon="1.21587">
        <ele>376.08627</ele>
        <time>2026-08-08T09:54:45Z</time>
      </trkpt>
      <trkpt lat="45.75192" lon="1.21591">
        <ele>376.08627</ele>
        <time>2026-08-08T09:54:46Z</time>
      </trkpt>
      <trkpt lat="45.75194" lon="1.21595">
        <ele>376.08627</ele>
        <time>2026-08-08T09:54:47Z</time>
      </trkpt>
      <trkpt lat="45.75196" lon="1.216">
        <ele>376.08627</ele>
        <time>2026-08-08T09:54:48Z</time>
      </trkpt>
      <trkpt lat="45.75198" lon="1.21604">
        <ele>376.08627</ele>
        <time>2026-08-08T09:54:49Z</time>
      </trkpt>
      <trkpt lat="45.752" lon="1.21607">
        <ele>376.08627</ele>
        <time>2026-08-08T09:54:50Z</time>
      </trkpt>
      <trkpt lat="45.75202" lon="1.2161">
        <ele>376.08627</ele>
        <time>2026-08-08T09:54:51Z</time>
      </trkpt>
      <trkpt lat="45.75204" lon="1.21614">
        <ele>376.08627</ele>
        <time>2026-08-08T09:54:52Z</time>
      </trkpt>
      <trkpt lat="45.75205" lon="1.21618">
        <ele>376.08627</ele>
        <time>2026-08-08T09:54:53Z</time>
      </trkpt>
      <trkpt lat="45.75207" lon="1.21621">
        <ele>376.08627</ele>
        <time>2026-08-08T09:54:54Z</time>
      </trkpt>
      <trkpt lat="45.75209" lon="1.21626">
        <ele>375.08627</ele>
        <time>2026-08-08T09:54:55Z</time>
      </trkpt>
      <trkpt lat="45.75211" lon="1.2163">
        <ele>375.08627</ele>
        <time>2026-08-08T09:54:56Z</time>
      </trkpt>
      <trkpt lat="45.75214" lon="1.21634">
        <ele>375.08627</ele>
        <time>2026-08-08T09:54:57Z</time>
      </trkpt>
      <trkpt lat="45.75216" lon="1.21638">
        <ele>376.08627</ele>
        <time>2026-08-08T09:54:58Z</time>
      </trkpt>
      <trkpt lat="45.75217" lon="1.21642">
        <ele>376.08627</ele>
        <time>2026-08-08T09:54:59Z</time>
      </trkpt>
      <trkpt lat="45.75219" lon="1.21647">
        <ele>376.08627</ele>
        <time>2026-08-08T09:55:00Z</time>
      </trkpt>
      <trkpt lat="45.75221" lon="1.2165">
        <ele>376.08627</ele>
        <time>2026-08-08T09:55:01Z</time>
      </trkpt>
      <trkpt lat="45.75223" lon="1.21653">
        <ele>376.08627</ele>
        <time>2026-08-08T09:55:02Z</time>
      </trkpt>
      <trkpt lat="45.75225" lon="1.21657">
        <ele>376.08627</ele>
        <time>2026-08-08T09:55:03Z</time>
      </trkpt>
      <trkpt lat="45.75227" lon="1.2166">
        <ele>376.08627</ele>
        <time>2026-08-08T09:55:04Z</time>
      </trkpt>
      <trkpt lat="45.75229" lon="1.21663">
        <ele>376.08627</ele>
        <time>2026-08-08T09:55:05Z</time>
      </trkpt>
      <trkpt lat="45.75231" lon="1.21666">
        <ele>377.08627</ele>
        <time>2026-08-08T09:55:06Z</time>
      </trkpt>
      <trkpt lat="45.75233" lon="1.2167">
        <ele>377.08627</ele>
        <time>2026-08-08T09:55:07Z</time>
      </trkpt>
      <trkpt lat="45.75234" lon="1.21674">
        <ele>377.08627</ele>
        <time>2026-08-08T09:55:08Z</time>
      </trkpt>
      <trkpt lat="45.75236" lon="1.21677">
        <ele>377.08627</ele>
        <time>2026-08-08T09:55:09Z</time>
      </trkpt>
      <trkpt lat="45.75237" lon="1.21681">
        <ele>377.08627</ele>
        <time>2026-08-08T09:55:10Z</time>
      </trkpt>
      <trkpt lat="45.75239" lon="1.21684">
        <ele>377.08627</ele>
        <time>2026-08-08T09:55:11Z</time>
      </trkpt>
      <trkpt lat="45.75241" lon="1.21688">
        <ele>377.08627</ele>
        <time>2026-08-08T09:55:12Z</time>
      </trkpt>
      <trkpt lat="45.75243" lon="1.21691">
        <ele>377.08627</ele>
        <time>2026-08-08T09:55:13Z</time>
      </trkpt>
      <trkpt lat="45.75245" lon="1.21695">
        <ele>377.08627</ele>
        <time>2026-08-08T09:55:14Z</time>
      </trkpt>
      <trkpt lat="45.75247" lon="1.21699">
        <ele>377.08627</ele>
        <time>2026-08-08T09:55:15Z</time>
      </trkpt>
      <trkpt lat="45.7525" lon="1.21703">
        <ele>377.08627</ele>
        <time>2026-08-08T09:55:16Z</time>
      </trkpt>
      <trkpt lat="45.75252" lon="1.21706">
        <ele>377.08627</ele>
        <time>2026-08-08T09:55:17Z</time>
      </trkpt>
      <trkpt lat="45.75254" lon="1.2171">
        <ele>377.08627</ele>
        <time>2026-08-08T09:55:18Z</time>
      </trkpt>
      <trkpt lat="45.75257" lon="1.21715">
        <ele>377.08627</ele>
        <time>2026-08-08T09:55:19Z</time>
      </trkpt>
      <trkpt lat="45.75258" lon="1.21719">
        <ele>377.08627</ele>
        <time>2026-08-08T09:55:20Z</time>
      </trkpt>
      <trkpt lat="45.75261" lon="1.21724">
        <ele>377.08627</ele>
        <time>2026-08-08T09:55:21Z</time>
      </trkpt>
      <trkpt lat="45.75262" lon="1.21729">
        <ele>377.08627</ele>
        <time>2026-08-08T09:55:22Z</time>
      </trkpt>
      <trkpt lat="45.75264" lon="1.21735">
        <ele>377.08627</ele>
        <time>2026-08-08T09:55:23Z</time>
      </trkpt>
      <trkpt lat="45.75265" lon="1.21738">
        <ele>377.08627</ele>
        <time>2026-08-08T09:55:24Z</time>
      </trkpt>
      <trkpt lat="45.75267" lon="1.21742">
        <ele>377.08627</ele>
        <time>2026-08-08T09:55:25Z</time>
      </trkpt>
      <trkpt lat="45.75269" lon="1.21745">
        <ele>377.08627</ele>
        <time>2026-08-08T09:55:26Z</time>
      </trkpt>
      <trkpt lat="45.75271" lon="1.21748">
        <ele>377.08627</ele>
        <time>2026-08-08T09:55:27Z</time>
      </trkpt>
      <trkpt lat="45.75272" lon="1.21752">
        <ele>377.08627</ele>
        <time>2026-08-08T09:55:28Z</time>
      </trkpt>
      <trkpt lat="45.75274" lon="1.21756">
        <ele>377.08627</ele>
        <time>2026-08-08T09:55:29Z</time>
      </trkpt>
      <trkpt lat="45.75276" lon="1.2176">
        <ele>377.08627</ele>
        <time>2026-08-08T09:55:30Z</time>
      </trkpt>
      <trkpt lat="45.75278" lon="1.21765">
        <ele>376.08627</ele>
        <time>2026-08-08T09:55:31Z</time>
      </trkpt>
      <trkpt lat="45.75281" lon="1.21769">
        <ele>376.08627</ele>
        <time>2026-08-08T09:55:32Z</time>
      </trkpt>
      <trkpt lat="45.75283" lon="1.21774">
        <ele>376.08627</ele>
        <time>2026-08-08T09:55:33Z</time>
      </trkpt>
      <trkpt lat="45.75285" lon="1.21778">
        <ele>376.08627</ele>
        <time>2026-08-08T09:55:34Z</time>
      </trkpt>
      <trkpt lat="45.75286" lon="1.21781">
        <ele>377.08627</ele>
        <time>2026-08-08T09:55:35Z</time>
      </trkpt>
      <trkpt lat="45.75287" lon="1.21785">
        <ele>377.08627</ele>
        <time>2026-08-08T09:55:36Z</time>
      </trkpt>
      <trkpt lat="45.75288" lon="1.21789">
        <ele>377.08627</ele>
        <time>2026-08-08T09:55:37Z</time>
      </trkpt>
      <trkpt lat="45.75289" lon="1.21793">
        <ele>377.08627</ele>
        <time>2026-08-08T09:55:38Z</time>
      </trkpt>
      <trkpt lat="45.75292" lon="1.21798">
        <ele>377.08627</ele>
        <time>2026-08-08T09:55:39Z</time>
      </trkpt>
      <trkpt lat="45.75294" lon="1.21804">
        <ele>377.08627</ele>
        <time>2026-08-08T09:55:40Z</time>
      </trkpt>
      <trkpt lat="45.75296" lon="1.21809">
        <ele>377.08627</ele>
        <time>2026-08-08T09:55:41Z</time>
      </trkpt>
      <trkpt lat="45.75299" lon="1.21813">
        <ele>377.08627</ele>
        <time>2026-08-08T09:55:42Z</time>
      </trkpt>
      <trkpt lat="45.75302" lon="1.21817">
        <ele>377.08627</ele>
        <time>2026-08-08T09:55:43Z</time>
      </trkpt>
      <trkpt lat="45.75304" lon="1.21821">
        <ele>377.08627</ele>
        <time>2026-08-08T09:55:44Z</time>
      </trkpt>
      <trkpt lat="45.75306" lon="1.21826">
        <ele>377.08627</ele>
        <time>2026-08-08T09:55:45Z</time>
      </trkpt>
      <trkpt lat="45.75308" lon="1.2183">
        <ele>377.08627</ele>
        <time>2026-08-08T09:55:46Z</time>
      </trkpt>
      <trkpt lat="45.7531" lon="1.21836">
        <ele>376.08627</ele>
        <time>2026-08-08T09:55:47Z</time>
      </trkpt>
      <trkpt lat="45.75312" lon="1.21841">
        <ele>376.08627</ele>
        <time>2026-08-08T09:55:48Z</time>
      </trkpt>
      <trkpt lat="45.75315" lon="1.21844">
        <ele>376.08627</ele>
        <time>2026-08-08T09:55:49Z</time>
      </trkpt>
      <trkpt lat="45.75316" lon="1.21848">
        <ele>376.08627</ele>
        <time>2026-08-08T09:55:50Z</time>
      </trkpt>
      <trkpt lat="45.75317" lon="1.21852">
        <ele>376.08627</ele>
        <time>2026-08-08T09:55:51Z</time>
      </trkpt>
      <trkpt lat="45.75317" lon="1.21856">
        <ele>376.08627</ele>
        <time>2026-08-08T09:55:52Z</time>
      </trkpt>
      <trkpt lat="45.75317" lon="1.21859">
        <ele>376.08627</ele>
        <time>2026-08-08T09:55:53Z</time>
      </trkpt>
      <trkpt lat="45.75317" lon="1.21862">
        <ele>376.08627</ele>
        <time>2026-08-08T09:55:54Z</time>
      </trkpt>
      <trkpt lat="45.75318" lon="1.21866">
        <ele>376.08627</ele>
        <time>2026-08-08T09:55:55Z</time>
      </trkpt>
      <trkpt lat="45.75319" lon="1.2187">
        <ele>376.08627</ele>
        <time>2026-08-08T09:55:56Z</time>
      </trkpt>
      <trkpt lat="45.75321" lon="1.21873">
        <ele>376.08627</ele>
        <time>2026-08-08T09:55:57Z</time>
      </trkpt>
      <trkpt lat="45.75324" lon="1.21878">
        <ele>376.08627</ele>
        <time>2026-08-08T09:55:58Z</time>
      </trkpt>
      <trkpt lat="45.75326" lon="1.21883">
        <ele>376.08627</ele>
        <time>2026-08-08T09:55:59Z</time>
      </trkpt>
      <trkpt lat="45.75328" lon="1.21887">
        <ele>376.08627</ele>
        <time>2026-08-08T09:56:00Z</time>
      </trkpt>
      <trkpt lat="45.7533" lon="1.21891">
        <ele>375.08627</ele>
        <time>2026-08-08T09:56:01Z</time>
      </trkpt>
      <trkpt lat="45.75332" lon="1.21896">
        <ele>375.08627</ele>
        <time>2026-08-08T09:56:02Z</time>
      </trkpt>
      <trkpt lat="45.75335" lon="1.21899">
        <ele>375.08627</ele>
        <time>2026-08-08T09:56:03Z</time>
      </trkpt>
      <trkpt lat="45.75337" lon="1.21903">
        <ele>375.08627</ele>
        <time>2026-08-08T09:56:04Z</time>
      </trkpt>
      <trkpt lat="45.75339" lon="1.21907">
        <ele>375.08627</ele>
        <time>2026-08-08T09:56:05Z</time>
      </trkpt>
      <trkpt lat="45.7534" lon="1.21911">
        <ele>375.08627</ele>
        <time>2026-08-08T09:56:06Z</time>
      </trkpt>
      <trkpt lat="45.75341" lon="1.21914">
        <ele>375.08627</ele>
        <time>2026-08-08T09:56:07Z</time>
      </trkpt>
      <trkpt lat="45.75342" lon="1.21918">
        <ele>375.08627</ele>
        <time>2026-08-08T09:56:08Z</time>
      </trkpt>
      <trkpt lat="45.75343" lon="1.21921">
        <ele>376.08627</ele>
        <time>2026-08-08T09:56:09Z</time>
      </trkpt>
      <trkpt lat="45.75344" lon="1.21925">
        <ele>375.08627</ele>
        <time>2026-08-08T09:56:10Z</time>
      </trkpt>
      <trkpt lat="45.75345" lon="1.21928">
        <ele>375.08627</ele>
        <time>2026-08-08T09:56:11Z</time>
      </trkpt>
      <trkpt lat="45.75345" lon="1.21931">
        <ele>374.08627</ele>
        <time>2026-08-08T09:56:12Z</time>
      </trkpt>
      <trkpt lat="45.75346" lon="1.21934">
        <ele>374.08627</ele>
        <time>2026-08-08T09:56:13Z</time>
      </trkpt>
      <trkpt lat="45.75346" lon="1.21936">
        <ele>374.08627</ele>
        <time>2026-08-08T09:56:14Z</time>
      </trkpt>
      <trkpt lat="45.75349" lon="1.21947">
        <ele>373.08627</ele>
        <time>2026-08-08T09:56:19Z</time>
      </trkpt>
      <trkpt lat="45.7535" lon="1.21949">
        <ele>373.08627</ele>
        <time>2026-08-08T09:56:20Z</time>
      </trkpt>
      <trkpt lat="45.75352" lon="1.21953">
        <ele>373.08627</ele>
        <time>2026-08-08T09:56:22Z</time>
      </trkpt>
      <trkpt lat="45.75354" lon="1.21956">
        <ele>373.08627</ele>
        <time>2026-08-08T09:56:23Z</time>
      </trkpt>
      <trkpt lat="45.75357" lon="1.21959">
        <ele>372.08627</ele>
        <time>2026-08-08T09:56:24Z</time>
      </trkpt>
      <trkpt lat="45.7536" lon="1.21963">
        <ele>371.08627</ele>
        <time>2026-08-08T09:56:25Z</time>
      </trkpt>
      <trkpt lat="45.75363" lon="1.21968">
        <ele>371.08627</ele>
        <time>2026-08-08T09:56:26Z</time>
      </trkpt>
      <trkpt lat="45.75366" lon="1.21973">
        <ele>371.08627</ele>
        <time>2026-08-08T09:56:27Z</time>
      </trkpt>
      <trkpt lat="45.75369" lon="1.21978">
        <ele>370.08627</ele>
        <time>2026-08-08T09:56:28Z</time>
      </trkpt>
      <trkpt lat="45.75373" lon="1.21982">
        <ele>369.08627</ele>
        <time>2026-08-08T09:56:29Z</time>
      </trkpt>
      <trkpt lat="45.75377" lon="1.21987">
        <ele>369.08627</ele>
        <time>2026-08-08T09:56:30Z</time>
      </trkpt>
      <trkpt lat="45.7538" lon="1.2199">
        <ele>369.08627</ele>
        <time>2026-08-08T09:56:31Z</time>
      </trkpt>
      <trkpt lat="45.75383" lon="1.21994">
        <ele>369.08627</ele>
        <time>2026-08-08T09:56:32Z</time>
      </trkpt>
      <trkpt lat="45.75387" lon="1.21998">
        <ele>369.08627</ele>
        <time>2026-08-08T09:56:33Z</time>
      </trkpt>
      <trkpt lat="45.7539" lon="1.22002">
        <ele>368.08627</ele>
        <time>2026-08-08T09:56:34Z</time>
      </trkpt>
      <trkpt lat="45.75395" lon="1.22006">
        <ele>368.08627</ele>
        <time>2026-08-08T09:56:35Z</time>
      </trkpt>
      <trkpt lat="45.754" lon="1.22007">
        <ele>368.08627</ele>
        <time>2026-08-08T09:56:36Z</time>
      </trkpt>
      <trkpt lat="45.75405" lon="1.22009">
        <ele>368.08627</ele>
        <time>2026-08-08T09:56:37Z</time>
      </trkpt>
      <trkpt lat="45.7541" lon="1.22011">
        <ele>367.08627</ele>
        <time>2026-08-08T09:56:38Z</time>
      </trkpt>
      <trkpt lat="45.75414" lon="1.22013">
        <ele>367.08627</ele>
        <time>2026-08-08T09:56:39Z</time>
      </trkpt>
      <trkpt lat="45.75419" lon="1.22013">
        <ele>366.08627</ele>
        <time>2026-08-08T09:56:40Z</time>
      </trkpt>
      <trkpt lat="45.75424" lon="1.22014">
        <ele>366.08627</ele>
        <time>2026-08-08T09:56:41Z</time>
      </trkpt>
      <trkpt lat="45.75428" lon="1.22015">
        <ele>365.08627</ele>
        <time>2026-08-08T09:56:42Z</time>
      </trkpt>
      <trkpt lat="45.75433" lon="1.22016">
        <ele>365.08627</ele>
        <time>2026-08-08T09:56:43Z</time>
      </trkpt>
      <trkpt lat="45.75437" lon="1.22017">
        <ele>365.08627</ele>
        <time>2026-08-08T09:56:44Z</time>
      </trkpt>
      <trkpt lat="45.75448" lon="1.22019">
        <ele>365.08627</ele>
        <time>2026-08-08T09:56:45Z</time>
      </trkpt>
      <trkpt lat="45.75459" lon="1.22021">
        <ele>364.08627</ele>
        <time>2026-08-08T09:56:47Z</time>
      </trkpt>
      <trkpt lat="45.75464" lon="1.22022">
        <ele>364.08627</ele>
        <time>2026-08-08T09:56:48Z</time>
      </trkpt>
      <trkpt lat="45.75469" lon="1.22024">
        <ele>363.08627</ele>
        <time>2026-08-08T09:56:49Z</time>
      </trkpt>
      <trkpt lat="45.75475" lon="1.22025">
        <ele>363.08627</ele>
        <time>2026-08-08T09:56:50Z</time>
      </trkpt>
      <trkpt lat="45.75481" lon="1.22026">
        <ele>362.08627</ele>
        <time>2026-08-08T09:56:51Z</time>
      </trkpt>
      <trkpt lat="45.75488" lon="1.22027">
        <ele>361.08627</ele>
        <time>2026-08-08T09:56:52Z</time>
      </trkpt>
      <trkpt lat="45.75495" lon="1.22029">
        <ele>361.08627</ele>
        <time>2026-08-08T09:56:53Z</time>
      </trkpt>
      <trkpt lat="45.755" lon="1.22031">
        <ele>361.08627</ele>
        <time>2026-08-08T09:56:54Z</time>
      </trkpt>
      <trkpt lat="45.75506" lon="1.22032">
        <ele>360.08627</ele>
        <time>2026-08-08T09:56:55Z</time>
      </trkpt>
      <trkpt lat="45.75511" lon="1.22034">
        <ele>360.08627</ele>
        <time>2026-08-08T09:56:56Z</time>
      </trkpt>
      <trkpt lat="45.75515" lon="1.22035">
        <ele>360.08627</ele>
        <time>2026-08-08T09:56:57Z</time>
      </trkpt>
      <trkpt lat="45.75519" lon="1.22036">
        <ele>360.08627</ele>
        <time>2026-08-08T09:56:58Z</time>
      </trkpt>
      <trkpt lat="45.75523" lon="1.22036">
        <ele>360.08627</ele>
        <time>2026-08-08T09:56:59Z</time>
      </trkpt>
      <trkpt lat="45.75526" lon="1.22037">
        <ele>359.08627</ele>
        <time>2026-08-08T09:57:00Z</time>
      </trkpt>
      <trkpt lat="45.75529" lon="1.22037">
        <ele>359.08627</ele>
        <time>2026-08-08T09:57:01Z</time>
      </trkpt>
      <trkpt lat="45.75532" lon="1.22038">
        <ele>359.08627</ele>
        <time>2026-08-08T09:57:02Z</time>
      </trkpt>
      <trkpt lat="45.75534" lon="1.22038">
        <ele>359.08627</ele>
        <time>2026-08-08T09:57:03Z</time>
      </trkpt>
      <trkpt lat="45.75536" lon="1.22037">
        <ele>359.08627</ele>
        <time>2026-08-08T09:57:04Z</time>
      </trkpt>
      <trkpt lat="45.75538" lon="1.22036">
        <ele>359.08627</ele>
        <time>2026-08-08T09:57:05Z</time>
      </trkpt>
      <trkpt lat="45.75539" lon="1.22035">
        <ele>359.08627</ele>
        <time>2026-08-08T09:57:07Z</time>
      </trkpt>
      <trkpt lat="45.75539" lon="1.22035">
        <ele>359.08627</ele>
        <time>2026-08-08T09:57:09Z</time>
      </trkpt>
      <trkpt lat="45.75551" lon="1.21988">
        <ele>360.08627</ele>
        <time>2026-08-08T09:57:38Z</time>
      </trkpt>
      <trkpt lat="45.75552" lon="1.21982">
        <ele>360.08627</ele>
        <time>2026-08-08T09:57:39Z</time>
      </trkpt>
      <trkpt lat="45.75555" lon="1.21977">
        <ele>361.08627</ele>
        <time>2026-08-08T09:57:40Z</time>
      </trkpt>
      <trkpt lat="45.75556" lon="1.21972">
        <ele>361.08627</ele>
        <time>2026-08-08T09:57:41Z</time>
      </trkpt>
      <trkpt lat="45.75559" lon="1.21967">
        <ele>360.08627</ele>
        <time>2026-08-08T09:57:42Z</time>
      </trkpt>
      <trkpt lat="45.75561" lon="1.21962">
        <ele>360.08627</ele>
        <time>2026-08-08T09:57:43Z</time>
      </trkpt>
      <trkpt lat="45.75564" lon="1.21958">
        <ele>360.08627</ele>
        <time>2026-08-08T09:57:44Z</time>
      </trkpt>
      <trkpt lat="45.75566" lon="1.21953">
        <ele>361.08627</ele>
        <time>2026-08-08T09:57:45Z</time>
      </trkpt>
      <trkpt lat="45.75568" lon="1.21948">
        <ele>361.08627</ele>
        <time>2026-08-08T09:57:46Z</time>
      </trkpt>
      <trkpt lat="45.7557" lon="1.21945">
        <ele>361.08627</ele>
        <time>2026-08-08T09:57:47Z</time>
      </trkpt>
      <trkpt lat="45.75572" lon="1.21941">
        <ele>361.08627</ele>
        <time>2026-08-08T09:57:48Z</time>
      </trkpt>
      <trkpt lat="45.75575" lon="1.21937">
        <ele>362.08627</ele>
        <time>2026-08-08T09:57:49Z</time>
      </trkpt>
      <trkpt lat="45.75577" lon="1.21933">
        <ele>362.08627</ele>
        <time>2026-08-08T09:57:50Z</time>
      </trkpt>
      <trkpt lat="45.7558" lon="1.21929">
        <ele>362.08627</ele>
        <time>2026-08-08T09:57:51Z</time>
      </trkpt>
      <trkpt lat="45.75583" lon="1.21925">
        <ele>362.08627</ele>
        <time>2026-08-08T09:57:52Z</time>
      </trkpt>
      <trkpt lat="45.75585" lon="1.21921">
        <ele>362.08627</ele>
        <time>2026-08-08T09:57:53Z</time>
      </trkpt>
      <trkpt lat="45.75588" lon="1.21917">
        <ele>362.08627</ele>
        <time>2026-08-08T09:57:54Z</time>
      </trkpt>
      <trkpt lat="45.7559" lon="1.21912">
        <ele>362.08627</ele>
        <time>2026-08-08T09:57:55Z</time>
      </trkpt>
      <trkpt lat="45.75596" lon="1.21908">
        <ele>362.08627</ele>
        <time>2026-08-08T09:57:56Z</time>
      </trkpt>
      <trkpt lat="45.75597" lon="1.21905">
        <ele>361.08627</ele>
        <time>2026-08-08T09:57:57Z</time>
      </trkpt>
      <trkpt lat="45.75601" lon="1.21899">
        <ele>363.08627</ele>
        <time>2026-08-08T09:57:58Z</time>
      </trkpt>
      <trkpt lat="45.75602" lon="1.21896">
        <ele>360.08627</ele>
        <time>2026-08-08T09:57:59Z</time>
      </trkpt>
      <trkpt lat="45.75604" lon="1.2189">
        <ele>361.08627</ele>
        <time>2026-08-08T09:58:00Z</time>
      </trkpt>
      <trkpt lat="45.75606" lon="1.21885">
        <ele>361.08627</ele>
        <time>2026-08-08T09:58:01Z</time>
      </trkpt>
      <trkpt lat="45.75607" lon="1.2188">
        <ele>361.08627</ele>
        <time>2026-08-08T09:58:02Z</time>
      </trkpt>
      <trkpt lat="45.75608" lon="1.21874">
        <ele>361.08627</ele>
        <time>2026-08-08T09:58:03Z</time>
      </trkpt>
      <trkpt lat="45.75608" lon="1.21868">
        <ele>361.08627</ele>
        <time>2026-08-08T09:58:04Z</time>
      </trkpt>
      <trkpt lat="45.75611" lon="1.21861">
        <ele>363.08627</ele>
        <time>2026-08-08T09:58:05Z</time>
      </trkpt>
      <trkpt lat="45.75612" lon="1.21855">
        <ele>363.08627</ele>
        <time>2026-08-08T09:58:06Z</time>
      </trkpt>
      <trkpt lat="45.75613" lon="1.21849">
        <ele>363.08627</ele>
        <time>2026-08-08T09:58:07Z</time>
      </trkpt>
      <trkpt lat="45.75616" lon="1.21845">
        <ele>364.08627</ele>
        <time>2026-08-08T09:58:08Z</time>
      </trkpt>
      <trkpt lat="45.75617" lon="1.21839">
        <ele>364.08627</ele>
        <time>2026-08-08T09:58:09Z</time>
      </trkpt>
      <trkpt lat="45.75618" lon="1.21834">
        <ele>364.08627</ele>
        <time>2026-08-08T09:58:10Z</time>
      </trkpt>
      <trkpt lat="45.75619" lon="1.21828">
        <ele>364.08627</ele>
        <time>2026-08-08T09:58:11Z</time>
      </trkpt>
      <trkpt lat="45.75619" lon="1.21823">
        <ele>363.08627</ele>
        <time>2026-08-08T09:58:12Z</time>
      </trkpt>
      <trkpt lat="45.7562" lon="1.21816">
        <ele>365.08627</ele>
        <time>2026-08-08T09:58:13Z</time>
      </trkpt>
      <trkpt lat="45.75621" lon="1.21811">
        <ele>364.08627</ele>
        <time>2026-08-08T09:58:14Z</time>
      </trkpt>
      <trkpt lat="45.75622" lon="1.21805">
        <ele>365.08627</ele>
        <time>2026-08-08T09:58:15Z</time>
      </trkpt>
      <trkpt lat="45.75623" lon="1.21799">
        <ele>365.08627</ele>
        <time>2026-08-08T09:58:16Z</time>
      </trkpt>
      <trkpt lat="45.75624" lon="1.21793">
        <ele>365.08627</ele>
        <time>2026-08-08T09:58:17Z</time>
      </trkpt>
      <trkpt lat="45.75625" lon="1.21787">
        <ele>365.08627</ele>
        <time>2026-08-08T09:58:18Z</time>
      </trkpt>
      <trkpt lat="45.75626" lon="1.21781">
        <ele>365.08627</ele>
        <time>2026-08-08T09:58:19Z</time>
      </trkpt>
      <trkpt lat="45.75627" lon="1.21775">
        <ele>365.08627</ele>
        <time>2026-08-08T09:58:20Z</time>
      </trkpt>
      <trkpt lat="45.75628" lon="1.21769">
        <ele>365.08627</ele>
        <time>2026-08-08T09:58:21Z</time>
      </trkpt>
      <trkpt lat="45.75629" lon="1.21763">
        <ele>365.08627</ele>
        <time>2026-08-08T09:58:22Z</time>
      </trkpt>
      <trkpt lat="45.75629" lon="1.21758">
        <ele>365.08627</ele>
        <time>2026-08-08T09:58:23Z</time>
      </trkpt>
      <trkpt lat="45.75631" lon="1.21752">
        <ele>365.08627</ele>
        <time>2026-08-08T09:58:24Z</time>
      </trkpt>
      <trkpt lat="45.75633" lon="1.21744">
        <ele>367.08627</ele>
        <time>2026-08-08T09:58:25Z</time>
      </trkpt>
      <trkpt lat="45.75633" lon="1.2174">
        <ele>366.08627</ele>
        <time>2026-08-08T09:58:26Z</time>
      </trkpt>
      <trkpt lat="45.75635" lon="1.21732">
        <ele>367.08627</ele>
        <time>2026-08-08T09:58:27Z</time>
      </trkpt>
      <trkpt lat="45.75637" lon="1.21725">
        <ele>367.08627</ele>
        <time>2026-08-08T09:58:28Z</time>
      </trkpt>
      <trkpt lat="45.75637" lon="1.21719">
        <ele>365.08627</ele>
        <time>2026-08-08T09:58:29Z</time>
      </trkpt>
      <trkpt lat="45.75639" lon="1.21713">
        <ele>364.08627</ele>
        <time>2026-08-08T09:58:30Z</time>
      </trkpt>
      <trkpt lat="45.75641" lon="1.21706">
        <ele>364.08627</ele>
        <time>2026-08-08T09:58:31Z</time>
      </trkpt>
      <trkpt lat="45.75642" lon="1.21699">
        <ele>364.08627</ele>
        <time>2026-08-08T09:58:32Z</time>
      </trkpt>
      <trkpt lat="45.75644" lon="1.21693">
        <ele>364.08627</ele>
        <time>2026-08-08T09:58:33Z</time>
      </trkpt>
      <trkpt lat="45.75646" lon="1.21686">
        <ele>364.08627</ele>
        <time>2026-08-08T09:58:34Z</time>
      </trkpt>
      <trkpt lat="45.75648" lon="1.2168">
        <ele>364.08627</ele>
        <time>2026-08-08T09:58:35Z</time>
      </trkpt>
      <trkpt lat="45.75651" lon="1.21673">
        <ele>364.08627</ele>
        <time>2026-08-08T09:58:36Z</time>
      </trkpt>
      <trkpt lat="45.75653" lon="1.21667">
        <ele>364.08627</ele>
        <time>2026-08-08T09:58:37Z</time>
      </trkpt>
      <trkpt lat="45.75656" lon="1.21661">
        <ele>364.08627</ele>
        <time>2026-08-08T09:58:38Z</time>
      </trkpt>
      <trkpt lat="45.75658" lon="1.21657">
        <ele>363.08627</ele>
        <time>2026-08-08T09:58:39Z</time>
      </trkpt>
      <trkpt lat="45.75661" lon="1.21651">
        <ele>363.08627</ele>
        <time>2026-08-08T09:58:40Z</time>
      </trkpt>
      <trkpt lat="45.75663" lon="1.21645">
        <ele>363.08627</ele>
        <time>2026-08-08T09:58:41Z</time>
      </trkpt>
      <trkpt lat="45.75666" lon="1.2164">
        <ele>362.08627</ele>
        <time>2026-08-08T09:58:42Z</time>
      </trkpt>
      <trkpt lat="45.75668" lon="1.21634">
        <ele>362.08627</ele>
        <time>2026-08-08T09:58:43Z</time>
      </trkpt>
      <trkpt lat="45.75671" lon="1.21627">
        <ele>362.08627</ele>
        <time>2026-08-08T09:58:44Z</time>
      </trkpt>
      <trkpt lat="45.75674" lon="1.21621">
        <ele>362.08627</ele>
        <time>2026-08-08T09:58:45Z</time>
      </trkpt>
      <trkpt lat="45.75677" lon="1.21615">
        <ele>362.08627</ele>
        <time>2026-08-08T09:58:46Z</time>
      </trkpt>
      <trkpt lat="45.75681" lon="1.21609">
        <ele>361.08627</ele>
        <time>2026-08-08T09:58:47Z</time>
      </trkpt>
      <trkpt lat="45.75685" lon="1.21602">
        <ele>360.08627</ele>
        <time>2026-08-08T09:58:48Z</time>
      </trkpt>
      <trkpt lat="45.7569" lon="1.21595">
        <ele>360.08627</ele>
        <time>2026-08-08T09:58:49Z</time>
      </trkpt>
      <trkpt lat="45.75694" lon="1.21587">
        <ele>359.08627</ele>
        <time>2026-08-08T09:58:50Z</time>
      </trkpt>
      <trkpt lat="45.75699" lon="1.2158">
        <ele>359.08627</ele>
        <time>2026-08-08T09:58:51Z</time>
      </trkpt>
      <trkpt lat="45.75704" lon="1.21573">
        <ele>358.08627</ele>
        <time>2026-08-08T09:58:52Z</time>
      </trkpt>
      <trkpt lat="45.75713" lon="1.21565">
        <ele>357.08627</ele>
        <time>2026-08-08T09:58:53Z</time>
      </trkpt>
      <trkpt lat="45.7572" lon="1.21558">
        <ele>357.08627</ele>
        <time>2026-08-08T09:58:54Z</time>
      </trkpt>
      <trkpt lat="45.75728" lon="1.2155">
        <ele>355.08627</ele>
        <time>2026-08-08T09:58:55Z</time>
      </trkpt>
      <trkpt lat="45.75731" lon="1.21547">
        <ele>355.08627</ele>
        <time>2026-08-08T09:58:58Z</time>
      </trkpt>
      <trkpt lat="45.75736" lon="1.21544">
        <ele>354.08627</ele>
        <time>2026-08-08T09:58:59Z</time>
      </trkpt>
      <trkpt lat="45.75741" lon="1.2154">
        <ele>354.08627</ele>
        <time>2026-08-08T09:59:00Z</time>
      </trkpt>
      <trkpt lat="45.75747" lon="1.21535">
        <ele>353.08627</ele>
        <time>2026-08-08T09:59:01Z</time>
      </trkpt>
      <trkpt lat="45.75753" lon="1.21531">
        <ele>353.08627</ele>
        <time>2026-08-08T09:59:02Z</time>
      </trkpt>
      <trkpt lat="45.7576" lon="1.21527">
        <ele>352.08627</ele>
        <time>2026-08-08T09:59:03Z</time>
      </trkpt>
      <trkpt lat="45.75766" lon="1.21523">
        <ele>352.08627</ele>
        <time>2026-08-08T09:59:04Z</time>
      </trkpt>
      <trkpt lat="45.75772" lon="1.21518">
        <ele>351.08627</ele>
        <time>2026-08-08T09:59:05Z</time>
      </trkpt>
      <trkpt lat="45.75778" lon="1.21512">
        <ele>351.08627</ele>
        <time>2026-08-08T09:59:06Z</time>
      </trkpt>
      <trkpt lat="45.75784" lon="1.21505">
        <ele>350.08627</ele>
        <time>2026-08-08T09:59:07Z</time>
      </trkpt>
      <trkpt lat="45.75789" lon="1.21498">
        <ele>350.08627</ele>
        <time>2026-08-08T09:59:08Z</time>
      </trkpt>
      <trkpt lat="45.75795" lon="1.21489">
        <ele>349.08627</ele>
        <time>2026-08-08T09:59:09Z</time>
      </trkpt>
      <trkpt lat="45.758" lon="1.2148">
        <ele>348.08627</ele>
        <time>2026-08-08T09:59:10Z</time>
      </trkpt>
      <trkpt lat="45.75805" lon="1.21469">
        <ele>348.08627</ele>
        <time>2026-08-08T09:59:11Z</time>
      </trkpt>
      <trkpt lat="45.7581" lon="1.21458">
        <ele>347.08627</ele>
        <time>2026-08-08T09:59:12Z</time>
      </trkpt>
      <trkpt lat="45.75814" lon="1.21449">
        <ele>346.08627</ele>
        <time>2026-08-08T09:59:13Z</time>
      </trkpt>
      <trkpt lat="45.75818" lon="1.21439">
        <ele>345.08627</ele>
        <time>2026-08-08T09:59:14Z</time>
      </trkpt>
      <trkpt lat="45.75822" lon="1.21428">
        <ele>345.08627</ele>
        <time>2026-08-08T09:59:15Z</time>
      </trkpt>
      <trkpt lat="45.75826" lon="1.21417">
        <ele>344.08627</ele>
        <time>2026-08-08T09:59:16Z</time>
      </trkpt>
      <trkpt lat="45.75829" lon="1.21405">
        <ele>343.08627</ele>
        <time>2026-08-08T09:59:17Z</time>
      </trkpt>
      <trkpt lat="45.75832" lon="1.21393">
        <ele>341.08627</ele>
        <time>2026-08-08T09:59:18Z</time>
      </trkpt>
      <trkpt lat="45.75835" lon="1.2138">
        <ele>341.08627</ele>
        <time>2026-08-08T09:59:19Z</time>
      </trkpt>
      <trkpt lat="45.75838" lon="1.21368">
        <ele>340.08627</ele>
        <time>2026-08-08T09:59:20Z</time>
      </trkpt>
      <trkpt lat="45.7584" lon="1.21356">
        <ele>340.08627</ele>
        <time>2026-08-08T09:59:21Z</time>
      </trkpt>
      <trkpt lat="45.75843" lon="1.21344">
        <ele>340.08627</ele>
        <time>2026-08-08T09:59:22Z</time>
      </trkpt>
      <trkpt lat="45.75846" lon="1.21333">
        <ele>339.08627</ele>
        <time>2026-08-08T09:59:23Z</time>
      </trkpt>
      <trkpt lat="45.75849" lon="1.21323">
        <ele>339.08627</ele>
        <time>2026-08-08T09:59:24Z</time>
      </trkpt>
      <trkpt lat="45.75852" lon="1.21312">
        <ele>338.08627</ele>
        <time>2026-08-08T09:59:25Z</time>
      </trkpt>
      <trkpt lat="45.75856" lon="1.21303">
        <ele>338.08627</ele>
        <time>2026-08-08T09:59:26Z</time>
      </trkpt>
      <trkpt lat="45.7586" lon="1.21294">
        <ele>337.08627</ele>
        <time>2026-08-08T09:59:27Z</time>
      </trkpt>
      <trkpt lat="45.75865" lon="1.21285">
        <ele>337.08627</ele>
        <time>2026-08-08T09:59:28Z</time>
      </trkpt>
      <trkpt lat="45.7587" lon="1.21276">
        <ele>337.08627</ele>
        <time>2026-08-08T09:59:29Z</time>
      </trkpt>
      <trkpt lat="45.75874" lon="1.21266">
        <ele>336.08627</ele>
        <time>2026-08-08T09:59:30Z</time>
      </trkpt>
      <trkpt lat="45.75879" lon="1.21258">
        <ele>335.08627</ele>
        <time>2026-08-08T09:59:31Z</time>
      </trkpt>
      <trkpt lat="45.75883" lon="1.2125">
        <ele>335.08627</ele>
        <time>2026-08-08T09:59:32Z</time>
      </trkpt>
      <trkpt lat="45.75887" lon="1.21243">
        <ele>334.08627</ele>
        <time>2026-08-08T09:59:33Z</time>
      </trkpt>
      <trkpt lat="45.7589" lon="1.21237">
        <ele>334.08627</ele>
        <time>2026-08-08T09:59:34Z</time>
      </trkpt>
      <trkpt lat="45.75893" lon="1.21232">
        <ele>333.08627</ele>
        <time>2026-08-08T09:59:35Z</time>
      </trkpt>
      <trkpt lat="45.75896" lon="1.21228">
        <ele>333.08627</ele>
        <time>2026-08-08T09:59:36Z</time>
      </trkpt>
      <trkpt lat="45.75898" lon="1.21224">
        <ele>333.08627</ele>
        <time>2026-08-08T09:59:37Z</time>
      </trkpt>
      <trkpt lat="45.75901" lon="1.2122">
        <ele>332.08627</ele>
        <time>2026-08-08T09:59:38Z</time>
      </trkpt>
      <trkpt lat="45.75902" lon="1.21217">
        <ele>332.08627</ele>
        <time>2026-08-08T09:59:39Z</time>
      </trkpt>
      <trkpt lat="45.75903" lon="1.21215">
        <ele>332.08627</ele>
        <time>2026-08-08T09:59:40Z</time>
      </trkpt>
      <trkpt lat="45.75904" lon="1.21212">
        <ele>331.08627</ele>
        <time>2026-08-08T09:59:41Z</time>
      </trkpt>
      <trkpt lat="45.75904" lon="1.21211">
        <ele>331.08627</ele>
        <time>2026-08-08T09:59:42Z</time>
      </trkpt>
      <trkpt lat="45.75904" lon="1.21211">
        <ele>331.08627</ele>
        <time>2026-08-08T09:59:43Z</time>
      </trkpt>
      <trkpt lat="45.75904" lon="1.21211">
        <ele>331.08627</ele>
        <time>2026-08-08T09:59:44Z</time>
      </trkpt>
      <trkpt lat="45.75904" lon="1.21211">
        <ele>331.08627</ele>
        <time>2026-08-08T09:59:45Z</time>
      </trkpt>
      <trkpt lat="45.75904" lon="1.21211">
        <ele>331.08627</ele>
        <time>2026-08-08T09:59:46Z</time>
      </trkpt>
      <trkpt lat="45.75889" lon="1.21204">
        <ele>332.08627</ele>
        <time>2026-08-08T10:00:14Z</time>
      </trkpt>
      <trkpt lat="45.75885" lon="1.21205">
        <ele>332.08627</ele>
        <time>2026-08-08T10:00:15Z</time>
      </trkpt>
      <trkpt lat="45.75881" lon="1.21206">
        <ele>332.08627</ele>
        <time>2026-08-08T10:00:16Z</time>
      </trkpt>
      <trkpt lat="45.75876" lon="1.21206">
        <ele>332.08627</ele>
        <time>2026-08-08T10:00:17Z</time>
      </trkpt>
      <trkpt lat="45.75872" lon="1.21207">
        <ele>333.08627</ele>
        <time>2026-08-08T10:00:18Z</time>
      </trkpt>
      <trkpt lat="45.75868" lon="1.21207">
        <ele>333.08627</ele>
        <time>2026-08-08T10:00:19Z</time>
      </trkpt>
      <trkpt lat="45.75864" lon="1.21207">
        <ele>333.08627</ele>
        <time>2026-08-08T10:00:20Z</time>
      </trkpt>
      <trkpt lat="45.75859" lon="1.21208">
        <ele>333.08627</ele>
        <time>2026-08-08T10:00:21Z</time>
      </trkpt>
      <trkpt lat="45.75855" lon="1.21209">
        <ele>333.08627</ele>
        <time>2026-08-08T10:00:22Z</time>
      </trkpt>
      <trkpt lat="45.7585" lon="1.21209">
        <ele>334.08627</ele>
        <time>2026-08-08T10:00:23Z</time>
      </trkpt>
      <trkpt lat="45.75846" lon="1.21209">
        <ele>334.08627</ele>
        <time>2026-08-08T10:00:24Z</time>
      </trkpt>
      <trkpt lat="45.75842" lon="1.2121">
        <ele>334.08627</ele>
        <time>2026-08-08T10:00:25Z</time>
      </trkpt>
      <trkpt lat="45.75837" lon="1.21211">
        <ele>334.08627</ele>
        <time>2026-08-08T10:00:26Z</time>
      </trkpt>
      <trkpt lat="45.75833" lon="1.21211">
        <ele>334.08627</ele>
        <time>2026-08-08T10:00:27Z</time>
      </trkpt>
      <trkpt lat="45.75828" lon="1.21212">
        <ele>334.08627</ele>
        <time>2026-08-08T10:00:28Z</time>
      </trkpt>
      <trkpt lat="45.75824" lon="1.21212">
        <ele>334.08627</ele>
        <time>2026-08-08T10:00:29Z</time>
      </trkpt>
      <trkpt lat="45.7582" lon="1.21213">
        <ele>335.08627</ele>
        <time>2026-08-08T10:00:30Z</time>
      </trkpt>
      <trkpt lat="45.75815" lon="1.21214">
        <ele>335.08627</ele>
        <time>2026-08-08T10:00:31Z</time>
      </trkpt>
      <trkpt lat="45.75811" lon="1.21215">
        <ele>335.08627</ele>
        <time>2026-08-08T10:00:32Z</time>
      </trkpt>
      <trkpt lat="45.75806" lon="1.21215">
        <ele>335.08627</ele>
        <time>2026-08-08T10:00:33Z</time>
      </trkpt>
      <trkpt lat="45.75802" lon="1.21216">
        <ele>336.08627</ele>
        <time>2026-08-08T10:00:34Z</time>
      </trkpt>
      <trkpt lat="45.75797" lon="1.21217">
        <ele>336.08627</ele>
        <time>2026-08-08T10:00:35Z</time>
      </trkpt>
      <trkpt lat="45.75792" lon="1.21217">
        <ele>335.08627</ele>
        <time>2026-08-08T10:00:36Z</time>
      </trkpt>
      <trkpt lat="45.75788" lon="1.21218">
        <ele>335.08627</ele>
        <time>2026-08-08T10:00:37Z</time>
      </trkpt>
      <trkpt lat="45.75783" lon="1.21219">
        <ele>336.08627</ele>
        <time>2026-08-08T10:00:38Z</time>
      </trkpt>
      <trkpt lat="45.75778" lon="1.2122">
        <ele>336.08627</ele>
        <time>2026-08-08T10:00:39Z</time>
      </trkpt>
      <trkpt lat="45.75774" lon="1.21221">
        <ele>336.08627</ele>
        <time>2026-08-08T10:00:40Z</time>
      </trkpt>
      <trkpt lat="45.75769" lon="1.21222">
        <ele>337.08627</ele>
        <time>2026-08-08T10:00:41Z</time>
      </trkpt>
      <trkpt lat="45.75765" lon="1.21223">
        <ele>337.08627</ele>
        <time>2026-08-08T10:00:42Z</time>
      </trkpt>
      <trkpt lat="45.7576" lon="1.21224">
        <ele>337.08627</ele>
        <time>2026-08-08T10:00:43Z</time>
      </trkpt>
      <trkpt lat="45.75755" lon="1.21225">
        <ele>338.08627</ele>
        <time>2026-08-08T10:00:44Z</time>
      </trkpt>
      <trkpt lat="45.75751" lon="1.21225">
        <ele>338.08627</ele>
        <time>2026-08-08T10:00:45Z</time>
      </trkpt>
      <trkpt lat="45.75747" lon="1.21226">
        <ele>338.08627</ele>
        <time>2026-08-08T10:00:46Z</time>
      </trkpt>
      <trkpt lat="45.75742" lon="1.21227">
        <ele>338.08627</ele>
        <time>2026-08-08T10:00:47Z</time>
      </trkpt>
      <trkpt lat="45.75738" lon="1.21228">
        <ele>338.08627</ele>
        <time>2026-08-08T10:00:48Z</time>
      </trkpt>
      <trkpt lat="45.75734" lon="1.21228">
        <ele>339.08627</ele>
        <time>2026-08-08T10:00:49Z</time>
      </trkpt>
      <trkpt lat="45.75729" lon="1.21229">
        <ele>339.08627</ele>
        <time>2026-08-08T10:00:50Z</time>
      </trkpt>
      <trkpt lat="45.75724" lon="1.2123">
        <ele>339.08627</ele>
        <time>2026-08-08T10:00:51Z</time>
      </trkpt>
      <trkpt lat="45.7572" lon="1.2123">
        <ele>339.08627</ele>
        <time>2026-08-08T10:00:52Z</time>
      </trkpt>
      <trkpt lat="45.75715" lon="1.21231">
        <ele>340.08627</ele>
        <time>2026-08-08T10:00:53Z</time>
      </trkpt>
      <trkpt lat="45.7571" lon="1.21232">
        <ele>340.08627</ele>
        <time>2026-08-08T10:00:54Z</time>
      </trkpt>
      <trkpt lat="45.75706" lon="1.21232">
        <ele>340.08627</ele>
        <time>2026-08-08T10:00:55Z</time>
      </trkpt>
      <trkpt lat="45.75701" lon="1.21233">
        <ele>340.08627</ele>
        <time>2026-08-08T10:00:56Z</time>
      </trkpt>
      <trkpt lat="45.75697" lon="1.21234">
        <ele>340.08627</ele>
        <time>2026-08-08T10:00:57Z</time>
      </trkpt>
      <trkpt lat="45.75692" lon="1.21235">
        <ele>341.08627</ele>
        <time>2026-08-08T10:00:58Z</time>
      </trkpt>
      <trkpt lat="45.75688" lon="1.21235">
        <ele>341.08627</ele>
        <time>2026-08-08T10:00:59Z</time>
      </trkpt>
      <trkpt lat="45.75683" lon="1.21236">
        <ele>341.08627</ele>
        <time>2026-08-08T10:01:00Z</time>
      </trkpt>
      <trkpt lat="45.75679" lon="1.21237">
        <ele>342.08627</ele>
        <time>2026-08-08T10:01:01Z</time>
      </trkpt>
      <trkpt lat="45.75674" lon="1.21237">
        <ele>342.08627</ele>
        <time>2026-08-08T10:01:02Z</time>
      </trkpt>
      <trkpt lat="45.75669" lon="1.21238">
        <ele>342.08627</ele>
        <time>2026-08-08T10:01:03Z</time>
      </trkpt>
      <trkpt lat="45.75665" lon="1.21238">
        <ele>342.08627</ele>
        <time>2026-08-08T10:01:04Z</time>
      </trkpt>
      <trkpt lat="45.75661" lon="1.21239">
        <ele>342.08627</ele>
        <time>2026-08-08T10:01:05Z</time>
      </trkpt>
      <trkpt lat="45.75656" lon="1.2124">
        <ele>343.08627</ele>
        <time>2026-08-08T10:01:06Z</time>
      </trkpt>
      <trkpt lat="45.75651" lon="1.21241">
        <ele>343.08627</ele>
        <time>2026-08-08T10:01:07Z</time>
      </trkpt>
      <trkpt lat="45.75647" lon="1.21242">
        <ele>344.08627</ele>
        <time>2026-08-08T10:01:08Z</time>
      </trkpt>
      <trkpt lat="45.75642" lon="1.21243">
        <ele>344.08627</ele>
        <time>2026-08-08T10:01:09Z</time>
      </trkpt>
      <trkpt lat="45.75638" lon="1.21243">
        <ele>344.08627</ele>
        <time>2026-08-08T10:01:10Z</time>
      </trkpt>
      <trkpt lat="45.75633" lon="1.21244">
        <ele>344.08627</ele>
        <time>2026-08-08T10:01:11Z</time>
      </trkpt>
      <trkpt lat="45.75629" lon="1.21245">
        <ele>344.08627</ele>
        <time>2026-08-08T10:01:12Z</time>
      </trkpt>
      <trkpt lat="45.75625" lon="1.21245">
        <ele>344.08627</ele>
        <time>2026-08-08T10:01:13Z</time>
      </trkpt>
      <trkpt lat="45.7562" lon="1.21246">
        <ele>344.08627</ele>
        <time>2026-08-08T10:01:14Z</time>
      </trkpt>
      <trkpt lat="45.75616" lon="1.21246">
        <ele>346.08627</ele>
        <time>2026-08-08T10:01:15Z</time>
      </trkpt>
      <trkpt lat="45.75612" lon="1.21247">
        <ele>345.08627</ele>
        <time>2026-08-08T10:01:16Z</time>
      </trkpt>
      <trkpt lat="45.75608" lon="1.21247">
        <ele>345.08627</ele>
        <time>2026-08-08T10:01:17Z</time>
      </trkpt>
      <trkpt lat="45.75604" lon="1.21248">
        <ele>345.08627</ele>
        <time>2026-08-08T10:01:18Z</time>
      </trkpt>
      <trkpt lat="45.756" lon="1.21248">
        <ele>345.08627</ele>
        <time>2026-08-08T10:01:19Z</time>
      </trkpt>
      <trkpt lat="45.75596" lon="1.21249">
        <ele>346.08627</ele>
        <time>2026-08-08T10:01:20Z</time>
      </trkpt>
      <trkpt lat="45.75593" lon="1.21249">
        <ele>347.08627</ele>
        <time>2026-08-08T10:01:21Z</time>
      </trkpt>
      <trkpt lat="45.75589" lon="1.2125">
        <ele>347.08627</ele>
        <time>2026-08-08T10:01:22Z</time>
      </trkpt>
      <trkpt lat="45.75585" lon="1.2125">
        <ele>347.08627</ele>
        <time>2026-08-08T10:01:23Z</time>
      </trkpt>
      <trkpt lat="45.75581" lon="1.21251">
        <ele>347.08627</ele>
        <time>2026-08-08T10:01:24Z</time>
      </trkpt>
      <trkpt lat="45.75577" lon="1.21252">
        <ele>346.08627</ele>
        <time>2026-08-08T10:01:25Z</time>
      </trkpt>
      <trkpt lat="45.75574" lon="1.21252">
        <ele>346.08627</ele>
        <time>2026-08-08T10:01:26Z</time>
      </trkpt>
      <trkpt lat="45.7557" lon="1.21253">
        <ele>347.08627</ele>
        <time>2026-08-08T10:01:27Z</time>
      </trkpt>
      <trkpt lat="45.75566" lon="1.21253">
        <ele>347.08627</ele>
        <time>2026-08-08T10:01:28Z</time>
      </trkpt>
      <trkpt lat="45.75563" lon="1.21254">
        <ele>347.08627</ele>
        <time>2026-08-08T10:01:29Z</time>
      </trkpt>
      <trkpt lat="45.7556" lon="1.21255">
        <ele>348.08627</ele>
        <time>2026-08-08T10:01:30Z</time>
      </trkpt>
      <trkpt lat="45.75556" lon="1.21255">
        <ele>348.08627</ele>
        <time>2026-08-08T10:01:31Z</time>
      </trkpt>
      <trkpt lat="45.75553" lon="1.21255">
        <ele>348.08627</ele>
        <time>2026-08-08T10:01:32Z</time>
      </trkpt>
      <trkpt lat="45.75549" lon="1.21256">
        <ele>349.08627</ele>
        <time>2026-08-08T10:01:33Z</time>
      </trkpt>
      <trkpt lat="45.75546" lon="1.21257">
        <ele>349.08627</ele>
        <time>2026-08-08T10:01:34Z</time>
      </trkpt>
      <trkpt lat="45.75542" lon="1.21258">
        <ele>348.08627</ele>
        <time>2026-08-08T10:01:35Z</time>
      </trkpt>
      <trkpt lat="45.75539" lon="1.21258">
        <ele>349.08627</ele>
        <time>2026-08-08T10:01:36Z</time>
      </trkpt>
      <trkpt lat="45.75535" lon="1.21259">
        <ele>350.08627</ele>
        <time>2026-08-08T10:01:37Z</time>
      </trkpt>
      <trkpt lat="45.75532" lon="1.21259">
        <ele>350.08627</ele>
        <time>2026-08-08T10:01:38Z</time>
      </trkpt>
      <trkpt lat="45.75528" lon="1.2126">
        <ele>349.08627</ele>
        <time>2026-08-08T10:01:39Z</time>
      </trkpt>
      <trkpt lat="45.75525" lon="1.2126">
        <ele>350.08627</ele>
        <time>2026-08-08T10:01:40Z</time>
      </trkpt>
      <trkpt lat="45.75522" lon="1.21261">
        <ele>350.08627</ele>
        <time>2026-08-08T10:01:41Z</time>
      </trkpt>
      <trkpt lat="45.75517" lon="1.21261">
        <ele>350.08627</ele>
        <time>2026-08-08T10:01:42Z</time>
      </trkpt>
      <trkpt lat="45.75514" lon="1.21261">
        <ele>350.08627</ele>
        <time>2026-08-08T10:01:43Z</time>
      </trkpt>
      <trkpt lat="45.7551" lon="1.21262">
        <ele>350.08627</ele>
        <time>2026-08-08T10:01:44Z</time>
      </trkpt>
      <trkpt lat="45.75507" lon="1.21262">
        <ele>350.08627</ele>
        <time>2026-08-08T10:01:45Z</time>
      </trkpt>
      <trkpt lat="45.75504" lon="1.21263">
        <ele>351.08627</ele>
        <time>2026-08-08T10:01:46Z</time>
      </trkpt>
      <trkpt lat="45.75501" lon="1.21264">
        <ele>351.08627</ele>
        <time>2026-08-08T10:01:47Z</time>
      </trkpt>
      <trkpt lat="45.75497" lon="1.21265">
        <ele>351.08627</ele>
        <time>2026-08-08T10:01:48Z</time>
      </trkpt>
      <trkpt lat="45.75494" lon="1.21265">
        <ele>351.08627</ele>
        <time>2026-08-08T10:01:49Z</time>
      </trkpt>
      <trkpt lat="45.7549" lon="1.21266">
        <ele>352.08627</ele>
        <time>2026-08-08T10:01:50Z</time>
      </trkpt>
      <trkpt lat="45.75486" lon="1.21266">
        <ele>352.08627</ele>
        <time>2026-08-08T10:01:51Z</time>
      </trkpt>
      <trkpt lat="45.75482" lon="1.21267">
        <ele>351.08627</ele>
        <time>2026-08-08T10:01:52Z</time>
      </trkpt>
      <trkpt lat="45.75479" lon="1.21267">
        <ele>351.08627</ele>
        <time>2026-08-08T10:01:53Z</time>
      </trkpt>
      <trkpt lat="45.75475" lon="1.21267">
        <ele>351.08627</ele>
        <time>2026-08-08T10:01:54Z</time>
      </trkpt>
      <trkpt lat="45.75471" lon="1.21268">
        <ele>351.08627</ele>
        <time>2026-08-08T10:01:55Z</time>
      </trkpt>
      <trkpt lat="45.75468" lon="1.2127">
        <ele>352.08627</ele>
        <time>2026-08-08T10:01:56Z</time>
      </trkpt>
      <trkpt lat="45.75464" lon="1.21271">
        <ele>352.08627</ele>
        <time>2026-08-08T10:01:57Z</time>
      </trkpt>
      <trkpt lat="45.75459" lon="1.21271">
        <ele>352.08627</ele>
        <time>2026-08-08T10:01:58Z</time>
      </trkpt>
      <trkpt lat="45.75455" lon="1.21272">
        <ele>352.08627</ele>
        <time>2026-08-08T10:01:59Z</time>
      </trkpt>
      <trkpt lat="45.7545" lon="1.21272">
        <ele>352.08627</ele>
        <time>2026-08-08T10:02:00Z</time>
      </trkpt>
      <trkpt lat="45.75445" lon="1.21272">
        <ele>352.08627</ele>
        <time>2026-08-08T10:02:01Z</time>
      </trkpt>
      <trkpt lat="45.7544" lon="1.21273">
        <ele>353.08627</ele>
        <time>2026-08-08T10:02:02Z</time>
      </trkpt>
      <trkpt lat="45.75435" lon="1.21273">
        <ele>353.08627</ele>
        <time>2026-08-08T10:02:03Z</time>
      </trkpt>
      <trkpt lat="45.7543" lon="1.21273">
        <ele>353.08627</ele>
        <time>2026-08-08T10:02:04Z</time>
      </trkpt>
      <trkpt lat="45.75425" lon="1.21274">
        <ele>353.08627</ele>
        <time>2026-08-08T10:02:05Z</time>
      </trkpt>
      <trkpt lat="45.75419" lon="1.21274">
        <ele>353.08627</ele>
        <time>2026-08-08T10:02:06Z</time>
      </trkpt>
      <trkpt lat="45.75414" lon="1.21274">
        <ele>352.08627</ele>
        <time>2026-08-08T10:02:07Z</time>
      </trkpt>
      <trkpt lat="45.75409" lon="1.21273">
        <ele>353.08627</ele>
        <time>2026-08-08T10:02:08Z</time>
      </trkpt>
      <trkpt lat="45.75404" lon="1.21273">
        <ele>353.08627</ele>
        <time>2026-08-08T10:02:09Z</time>
      </trkpt>
      <trkpt lat="45.75398" lon="1.21273">
        <ele>353.08627</ele>
        <time>2026-08-08T10:02:10Z</time>
      </trkpt>
      <trkpt lat="45.75392" lon="1.21273">
        <ele>353.08627</ele>
        <time>2026-08-08T10:02:11Z</time>
      </trkpt>
      <trkpt lat="45.75387" lon="1.21273">
        <ele>353.08627</ele>
        <time>2026-08-08T10:02:12Z</time>
      </trkpt>
      <trkpt lat="45.75381" lon="1.21273">
        <ele>353.08627</ele>
        <time>2026-08-08T10:02:13Z</time>
      </trkpt>
      <trkpt lat="45.75376" lon="1.21273">
        <ele>353.08627</ele>
        <time>2026-08-08T10:02:14Z</time>
      </trkpt>
      <trkpt lat="45.75371" lon="1.21272">
        <ele>353.08627</ele>
        <time>2026-08-08T10:02:15Z</time>
      </trkpt>
      <trkpt lat="45.75365" lon="1.21271">
        <ele>354.08627</ele>
        <time>2026-08-08T10:02:16Z</time>
      </trkpt>
      <trkpt lat="45.75359" lon="1.2127">
        <ele>354.08627</ele>
        <time>2026-08-08T10:02:17Z</time>
      </trkpt>
      <trkpt lat="45.75354" lon="1.21269">
        <ele>354.08627</ele>
        <time>2026-08-08T10:02:18Z</time>
      </trkpt>
      <trkpt lat="45.75348" lon="1.21268">
        <ele>354.08627</ele>
        <time>2026-08-08T10:02:19Z</time>
      </trkpt>
      <trkpt lat="45.75343" lon="1.21266">
        <ele>355.08627</ele>
        <time>2026-08-08T10:02:20Z</time>
      </trkpt>
      <trkpt lat="45.75338" lon="1.21265">
        <ele>355.08627</ele>
        <time>2026-08-08T10:02:21Z</time>
      </trkpt>
      <trkpt lat="45.75332" lon="1.21264">
        <ele>356.08627</ele>
        <time>2026-08-08T10:02:22Z</time>
      </trkpt>
      <trkpt lat="45.75326" lon="1.21263">
        <ele>356.08627</ele>
        <time>2026-08-08T10:02:23Z</time>
      </trkpt>
      <trkpt lat="45.75321" lon="1.21261">
        <ele>357.08627</ele>
        <time>2026-08-08T10:02:24Z</time>
      </trkpt>
      <trkpt lat="45.75316" lon="1.2126">
        <ele>356.08627</ele>
        <time>2026-08-08T10:02:25Z</time>
      </trkpt>
      <trkpt lat="45.7531" lon="1.21257">
        <ele>356.08627</ele>
        <time>2026-08-08T10:02:26Z</time>
      </trkpt>
      <trkpt lat="45.75304" lon="1.21255">
        <ele>357.08627</ele>
        <time>2026-08-08T10:02:27Z</time>
      </trkpt>
      <trkpt lat="45.75299" lon="1.21254">
        <ele>357.08627</ele>
        <time>2026-08-08T10:02:28Z</time>
      </trkpt>
      <trkpt lat="45.75293" lon="1.21252">
        <ele>357.08627</ele>
        <time>2026-08-08T10:02:29Z</time>
      </trkpt>
      <trkpt lat="45.75288" lon="1.2125">
        <ele>357.08627</ele>
        <time>2026-08-08T10:02:30Z</time>
      </trkpt>
      <trkpt lat="45.75282" lon="1.21247">
        <ele>357.08627</ele>
        <time>2026-08-08T10:02:31Z</time>
      </trkpt>
      <trkpt lat="45.75277" lon="1.21244">
        <ele>357.08627</ele>
        <time>2026-08-08T10:02:32Z</time>
      </trkpt>
      <trkpt lat="45.75272" lon="1.21242">
        <ele>357.08627</ele>
        <time>2026-08-08T10:02:33Z</time>
      </trkpt>
      <trkpt lat="45.75268" lon="1.2124">
        <ele>357.08627</ele>
        <time>2026-08-08T10:02:34Z</time>
      </trkpt>
      <trkpt lat="45.75263" lon="1.21237">
        <ele>357.08627</ele>
        <time>2026-08-08T10:02:35Z</time>
      </trkpt>
      <trkpt lat="45.75259" lon="1.21235">
        <ele>358.08627</ele>
        <time>2026-08-08T10:02:36Z</time>
      </trkpt>
      <trkpt lat="45.75255" lon="1.21232">
        <ele>358.08627</ele>
        <time>2026-08-08T10:02:37Z</time>
      </trkpt>
      <trkpt lat="45.75251" lon="1.21232">
        <ele>358.08627</ele>
        <time>2026-08-08T10:02:38Z</time>
      </trkpt>
      <trkpt lat="45.75247" lon="1.21233">
        <ele>358.08627</ele>
        <time>2026-08-08T10:02:39Z</time>
      </trkpt>
      <trkpt lat="45.75244" lon="1.21235">
        <ele>358.08627</ele>
        <time>2026-08-08T10:02:40Z</time>
      </trkpt>
      <trkpt lat="45.75241" lon="1.21236">
        <ele>358.08627</ele>
        <time>2026-08-08T10:02:41Z</time>
      </trkpt>
      <trkpt lat="45.75239" lon="1.21235">
        <ele>359.08627</ele>
        <time>2026-08-08T10:02:42Z</time>
      </trkpt>
      <trkpt lat="45.75239" lon="1.21234">
        <ele>359.08627</ele>
        <time>2026-08-08T10:02:43Z</time>
      </trkpt>
      <trkpt lat="45.75239" lon="1.21232">
        <ele>359.08627</ele>
        <time>2026-08-08T10:02:44Z</time>
      </trkpt>
      <trkpt lat="45.75263" lon="1.212">
        <ele>357.08627</ele>
        <time>2026-08-08T10:02:45Z</time>
      </trkpt>
      <trkpt lat="45.75267" lon="1.21196">
        <ele>357.08627</ele>
        <time>2026-08-08T10:02:46Z</time>
      </trkpt>
      <trkpt lat="45.7527" lon="1.21193">
        <ele>357.08627</ele>
        <time>2026-08-08T10:02:47Z</time>
      </trkpt>
      <trkpt lat="45.75274" lon="1.21189">
        <ele>357.08627</ele>
        <time>2026-08-08T10:02:48Z</time>
      </trkpt>
      <trkpt lat="45.75277" lon="1.21185">
        <ele>357.08627</ele>
        <time>2026-08-08T10:02:49Z</time>
      </trkpt>
      <trkpt lat="45.7528" lon="1.21181">
        <ele>357.08627</ele>
        <time>2026-08-08T10:02:50Z</time>
      </trkpt>
      <trkpt lat="45.75283" lon="1.21177">
        <ele>357.08627</ele>
        <time>2026-08-08T10:02:51Z</time>
      </trkpt>
      <trkpt lat="45.75285" lon="1.21175">
        <ele>357.08627</ele>
        <time>2026-08-08T10:02:52Z</time>
      </trkpt>
      <trkpt lat="45.75287" lon="1.21172">
        <ele>357.08627</ele>
        <time>2026-08-08T10:02:53Z</time>
      </trkpt>
      <trkpt lat="45.75289" lon="1.2117">
        <ele>357.08627</ele>
        <time>2026-08-08T10:02:54Z</time>
      </trkpt>
      <trkpt lat="45.75291" lon="1.21167">
        <ele>357.08627</ele>
        <time>2026-08-08T10:02:55Z</time>
      </trkpt>
      <trkpt lat="45.75294" lon="1.21164">
        <ele>357.08627</ele>
        <time>2026-08-08T10:02:56Z</time>
      </trkpt>
      <trkpt lat="45.75297" lon="1.21161">
        <ele>357.08627</ele>
        <time>2026-08-08T10:02:57Z</time>
      </trkpt>
      <trkpt lat="45.75301" lon="1.21154">
        <ele>357.08627</ele>
        <time>2026-08-08T10:02:58Z</time>
      </trkpt>
      <trkpt lat="45.75304" lon="1.21151">
        <ele>357.08627</ele>
        <time>2026-08-08T10:02:59Z</time>
      </trkpt>
      <trkpt lat="45.75307" lon="1.21147">
        <ele>357.08627</ele>
        <time>2026-08-08T10:03:00Z</time>
      </trkpt>
      <trkpt lat="45.7531" lon="1.21143">
        <ele>357.08627</ele>
        <time>2026-08-08T10:03:01Z</time>
      </trkpt>
      <trkpt lat="45.75314" lon="1.21141">
        <ele>360.08627</ele>
        <time>2026-08-08T10:03:02Z</time>
      </trkpt>
      <trkpt lat="45.75317" lon="1.21137">
        <ele>356.08627</ele>
        <time>2026-08-08T10:03:03Z</time>
      </trkpt>
      <trkpt lat="45.75321" lon="1.21133">
        <ele>356.08627</ele>
        <time>2026-08-08T10:03:04Z</time>
      </trkpt>
      <trkpt lat="45.75324" lon="1.2113">
        <ele>356.08627</ele>
        <time>2026-08-08T10:03:05Z</time>
      </trkpt>
      <trkpt lat="45.75328" lon="1.21126">
        <ele>356.08627</ele>
        <time>2026-08-08T10:03:06Z</time>
      </trkpt>
      <trkpt lat="45.75332" lon="1.21122">
        <ele>356.08627</ele>
        <time>2026-08-08T10:03:07Z</time>
      </trkpt>
      <trkpt lat="45.75335" lon="1.21118">
        <ele>356.08627</ele>
        <time>2026-08-08T10:03:08Z</time>
      </trkpt>
      <trkpt lat="45.7534" lon="1.21114">
        <ele>356.08627</ele>
        <time>2026-08-08T10:03:09Z</time>
      </trkpt>
      <trkpt lat="45.75348" lon="1.21108">
        <ele>356.08627</ele>
        <time>2026-08-08T10:03:10Z</time>
      </trkpt>
      <trkpt lat="45.75352" lon="1.21104">
        <ele>357.08627</ele>
        <time>2026-08-08T10:03:12Z</time>
      </trkpt>
      <trkpt lat="45.75355" lon="1.21101">
        <ele>356.08627</ele>
        <time>2026-08-08T10:03:13Z</time>
      </trkpt>
      <trkpt lat="45.7536" lon="1.21097">
        <ele>356.08627</ele>
        <time>2026-08-08T10:03:14Z</time>
      </trkpt>
      <trkpt lat="45.75364" lon="1.21094">
        <ele>356.08627</ele>
        <time>2026-08-08T10:03:15Z</time>
      </trkpt>
      <trkpt lat="45.75367" lon="1.21091">
        <ele>356.08627</ele>
        <time>2026-08-08T10:03:16Z</time>
      </trkpt>
      <trkpt lat="45.75371" lon="1.21087">
        <ele>356.08627</ele>
        <time>2026-08-08T10:03:17Z</time>
      </trkpt>
      <trkpt lat="45.75375" lon="1.21084">
        <ele>356.08627</ele>
        <time>2026-08-08T10:03:18Z</time>
      </trkpt>
      <trkpt lat="45.75379" lon="1.21081">
        <ele>356.08627</ele>
        <time>2026-08-08T10:03:19Z</time>
      </trkpt>
      <trkpt lat="45.75383" lon="1.21077">
        <ele>356.08627</ele>
        <time>2026-08-08T10:03:20Z</time>
      </trkpt>
      <trkpt lat="45.75388" lon="1.21074">
        <ele>356.08627</ele>
        <time>2026-08-08T10:03:21Z</time>
      </trkpt>
      <trkpt lat="45.75393" lon="1.2107">
        <ele>355.08627</ele>
        <time>2026-08-08T10:03:22Z</time>
      </trkpt>
      <trkpt lat="45.75398" lon="1.21066">
        <ele>354.08627</ele>
        <time>2026-08-08T10:03:23Z</time>
      </trkpt>
      <trkpt lat="45.75403" lon="1.21061">
        <ele>354.08627</ele>
        <time>2026-08-08T10:03:24Z</time>
      </trkpt>
      <trkpt lat="45.75408" lon="1.21056">
        <ele>353.08627</ele>
        <time>2026-08-08T10:03:25Z</time>
      </trkpt>
      <trkpt lat="45.75414" lon="1.21052">
        <ele>353.08627</ele>
        <time>2026-08-08T10:03:26Z</time>
      </trkpt>
      <trkpt lat="45.75419" lon="1.21047">
        <ele>351.08627</ele>
        <time>2026-08-08T10:03:27Z</time>
      </trkpt>
      <trkpt lat="45.75428" lon="1.21039">
        <ele>351.08627</ele>
        <time>2026-08-08T10:03:29Z</time>
      </trkpt>
      <trkpt lat="45.75433" lon="1.21035">
        <ele>351.08627</ele>
        <time>2026-08-08T10:03:30Z</time>
      </trkpt>
      <trkpt lat="45.75437" lon="1.21031">
        <ele>351.08627</ele>
        <time>2026-08-08T10:03:31Z</time>
      </trkpt>
      <trkpt lat="45.75441" lon="1.21028">
        <ele>351.08627</ele>
        <time>2026-08-08T10:03:32Z</time>
      </trkpt>
      <trkpt lat="45.75445" lon="1.21024">
        <ele>350.08627</ele>
        <time>2026-08-08T10:03:33Z</time>
      </trkpt>
      <trkpt lat="45.7545" lon="1.2102">
        <ele>350.08627</ele>
        <time>2026-08-08T10:03:34Z</time>
      </trkpt>
      <trkpt lat="45.75453" lon="1.21016">
        <ele>350.08627</ele>
        <time>2026-08-08T10:03:35Z</time>
      </trkpt>
      <trkpt lat="45.75457" lon="1.21013">
        <ele>350.08627</ele>
        <time>2026-08-08T10:03:36Z</time>
      </trkpt>
      <trkpt lat="45.7546" lon="1.21009">
        <ele>350.08627</ele>
        <time>2026-08-08T10:03:37Z</time>
      </trkpt>
      <trkpt lat="45.75462" lon="1.21005">
        <ele>349.08627</ele>
        <time>2026-08-08T10:03:38Z</time>
      </trkpt>
      <trkpt lat="45.75464" lon="1.21001">
        <ele>350.08627</ele>
        <time>2026-08-08T10:03:39Z</time>
      </trkpt>
      <trkpt lat="45.75465" lon="1.20998">
        <ele>350.08627</ele>
        <time>2026-08-08T10:03:40Z</time>
      </trkpt>
      <trkpt lat="45.75465" lon="1.20996">
        <ele>350.08627</ele>
        <time>2026-08-08T10:03:41Z</time>
      </trkpt>
      <trkpt lat="45.75465" lon="1.20994">
        <ele>350.08627</ele>
        <time>2026-08-08T10:03:42Z</time>
      </trkpt>
      <trkpt lat="45.75464" lon="1.20992">
        <ele>350.08627</ele>
        <time>2026-08-08T10:03:43Z</time>
      </trkpt>
      <trkpt lat="45.75462" lon="1.20991">
        <ele>350.08627</ele>
        <time>2026-08-08T10:03:44Z</time>
      </trkpt>
      <trkpt lat="45.7546" lon="1.20992">
        <ele>350.08627</ele>
        <time>2026-08-08T10:03:45Z</time>
      </trkpt>
      <trkpt lat="45.75458" lon="1.20994">
        <ele>350.08627</ele>
        <time>2026-08-08T10:03:46Z</time>
      </trkpt>
      <trkpt lat="45.75456" lon="1.20994">
        <ele>350.08627</ele>
        <time>2026-08-08T10:03:47Z</time>
      </trkpt>
      <trkpt lat="45.75454" lon="1.20995">
        <ele>350.08627</ele>
        <time>2026-08-08T10:03:48Z</time>
      </trkpt>
      <trkpt lat="45.75452" lon="1.20995">
        <ele>350.08627</ele>
        <time>2026-08-08T10:03:49Z</time>
      </trkpt>
      <trkpt lat="45.75449" lon="1.20996">
        <ele>350.08627</ele>
        <time>2026-08-08T10:03:50Z</time>
      </trkpt>
      <trkpt lat="45.75446" lon="1.20996">
        <ele>349.08627</ele>
        <time>2026-08-08T10:03:51Z</time>
      </trkpt>
      <trkpt lat="45.75443" lon="1.20996">
        <ele>349.08627</ele>
        <time>2026-08-08T10:03:52Z</time>
      </trkpt>
      <trkpt lat="45.7544" lon="1.20997">
        <ele>349.08627</ele>
        <time>2026-08-08T10:03:53Z</time>
      </trkpt>
      <trkpt lat="45.75433" lon="1.20994">
        <ele>351.08627</ele>
        <time>2026-08-08T10:03:54Z</time>
      </trkpt>
      <trkpt lat="45.75431" lon="1.20994">
        <ele>351.08627</ele>
        <time>2026-08-08T10:03:55Z</time>
      </trkpt>
      <trkpt lat="45.75428" lon="1.20994">
        <ele>351.08627</ele>
        <time>2026-08-08T10:03:56Z</time>
      </trkpt>
      <trkpt lat="45.75426" lon="1.20995">
        <ele>351.08627</ele>
        <time>2026-08-08T10:03:57Z</time>
      </trkpt>
      <trkpt lat="45.75423" lon="1.20995">
        <ele>351.08627</ele>
        <time>2026-08-08T10:03:58Z</time>
      </trkpt>
      <trkpt lat="45.7542" lon="1.20995">
        <ele>351.08627</ele>
        <time>2026-08-08T10:03:59Z</time>
      </trkpt>
      <trkpt lat="45.75417" lon="1.20996">
        <ele>351.08627</ele>
        <time>2026-08-08T10:04:00Z</time>
      </trkpt>
      <trkpt lat="45.75415" lon="1.20997">
        <ele>351.08627</ele>
        <time>2026-08-08T10:04:01Z</time>
      </trkpt>
      <trkpt lat="45.75412" lon="1.20997">
        <ele>351.08627</ele>
        <time>2026-08-08T10:04:02Z</time>
      </trkpt>
      <trkpt lat="45.75409" lon="1.20997">
        <ele>351.08627</ele>
        <time>2026-08-08T10:04:03Z</time>
      </trkpt>
      <trkpt lat="45.75407" lon="1.20997">
        <ele>351.08627</ele>
        <time>2026-08-08T10:04:04Z</time>
      </trkpt>
      <trkpt lat="45.75404" lon="1.20997">
        <ele>351.08627</ele>
        <time>2026-08-08T10:04:05Z</time>
      </trkpt>
      <trkpt lat="45.75401" lon="1.20997">
        <ele>351.08627</ele>
        <time>2026-08-08T10:04:06Z</time>
      </trkpt>
      <trkpt lat="45.75398" lon="1.20997">
        <ele>351.08627</ele>
        <time>2026-08-08T10:04:07Z</time>
      </trkpt>
      <trkpt lat="45.75395" lon="1.20997">
        <ele>351.08627</ele>
        <time>2026-08-08T10:04:08Z</time>
      </trkpt>
      <trkpt lat="45.75392" lon="1.20997">
        <ele>351.08627</ele>
        <time>2026-08-08T10:04:09Z</time>
      </trkpt>
      <trkpt lat="45.75388" lon="1.20996">
        <ele>351.08627</ele>
        <time>2026-08-08T10:04:10Z</time>
      </trkpt>
      <trkpt lat="45.75384" lon="1.20995">
        <ele>351.08627</ele>
        <time>2026-08-08T10:04:11Z</time>
      </trkpt>
      <trkpt lat="45.75381" lon="1.20995">
        <ele>351.08627</ele>
        <time>2026-08-08T10:04:12Z</time>
      </trkpt>
      <trkpt lat="45.75377" lon="1.20995">
        <ele>351.08627</ele>
        <time>2026-08-08T10:04:13Z</time>
      </trkpt>
      <trkpt lat="45.75374" lon="1.20994">
        <ele>351.08627</ele>
        <time>2026-08-08T10:04:14Z</time>
      </trkpt>
      <trkpt lat="45.7537" lon="1.20994">
        <ele>351.08627</ele>
        <time>2026-08-08T10:04:15Z</time>
      </trkpt>
      <trkpt lat="45.75366" lon="1.20993">
        <ele>352.08627</ele>
        <time>2026-08-08T10:04:16Z</time>
      </trkpt>
      <trkpt lat="45.75362" lon="1.20993">
        <ele>352.08627</ele>
        <time>2026-08-08T10:04:17Z</time>
      </trkpt>
      <trkpt lat="45.75359" lon="1.20992">
        <ele>352.08627</ele>
        <time>2026-08-08T10:04:18Z</time>
      </trkpt>
      <trkpt lat="45.75355" lon="1.2099">
        <ele>352.08627</ele>
        <time>2026-08-08T10:04:19Z</time>
      </trkpt>
      <trkpt lat="45.75351" lon="1.20989">
        <ele>352.08627</ele>
        <time>2026-08-08T10:04:20Z</time>
      </trkpt>
      <trkpt lat="45.75348" lon="1.20989">
        <ele>351.08627</ele>
        <time>2026-08-08T10:04:21Z</time>
      </trkpt>
      <trkpt lat="45.75344" lon="1.20988">
        <ele>352.08627</ele>
        <time>2026-08-08T10:04:22Z</time>
      </trkpt>
      <trkpt lat="45.7534" lon="1.20986">
        <ele>352.08627</ele>
        <time>2026-08-08T10:04:23Z</time>
      </trkpt>
      <trkpt lat="45.75337" lon="1.20985">
        <ele>353.08627</ele>
        <time>2026-08-08T10:04:24Z</time>
      </trkpt>
      <trkpt lat="45.75333" lon="1.20984">
        <ele>353.08627</ele>
        <time>2026-08-08T10:04:25Z</time>
      </trkpt>
      <trkpt lat="45.75329" lon="1.20983">
        <ele>353.08627</ele>
        <time>2026-08-08T10:04:26Z</time>
      </trkpt>
      <trkpt lat="45.75325" lon="1.20982">
        <ele>353.08627</ele>
        <time>2026-08-08T10:04:27Z</time>
      </trkpt>
      <trkpt lat="45.75322" lon="1.2098">
        <ele>354.08627</ele>
        <time>2026-08-08T10:04:28Z</time>
      </trkpt>
      <trkpt lat="45.75318" lon="1.20978">
        <ele>353.08627</ele>
        <time>2026-08-08T10:04:29Z</time>
      </trkpt>
      <trkpt lat="45.75315" lon="1.20977">
        <ele>353.08627</ele>
        <time>2026-08-08T10:04:30Z</time>
      </trkpt>
      <trkpt lat="45.75311" lon="1.20975">
        <ele>354.08627</ele>
        <time>2026-08-08T10:04:31Z</time>
      </trkpt>
      <trkpt lat="45.75308" lon="1.20973">
        <ele>354.08627</ele>
        <time>2026-08-08T10:04:32Z</time>
      </trkpt>
      <trkpt lat="45.75306" lon="1.20971">
        <ele>354.08627</ele>
        <time>2026-08-08T10:04:33Z</time>
      </trkpt>
      <trkpt lat="45.75303" lon="1.20969">
        <ele>354.08627</ele>
        <time>2026-08-08T10:04:34Z</time>
      </trkpt>
      <trkpt lat="45.75299" lon="1.20967">
        <ele>355.08627</ele>
        <time>2026-08-08T10:04:35Z</time>
      </trkpt>
      <trkpt lat="45.75297" lon="1.20964">
        <ele>355.08627</ele>
        <time>2026-08-08T10:04:36Z</time>
      </trkpt>
      <trkpt lat="45.75294" lon="1.2096">
        <ele>355.08627</ele>
        <time>2026-08-08T10:04:37Z</time>
      </trkpt>
      <trkpt lat="45.7529" lon="1.20957">
        <ele>355.08627</ele>
        <time>2026-08-08T10:04:38Z</time>
      </trkpt>
      <trkpt lat="45.75287" lon="1.20951">
        <ele>355.08627</ele>
        <time>2026-08-08T10:04:39Z</time>
      </trkpt>
      <trkpt lat="45.75285" lon="1.20947">
        <ele>355.08627</ele>
        <time>2026-08-08T10:04:40Z</time>
      </trkpt>
      <trkpt lat="45.75282" lon="1.20942">
        <ele>355.08627</ele>
        <time>2026-08-08T10:04:41Z</time>
      </trkpt>
      <trkpt lat="45.75278" lon="1.20938">
        <ele>355.08627</ele>
        <time>2026-08-08T10:04:42Z</time>
      </trkpt>
      <trkpt lat="45.75276" lon="1.20933">
        <ele>355.08627</ele>
        <time>2026-08-08T10:04:43Z</time>
      </trkpt>
      <trkpt lat="45.75273" lon="1.20928">
        <ele>355.08627</ele>
        <time>2026-08-08T10:04:44Z</time>
      </trkpt>
      <trkpt lat="45.75271" lon="1.20924">
        <ele>355.08627</ele>
        <time>2026-08-08T10:04:45Z</time>
      </trkpt>
      <trkpt lat="45.75269" lon="1.20919">
        <ele>355.08627</ele>
        <time>2026-08-08T10:04:46Z</time>
      </trkpt>
      <trkpt lat="45.75266" lon="1.20915">
        <ele>355.08627</ele>
        <time>2026-08-08T10:04:47Z</time>
      </trkpt>
      <trkpt lat="45.75263" lon="1.20911">
        <ele>355.08627</ele>
        <time>2026-08-08T10:04:48Z</time>
      </trkpt>
      <trkpt lat="45.7526" lon="1.20906">
        <ele>355.08627</ele>
        <time>2026-08-08T10:04:49Z</time>
      </trkpt>
      <trkpt lat="45.75257" lon="1.20901">
        <ele>355.08627</ele>
        <time>2026-08-08T10:04:50Z</time>
      </trkpt>
      <trkpt lat="45.75254" lon="1.20896">
        <ele>354.08627</ele>
        <time>2026-08-08T10:04:51Z</time>
      </trkpt>
      <trkpt lat="45.75251" lon="1.20891">
        <ele>354.08627</ele>
        <time>2026-08-08T10:04:52Z</time>
      </trkpt>
      <trkpt lat="45.75248" lon="1.20886">
        <ele>354.08627</ele>
        <time>2026-08-08T10:04:53Z</time>
      </trkpt>
      <trkpt lat="45.75245" lon="1.20882">
        <ele>353.08627</ele>
        <time>2026-08-08T10:04:54Z</time>
      </trkpt>
      <trkpt lat="45.75242" lon="1.20877">
        <ele>353.08627</ele>
        <time>2026-08-08T10:04:55Z</time>
      </trkpt>
      <trkpt lat="45.75238" lon="1.20872">
        <ele>353.08627</ele>
        <time>2026-08-08T10:04:56Z</time>
      </trkpt>
      <trkpt lat="45.75236" lon="1.20869">
        <ele>353.08627</ele>
        <time>2026-08-08T10:04:57Z</time>
      </trkpt>
      <trkpt lat="45.75234" lon="1.20866">
        <ele>353.08627</ele>
        <time>2026-08-08T10:04:58Z</time>
      </trkpt>
      <trkpt lat="45.75233" lon="1.20863">
        <ele>353.08627</ele>
        <time>2026-08-08T10:04:59Z</time>
      </trkpt>
      <trkpt lat="45.75231" lon="1.2086">
        <ele>353.08627</ele>
        <time>2026-08-08T10:05:00Z</time>
      </trkpt>
      <trkpt lat="45.75228" lon="1.20856">
        <ele>353.08627</ele>
        <time>2026-08-08T10:05:01Z</time>
      </trkpt>
      <trkpt lat="45.75224" lon="1.20852">
        <ele>353.08627</ele>
        <time>2026-08-08T10:05:02Z</time>
      </trkpt>
      <trkpt lat="45.75221" lon="1.20849">
        <ele>353.08627</ele>
        <time>2026-08-08T10:05:03Z</time>
      </trkpt>
      <trkpt lat="45.75217" lon="1.20846">
        <ele>352.08627</ele>
        <time>2026-08-08T10:05:04Z</time>
      </trkpt>
      <trkpt lat="45.75214" lon="1.20845">
        <ele>352.08627</ele>
        <time>2026-08-08T10:05:05Z</time>
      </trkpt>
      <trkpt lat="45.75212" lon="1.20842">
        <ele>352.08627</ele>
        <time>2026-08-08T10:05:06Z</time>
      </trkpt>
      <trkpt lat="45.75209" lon="1.20839">
        <ele>353.08627</ele>
        <time>2026-08-08T10:05:07Z</time>
      </trkpt>
      <trkpt lat="45.75205" lon="1.20834">
        <ele>354.08627</ele>
        <time>2026-08-08T10:05:08Z</time>
      </trkpt>
      <trkpt lat="45.75201" lon="1.20831">
        <ele>354.08627</ele>
        <time>2026-08-08T10:05:09Z</time>
      </trkpt>
      <trkpt lat="45.75199" lon="1.20829">
        <ele>354.08627</ele>
        <time>2026-08-08T10:05:10Z</time>
      </trkpt>
      <trkpt lat="45.75196" lon="1.20826">
        <ele>354.08627</ele>
        <time>2026-08-08T10:05:11Z</time>
      </trkpt>
      <trkpt lat="45.75193" lon="1.20823">
        <ele>354.08627</ele>
        <time>2026-08-08T10:05:12Z</time>
      </trkpt>
      <trkpt lat="45.75191" lon="1.2082">
        <ele>353.08627</ele>
        <time>2026-08-08T10:05:13Z</time>
      </trkpt>
      <trkpt lat="45.75189" lon="1.20815">
        <ele>354.08627</ele>
        <time>2026-08-08T10:05:14Z</time>
      </trkpt>
      <trkpt lat="45.75186" lon="1.20811">
        <ele>353.08627</ele>
        <time>2026-08-08T10:05:15Z</time>
      </trkpt>
      <trkpt lat="45.75182" lon="1.20807">
        <ele>353.08627</ele>
        <time>2026-08-08T10:05:16Z</time>
      </trkpt>
      <trkpt lat="45.75179" lon="1.20803">
        <ele>353.08627</ele>
        <time>2026-08-08T10:05:17Z</time>
      </trkpt>
      <trkpt lat="45.75175" lon="1.20799">
        <ele>353.08627</ele>
        <time>2026-08-08T10:05:18Z</time>
      </trkpt>
      <trkpt lat="45.75172" lon="1.20794">
        <ele>353.08627</ele>
        <time>2026-08-08T10:05:19Z</time>
      </trkpt>
      <trkpt lat="45.75169" lon="1.2079">
        <ele>353.08627</ele>
        <time>2026-08-08T10:05:20Z</time>
      </trkpt>
      <trkpt lat="45.75165" lon="1.20786">
        <ele>352.08627</ele>
        <time>2026-08-08T10:05:21Z</time>
      </trkpt>
      <trkpt lat="45.75161" lon="1.20782">
        <ele>352.08627</ele>
        <time>2026-08-08T10:05:22Z</time>
      </trkpt>
      <trkpt lat="45.75157" lon="1.20778">
        <ele>352.08627</ele>
        <time>2026-08-08T10:05:23Z</time>
      </trkpt>
      <trkpt lat="45.75152" lon="1.20774">
        <ele>352.08627</ele>
        <time>2026-08-08T10:05:24Z</time>
      </trkpt>
      <trkpt lat="45.75147" lon="1.20771">
        <ele>351.08627</ele>
        <time>2026-08-08T10:05:25Z</time>
      </trkpt>
      <trkpt lat="45.75141" lon="1.20769">
        <ele>351.08627</ele>
        <time>2026-08-08T10:05:26Z</time>
      </trkpt>
      <trkpt lat="45.75136" lon="1.20769">
        <ele>352.08627</ele>
        <time>2026-08-08T10:05:27Z</time>
      </trkpt>
      <trkpt lat="45.75132" lon="1.2077">
        <ele>351.08627</ele>
        <time>2026-08-08T10:05:28Z</time>
      </trkpt>
      <trkpt lat="45.75128" lon="1.20772">
        <ele>350.08627</ele>
        <time>2026-08-08T10:05:29Z</time>
      </trkpt>
      <trkpt lat="45.75124" lon="1.20775">
        <ele>350.08627</ele>
        <time>2026-08-08T10:05:30Z</time>
      </trkpt>
      <trkpt lat="45.75119" lon="1.2078">
        <ele>349.08627</ele>
        <time>2026-08-08T10:05:31Z</time>
      </trkpt>
      <trkpt lat="45.75115" lon="1.20783">
        <ele>348.08627</ele>
        <time>2026-08-08T10:05:32Z</time>
      </trkpt>
      <trkpt lat="45.75111" lon="1.20786">
        <ele>348.08627</ele>
        <time>2026-08-08T10:05:33Z</time>
      </trkpt>
      <trkpt lat="45.75107" lon="1.20789">
        <ele>348.08627</ele>
        <time>2026-08-08T10:05:34Z</time>
      </trkpt>
      <trkpt lat="45.75103" lon="1.20792">
        <ele>348.08627</ele>
        <time>2026-08-08T10:05:35Z</time>
      </trkpt>
      <trkpt lat="45.75098" lon="1.20795">
        <ele>348.08627</ele>
        <time>2026-08-08T10:05:36Z</time>
      </trkpt>
      <trkpt lat="45.75094" lon="1.208">
        <ele>349.08627</ele>
        <time>2026-08-08T10:05:37Z</time>
      </trkpt>
      <trkpt lat="45.75088" lon="1.20803">
        <ele>348.08627</ele>
        <time>2026-08-08T10:05:38Z</time>
      </trkpt>
      <trkpt lat="45.75083" lon="1.20807">
        <ele>349.08627</ele>
        <time>2026-08-08T10:05:39Z</time>
      </trkpt>
      <trkpt lat="45.75079" lon="1.20812">
        <ele>348.08627</ele>
        <time>2026-08-08T10:05:40Z</time>
      </trkpt>
      <trkpt lat="45.75074" lon="1.20815">
        <ele>348.08627</ele>
        <time>2026-08-08T10:05:41Z</time>
      </trkpt>
      <trkpt lat="45.75069" lon="1.20818">
        <ele>348.08627</ele>
        <time>2026-08-08T10:05:42Z</time>
      </trkpt>
      <trkpt lat="45.75066" lon="1.2082">
        <ele>347.08627</ele>
        <time>2026-08-08T10:05:43Z</time>
      </trkpt>
      <trkpt lat="45.75061" lon="1.20822">
        <ele>347.08627</ele>
        <time>2026-08-08T10:05:44Z</time>
      </trkpt>
      <trkpt lat="45.75057" lon="1.20824">
        <ele>347.08627</ele>
        <time>2026-08-08T10:05:45Z</time>
      </trkpt>
      <trkpt lat="45.75053" lon="1.20825">
        <ele>347.08627</ele>
        <time>2026-08-08T10:05:46Z</time>
      </trkpt>
      <trkpt lat="45.75048" lon="1.20824">
        <ele>347.08627</ele>
        <time>2026-08-08T10:05:47Z</time>
      </trkpt>
      <trkpt lat="45.75044" lon="1.20822">
        <ele>347.08627</ele>
        <time>2026-08-08T10:05:48Z</time>
      </trkpt>
      <trkpt lat="45.7504" lon="1.20819">
        <ele>346.08627</ele>
        <time>2026-08-08T10:05:49Z</time>
      </trkpt>
      <trkpt lat="45.75036" lon="1.20816">
        <ele>346.08627</ele>
        <time>2026-08-08T10:05:50Z</time>
      </trkpt>
      <trkpt lat="45.75031" lon="1.20813">
        <ele>346.08627</ele>
        <time>2026-08-08T10:05:51Z</time>
      </trkpt>
      <trkpt lat="45.75027" lon="1.2081">
        <ele>346.08627</ele>
        <time>2026-08-08T10:05:52Z</time>
      </trkpt>
      <trkpt lat="45.75022" lon="1.20805">
        <ele>346.08627</ele>
        <time>2026-08-08T10:05:53Z</time>
      </trkpt>
      <trkpt lat="45.75018" lon="1.20801">
        <ele>345.08627</ele>
        <time>2026-08-08T10:05:54Z</time>
      </trkpt>
      <trkpt lat="45.75013" lon="1.20796">
        <ele>345.08627</ele>
        <time>2026-08-08T10:05:55Z</time>
      </trkpt>
      <trkpt lat="45.75007" lon="1.20792">
        <ele>345.08627</ele>
        <time>2026-08-08T10:05:56Z</time>
      </trkpt>
      <trkpt lat="45.75003" lon="1.20789">
        <ele>345.08627</ele>
        <time>2026-08-08T10:05:57Z</time>
      </trkpt>
      <trkpt lat="45.74998" lon="1.20785">
        <ele>345.08627</ele>
        <time>2026-08-08T10:05:58Z</time>
      </trkpt>
      <trkpt lat="45.74993" lon="1.20783">
        <ele>345.08627</ele>
        <time>2026-08-08T10:05:59Z</time>
      </trkpt>
      <trkpt lat="45.74987" lon="1.2078">
        <ele>344.08627</ele>
        <time>2026-08-08T10:06:00Z</time>
      </trkpt>
      <trkpt lat="45.7498" lon="1.20779">
        <ele>343.08627</ele>
        <time>2026-08-08T10:06:01Z</time>
      </trkpt>
      <trkpt lat="45.74974" lon="1.20778">
        <ele>343.08627</ele>
        <time>2026-08-08T10:06:02Z</time>
      </trkpt>
      <trkpt lat="45.74968" lon="1.20777">
        <ele>343.08627</ele>
        <time>2026-08-08T10:06:03Z</time>
      </trkpt>
      <trkpt lat="45.74963" lon="1.20776">
        <ele>343.08627</ele>
        <time>2026-08-08T10:06:04Z</time>
      </trkpt>
      <trkpt lat="45.74958" lon="1.20775">
        <ele>343.08627</ele>
        <time>2026-08-08T10:06:05Z</time>
      </trkpt>
      <trkpt lat="45.74952" lon="1.20775">
        <ele>343.08627</ele>
        <time>2026-08-08T10:06:06Z</time>
      </trkpt>
      <trkpt lat="45.74947" lon="1.20774">
        <ele>342.08627</ele>
        <time>2026-08-08T10:06:07Z</time>
      </trkpt>
      <trkpt lat="45.74943" lon="1.20773">
        <ele>342.08627</ele>
        <time>2026-08-08T10:06:08Z</time>
      </trkpt>
      <trkpt lat="45.74938" lon="1.2077">
        <ele>341.08627</ele>
        <time>2026-08-08T10:06:09Z</time>
      </trkpt>
      <trkpt lat="45.74933" lon="1.20769">
        <ele>342.08627</ele>
        <time>2026-08-08T10:06:10Z</time>
      </trkpt>
      <trkpt lat="45.74928" lon="1.20767">
        <ele>341.08627</ele>
        <time>2026-08-08T10:06:11Z</time>
      </trkpt>
      <trkpt lat="45.74924" lon="1.20765">
        <ele>341.08627</ele>
        <time>2026-08-08T10:06:12Z</time>
      </trkpt>
      <trkpt lat="45.74919" lon="1.20765">
        <ele>342.08627</ele>
        <time>2026-08-08T10:06:13Z</time>
      </trkpt>
      <trkpt lat="45.74915" lon="1.20766">
        <ele>343.08627</ele>
        <time>2026-08-08T10:06:14Z</time>
      </trkpt>
      <trkpt lat="45.74911" lon="1.20764">
        <ele>343.08627</ele>
        <time>2026-08-08T10:06:15Z</time>
      </trkpt>
      <trkpt lat="45.74907" lon="1.20761">
        <ele>343.08627</ele>
        <time>2026-08-08T10:06:16Z</time>
      </trkpt>
      <trkpt lat="45.74902" lon="1.20759">
        <ele>343.08627</ele>
        <time>2026-08-08T10:06:17Z</time>
      </trkpt>
      <trkpt lat="45.74899" lon="1.20758">
        <ele>343.08627</ele>
        <time>2026-08-08T10:06:18Z</time>
      </trkpt>
      <trkpt lat="45.74895" lon="1.20757">
        <ele>343.08627</ele>
        <time>2026-08-08T10:06:19Z</time>
      </trkpt>
      <trkpt lat="45.74892" lon="1.20755">
        <ele>343.08627</ele>
        <time>2026-08-08T10:06:20Z</time>
      </trkpt>
      <trkpt lat="45.7489" lon="1.20752">
        <ele>343.08627</ele>
        <time>2026-08-08T10:06:21Z</time>
      </trkpt>
      <trkpt lat="45.74887" lon="1.2075">
        <ele>343.08627</ele>
        <time>2026-08-08T10:06:22Z</time>
      </trkpt>
      <trkpt lat="45.74884" lon="1.20748">
        <ele>343.08627</ele>
        <time>2026-08-08T10:06:23Z</time>
      </trkpt>
      <trkpt lat="45.74881" lon="1.20746">
        <ele>344.08627</ele>
        <time>2026-08-08T10:06:24Z</time>
      </trkpt>
      <trkpt lat="45.74876" lon="1.20746">
        <ele>344.08627</ele>
        <time>2026-08-08T10:06:25Z</time>
      </trkpt>
      <trkpt lat="45.74872" lon="1.20745">
        <ele>344.08627</ele>
        <time>2026-08-08T10:06:26Z</time>
      </trkpt>
      <trkpt lat="45.74868" lon="1.20744">
        <ele>345.08627</ele>
        <time>2026-08-08T10:06:27Z</time>
      </trkpt>
      <trkpt lat="45.74865" lon="1.20743">
        <ele>345.08627</ele>
        <time>2026-08-08T10:06:28Z</time>
      </trkpt>
      <trkpt lat="45.74862" lon="1.20744">
        <ele>346.08627</ele>
        <time>2026-08-08T10:06:29Z</time>
      </trkpt>
      <trkpt lat="45.74859" lon="1.20744">
        <ele>346.08627</ele>
        <time>2026-08-08T10:06:30Z</time>
      </trkpt>
      <trkpt lat="45.74856" lon="1.20744">
        <ele>347.08627</ele>
        <time>2026-08-08T10:06:31Z</time>
      </trkpt>
      <trkpt lat="45.74853" lon="1.20744">
        <ele>347.08627</ele>
        <time>2026-08-08T10:06:32Z</time>
      </trkpt>
      <trkpt lat="45.7485" lon="1.20743">
        <ele>347.08627</ele>
        <time>2026-08-08T10:06:33Z</time>
      </trkpt>
      <trkpt lat="45.74847" lon="1.20741">
        <ele>347.08627</ele>
        <time>2026-08-08T10:06:34Z</time>
      </trkpt>
      <trkpt lat="45.74845" lon="1.20739">
        <ele>348.08627</ele>
        <time>2026-08-08T10:06:35Z</time>
      </trkpt>
      <trkpt lat="45.74843" lon="1.20736">
        <ele>348.08627</ele>
        <time>2026-08-08T10:06:36Z</time>
      </trkpt>
      <trkpt lat="45.74841" lon="1.20733">
        <ele>347.08627</ele>
        <time>2026-08-08T10:06:37Z</time>
      </trkpt>
      <trkpt lat="45.74839" lon="1.2073">
        <ele>348.08627</ele>
        <time>2026-08-08T10:06:38Z</time>
      </trkpt>
      <trkpt lat="45.74836" lon="1.20726">
        <ele>348.08627</ele>
        <time>2026-08-08T10:06:39Z</time>
      </trkpt>
      <trkpt lat="45.74834" lon="1.20724">
        <ele>348.08627</ele>
        <time>2026-08-08T10:06:40Z</time>
      </trkpt>
      <trkpt lat="45.74831" lon="1.20722">
        <ele>349.08627</ele>
        <time>2026-08-08T10:06:41Z</time>
      </trkpt>
      <trkpt lat="45.74828" lon="1.2072">
        <ele>349.08627</ele>
        <time>2026-08-08T10:06:42Z</time>
      </trkpt>
      <trkpt lat="45.74825" lon="1.20717">
        <ele>349.08627</ele>
        <time>2026-08-08T10:06:43Z</time>
      </trkpt>
      <trkpt lat="45.74822" lon="1.20713">
        <ele>350.08627</ele>
        <time>2026-08-08T10:06:44Z</time>
      </trkpt>
      <trkpt lat="45.74819" lon="1.2071">
        <ele>350.08627</ele>
        <time>2026-08-08T10:06:45Z</time>
      </trkpt>
      <trkpt lat="45.74816" lon="1.20707">
        <ele>350.08627</ele>
        <time>2026-08-08T10:06:46Z</time>
      </trkpt>
      <trkpt lat="45.74814" lon="1.20705">
        <ele>350.08627</ele>
        <time>2026-08-08T10:06:47Z</time>
      </trkpt>
      <trkpt lat="45.74811" lon="1.20702">
        <ele>349.08627</ele>
        <time>2026-08-08T10:06:48Z</time>
      </trkpt>
      <trkpt lat="45.74809" lon="1.207">
        <ele>349.08627</ele>
        <time>2026-08-08T10:06:49Z</time>
      </trkpt>
      <trkpt lat="45.74808" lon="1.20698">
        <ele>349.08627</ele>
        <time>2026-08-08T10:06:50Z</time>
      </trkpt>
      <trkpt lat="45.74806" lon="1.20697">
        <ele>349.08627</ele>
        <time>2026-08-08T10:06:51Z</time>
      </trkpt>
      <trkpt lat="45.74805" lon="1.20695">
        <ele>348.08627</ele>
        <time>2026-08-08T10:06:52Z</time>
      </trkpt>
      <trkpt lat="45.74803" lon="1.20693">
        <ele>348.08627</ele>
        <time>2026-08-08T10:06:53Z</time>
      </trkpt>
      <trkpt lat="45.74802" lon="1.20692">
        <ele>349.08627</ele>
        <time>2026-08-08T10:06:54Z</time>
      </trkpt>
      <trkpt lat="45.74799" lon="1.20691">
        <ele>349.08627</ele>
        <time>2026-08-08T10:06:55Z</time>
      </trkpt>
      <trkpt lat="45.74797" lon="1.20691">
        <ele>348.08627</ele>
        <time>2026-08-08T10:06:56Z</time>
      </trkpt>
      <trkpt lat="45.74794" lon="1.20691">
        <ele>348.08627</ele>
        <time>2026-08-08T10:06:57Z</time>
      </trkpt>
      <trkpt lat="45.74791" lon="1.20692">
        <ele>349.08627</ele>
        <time>2026-08-08T10:06:58Z</time>
      </trkpt>
      <trkpt lat="45.74789" lon="1.20692">
        <ele>349.08627</ele>
        <time>2026-08-08T10:06:59Z</time>
      </trkpt>
      <trkpt lat="45.74786" lon="1.20693">
        <ele>349.08627</ele>
        <time>2026-08-08T10:07:00Z</time>
      </trkpt>
      <trkpt lat="45.74784" lon="1.20692">
        <ele>349.08627</ele>
        <time>2026-08-08T10:07:01Z</time>
      </trkpt>
      <trkpt lat="45.74781" lon="1.20691">
        <ele>350.08627</ele>
        <time>2026-08-08T10:07:02Z</time>
      </trkpt>
      <trkpt lat="45.74778" lon="1.2069">
        <ele>350.08627</ele>
        <time>2026-08-08T10:07:03Z</time>
      </trkpt>
      <trkpt lat="45.74776" lon="1.20688">
        <ele>350.08627</ele>
        <time>2026-08-08T10:07:04Z</time>
      </trkpt>
      <trkpt lat="45.74773" lon="1.20687">
        <ele>350.08627</ele>
        <time>2026-08-08T10:07:05Z</time>
      </trkpt>
      <trkpt lat="45.7477" lon="1.20685">
        <ele>351.08627</ele>
        <time>2026-08-08T10:07:06Z</time>
      </trkpt>
      <trkpt lat="45.74768" lon="1.20684">
        <ele>351.08627</ele>
        <time>2026-08-08T10:07:07Z</time>
      </trkpt>
      <trkpt lat="45.74765" lon="1.20683">
        <ele>352.08627</ele>
        <time>2026-08-08T10:07:08Z</time>
      </trkpt>
      <trkpt lat="45.74763" lon="1.20682">
        <ele>352.08627</ele>
        <time>2026-08-08T10:07:09Z</time>
      </trkpt>
      <trkpt lat="45.7476" lon="1.20681">
        <ele>352.08627</ele>
        <time>2026-08-08T10:07:10Z</time>
      </trkpt>
      <trkpt lat="45.74757" lon="1.2068">
        <ele>352.08627</ele>
        <time>2026-08-08T10:07:11Z</time>
      </trkpt>
      <trkpt lat="45.74754" lon="1.20679">
        <ele>352.08627</ele>
        <time>2026-08-08T10:07:12Z</time>
      </trkpt>
      <trkpt lat="45.74751" lon="1.20678">
        <ele>352.08627</ele>
        <time>2026-08-08T10:07:13Z</time>
      </trkpt>
      <trkpt lat="45.74748" lon="1.20676">
        <ele>352.08627</ele>
        <time>2026-08-08T10:07:14Z</time>
      </trkpt>
      <trkpt lat="45.74746" lon="1.20675">
        <ele>352.08627</ele>
        <time>2026-08-08T10:07:15Z</time>
      </trkpt>
      <trkpt lat="45.74743" lon="1.20674">
        <ele>352.08627</ele>
        <time>2026-08-08T10:07:16Z</time>
      </trkpt>
      <trkpt lat="45.7474" lon="1.20672">
        <ele>352.08627</ele>
        <time>2026-08-08T10:07:17Z</time>
      </trkpt>
      <trkpt lat="45.74738" lon="1.20671">
        <ele>352.08627</ele>
        <time>2026-08-08T10:07:18Z</time>
      </trkpt>
      <trkpt lat="45.74736" lon="1.2067">
        <ele>352.08627</ele>
        <time>2026-08-08T10:07:19Z</time>
      </trkpt>
      <trkpt lat="45.74734" lon="1.20669">
        <ele>352.08627</ele>
        <time>2026-08-08T10:07:20Z</time>
      </trkpt>
      <trkpt lat="45.74732" lon="1.20668">
        <ele>353.08627</ele>
        <time>2026-08-08T10:07:21Z</time>
      </trkpt>
      <trkpt lat="45.7473" lon="1.20667">
        <ele>352.08627</ele>
        <time>2026-08-08T10:07:22Z</time>
      </trkpt>
      <trkpt lat="45.74728" lon="1.20665">
        <ele>352.08627</ele>
        <time>2026-08-08T10:07:23Z</time>
      </trkpt>
      <trkpt lat="45.74725" lon="1.20665">
        <ele>352.08627</ele>
        <time>2026-08-08T10:07:24Z</time>
      </trkpt>
      <trkpt lat="45.74723" lon="1.20664">
        <ele>352.08627</ele>
        <time>2026-08-08T10:07:25Z</time>
      </trkpt>
      <trkpt lat="45.7472" lon="1.20663">
        <ele>352.08627</ele>
        <time>2026-08-08T10:07:26Z</time>
      </trkpt>
      <trkpt lat="45.74717" lon="1.20662">
        <ele>352.08627</ele>
        <time>2026-08-08T10:07:27Z</time>
      </trkpt>
      <trkpt lat="45.74714" lon="1.20661">
        <ele>352.08627</ele>
        <time>2026-08-08T10:07:28Z</time>
      </trkpt>
      <trkpt lat="45.74711" lon="1.2066">
        <ele>352.08627</ele>
        <time>2026-08-08T10:07:29Z</time>
      </trkpt>
      <trkpt lat="45.74708" lon="1.20659">
        <ele>352.08627</ele>
        <time>2026-08-08T10:07:30Z</time>
      </trkpt>
      <trkpt lat="45.74705" lon="1.20658">
        <ele>352.08627</ele>
        <time>2026-08-08T10:07:31Z</time>
      </trkpt>
      <trkpt lat="45.74702" lon="1.20657">
        <ele>352.08627</ele>
        <time>2026-08-08T10:07:32Z</time>
      </trkpt>
      <trkpt lat="45.74699" lon="1.20655">
        <ele>352.08627</ele>
        <time>2026-08-08T10:07:33Z</time>
      </trkpt>
      <trkpt lat="45.74696" lon="1.20653">
        <ele>352.08627</ele>
        <time>2026-08-08T10:07:34Z</time>
      </trkpt>
      <trkpt lat="45.74693" lon="1.20651">
        <ele>351.08627</ele>
        <time>2026-08-08T10:07:35Z</time>
      </trkpt>
      <trkpt lat="45.74689" lon="1.20648">
        <ele>350.08627</ele>
        <time>2026-08-08T10:07:36Z</time>
      </trkpt>
      <trkpt lat="45.74685" lon="1.20647">
        <ele>350.08627</ele>
        <time>2026-08-08T10:07:37Z</time>
      </trkpt>
      <trkpt lat="45.74681" lon="1.20643">
        <ele>350.08627</ele>
        <time>2026-08-08T10:07:38Z</time>
      </trkpt>
      <trkpt lat="45.74677" lon="1.20639">
        <ele>350.08627</ele>
        <time>2026-08-08T10:07:39Z</time>
      </trkpt>
      <trkpt lat="45.74674" lon="1.20634">
        <ele>350.08627</ele>
        <time>2026-08-08T10:07:40Z</time>
      </trkpt>
      <trkpt lat="45.74671" lon="1.20629">
        <ele>350.08627</ele>
        <time>2026-08-08T10:07:41Z</time>
      </trkpt>
      <trkpt lat="45.74667" lon="1.20626">
        <ele>349.08627</ele>
        <time>2026-08-08T10:07:42Z</time>
      </trkpt>
      <trkpt lat="45.74663" lon="1.20623">
        <ele>348.08627</ele>
        <time>2026-08-08T10:07:43Z</time>
      </trkpt>
      <trkpt lat="45.74659" lon="1.2062">
        <ele>348.08627</ele>
        <time>2026-08-08T10:07:44Z</time>
      </trkpt>
      <trkpt lat="45.74654" lon="1.20618">
        <ele>348.08627</ele>
        <time>2026-08-08T10:07:45Z</time>
      </trkpt>
      <trkpt lat="45.74649" lon="1.20616">
        <ele>348.08627</ele>
        <time>2026-08-08T10:07:46Z</time>
      </trkpt>
      <trkpt lat="45.74645" lon="1.20614">
        <ele>348.08627</ele>
        <time>2026-08-08T10:07:47Z</time>
      </trkpt>
      <trkpt lat="45.74641" lon="1.20613">
        <ele>347.08627</ele>
        <time>2026-08-08T10:07:48Z</time>
      </trkpt>
      <trkpt lat="45.74636" lon="1.20611">
        <ele>347.08627</ele>
        <time>2026-08-08T10:07:49Z</time>
      </trkpt>
      <trkpt lat="45.74631" lon="1.20609">
        <ele>347.08627</ele>
        <time>2026-08-08T10:07:50Z</time>
      </trkpt>
      <trkpt lat="45.74627" lon="1.20607">
        <ele>347.08627</ele>
        <time>2026-08-08T10:07:51Z</time>
      </trkpt>
      <trkpt lat="45.74622" lon="1.20604">
        <ele>347.08627</ele>
        <time>2026-08-08T10:07:52Z</time>
      </trkpt>
      <trkpt lat="45.74618" lon="1.20602">
        <ele>347.08627</ele>
        <time>2026-08-08T10:07:53Z</time>
      </trkpt>
      <trkpt lat="45.74613" lon="1.20601">
        <ele>347.08627</ele>
        <time>2026-08-08T10:07:54Z</time>
      </trkpt>
      <trkpt lat="45.74608" lon="1.20599">
        <ele>347.08627</ele>
        <time>2026-08-08T10:07:55Z</time>
      </trkpt>
      <trkpt lat="45.74604" lon="1.20597">
        <ele>347.08627</ele>
        <time>2026-08-08T10:07:56Z</time>
      </trkpt>
      <trkpt lat="45.746" lon="1.20596">
        <ele>347.08627</ele>
        <time>2026-08-08T10:07:57Z</time>
      </trkpt>
      <trkpt lat="45.74596" lon="1.20595">
        <ele>347.08627</ele>
        <time>2026-08-08T10:07:58Z</time>
      </trkpt>
      <trkpt lat="45.74592" lon="1.20594">
        <ele>347.08627</ele>
        <time>2026-08-08T10:07:59Z</time>
      </trkpt>
      <trkpt lat="45.74588" lon="1.20593">
        <ele>347.08627</ele>
        <time>2026-08-08T10:08:00Z</time>
      </trkpt>
      <trkpt lat="45.74585" lon="1.2059">
        <ele>347.08627</ele>
        <time>2026-08-08T10:08:01Z</time>
      </trkpt>
      <trkpt lat="45.74583" lon="1.20587">
        <ele>347.08627</ele>
        <time>2026-08-08T10:08:02Z</time>
      </trkpt>
      <trkpt lat="45.7458" lon="1.20585">
        <ele>347.08627</ele>
        <time>2026-08-08T10:08:03Z</time>
      </trkpt>
      <trkpt lat="45.74578" lon="1.20582">
        <ele>347.08627</ele>
        <time>2026-08-08T10:08:04Z</time>
      </trkpt>
      <trkpt lat="45.74575" lon="1.2058">
        <ele>348.08627</ele>
        <time>2026-08-08T10:08:05Z</time>
      </trkpt>
      <trkpt lat="45.74571" lon="1.20578">
        <ele>347.08627</ele>
        <time>2026-08-08T10:08:06Z</time>
      </trkpt>
      <trkpt lat="45.74567" lon="1.20576">
        <ele>347.08627</ele>
        <time>2026-08-08T10:08:07Z</time>
      </trkpt>
      <trkpt lat="45.74562" lon="1.20574">
        <ele>347.08627</ele>
        <time>2026-08-08T10:08:08Z</time>
      </trkpt>
      <trkpt lat="45.74557" lon="1.20573">
        <ele>346.08627</ele>
        <time>2026-08-08T10:08:09Z</time>
      </trkpt>
      <trkpt lat="45.74553" lon="1.20572">
        <ele>347.08627</ele>
        <time>2026-08-08T10:08:10Z</time>
      </trkpt>
      <trkpt lat="45.74549" lon="1.20571">
        <ele>346.08627</ele>
        <time>2026-08-08T10:08:11Z</time>
      </trkpt>
      <trkpt lat="45.74545" lon="1.2057">
        <ele>346.08627</ele>
        <time>2026-08-08T10:08:12Z</time>
      </trkpt>
      <trkpt lat="45.7454" lon="1.2057">
        <ele>345.08627</ele>
        <time>2026-08-08T10:08:13Z</time>
      </trkpt>
      <trkpt lat="45.74535" lon="1.2057">
        <ele>345.08627</ele>
        <time>2026-08-08T10:08:14Z</time>
      </trkpt>
      <trkpt lat="45.7453" lon="1.20568">
        <ele>344.08627</ele>
        <time>2026-08-08T10:08:15Z</time>
      </trkpt>
      <trkpt lat="45.74526" lon="1.20568">
        <ele>344.08627</ele>
        <time>2026-08-08T10:08:16Z</time>
      </trkpt>
      <trkpt lat="45.74522" lon="1.20567">
        <ele>344.08627</ele>
        <time>2026-08-08T10:08:17Z</time>
      </trkpt>
      <trkpt lat="45.74519" lon="1.20567">
        <ele>344.08627</ele>
        <time>2026-08-08T10:08:18Z</time>
      </trkpt>
      <trkpt lat="45.74515" lon="1.20566">
        <ele>344.08627</ele>
        <time>2026-08-08T10:08:19Z</time>
      </trkpt>
      <trkpt lat="45.74511" lon="1.20565">
        <ele>343.08627</ele>
        <time>2026-08-08T10:08:20Z</time>
      </trkpt>
      <trkpt lat="45.74508" lon="1.20565">
        <ele>343.08627</ele>
        <time>2026-08-08T10:08:21Z</time>
      </trkpt>
      <trkpt lat="45.74505" lon="1.20564">
        <ele>342.08627</ele>
        <time>2026-08-08T10:08:22Z</time>
      </trkpt>
      <trkpt lat="45.74503" lon="1.20564">
        <ele>342.08627</ele>
        <time>2026-08-08T10:08:23Z</time>
      </trkpt>
      <trkpt lat="45.74501" lon="1.20564">
        <ele>341.08627</ele>
        <time>2026-08-08T10:08:24Z</time>
      </trkpt>
      <trkpt lat="45.74498" lon="1.20564">
        <ele>341.08627</ele>
        <time>2026-08-08T10:08:25Z</time>
      </trkpt>
      <trkpt lat="45.74495" lon="1.20563">
        <ele>341.08627</ele>
        <time>2026-08-08T10:08:26Z</time>
      </trkpt>
      <trkpt lat="45.74493" lon="1.20563">
        <ele>340.08627</ele>
        <time>2026-08-08T10:08:27Z</time>
      </trkpt>
      <trkpt lat="45.7449" lon="1.20563">
        <ele>340.08627</ele>
        <time>2026-08-08T10:08:28Z</time>
      </trkpt>
      <trkpt lat="45.74487" lon="1.20562">
        <ele>340.08627</ele>
        <time>2026-08-08T10:08:29Z</time>
      </trkpt>
      <trkpt lat="45.74484" lon="1.20561">
        <ele>340.08627</ele>
        <time>2026-08-08T10:08:30Z</time>
      </trkpt>
      <trkpt lat="45.74481" lon="1.2056">
        <ele>340.08627</ele>
        <time>2026-08-08T10:08:31Z</time>
      </trkpt>
      <trkpt lat="45.74478" lon="1.20561">
        <ele>340.08627</ele>
        <time>2026-08-08T10:08:32Z</time>
      </trkpt>
      <trkpt lat="45.74476" lon="1.20559">
        <ele>340.08627</ele>
        <time>2026-08-08T10:08:33Z</time>
      </trkpt>
      <trkpt lat="45.74473" lon="1.20558">
        <ele>340.08627</ele>
        <time>2026-08-08T10:08:34Z</time>
      </trkpt>
      <trkpt lat="45.7447" lon="1.20556">
        <ele>339.08627</ele>
        <time>2026-08-08T10:08:35Z</time>
      </trkpt>
      <trkpt lat="45.74465" lon="1.20555">
        <ele>340.08627</ele>
        <time>2026-08-08T10:08:36Z</time>
      </trkpt>
      <trkpt lat="45.74461" lon="1.20554">
        <ele>340.08627</ele>
        <time>2026-08-08T10:08:37Z</time>
      </trkpt>
      <trkpt lat="45.74458" lon="1.20553">
        <ele>339.08627</ele>
        <time>2026-08-08T10:08:38Z</time>
      </trkpt>
      <trkpt lat="45.74456" lon="1.20552">
        <ele>339.08627</ele>
        <time>2026-08-08T10:08:39Z</time>
      </trkpt>
      <trkpt lat="45.74453" lon="1.20549">
        <ele>339.08627</ele>
        <time>2026-08-08T10:08:40Z</time>
      </trkpt>
      <trkpt lat="45.7445" lon="1.20545">
        <ele>339.08627</ele>
        <time>2026-08-08T10:08:41Z</time>
      </trkpt>
      <trkpt lat="45.74448" lon="1.20542">
        <ele>339.08627</ele>
        <time>2026-08-08T10:08:42Z</time>
      </trkpt>
      <trkpt lat="45.74445" lon="1.20539">
        <ele>339.08627</ele>
        <time>2026-08-08T10:08:43Z</time>
      </trkpt>
      <trkpt lat="45.74444" lon="1.20536">
        <ele>339.08627</ele>
        <time>2026-08-08T10:08:44Z</time>
      </trkpt>
      <trkpt lat="45.74442" lon="1.20532">
        <ele>339.08627</ele>
        <time>2026-08-08T10:08:45Z</time>
      </trkpt>
      <trkpt lat="45.7444" lon="1.20528">
        <ele>339.08627</ele>
        <time>2026-08-08T10:08:46Z</time>
      </trkpt>
      <trkpt lat="45.74437" lon="1.20524">
        <ele>339.08627</ele>
        <time>2026-08-08T10:08:47Z</time>
      </trkpt>
      <trkpt lat="45.74435" lon="1.2052">
        <ele>339.08627</ele>
        <time>2026-08-08T10:08:48Z</time>
      </trkpt>
      <trkpt lat="45.74433" lon="1.20517">
        <ele>339.08627</ele>
        <time>2026-08-08T10:08:49Z</time>
      </trkpt>
      <trkpt lat="45.74432" lon="1.20512">
        <ele>339.08627</ele>
        <time>2026-08-08T10:08:50Z</time>
      </trkpt>
      <trkpt lat="45.7443" lon="1.20509">
        <ele>339.08627</ele>
        <time>2026-08-08T10:08:51Z</time>
      </trkpt>
      <trkpt lat="45.74427" lon="1.20504">
        <ele>339.08627</ele>
        <time>2026-08-08T10:08:52Z</time>
      </trkpt>
      <trkpt lat="45.74425" lon="1.20501">
        <ele>339.08627</ele>
        <time>2026-08-08T10:08:53Z</time>
      </trkpt>
      <trkpt lat="45.74423" lon="1.20497">
        <ele>339.08627</ele>
        <time>2026-08-08T10:08:54Z</time>
      </trkpt>
      <trkpt lat="45.74422" lon="1.20493">
        <ele>339.08627</ele>
        <time>2026-08-08T10:08:55Z</time>
      </trkpt>
      <trkpt lat="45.7442" lon="1.20489">
        <ele>339.08627</ele>
        <time>2026-08-08T10:08:56Z</time>
      </trkpt>
      <trkpt lat="45.74418" lon="1.20486">
        <ele>340.08627</ele>
        <time>2026-08-08T10:08:57Z</time>
      </trkpt>
      <trkpt lat="45.74415" lon="1.20483">
        <ele>340.08627</ele>
        <time>2026-08-08T10:08:58Z</time>
      </trkpt>
      <trkpt lat="45.74413" lon="1.2048">
        <ele>339.08627</ele>
        <time>2026-08-08T10:08:59Z</time>
      </trkpt>
      <trkpt lat="45.74411" lon="1.20479">
        <ele>339.08627</ele>
        <time>2026-08-08T10:09:00Z</time>
      </trkpt>
      <trkpt lat="45.74409" lon="1.20476">
        <ele>340.08627</ele>
        <time>2026-08-08T10:09:01Z</time>
      </trkpt>
      <trkpt lat="45.74407" lon="1.20472">
        <ele>340.08627</ele>
        <time>2026-08-08T10:09:02Z</time>
      </trkpt>
      <trkpt lat="45.74405" lon="1.20468">
        <ele>341.08627</ele>
        <time>2026-08-08T10:09:03Z</time>
      </trkpt>
      <trkpt lat="45.74402" lon="1.20465">
        <ele>341.08627</ele>
        <time>2026-08-08T10:09:04Z</time>
      </trkpt>
      <trkpt lat="45.74398" lon="1.20462">
        <ele>340.08627</ele>
        <time>2026-08-08T10:09:05Z</time>
      </trkpt>
      <trkpt lat="45.74394" lon="1.20459">
        <ele>340.08627</ele>
        <time>2026-08-08T10:09:06Z</time>
      </trkpt>
      <trkpt lat="45.74392" lon="1.20457">
        <ele>341.08627</ele>
        <time>2026-08-08T10:09:07Z</time>
      </trkpt>
      <trkpt lat="45.74388" lon="1.20456">
        <ele>341.08627</ele>
        <time>2026-08-08T10:09:08Z</time>
      </trkpt>
      <trkpt lat="45.74385" lon="1.20455">
        <ele>341.08627</ele>
        <time>2026-08-08T10:09:09Z</time>
      </trkpt>
      <trkpt lat="45.74382" lon="1.20454">
        <ele>341.08627</ele>
        <time>2026-08-08T10:09:10Z</time>
      </trkpt>
      <trkpt lat="45.74379" lon="1.20452">
        <ele>340.08627</ele>
        <time>2026-08-08T10:09:11Z</time>
      </trkpt>
      <trkpt lat="45.74376" lon="1.20451">
        <ele>341.08627</ele>
        <time>2026-08-08T10:09:12Z</time>
      </trkpt>
      <trkpt lat="45.74372" lon="1.20449">
        <ele>341.08627</ele>
        <time>2026-08-08T10:09:13Z</time>
      </trkpt>
      <trkpt lat="45.74369" lon="1.20447">
        <ele>342.08627</ele>
        <time>2026-08-08T10:09:14Z</time>
      </trkpt>
      <trkpt lat="45.74365" lon="1.20446">
        <ele>343.08627</ele>
        <time>2026-08-08T10:09:15Z</time>
      </trkpt>
      <trkpt lat="45.74362" lon="1.20444">
        <ele>343.08627</ele>
        <time>2026-08-08T10:09:16Z</time>
      </trkpt>
      <trkpt lat="45.74359" lon="1.20443">
        <ele>343.08627</ele>
        <time>2026-08-08T10:09:17Z</time>
      </trkpt>
      <trkpt lat="45.74355" lon="1.20441">
        <ele>343.08627</ele>
        <time>2026-08-08T10:09:18Z</time>
      </trkpt>
      <trkpt lat="45.74352" lon="1.2044">
        <ele>343.08627</ele>
        <time>2026-08-08T10:09:19Z</time>
      </trkpt>
      <trkpt lat="45.74349" lon="1.20439">
        <ele>343.08627</ele>
        <time>2026-08-08T10:09:20Z</time>
      </trkpt>
      <trkpt lat="45.74346" lon="1.20438">
        <ele>344.08627</ele>
        <time>2026-08-08T10:09:21Z</time>
      </trkpt>
      <trkpt lat="45.74343" lon="1.20435">
        <ele>344.08627</ele>
        <time>2026-08-08T10:09:22Z</time>
      </trkpt>
      <trkpt lat="45.7434" lon="1.20434">
        <ele>344.08627</ele>
        <time>2026-08-08T10:09:23Z</time>
      </trkpt>
      <trkpt lat="45.74337" lon="1.20433">
        <ele>344.08627</ele>
        <time>2026-08-08T10:09:24Z</time>
      </trkpt>
      <trkpt lat="45.74334" lon="1.20431">
        <ele>344.08627</ele>
        <time>2026-08-08T10:09:25Z</time>
      </trkpt>
      <trkpt lat="45.74331" lon="1.2043">
        <ele>344.08627</ele>
        <time>2026-08-08T10:09:26Z</time>
      </trkpt>
      <trkpt lat="45.74328" lon="1.20428">
        <ele>344.08627</ele>
        <time>2026-08-08T10:09:27Z</time>
      </trkpt>
      <trkpt lat="45.74325" lon="1.20426">
        <ele>344.08627</ele>
        <time>2026-08-08T10:09:28Z</time>
      </trkpt>
      <trkpt lat="45.74322" lon="1.20425">
        <ele>344.08627</ele>
        <time>2026-08-08T10:09:29Z</time>
      </trkpt>
      <trkpt lat="45.74319" lon="1.20423">
        <ele>344.08627</ele>
        <time>2026-08-08T10:09:30Z</time>
      </trkpt>
      <trkpt lat="45.74316" lon="1.20422">
        <ele>344.08627</ele>
        <time>2026-08-08T10:09:31Z</time>
      </trkpt>
      <trkpt lat="45.74313" lon="1.2042">
        <ele>344.08627</ele>
        <time>2026-08-08T10:09:32Z</time>
      </trkpt>
      <trkpt lat="45.74311" lon="1.20419">
        <ele>344.08627</ele>
        <time>2026-08-08T10:09:33Z</time>
      </trkpt>
      <trkpt lat="45.74309" lon="1.20417">
        <ele>344.08627</ele>
        <time>2026-08-08T10:09:34Z</time>
      </trkpt>
      <trkpt lat="45.74306" lon="1.20416">
        <ele>344.08627</ele>
        <time>2026-08-08T10:09:35Z</time>
      </trkpt>
      <trkpt lat="45.74304" lon="1.20415">
        <ele>344.08627</ele>
        <time>2026-08-08T10:09:36Z</time>
      </trkpt>
      <trkpt lat="45.74301" lon="1.20414">
        <ele>345.08627</ele>
        <time>2026-08-08T10:09:37Z</time>
      </trkpt>
      <trkpt lat="45.74299" lon="1.20412">
        <ele>345.08627</ele>
        <time>2026-08-08T10:09:38Z</time>
      </trkpt>
      <trkpt lat="45.74296" lon="1.2041">
        <ele>345.08627</ele>
        <time>2026-08-08T10:09:39Z</time>
      </trkpt>
      <trkpt lat="45.74294" lon="1.20408">
        <ele>345.08627</ele>
        <time>2026-08-08T10:09:40Z</time>
      </trkpt>
      <trkpt lat="45.74291" lon="1.20407">
        <ele>345.08627</ele>
        <time>2026-08-08T10:09:41Z</time>
      </trkpt>
      <trkpt lat="45.74289" lon="1.20407">
        <ele>345.08627</ele>
        <time>2026-08-08T10:09:42Z</time>
      </trkpt>
      <trkpt lat="45.74288" lon="1.20406">
        <ele>345.08627</ele>
        <time>2026-08-08T10:09:43Z</time>
      </trkpt>
      <trkpt lat="45.74287" lon="1.20406">
        <ele>346.08627</ele>
        <time>2026-08-08T10:09:44Z</time>
      </trkpt>
      <trkpt lat="45.74286" lon="1.20405">
        <ele>346.08627</ele>
        <time>2026-08-08T10:09:45Z</time>
      </trkpt>
      <trkpt lat="45.74286" lon="1.20405">
        <ele>346.08627</ele>
        <time>2026-08-08T10:09:46Z</time>
      </trkpt>
      <trkpt lat="45.74287" lon="1.20392">
        <ele>347.08627</ele>
        <time>2026-08-08T10:10:47Z</time>
      </trkpt>
      <trkpt lat="45.74288" lon="1.2039">
        <ele>347.08627</ele>
        <time>2026-08-08T10:10:48Z</time>
      </trkpt>
      <trkpt lat="45.74288" lon="1.20387">
        <ele>347.08627</ele>
        <time>2026-08-08T10:10:49Z</time>
      </trkpt>
      <trkpt lat="45.74289" lon="1.20384">
        <ele>348.08627</ele>
        <time>2026-08-08T10:10:50Z</time>
      </trkpt>
      <trkpt lat="45.7429" lon="1.2038">
        <ele>348.08627</ele>
        <time>2026-08-08T10:10:51Z</time>
      </trkpt>
      <trkpt lat="45.74291" lon="1.20376">
        <ele>348.08627</ele>
        <time>2026-08-08T10:10:52Z</time>
      </trkpt>
      <trkpt lat="45.74292" lon="1.20373">
        <ele>348.08627</ele>
        <time>2026-08-08T10:10:53Z</time>
      </trkpt>
      <trkpt lat="45.74293" lon="1.20368">
        <ele>348.08627</ele>
        <time>2026-08-08T10:10:54Z</time>
      </trkpt>
      <trkpt lat="45.74294" lon="1.20364">
        <ele>348.08627</ele>
        <time>2026-08-08T10:10:55Z</time>
      </trkpt>
      <trkpt lat="45.74295" lon="1.2036">
        <ele>348.08627</ele>
        <time>2026-08-08T10:10:56Z</time>
      </trkpt>
      <trkpt lat="45.74296" lon="1.20356">
        <ele>349.08627</ele>
        <time>2026-08-08T10:10:57Z</time>
      </trkpt>
      <trkpt lat="45.74297" lon="1.20353">
        <ele>348.08627</ele>
        <time>2026-08-08T10:10:58Z</time>
      </trkpt>
      <trkpt lat="45.74298" lon="1.20349">
        <ele>348.08627</ele>
        <time>2026-08-08T10:10:59Z</time>
      </trkpt>
      <trkpt lat="45.74299" lon="1.20345">
        <ele>348.08627</ele>
        <time>2026-08-08T10:11:00Z</time>
      </trkpt>
      <trkpt lat="45.74301" lon="1.20342">
        <ele>348.08627</ele>
        <time>2026-08-08T10:11:01Z</time>
      </trkpt>
      <trkpt lat="45.74302" lon="1.20337">
        <ele>348.08627</ele>
        <time>2026-08-08T10:11:02Z</time>
      </trkpt>
      <trkpt lat="45.74303" lon="1.20333">
        <ele>348.08627</ele>
        <time>2026-08-08T10:11:03Z</time>
      </trkpt>
      <trkpt lat="45.74305" lon="1.20328">
        <ele>348.08627</ele>
        <time>2026-08-08T10:11:04Z</time>
      </trkpt>
      <trkpt lat="45.74306" lon="1.20323">
        <ele>348.08627</ele>
        <time>2026-08-08T10:11:05Z</time>
      </trkpt>
      <trkpt lat="45.74306" lon="1.20319">
        <ele>349.08627</ele>
        <time>2026-08-08T10:11:06Z</time>
      </trkpt>
      <trkpt lat="45.74307" lon="1.20315">
        <ele>349.08627</ele>
        <time>2026-08-08T10:11:07Z</time>
      </trkpt>
      <trkpt lat="45.74307" lon="1.20311">
        <ele>349.08627</ele>
        <time>2026-08-08T10:11:08Z</time>
      </trkpt>
      <trkpt lat="45.74307" lon="1.20307">
        <ele>349.08627</ele>
        <time>2026-08-08T10:11:09Z</time>
      </trkpt>
      <trkpt lat="45.74307" lon="1.20304">
        <ele>349.08627</ele>
        <time>2026-08-08T10:11:10Z</time>
      </trkpt>
      <trkpt lat="45.74307" lon="1.20299">
        <ele>349.08627</ele>
        <time>2026-08-08T10:11:11Z</time>
      </trkpt>
      <trkpt lat="45.74307" lon="1.20294">
        <ele>349.08627</ele>
        <time>2026-08-08T10:11:12Z</time>
      </trkpt>
      <trkpt lat="45.74307" lon="1.20289">
        <ele>348.08627</ele>
        <time>2026-08-08T10:11:13Z</time>
      </trkpt>
      <trkpt lat="45.74307" lon="1.20284">
        <ele>347.08627</ele>
        <time>2026-08-08T10:11:14Z</time>
      </trkpt>
      <trkpt lat="45.74307" lon="1.20278">
        <ele>347.08627</ele>
        <time>2026-08-08T10:11:15Z</time>
      </trkpt>
      <trkpt lat="45.74307" lon="1.20272">
        <ele>347.08627</ele>
        <time>2026-08-08T10:11:16Z</time>
      </trkpt>
      <trkpt lat="45.74307" lon="1.20266">
        <ele>346.08627</ele>
        <time>2026-08-08T10:11:17Z</time>
      </trkpt>
      <trkpt lat="45.74308" lon="1.2026">
        <ele>347.08627</ele>
        <time>2026-08-08T10:11:18Z</time>
      </trkpt>
      <trkpt lat="45.74308" lon="1.20253">
        <ele>346.08627</ele>
        <time>2026-08-08T10:11:19Z</time>
      </trkpt>
      <trkpt lat="45.74309" lon="1.20246">
        <ele>346.08627</ele>
        <time>2026-08-08T10:11:20Z</time>
      </trkpt>
      <trkpt lat="45.7431" lon="1.20239">
        <ele>347.08627</ele>
        <time>2026-08-08T10:11:21Z</time>
      </trkpt>
      <trkpt lat="45.74311" lon="1.20233">
        <ele>346.08627</ele>
        <time>2026-08-08T10:11:22Z</time>
      </trkpt>
      <trkpt lat="45.74312" lon="1.20227">
        <ele>345.08627</ele>
        <time>2026-08-08T10:11:23Z</time>
      </trkpt>
      <trkpt lat="45.74313" lon="1.2022">
        <ele>345.08627</ele>
        <time>2026-08-08T10:11:24Z</time>
      </trkpt>
      <trkpt lat="45.74313" lon="1.20215">
        <ele>345.08627</ele>
        <time>2026-08-08T10:11:25Z</time>
      </trkpt>
      <trkpt lat="45.74314" lon="1.20209">
        <ele>346.08627</ele>
        <time>2026-08-08T10:11:26Z</time>
      </trkpt>
      <trkpt lat="45.74315" lon="1.20203">
        <ele>346.08627</ele>
        <time>2026-08-08T10:11:27Z</time>
      </trkpt>
      <trkpt lat="45.74315" lon="1.20199">
        <ele>346.08627</ele>
        <time>2026-08-08T10:11:28Z</time>
      </trkpt>
      <trkpt lat="45.74315" lon="1.20195">
        <ele>346.08627</ele>
        <time>2026-08-08T10:11:29Z</time>
      </trkpt>
      <trkpt lat="45.74316" lon="1.20191">
        <ele>346.08627</ele>
        <time>2026-08-08T10:11:30Z</time>
      </trkpt>
      <trkpt lat="45.74316" lon="1.20187">
        <ele>345.08627</ele>
        <time>2026-08-08T10:11:31Z</time>
      </trkpt>
      <trkpt lat="45.74316" lon="1.20182">
        <ele>345.08627</ele>
        <time>2026-08-08T10:11:32Z</time>
      </trkpt>
      <trkpt lat="45.74316" lon="1.20178">
        <ele>345.08627</ele>
        <time>2026-08-08T10:11:33Z</time>
      </trkpt>
      <trkpt lat="45.74314" lon="1.20174">
        <ele>345.08627</ele>
        <time>2026-08-08T10:11:34Z</time>
      </trkpt>
      <trkpt lat="45.74312" lon="1.20172">
        <ele>345.08627</ele>
        <time>2026-08-08T10:11:35Z</time>
      </trkpt>
      <trkpt lat="45.74309" lon="1.20171">
        <ele>345.08627</ele>
        <time>2026-08-08T10:11:36Z</time>
      </trkpt>
      <trkpt lat="45.74306" lon="1.20172">
        <ele>345.08627</ele>
        <time>2026-08-08T10:11:37Z</time>
      </trkpt>
      <trkpt lat="45.74304" lon="1.20172">
        <ele>344.08627</ele>
        <time>2026-08-08T10:11:38Z</time>
      </trkpt>
      <trkpt lat="45.74301" lon="1.20172">
        <ele>344.08627</ele>
        <time>2026-08-08T10:11:39Z</time>
      </trkpt>
      <trkpt lat="45.74298" lon="1.20173">
        <ele>344.08627</ele>
        <time>2026-08-08T10:11:40Z</time>
      </trkpt>
      <trkpt lat="45.74294" lon="1.20174">
        <ele>344.08627</ele>
        <time>2026-08-08T10:11:41Z</time>
      </trkpt>
      <trkpt lat="45.74291" lon="1.20177">
        <ele>343.08627</ele>
        <time>2026-08-08T10:11:42Z</time>
      </trkpt>
      <trkpt lat="45.74287" lon="1.20179">
        <ele>343.08627</ele>
        <time>2026-08-08T10:11:43Z</time>
      </trkpt>
      <trkpt lat="45.74284" lon="1.2018">
        <ele>343.08627</ele>
        <time>2026-08-08T10:11:44Z</time>
      </trkpt>
      <trkpt lat="45.74281" lon="1.20182">
        <ele>343.08627</ele>
        <time>2026-08-08T10:11:45Z</time>
      </trkpt>
      <trkpt lat="45.74278" lon="1.20184">
        <ele>343.08627</ele>
        <time>2026-08-08T10:11:46Z</time>
      </trkpt>
      <trkpt lat="45.74274" lon="1.20185">
        <ele>343.08627</ele>
        <time>2026-08-08T10:11:47Z</time>
      </trkpt>
      <trkpt lat="45.7427" lon="1.20187">
        <ele>343.08627</ele>
        <time>2026-08-08T10:11:48Z</time>
      </trkpt>
      <trkpt lat="45.74267" lon="1.20189">
        <ele>343.08627</ele>
        <time>2026-08-08T10:11:49Z</time>
      </trkpt>
      <trkpt lat="45.74263" lon="1.20191">
        <ele>343.08627</ele>
        <time>2026-08-08T10:11:50Z</time>
      </trkpt>
      <trkpt lat="45.7426" lon="1.20192">
        <ele>343.08627</ele>
        <time>2026-08-08T10:11:51Z</time>
      </trkpt>
      <trkpt lat="45.74256" lon="1.20193">
        <ele>342.08627</ele>
        <time>2026-08-08T10:11:52Z</time>
      </trkpt>
      <trkpt lat="45.74252" lon="1.20193">
        <ele>342.08627</ele>
        <time>2026-08-08T10:11:53Z</time>
      </trkpt>
      <trkpt lat="45.74248" lon="1.20195">
        <ele>343.08627</ele>
        <time>2026-08-08T10:11:54Z</time>
      </trkpt>
      <trkpt lat="45.74244" lon="1.20196">
        <ele>343.08627</ele>
        <time>2026-08-08T10:11:55Z</time>
      </trkpt>
      <trkpt lat="45.74241" lon="1.20196">
        <ele>343.08627</ele>
        <time>2026-08-08T10:11:56Z</time>
      </trkpt>
      <trkpt lat="45.74236" lon="1.20196">
        <ele>343.08627</ele>
        <time>2026-08-08T10:11:57Z</time>
      </trkpt>
      <trkpt lat="45.74232" lon="1.20196">
        <ele>343.08627</ele>
        <time>2026-08-08T10:11:58Z</time>
      </trkpt>
      <trkpt lat="45.74228" lon="1.20196">
        <ele>343.08627</ele>
        <time>2026-08-08T10:11:59Z</time>
      </trkpt>
      <trkpt lat="45.74224" lon="1.20196">
        <ele>343.08627</ele>
        <time>2026-08-08T10:12:00Z</time>
      </trkpt>
      <trkpt lat="45.7422" lon="1.20195">
        <ele>344.08627</ele>
        <time>2026-08-08T10:12:01Z</time>
      </trkpt>
      <trkpt lat="45.74216" lon="1.20194">
        <ele>344.08627</ele>
        <time>2026-08-08T10:12:02Z</time>
      </trkpt>
      <trkpt lat="45.74212" lon="1.20195">
        <ele>344.08627</ele>
        <time>2026-08-08T10:12:03Z</time>
      </trkpt>
      <trkpt lat="45.74207" lon="1.20194">
        <ele>344.08627</ele>
        <time>2026-08-08T10:12:04Z</time>
      </trkpt>
      <trkpt lat="45.74203" lon="1.20194">
        <ele>344.08627</ele>
        <time>2026-08-08T10:12:05Z</time>
      </trkpt>
      <trkpt lat="45.74198" lon="1.20193">
        <ele>344.08627</ele>
        <time>2026-08-08T10:12:06Z</time>
      </trkpt>
      <trkpt lat="45.74194" lon="1.20191">
        <ele>344.08627</ele>
        <time>2026-08-08T10:12:07Z</time>
      </trkpt>
      <trkpt lat="45.74191" lon="1.2019">
        <ele>344.08627</ele>
        <time>2026-08-08T10:12:08Z</time>
      </trkpt>
      <trkpt lat="45.74187" lon="1.2019">
        <ele>344.08627</ele>
        <time>2026-08-08T10:12:09Z</time>
      </trkpt>
      <trkpt lat="45.74184" lon="1.20189">
        <ele>344.08627</ele>
        <time>2026-08-08T10:12:10Z</time>
      </trkpt>
      <trkpt lat="45.74181" lon="1.20188">
        <ele>344.08627</ele>
        <time>2026-08-08T10:12:11Z</time>
      </trkpt>
      <trkpt lat="45.74178" lon="1.20187">
        <ele>344.08627</ele>
        <time>2026-08-08T10:12:12Z</time>
      </trkpt>
      <trkpt lat="45.74174" lon="1.20187">
        <ele>344.08627</ele>
        <time>2026-08-08T10:12:13Z</time>
      </trkpt>
      <trkpt lat="45.74171" lon="1.20186">
        <ele>344.08627</ele>
        <time>2026-08-08T10:12:14Z</time>
      </trkpt>
      <trkpt lat="45.74168" lon="1.20185">
        <ele>344.08627</ele>
        <time>2026-08-08T10:12:15Z</time>
      </trkpt>
      <trkpt lat="45.74165" lon="1.20184">
        <ele>344.08627</ele>
        <time>2026-08-08T10:12:16Z</time>
      </trkpt>
      <trkpt lat="45.74162" lon="1.20184">
        <ele>344.08627</ele>
        <time>2026-08-08T10:12:17Z</time>
      </trkpt>
      <trkpt lat="45.74159" lon="1.20184">
        <ele>344.08627</ele>
        <time>2026-08-08T10:12:18Z</time>
      </trkpt>
      <trkpt lat="45.74156" lon="1.20184">
        <ele>344.08627</ele>
        <time>2026-08-08T10:12:19Z</time>
      </trkpt>
      <trkpt lat="45.74153" lon="1.20183">
        <ele>344.08627</ele>
        <time>2026-08-08T10:12:20Z</time>
      </trkpt>
      <trkpt lat="45.7415" lon="1.20182">
        <ele>344.08627</ele>
        <time>2026-08-08T10:12:21Z</time>
      </trkpt>
      <trkpt lat="45.74146" lon="1.20181">
        <ele>344.08627</ele>
        <time>2026-08-08T10:12:22Z</time>
      </trkpt>
      <trkpt lat="45.74143" lon="1.20181">
        <ele>344.08627</ele>
        <time>2026-08-08T10:12:23Z</time>
      </trkpt>
      <trkpt lat="45.7414" lon="1.20181">
        <ele>343.08627</ele>
        <time>2026-08-08T10:12:24Z</time>
      </trkpt>
      <trkpt lat="45.74137" lon="1.20182">
        <ele>343.08627</ele>
        <time>2026-08-08T10:12:25Z</time>
      </trkpt>
      <trkpt lat="45.74135" lon="1.20181">
        <ele>343.08627</ele>
        <time>2026-08-08T10:12:26Z</time>
      </trkpt>
      <trkpt lat="45.74132" lon="1.2018">
        <ele>343.08627</ele>
        <time>2026-08-08T10:12:27Z</time>
      </trkpt>
      <trkpt lat="45.74129" lon="1.2018">
        <ele>342.08627</ele>
        <time>2026-08-08T10:12:28Z</time>
      </trkpt>
      <trkpt lat="45.74126" lon="1.2018">
        <ele>342.08627</ele>
        <time>2026-08-08T10:12:29Z</time>
      </trkpt>
      <trkpt lat="45.74123" lon="1.2018">
        <ele>342.08627</ele>
        <time>2026-08-08T10:12:30Z</time>
      </trkpt>
      <trkpt lat="45.7412" lon="1.2018">
        <ele>342.08627</ele>
        <time>2026-08-08T10:12:31Z</time>
      </trkpt>
      <trkpt lat="45.74116" lon="1.20179">
        <ele>342.08627</ele>
        <time>2026-08-08T10:12:32Z</time>
      </trkpt>
      <trkpt lat="45.74113" lon="1.20179">
        <ele>342.08627</ele>
        <time>2026-08-08T10:12:33Z</time>
      </trkpt>
      <trkpt lat="45.74111" lon="1.20178">
        <ele>342.08627</ele>
        <time>2026-08-08T10:12:34Z</time>
      </trkpt>
      <trkpt lat="45.74108" lon="1.20178">
        <ele>342.08627</ele>
        <time>2026-08-08T10:12:35Z</time>
      </trkpt>
      <trkpt lat="45.74105" lon="1.20177">
        <ele>342.08627</ele>
        <time>2026-08-08T10:12:36Z</time>
      </trkpt>
      <trkpt lat="45.74102" lon="1.20176">
        <ele>342.08627</ele>
        <time>2026-08-08T10:12:37Z</time>
      </trkpt>
      <trkpt lat="45.741" lon="1.20175">
        <ele>342.08627</ele>
        <time>2026-08-08T10:12:38Z</time>
      </trkpt>
      <trkpt lat="45.74098" lon="1.20175">
        <ele>342.08627</ele>
        <time>2026-08-08T10:12:39Z</time>
      </trkpt>
      <trkpt lat="45.74095" lon="1.20174">
        <ele>342.08627</ele>
        <time>2026-08-08T10:12:40Z</time>
      </trkpt>
      <trkpt lat="45.74094" lon="1.20174">
        <ele>342.08627</ele>
        <time>2026-08-08T10:12:41Z</time>
      </trkpt>
      <trkpt lat="45.74092" lon="1.20174">
        <ele>342.08627</ele>
        <time>2026-08-08T10:12:42Z</time>
      </trkpt>
      <trkpt lat="45.7409" lon="1.20174">
        <ele>342.08627</ele>
        <time>2026-08-08T10:12:43Z</time>
      </trkpt>
      <trkpt lat="45.74081" lon="1.20182">
        <ele>341.08627</ele>
        <time>2026-08-08T10:13:47Z</time>
      </trkpt>
      <trkpt lat="45.7408" lon="1.20184">
        <ele>341.08627</ele>
        <time>2026-08-08T10:13:48Z</time>
      </trkpt>
      <trkpt lat="45.74079" lon="1.20185">
        <ele>340.08627</ele>
        <time>2026-08-08T10:13:49Z</time>
      </trkpt>
      <trkpt lat="45.74078" lon="1.20186">
        <ele>339.08627</ele>
        <time>2026-08-08T10:13:50Z</time>
      </trkpt>
      <trkpt lat="45.74076" lon="1.20187">
        <ele>339.08627</ele>
        <time>2026-08-08T10:13:51Z</time>
      </trkpt>
      <trkpt lat="45.74075" lon="1.20189">
        <ele>339.08627</ele>
        <time>2026-08-08T10:13:52Z</time>
      </trkpt>
      <trkpt lat="45.74074" lon="1.20191">
        <ele>339.08627</ele>
        <time>2026-08-08T10:13:53Z</time>
      </trkpt>
      <trkpt lat="45.74072" lon="1.20193">
        <ele>339.08627</ele>
        <time>2026-08-08T10:13:54Z</time>
      </trkpt>
      <trkpt lat="45.7407" lon="1.20196">
        <ele>340.08627</ele>
        <time>2026-08-08T10:13:55Z</time>
      </trkpt>
      <trkpt lat="45.74069" lon="1.20199">
        <ele>341.08627</ele>
        <time>2026-08-08T10:13:56Z</time>
      </trkpt>
      <trkpt lat="45.74066" lon="1.20202">
        <ele>341.08627</ele>
        <time>2026-08-08T10:13:57Z</time>
      </trkpt>
      <trkpt lat="45.74065" lon="1.20206">
        <ele>342.08627</ele>
        <time>2026-08-08T10:13:58Z</time>
      </trkpt>
      <trkpt lat="45.74062" lon="1.20209">
        <ele>342.08627</ele>
        <time>2026-08-08T10:13:59Z</time>
      </trkpt>
      <trkpt lat="45.7406" lon="1.20211">
        <ele>343.08627</ele>
        <time>2026-08-08T10:14:00Z</time>
      </trkpt>
      <trkpt lat="45.74058" lon="1.20213">
        <ele>343.08627</ele>
        <time>2026-08-08T10:14:01Z</time>
      </trkpt>
      <trkpt lat="45.74055" lon="1.20216">
        <ele>343.08627</ele>
        <time>2026-08-08T10:14:02Z</time>
      </trkpt>
      <trkpt lat="45.74053" lon="1.20218">
        <ele>342.08627</ele>
        <time>2026-08-08T10:14:03Z</time>
      </trkpt>
      <trkpt lat="45.74051" lon="1.20221">
        <ele>342.08627</ele>
        <time>2026-08-08T10:14:04Z</time>
      </trkpt>
      <trkpt lat="45.74048" lon="1.20222">
        <ele>342.08627</ele>
        <time>2026-08-08T10:14:05Z</time>
      </trkpt>
      <trkpt lat="45.74046" lon="1.20225">
        <ele>342.08627</ele>
        <time>2026-08-08T10:14:06Z</time>
      </trkpt>
      <trkpt lat="45.74044" lon="1.20226">
        <ele>341.08627</ele>
        <time>2026-08-08T10:14:07Z</time>
      </trkpt>
      <trkpt lat="45.74042" lon="1.20228">
        <ele>341.08627</ele>
        <time>2026-08-08T10:14:08Z</time>
      </trkpt>
      <trkpt lat="45.7404" lon="1.20229">
        <ele>341.08627</ele>
        <time>2026-08-08T10:14:09Z</time>
      </trkpt>
      <trkpt lat="45.74039" lon="1.20229">
        <ele>341.08627</ele>
        <time>2026-08-08T10:14:10Z</time>
      </trkpt>
      <trkpt lat="45.74038" lon="1.20229">
        <ele>341.08627</ele>
        <time>2026-08-08T10:14:11Z</time>
      </trkpt>
      <trkpt lat="45.74038" lon="1.20229">
        <ele>341.08627</ele>
        <time>2026-08-08T10:14:12Z</time>
      </trkpt>
      <trkpt lat="45.74038" lon="1.20229">
        <ele>341.08627</ele>
        <time>2026-08-08T10:14:13Z</time>
      </trkpt>
      <trkpt lat="45.74038" lon="1.20229">
        <ele>341.08627</ele>
        <time>2026-08-08T10:14:14Z</time>
      </trkpt>
      <trkpt lat="45.7404" lon="1.20251">
        <ele>339.08627</ele>
        <time>2026-08-08T10:14:26Z</time>
      </trkpt>
      <trkpt lat="45.7404" lon="1.20256">
        <ele>339.08627</ele>
        <time>2026-08-08T10:14:27Z</time>
      </trkpt>
      <trkpt lat="45.74039" lon="1.20262">
        <ele>339.08627</ele>
        <time>2026-08-08T10:14:28Z</time>
      </trkpt>
      <trkpt lat="45.74039" lon="1.20267">
        <ele>338.08627</ele>
        <time>2026-08-08T10:14:29Z</time>
      </trkpt>
      <trkpt lat="45.74038" lon="1.20273">
        <ele>338.08627</ele>
        <time>2026-08-08T10:14:30Z</time>
      </trkpt>
      <trkpt lat="45.74038" lon="1.20279">
        <ele>337.08627</ele>
        <time>2026-08-08T10:14:31Z</time>
      </trkpt>
      <trkpt lat="45.74038" lon="1.20286">
        <ele>337.08627</ele>
        <time>2026-08-08T10:14:32Z</time>
      </trkpt>
      <trkpt lat="45.74038" lon="1.20292">
        <ele>337.08627</ele>
        <time>2026-08-08T10:14:33Z</time>
      </trkpt>
      <trkpt lat="45.74038" lon="1.20298">
        <ele>337.08627</ele>
        <time>2026-08-08T10:14:34Z</time>
      </trkpt>
      <trkpt lat="45.74039" lon="1.20303">
        <ele>337.08627</ele>
        <time>2026-08-08T10:14:35Z</time>
      </trkpt>
      <trkpt lat="45.74039" lon="1.20309">
        <ele>337.08627</ele>
        <time>2026-08-08T10:14:36Z</time>
      </trkpt>
      <trkpt lat="45.74039" lon="1.20313">
        <ele>337.08627</ele>
        <time>2026-08-08T10:14:37Z</time>
      </trkpt>
      <trkpt lat="45.7404" lon="1.20317">
        <ele>337.08627</ele>
        <time>2026-08-08T10:14:38Z</time>
      </trkpt>
      <trkpt lat="45.7404" lon="1.20321">
        <ele>337.08627</ele>
        <time>2026-08-08T10:14:39Z</time>
      </trkpt>
      <trkpt lat="45.74041" lon="1.20324">
        <ele>337.08627</ele>
        <time>2026-08-08T10:14:40Z</time>
      </trkpt>
      <trkpt lat="45.74041" lon="1.20328">
        <ele>337.08627</ele>
        <time>2026-08-08T10:14:41Z</time>
      </trkpt>
      <trkpt lat="45.74042" lon="1.20332">
        <ele>337.08627</ele>
        <time>2026-08-08T10:14:42Z</time>
      </trkpt>
      <trkpt lat="45.74043" lon="1.20336">
        <ele>337.08627</ele>
        <time>2026-08-08T10:14:43Z</time>
      </trkpt>
      <trkpt lat="45.74043" lon="1.2034">
        <ele>337.08627</ele>
        <time>2026-08-08T10:14:44Z</time>
      </trkpt>
      <trkpt lat="45.74044" lon="1.20344">
        <ele>337.08627</ele>
        <time>2026-08-08T10:14:45Z</time>
      </trkpt>
      <trkpt lat="45.74045" lon="1.20349">
        <ele>337.08627</ele>
        <time>2026-08-08T10:14:46Z</time>
      </trkpt>
      <trkpt lat="45.74046" lon="1.20354">
        <ele>337.08627</ele>
        <time>2026-08-08T10:14:47Z</time>
      </trkpt>
      <trkpt lat="45.74046" lon="1.20358">
        <ele>337.08627</ele>
        <time>2026-08-08T10:14:48Z</time>
      </trkpt>
      <trkpt lat="45.74047" lon="1.20363">
        <ele>337.08627</ele>
        <time>2026-08-08T10:14:49Z</time>
      </trkpt>
      <trkpt lat="45.74048" lon="1.20368">
        <ele>337.08627</ele>
        <time>2026-08-08T10:14:50Z</time>
      </trkpt>
      <trkpt lat="45.74048" lon="1.20374">
        <ele>337.08627</ele>
        <time>2026-08-08T10:14:51Z</time>
      </trkpt>
      <trkpt lat="45.74049" lon="1.2038">
        <ele>337.08627</ele>
        <time>2026-08-08T10:14:52Z</time>
      </trkpt>
      <trkpt lat="45.7405" lon="1.20385">
        <ele>338.08627</ele>
        <time>2026-08-08T10:14:53Z</time>
      </trkpt>
      <trkpt lat="45.7405" lon="1.20391">
        <ele>337.08627</ele>
        <time>2026-08-08T10:14:54Z</time>
      </trkpt>
      <trkpt lat="45.74051" lon="1.20395">
        <ele>337.08627</ele>
        <time>2026-08-08T10:14:55Z</time>
      </trkpt>
      <trkpt lat="45.74052" lon="1.20399">
        <ele>338.08627</ele>
        <time>2026-08-08T10:14:56Z</time>
      </trkpt>
      <trkpt lat="45.74052" lon="1.20403">
        <ele>338.08627</ele>
        <time>2026-08-08T10:14:57Z</time>
      </trkpt>
      <trkpt lat="45.74053" lon="1.20407">
        <ele>338.08627</ele>
        <time>2026-08-08T10:14:58Z</time>
      </trkpt>
      <trkpt lat="45.74054" lon="1.20411">
        <ele>338.08627</ele>
        <time>2026-08-08T10:14:59Z</time>
      </trkpt>
      <trkpt lat="45.74054" lon="1.20415">
        <ele>338.08627</ele>
        <time>2026-08-08T10:15:00Z</time>
      </trkpt>
      <trkpt lat="45.74055" lon="1.20418">
        <ele>338.08627</ele>
        <time>2026-08-08T10:15:01Z</time>
      </trkpt>
      <trkpt lat="45.74056" lon="1.20423">
        <ele>338.08627</ele>
        <time>2026-08-08T10:15:02Z</time>
      </trkpt>
      <trkpt lat="45.74057" lon="1.20428">
        <ele>338.08627</ele>
        <time>2026-08-08T10:15:03Z</time>
      </trkpt>
      <trkpt lat="45.74057" lon="1.20433">
        <ele>338.08627</ele>
        <time>2026-08-08T10:15:04Z</time>
      </trkpt>
      <trkpt lat="45.74057" lon="1.20439">
        <ele>337.08627</ele>
        <time>2026-08-08T10:15:05Z</time>
      </trkpt>
      <trkpt lat="45.74056" lon="1.20445">
        <ele>337.08627</ele>
        <time>2026-08-08T10:15:06Z</time>
      </trkpt>
      <trkpt lat="45.74053" lon="1.20449">
        <ele>337.08627</ele>
        <time>2026-08-08T10:15:07Z</time>
      </trkpt>
      <trkpt lat="45.74049" lon="1.20453">
        <ele>336.08627</ele>
        <time>2026-08-08T10:15:08Z</time>
      </trkpt>
      <trkpt lat="45.74046" lon="1.20456">
        <ele>337.08627</ele>
        <time>2026-08-08T10:15:09Z</time>
      </trkpt>
      <trkpt lat="45.74042" lon="1.20458">
        <ele>337.08627</ele>
        <time>2026-08-08T10:15:10Z</time>
      </trkpt>
      <trkpt lat="45.74038" lon="1.2046">
        <ele>336.08627</ele>
        <time>2026-08-08T10:15:11Z</time>
      </trkpt>
      <trkpt lat="45.74034" lon="1.20461">
        <ele>336.08627</ele>
        <time>2026-08-08T10:15:12Z</time>
      </trkpt>
      <trkpt lat="45.74031" lon="1.20463">
        <ele>336.08627</ele>
        <time>2026-08-08T10:15:13Z</time>
      </trkpt>
      <trkpt lat="45.74028" lon="1.20464">
        <ele>335.08627</ele>
        <time>2026-08-08T10:15:14Z</time>
      </trkpt>
      <trkpt lat="45.74026" lon="1.20465">
        <ele>335.08627</ele>
        <time>2026-08-08T10:15:15Z</time>
      </trkpt>
      <trkpt lat="45.74024" lon="1.20467">
        <ele>335.08627</ele>
        <time>2026-08-08T10:15:16Z</time>
      </trkpt>
      <trkpt lat="45.74023" lon="1.20467">
        <ele>335.08627</ele>
        <time>2026-08-08T10:15:17Z</time>
      </trkpt>
      <trkpt lat="45.74021" lon="1.20469">
        <ele>335.08627</ele>
        <time>2026-08-08T10:15:19Z</time>
      </trkpt>
      <trkpt lat="45.74021" lon="1.20469">
        <ele>335.08627</ele>
        <time>2026-08-08T10:15:20Z</time>
      </trkpt>
      <trkpt lat="45.74021" lon="1.20469">
        <ele>335.08627</ele>
        <time>2026-08-08T10:15:21Z</time>
      </trkpt>
      <trkpt lat="45.74015" lon="1.20484">
        <ele>334.08627</ele>
        <time>2026-08-08T10:16:08Z</time>
      </trkpt>
      <trkpt lat="45.74013" lon="1.20488">
        <ele>335.08627</ele>
        <time>2026-08-08T10:16:09Z</time>
      </trkpt>
      <trkpt lat="45.74012" lon="1.20492">
        <ele>335.08627</ele>
        <time>2026-08-08T10:16:10Z</time>
      </trkpt>
      <trkpt lat="45.7401" lon="1.20495">
        <ele>335.08627</ele>
        <time>2026-08-08T10:16:11Z</time>
      </trkpt>
      <trkpt lat="45.74009" lon="1.20497">
        <ele>335.08627</ele>
        <time>2026-08-08T10:16:12Z</time>
      </trkpt>
      <trkpt lat="45.74007" lon="1.205">
        <ele>335.08627</ele>
        <time>2026-08-08T10:16:13Z</time>
      </trkpt>
      <trkpt lat="45.74006" lon="1.20503">
        <ele>335.08627</ele>
        <time>2026-08-08T10:16:14Z</time>
      </trkpt>
      <trkpt lat="45.74004" lon="1.20505">
        <ele>335.08627</ele>
        <time>2026-08-08T10:16:15Z</time>
      </trkpt>
      <trkpt lat="45.74002" lon="1.20508">
        <ele>336.08627</ele>
        <time>2026-08-08T10:16:16Z</time>
      </trkpt>
      <trkpt lat="45.74" lon="1.20511">
        <ele>336.08627</ele>
        <time>2026-08-08T10:16:17Z</time>
      </trkpt>
      <trkpt lat="45.73998" lon="1.20514">
        <ele>337.08627</ele>
        <time>2026-08-08T10:16:18Z</time>
      </trkpt>
      <trkpt lat="45.73996" lon="1.20518">
        <ele>337.08627</ele>
        <time>2026-08-08T10:16:19Z</time>
      </trkpt>
      <trkpt lat="45.73995" lon="1.20521">
        <ele>338.08627</ele>
        <time>2026-08-08T10:16:20Z</time>
      </trkpt>
      <trkpt lat="45.73993" lon="1.20525">
        <ele>338.08627</ele>
        <time>2026-08-08T10:16:21Z</time>
      </trkpt>
      <trkpt lat="45.7399" lon="1.20528">
        <ele>339.08627</ele>
        <time>2026-08-08T10:16:22Z</time>
      </trkpt>
      <trkpt lat="45.73988" lon="1.20532">
        <ele>339.08627</ele>
        <time>2026-08-08T10:16:23Z</time>
      </trkpt>
      <trkpt lat="45.73986" lon="1.20535">
        <ele>340.08627</ele>
        <time>2026-08-08T10:16:24Z</time>
      </trkpt>
      <trkpt lat="45.73984" lon="1.20539">
        <ele>340.08627</ele>
        <time>2026-08-08T10:16:25Z</time>
      </trkpt>
      <trkpt lat="45.73982" lon="1.20542">
        <ele>340.08627</ele>
        <time>2026-08-08T10:16:26Z</time>
      </trkpt>
      <trkpt lat="45.7398" lon="1.20545">
        <ele>340.08627</ele>
        <time>2026-08-08T10:16:27Z</time>
      </trkpt>
      <trkpt lat="45.73978" lon="1.20549">
        <ele>341.08627</ele>
        <time>2026-08-08T10:16:28Z</time>
      </trkpt>
      <trkpt lat="45.73977" lon="1.20552">
        <ele>341.08627</ele>
        <time>2026-08-08T10:16:29Z</time>
      </trkpt>
      <trkpt lat="45.73975" lon="1.20556">
        <ele>341.08627</ele>
        <time>2026-08-08T10:16:30Z</time>
      </trkpt>
      <trkpt lat="45.73973" lon="1.2056">
        <ele>340.08627</ele>
        <time>2026-08-08T10:16:31Z</time>
      </trkpt>
      <trkpt lat="45.73972" lon="1.20564">
        <ele>340.08627</ele>
        <time>2026-08-08T10:16:32Z</time>
      </trkpt>
      <trkpt lat="45.7397" lon="1.20566">
        <ele>340.08627</ele>
        <time>2026-08-08T10:16:33Z</time>
      </trkpt>
      <trkpt lat="45.73969" lon="1.20569">
        <ele>340.08627</ele>
        <time>2026-08-08T10:16:34Z</time>
      </trkpt>
      <trkpt lat="45.73967" lon="1.20572">
        <ele>341.08627</ele>
        <time>2026-08-08T10:16:35Z</time>
      </trkpt>
      <trkpt lat="45.73965" lon="1.20576">
        <ele>341.08627</ele>
        <time>2026-08-08T10:16:36Z</time>
      </trkpt>
      <trkpt lat="45.73962" lon="1.20579">
        <ele>342.08627</ele>
        <time>2026-08-08T10:16:37Z</time>
      </trkpt>
      <trkpt lat="45.7396" lon="1.20583">
        <ele>342.08627</ele>
        <time>2026-08-08T10:16:38Z</time>
      </trkpt>
      <trkpt lat="45.73958" lon="1.20586">
        <ele>342.08627</ele>
        <time>2026-08-08T10:16:39Z</time>
      </trkpt>
      <trkpt lat="45.73957" lon="1.2059">
        <ele>342.08627</ele>
        <time>2026-08-08T10:16:40Z</time>
      </trkpt>
      <trkpt lat="45.73955" lon="1.20593">
        <ele>342.08627</ele>
        <time>2026-08-08T10:16:41Z</time>
      </trkpt>
      <trkpt lat="45.73953" lon="1.20597">
        <ele>342.08627</ele>
        <time>2026-08-08T10:16:42Z</time>
      </trkpt>
      <trkpt lat="45.73952" lon="1.206">
        <ele>342.08627</ele>
        <time>2026-08-08T10:16:43Z</time>
      </trkpt>
      <trkpt lat="45.7395" lon="1.20603">
        <ele>342.08627</ele>
        <time>2026-08-08T10:16:44Z</time>
      </trkpt>
      <trkpt lat="45.73949" lon="1.20606">
        <ele>343.08627</ele>
        <time>2026-08-08T10:16:45Z</time>
      </trkpt>
      <trkpt lat="45.73947" lon="1.2061">
        <ele>343.08627</ele>
        <time>2026-08-08T10:16:46Z</time>
      </trkpt>
      <trkpt lat="45.73946" lon="1.20614">
        <ele>343.08627</ele>
        <time>2026-08-08T10:16:47Z</time>
      </trkpt>
      <trkpt lat="45.73944" lon="1.20617">
        <ele>343.08627</ele>
        <time>2026-08-08T10:16:48Z</time>
      </trkpt>
      <trkpt lat="45.73942" lon="1.20621">
        <ele>344.08627</ele>
        <time>2026-08-08T10:16:49Z</time>
      </trkpt>
      <trkpt lat="45.7394" lon="1.20624">
        <ele>344.08627</ele>
        <time>2026-08-08T10:16:50Z</time>
      </trkpt>
      <trkpt lat="45.73937" lon="1.20627">
        <ele>344.08627</ele>
        <time>2026-08-08T10:16:51Z</time>
      </trkpt>
      <trkpt lat="45.73936" lon="1.20631">
        <ele>344.08627</ele>
        <time>2026-08-08T10:16:52Z</time>
      </trkpt>
      <trkpt lat="45.73933" lon="1.20634">
        <ele>344.08627</ele>
        <time>2026-08-08T10:16:53Z</time>
      </trkpt>
      <trkpt lat="45.73931" lon="1.20637">
        <ele>344.08627</ele>
        <time>2026-08-08T10:16:54Z</time>
      </trkpt>
      <trkpt lat="45.73929" lon="1.2064">
        <ele>344.08627</ele>
        <time>2026-08-08T10:16:55Z</time>
      </trkpt>
      <trkpt lat="45.73926" lon="1.20642">
        <ele>344.08627</ele>
        <time>2026-08-08T10:16:56Z</time>
      </trkpt>
      <trkpt lat="45.73924" lon="1.20645">
        <ele>345.08627</ele>
        <time>2026-08-08T10:16:57Z</time>
      </trkpt>
      <trkpt lat="45.73922" lon="1.20647">
        <ele>345.08627</ele>
        <time>2026-08-08T10:16:58Z</time>
      </trkpt>
      <trkpt lat="45.73919" lon="1.2065">
        <ele>345.08627</ele>
        <time>2026-08-08T10:16:59Z</time>
      </trkpt>
      <trkpt lat="45.73917" lon="1.20653">
        <ele>346.08627</ele>
        <time>2026-08-08T10:17:00Z</time>
      </trkpt>
      <trkpt lat="45.73914" lon="1.20656">
        <ele>346.08627</ele>
        <time>2026-08-08T10:17:01Z</time>
      </trkpt>
      <trkpt lat="45.73912" lon="1.20659">
        <ele>347.08627</ele>
        <time>2026-08-08T10:17:02Z</time>
      </trkpt>
      <trkpt lat="45.7391" lon="1.20662">
        <ele>347.08627</ele>
        <time>2026-08-08T10:17:03Z</time>
      </trkpt>
      <trkpt lat="45.73907" lon="1.20664">
        <ele>348.08627</ele>
        <time>2026-08-08T10:17:04Z</time>
      </trkpt>
      <trkpt lat="45.73906" lon="1.20667">
        <ele>348.08627</ele>
        <time>2026-08-08T10:17:05Z</time>
      </trkpt>
      <trkpt lat="45.73904" lon="1.2067">
        <ele>348.08627</ele>
        <time>2026-08-08T10:17:06Z</time>
      </trkpt>
      <trkpt lat="45.73902" lon="1.20674">
        <ele>348.08627</ele>
        <time>2026-08-08T10:17:07Z</time>
      </trkpt>
      <trkpt lat="45.73901" lon="1.20676">
        <ele>348.08627</ele>
        <time>2026-08-08T10:17:08Z</time>
      </trkpt>
      <trkpt lat="45.73899" lon="1.20679">
        <ele>348.08627</ele>
        <time>2026-08-08T10:17:09Z</time>
      </trkpt>
      <trkpt lat="45.73897" lon="1.20682">
        <ele>348.08627</ele>
        <time>2026-08-08T10:17:10Z</time>
      </trkpt>
      <trkpt lat="45.73895" lon="1.20684">
        <ele>348.08627</ele>
        <time>2026-08-08T10:17:11Z</time>
      </trkpt>
      <trkpt lat="45.73892" lon="1.20687">
        <ele>349.08627</ele>
        <time>2026-08-08T10:17:12Z</time>
      </trkpt>
      <trkpt lat="45.7389" lon="1.2069">
        <ele>349.08627</ele>
        <time>2026-08-08T10:17:13Z</time>
      </trkpt>
      <trkpt lat="45.73888" lon="1.20693">
        <ele>349.08627</ele>
        <time>2026-08-08T10:17:14Z</time>
      </trkpt>
      <trkpt lat="45.73886" lon="1.20695">
        <ele>349.08627</ele>
        <time>2026-08-08T10:17:15Z</time>
      </trkpt>
      <trkpt lat="45.73884" lon="1.20698">
        <ele>349.08627</ele>
        <time>2026-08-08T10:17:16Z</time>
      </trkpt>
      <trkpt lat="45.73882" lon="1.20702">
        <ele>349.08627</ele>
        <time>2026-08-08T10:17:17Z</time>
      </trkpt>
      <trkpt lat="45.73881" lon="1.20706">
        <ele>350.08627</ele>
        <time>2026-08-08T10:17:18Z</time>
      </trkpt>
      <trkpt lat="45.73879" lon="1.2071">
        <ele>350.08627</ele>
        <time>2026-08-08T10:17:19Z</time>
      </trkpt>
      <trkpt lat="45.73877" lon="1.20712">
        <ele>351.08627</ele>
        <time>2026-08-08T10:17:20Z</time>
      </trkpt>
      <trkpt lat="45.73875" lon="1.20715">
        <ele>351.08627</ele>
        <time>2026-08-08T10:17:21Z</time>
      </trkpt>
      <trkpt lat="45.73873" lon="1.20717">
        <ele>351.08627</ele>
        <time>2026-08-08T10:17:22Z</time>
      </trkpt>
      <trkpt lat="45.7387" lon="1.2072">
        <ele>351.08627</ele>
        <time>2026-08-08T10:17:23Z</time>
      </trkpt>
      <trkpt lat="45.73868" lon="1.20724">
        <ele>351.08627</ele>
        <time>2026-08-08T10:17:24Z</time>
      </trkpt>
      <trkpt lat="45.73866" lon="1.20727">
        <ele>351.08627</ele>
        <time>2026-08-08T10:17:25Z</time>
      </trkpt>
      <trkpt lat="45.73864" lon="1.2073">
        <ele>350.08627</ele>
        <time>2026-08-08T10:17:26Z</time>
      </trkpt>
      <trkpt lat="45.73861" lon="1.20732">
        <ele>350.08627</ele>
        <time>2026-08-08T10:17:27Z</time>
      </trkpt>
      <trkpt lat="45.73859" lon="1.20735">
        <ele>351.08627</ele>
        <time>2026-08-08T10:17:28Z</time>
      </trkpt>
      <trkpt lat="45.73857" lon="1.20738">
        <ele>351.08627</ele>
        <time>2026-08-08T10:17:29Z</time>
      </trkpt>
      <trkpt lat="45.73854" lon="1.20742">
        <ele>351.08627</ele>
        <time>2026-08-08T10:17:30Z</time>
      </trkpt>
      <trkpt lat="45.73852" lon="1.20746">
        <ele>351.08627</ele>
        <time>2026-08-08T10:17:31Z</time>
      </trkpt>
      <trkpt lat="45.7385" lon="1.20749">
        <ele>351.08627</ele>
        <time>2026-08-08T10:17:32Z</time>
      </trkpt>
      <trkpt lat="45.73848" lon="1.20751">
        <ele>351.08627</ele>
        <time>2026-08-08T10:17:33Z</time>
      </trkpt>
      <trkpt lat="45.73845" lon="1.20755">
        <ele>351.08627</ele>
        <time>2026-08-08T10:17:34Z</time>
      </trkpt>
      <trkpt lat="45.73844" lon="1.20758">
        <ele>351.08627</ele>
        <time>2026-08-08T10:17:35Z</time>
      </trkpt>
      <trkpt lat="45.73842" lon="1.20761">
        <ele>351.08627</ele>
        <time>2026-08-08T10:17:36Z</time>
      </trkpt>
      <trkpt lat="45.73839" lon="1.20764">
        <ele>351.08627</ele>
        <time>2026-08-08T10:17:37Z</time>
      </trkpt>
      <trkpt lat="45.73837" lon="1.20767">
        <ele>351.08627</ele>
        <time>2026-08-08T10:17:38Z</time>
      </trkpt>
      <trkpt lat="45.73835" lon="1.2077">
        <ele>351.08627</ele>
        <time>2026-08-08T10:17:39Z</time>
      </trkpt>
      <trkpt lat="45.73833" lon="1.20773">
        <ele>351.08627</ele>
        <time>2026-08-08T10:17:40Z</time>
      </trkpt>
      <trkpt lat="45.73831" lon="1.20777">
        <ele>351.08627</ele>
        <time>2026-08-08T10:17:41Z</time>
      </trkpt>
      <trkpt lat="45.73829" lon="1.2078">
        <ele>352.08627</ele>
        <time>2026-08-08T10:17:42Z</time>
      </trkpt>
      <trkpt lat="45.73827" lon="1.20784">
        <ele>351.08627</ele>
        <time>2026-08-08T10:17:43Z</time>
      </trkpt>
      <trkpt lat="45.73824" lon="1.20788">
        <ele>352.08627</ele>
        <time>2026-08-08T10:17:44Z</time>
      </trkpt>
      <trkpt lat="45.73821" lon="1.20792">
        <ele>353.08627</ele>
        <time>2026-08-08T10:17:45Z</time>
      </trkpt>
      <trkpt lat="45.73818" lon="1.20795">
        <ele>353.08627</ele>
        <time>2026-08-08T10:17:46Z</time>
      </trkpt>
      <trkpt lat="45.73816" lon="1.20797">
        <ele>353.08627</ele>
        <time>2026-08-08T10:17:47Z</time>
      </trkpt>
      <trkpt lat="45.73813" lon="1.20799">
        <ele>353.08627</ele>
        <time>2026-08-08T10:17:48Z</time>
      </trkpt>
      <trkpt lat="45.73811" lon="1.208">
        <ele>353.08627</ele>
        <time>2026-08-08T10:17:49Z</time>
      </trkpt>
      <trkpt lat="45.73809" lon="1.20799">
        <ele>353.08627</ele>
        <time>2026-08-08T10:17:50Z</time>
      </trkpt>
      <trkpt lat="45.73808" lon="1.20797">
        <ele>353.08627</ele>
        <time>2026-08-08T10:17:51Z</time>
      </trkpt>
      <trkpt lat="45.73806" lon="1.20794">
        <ele>353.08627</ele>
        <time>2026-08-08T10:17:52Z</time>
      </trkpt>
      <trkpt lat="45.73805" lon="1.2079">
        <ele>353.08627</ele>
        <time>2026-08-08T10:17:53Z</time>
      </trkpt>
      <trkpt lat="45.73805" lon="1.20785">
        <ele>353.08627</ele>
        <time>2026-08-08T10:17:54Z</time>
      </trkpt>
      <trkpt lat="45.73804" lon="1.2078">
        <ele>353.08627</ele>
        <time>2026-08-08T10:17:55Z</time>
      </trkpt>
      <trkpt lat="45.73802" lon="1.20776">
        <ele>353.08627</ele>
        <time>2026-08-08T10:17:56Z</time>
      </trkpt>
      <trkpt lat="45.73799" lon="1.20772">
        <ele>354.08627</ele>
        <time>2026-08-08T10:17:57Z</time>
      </trkpt>
      <trkpt lat="45.73796" lon="1.20769">
        <ele>354.08627</ele>
        <time>2026-08-08T10:17:58Z</time>
      </trkpt>
      <trkpt lat="45.73792" lon="1.20765">
        <ele>354.08627</ele>
        <time>2026-08-08T10:17:59Z</time>
      </trkpt>
      <trkpt lat="45.73789" lon="1.20763">
        <ele>353.08627</ele>
        <time>2026-08-08T10:18:00Z</time>
      </trkpt>
      <trkpt lat="45.73784" lon="1.2076">
        <ele>353.08627</ele>
        <time>2026-08-08T10:18:01Z</time>
      </trkpt>
      <trkpt lat="45.7378" lon="1.2076">
        <ele>353.08627</ele>
        <time>2026-08-08T10:18:02Z</time>
      </trkpt>
      <trkpt lat="45.73776" lon="1.20759">
        <ele>353.08627</ele>
        <time>2026-08-08T10:18:03Z</time>
      </trkpt>
      <trkpt lat="45.73772" lon="1.20757">
        <ele>353.08627</ele>
        <time>2026-08-08T10:18:04Z</time>
      </trkpt>
      <trkpt lat="45.73767" lon="1.20756">
        <ele>352.08627</ele>
        <time>2026-08-08T10:18:05Z</time>
      </trkpt>
      <trkpt lat="45.73763" lon="1.20755">
        <ele>352.08627</ele>
        <time>2026-08-08T10:18:06Z</time>
      </trkpt>
      <trkpt lat="45.73758" lon="1.20756">
        <ele>352.08627</ele>
        <time>2026-08-08T10:18:07Z</time>
      </trkpt>
      <trkpt lat="45.73755" lon="1.20757">
        <ele>352.08627</ele>
        <time>2026-08-08T10:18:08Z</time>
      </trkpt>
      <trkpt lat="45.73751" lon="1.20759">
        <ele>352.08627</ele>
        <time>2026-08-08T10:18:09Z</time>
      </trkpt>
      <trkpt lat="45.73748" lon="1.20762">
        <ele>352.08627</ele>
        <time>2026-08-08T10:18:10Z</time>
      </trkpt>
      <trkpt lat="45.73745" lon="1.20764">
        <ele>352.08627</ele>
        <time>2026-08-08T10:18:11Z</time>
      </trkpt>
      <trkpt lat="45.73741" lon="1.20767">
        <ele>352.08627</ele>
        <time>2026-08-08T10:18:12Z</time>
      </trkpt>
      <trkpt lat="45.73739" lon="1.2077">
        <ele>352.08627</ele>
        <time>2026-08-08T10:18:13Z</time>
      </trkpt>
      <trkpt lat="45.73736" lon="1.20773">
        <ele>352.08627</ele>
        <time>2026-08-08T10:18:14Z</time>
      </trkpt>
      <trkpt lat="45.73733" lon="1.20775">
        <ele>353.08627</ele>
        <time>2026-08-08T10:18:15Z</time>
      </trkpt>
      <trkpt lat="45.7373" lon="1.20778">
        <ele>353.08627</ele>
        <time>2026-08-08T10:18:16Z</time>
      </trkpt>
      <trkpt lat="45.73726" lon="1.2078">
        <ele>353.08627</ele>
        <time>2026-08-08T10:18:17Z</time>
      </trkpt>
      <trkpt lat="45.73723" lon="1.20783">
        <ele>353.08627</ele>
        <time>2026-08-08T10:18:18Z</time>
      </trkpt>
      <trkpt lat="45.7372" lon="1.20785">
        <ele>353.08627</ele>
        <time>2026-08-08T10:18:19Z</time>
      </trkpt>
      <trkpt lat="45.73717" lon="1.20788">
        <ele>353.08627</ele>
        <time>2026-08-08T10:18:20Z</time>
      </trkpt>
      <trkpt lat="45.73713" lon="1.2079">
        <ele>353.08627</ele>
        <time>2026-08-08T10:18:21Z</time>
      </trkpt>
      <trkpt lat="45.7371" lon="1.20792">
        <ele>353.08627</ele>
        <time>2026-08-08T10:18:22Z</time>
      </trkpt>
      <trkpt lat="45.73707" lon="1.20794">
        <ele>353.08627</ele>
        <time>2026-08-08T10:18:23Z</time>
      </trkpt>
      <trkpt lat="45.73704" lon="1.20795">
        <ele>353.08627</ele>
        <time>2026-08-08T10:18:24Z</time>
      </trkpt>
      <trkpt lat="45.73701" lon="1.20797">
        <ele>354.08627</ele>
        <time>2026-08-08T10:18:25Z</time>
      </trkpt>
      <trkpt lat="45.73697" lon="1.20798">
        <ele>354.08627</ele>
        <time>2026-08-08T10:18:26Z</time>
      </trkpt>
      <trkpt lat="45.73694" lon="1.20799">
        <ele>354.08627</ele>
        <time>2026-08-08T10:18:27Z</time>
      </trkpt>
      <trkpt lat="45.73691" lon="1.208">
        <ele>354.08627</ele>
        <time>2026-08-08T10:18:28Z</time>
      </trkpt>
      <trkpt lat="45.73688" lon="1.20801">
        <ele>354.08627</ele>
        <time>2026-08-08T10:18:29Z</time>
      </trkpt>
      <trkpt lat="45.73685" lon="1.20803">
        <ele>355.08627</ele>
        <time>2026-08-08T10:18:30Z</time>
      </trkpt>
      <trkpt lat="45.73682" lon="1.20804">
        <ele>355.08627</ele>
        <time>2026-08-08T10:18:31Z</time>
      </trkpt>
      <trkpt lat="45.73679" lon="1.20806">
        <ele>355.08627</ele>
        <time>2026-08-08T10:18:32Z</time>
      </trkpt>
      <trkpt lat="45.73675" lon="1.20807">
        <ele>355.08627</ele>
        <time>2026-08-08T10:18:33Z</time>
      </trkpt>
      <trkpt lat="45.73672" lon="1.20808">
        <ele>355.08627</ele>
        <time>2026-08-08T10:18:34Z</time>
      </trkpt>
      <trkpt lat="45.73669" lon="1.2081">
        <ele>355.08627</ele>
        <time>2026-08-08T10:18:35Z</time>
      </trkpt>
      <trkpt lat="45.73665" lon="1.20813">
        <ele>354.08627</ele>
        <time>2026-08-08T10:18:36Z</time>
      </trkpt>
      <trkpt lat="45.73662" lon="1.20816">
        <ele>355.08627</ele>
        <time>2026-08-08T10:18:37Z</time>
      </trkpt>
      <trkpt lat="45.73659" lon="1.20819">
        <ele>354.08627</ele>
        <time>2026-08-08T10:18:38Z</time>
      </trkpt>
      <trkpt lat="45.73656" lon="1.20822">
        <ele>354.08627</ele>
        <time>2026-08-08T10:18:39Z</time>
      </trkpt>
      <trkpt lat="45.73654" lon="1.20824">
        <ele>355.08627</ele>
        <time>2026-08-08T10:18:40Z</time>
      </trkpt>
      <trkpt lat="45.73651" lon="1.20827">
        <ele>355.08627</ele>
        <time>2026-08-08T10:18:41Z</time>
      </trkpt>
      <trkpt lat="45.73649" lon="1.20831">
        <ele>355.08627</ele>
        <time>2026-08-08T10:18:42Z</time>
      </trkpt>
      <trkpt lat="45.73647" lon="1.20835">
        <ele>355.08627</ele>
        <time>2026-08-08T10:18:43Z</time>
      </trkpt>
      <trkpt lat="45.73644" lon="1.20838">
        <ele>355.08627</ele>
        <time>2026-08-08T10:18:44Z</time>
      </trkpt>
      <trkpt lat="45.73642" lon="1.20842">
        <ele>356.08627</ele>
        <time>2026-08-08T10:18:45Z</time>
      </trkpt>
      <trkpt lat="45.73639" lon="1.20846">
        <ele>356.08627</ele>
        <time>2026-08-08T10:18:46Z</time>
      </trkpt>
      <trkpt lat="45.73636" lon="1.20851">
        <ele>356.08627</ele>
        <time>2026-08-08T10:18:47Z</time>
      </trkpt>
      <trkpt lat="45.73633" lon="1.20855">
        <ele>356.08627</ele>
        <time>2026-08-08T10:18:48Z</time>
      </trkpt>
      <trkpt lat="45.7363" lon="1.20859">
        <ele>356.08627</ele>
        <time>2026-08-08T10:18:49Z</time>
      </trkpt>
      <trkpt lat="45.73627" lon="1.20863">
        <ele>356.08627</ele>
        <time>2026-08-08T10:18:50Z</time>
      </trkpt>
      <trkpt lat="45.73624" lon="1.20866">
        <ele>356.08627</ele>
        <time>2026-08-08T10:18:51Z</time>
      </trkpt>
      <trkpt lat="45.73621" lon="1.2087">
        <ele>356.08627</ele>
        <time>2026-08-08T10:18:52Z</time>
      </trkpt>
      <trkpt lat="45.73618" lon="1.20874">
        <ele>356.08627</ele>
        <time>2026-08-08T10:18:53Z</time>
      </trkpt>
      <trkpt lat="45.73615" lon="1.20878">
        <ele>356.08627</ele>
        <time>2026-08-08T10:18:54Z</time>
      </trkpt>
      <trkpt lat="45.73612" lon="1.20883">
        <ele>355.08627</ele>
        <time>2026-08-08T10:18:55Z</time>
      </trkpt>
      <trkpt lat="45.73608" lon="1.20887">
        <ele>355.08627</ele>
        <time>2026-08-08T10:18:56Z</time>
      </trkpt>
      <trkpt lat="45.73605" lon="1.20891">
        <ele>354.08627</ele>
        <time>2026-08-08T10:18:57Z</time>
      </trkpt>
      <trkpt lat="45.73601" lon="1.20894">
        <ele>354.08627</ele>
        <time>2026-08-08T10:18:58Z</time>
      </trkpt>
      <trkpt lat="45.73597" lon="1.20898">
        <ele>354.08627</ele>
        <time>2026-08-08T10:18:59Z</time>
      </trkpt>
      <trkpt lat="45.73593" lon="1.20901">
        <ele>355.08627</ele>
        <time>2026-08-08T10:19:00Z</time>
      </trkpt>
      <trkpt lat="45.73589" lon="1.20904">
        <ele>355.08627</ele>
        <time>2026-08-08T10:19:01Z</time>
      </trkpt>
      <trkpt lat="45.73585" lon="1.20907">
        <ele>354.08627</ele>
        <time>2026-08-08T10:19:02Z</time>
      </trkpt>
      <trkpt lat="45.73583" lon="1.20909">
        <ele>354.08627</ele>
        <time>2026-08-08T10:19:03Z</time>
      </trkpt>
      <trkpt lat="45.7358" lon="1.2091">
        <ele>354.08627</ele>
        <time>2026-08-08T10:19:04Z</time>
      </trkpt>
      <trkpt lat="45.73578" lon="1.20912">
        <ele>354.08627</ele>
        <time>2026-08-08T10:19:05Z</time>
      </trkpt>
      <trkpt lat="45.73576" lon="1.20915">
        <ele>354.08627</ele>
        <time>2026-08-08T10:19:06Z</time>
      </trkpt>
      <trkpt lat="45.73574" lon="1.20917">
        <ele>354.08627</ele>
        <time>2026-08-08T10:19:07Z</time>
      </trkpt>
      <trkpt lat="45.73572" lon="1.20919">
        <ele>353.08627</ele>
        <time>2026-08-08T10:19:08Z</time>
      </trkpt>
      <trkpt lat="45.7357" lon="1.20921">
        <ele>353.08627</ele>
        <time>2026-08-08T10:19:09Z</time>
      </trkpt>
      <trkpt lat="45.73568" lon="1.20923">
        <ele>353.08627</ele>
        <time>2026-08-08T10:19:10Z</time>
      </trkpt>
      <trkpt lat="45.73566" lon="1.20925">
        <ele>353.08627</ele>
        <time>2026-08-08T10:19:11Z</time>
      </trkpt>
      <trkpt lat="45.73564" lon="1.20925">
        <ele>352.08627</ele>
        <time>2026-08-08T10:19:12Z</time>
      </trkpt>
      <trkpt lat="45.73562" lon="1.20927">
        <ele>352.08627</ele>
        <time>2026-08-08T10:19:13Z</time>
      </trkpt>
      <trkpt lat="45.73561" lon="1.20927">
        <ele>352.08627</ele>
        <time>2026-08-08T10:19:14Z</time>
      </trkpt>
      <trkpt lat="45.73559" lon="1.20929">
        <ele>352.08627</ele>
        <time>2026-08-08T10:19:15Z</time>
      </trkpt>
      <trkpt lat="45.73558" lon="1.20932">
        <ele>351.08627</ele>
        <time>2026-08-08T10:19:16Z</time>
      </trkpt>
      <trkpt lat="45.73556" lon="1.20935">
        <ele>351.08627</ele>
        <time>2026-08-08T10:19:17Z</time>
      </trkpt>
      <trkpt lat="45.73554" lon="1.20937">
        <ele>351.08627</ele>
        <time>2026-08-08T10:19:18Z</time>
      </trkpt>
      <trkpt lat="45.73552" lon="1.2094">
        <ele>351.08627</ele>
        <time>2026-08-08T10:19:19Z</time>
      </trkpt>
      <trkpt lat="45.7355" lon="1.20943">
        <ele>351.08627</ele>
        <time>2026-08-08T10:19:20Z</time>
      </trkpt>
      <trkpt lat="45.73548" lon="1.20945">
        <ele>350.08627</ele>
        <time>2026-08-08T10:19:21Z</time>
      </trkpt>
      <trkpt lat="45.73547" lon="1.20948">
        <ele>350.08627</ele>
        <time>2026-08-08T10:19:22Z</time>
      </trkpt>
      <trkpt lat="45.73545" lon="1.20952">
        <ele>350.08627</ele>
        <time>2026-08-08T10:19:23Z</time>
      </trkpt>
      <trkpt lat="45.73544" lon="1.20955">
        <ele>350.08627</ele>
        <time>2026-08-08T10:19:24Z</time>
      </trkpt>
      <trkpt lat="45.73543" lon="1.20958">
        <ele>350.08627</ele>
        <time>2026-08-08T10:19:25Z</time>
      </trkpt>
      <trkpt lat="45.73541" lon="1.2096">
        <ele>350.08627</ele>
        <time>2026-08-08T10:19:26Z</time>
      </trkpt>
      <trkpt lat="45.7354" lon="1.20963">
        <ele>349.08627</ele>
        <time>2026-08-08T10:19:27Z</time>
      </trkpt>
      <trkpt lat="45.7354" lon="1.20965">
        <ele>349.08627</ele>
        <time>2026-08-08T10:19:28Z</time>
      </trkpt>
      <trkpt lat="45.73539" lon="1.20967">
        <ele>349.08627</ele>
        <time>2026-08-08T10:19:29Z</time>
      </trkpt>
      <trkpt lat="45.73538" lon="1.20969">
        <ele>348.08627</ele>
        <time>2026-08-08T10:19:30Z</time>
      </trkpt>
      <trkpt lat="45.73537" lon="1.20971">
        <ele>348.08627</ele>
        <time>2026-08-08T10:19:31Z</time>
      </trkpt>
      <trkpt lat="45.73536" lon="1.20973">
        <ele>348.08627</ele>
        <time>2026-08-08T10:19:32Z</time>
      </trkpt>
      <trkpt lat="45.73535" lon="1.20976">
        <ele>348.08627</ele>
        <time>2026-08-08T10:19:33Z</time>
      </trkpt>
      <trkpt lat="45.73534" lon="1.2098">
        <ele>348.08627</ele>
        <time>2026-08-08T10:19:34Z</time>
      </trkpt>
      <trkpt lat="45.73532" lon="1.20983">
        <ele>347.08627</ele>
        <time>2026-08-08T10:19:35Z</time>
      </trkpt>
      <trkpt lat="45.73532" lon="1.20986">
        <ele>347.08627</ele>
        <time>2026-08-08T10:19:36Z</time>
      </trkpt>
      <trkpt lat="45.7353" lon="1.20989">
        <ele>347.08627</ele>
        <time>2026-08-08T10:19:37Z</time>
      </trkpt>
      <trkpt lat="45.73529" lon="1.20993">
        <ele>347.08627</ele>
        <time>2026-08-08T10:19:38Z</time>
      </trkpt>
      <trkpt lat="45.73529" lon="1.20995">
        <ele>347.08627</ele>
        <time>2026-08-08T10:19:39Z</time>
      </trkpt>
      <trkpt lat="45.73527" lon="1.20997">
        <ele>347.08627</ele>
        <time>2026-08-08T10:19:40Z</time>
      </trkpt>
      <trkpt lat="45.73526" lon="1.21">
        <ele>347.08627</ele>
        <time>2026-08-08T10:19:41Z</time>
      </trkpt>
      <trkpt lat="45.73525" lon="1.21002">
        <ele>346.08627</ele>
        <time>2026-08-08T10:19:42Z</time>
      </trkpt>
      <trkpt lat="45.73523" lon="1.21005">
        <ele>346.08627</ele>
        <time>2026-08-08T10:19:43Z</time>
      </trkpt>
      <trkpt lat="45.73522" lon="1.21008">
        <ele>345.08627</ele>
        <time>2026-08-08T10:19:44Z</time>
      </trkpt>
      <trkpt lat="45.73521" lon="1.21011">
        <ele>345.08627</ele>
        <time>2026-08-08T10:19:45Z</time>
      </trkpt>
      <trkpt lat="45.7352" lon="1.21014">
        <ele>344.08627</ele>
        <time>2026-08-08T10:19:46Z</time>
      </trkpt>
      <trkpt lat="45.73518" lon="1.21017">
        <ele>344.08627</ele>
        <time>2026-08-08T10:19:47Z</time>
      </trkpt>
      <trkpt lat="45.73517" lon="1.21021">
        <ele>344.08627</ele>
        <time>2026-08-08T10:19:48Z</time>
      </trkpt>
      <trkpt lat="45.73515" lon="1.21026">
        <ele>344.08627</ele>
        <time>2026-08-08T10:19:49Z</time>
      </trkpt>
      <trkpt lat="45.73513" lon="1.2103">
        <ele>344.08627</ele>
        <time>2026-08-08T10:19:50Z</time>
      </trkpt>
      <trkpt lat="45.73511" lon="1.21035">
        <ele>344.08627</ele>
        <time>2026-08-08T10:19:51Z</time>
      </trkpt>
      <trkpt lat="45.73507" lon="1.2104">
        <ele>343.08627</ele>
        <time>2026-08-08T10:19:52Z</time>
      </trkpt>
      <trkpt lat="45.73506" lon="1.21044">
        <ele>342.08627</ele>
        <time>2026-08-08T10:19:53Z</time>
      </trkpt>
      <trkpt lat="45.73504" lon="1.21047">
        <ele>341.08627</ele>
        <time>2026-08-08T10:19:54Z</time>
      </trkpt>
      <trkpt lat="45.73503" lon="1.21051">
        <ele>341.08627</ele>
        <time>2026-08-08T10:19:55Z</time>
      </trkpt>
      <trkpt lat="45.73501" lon="1.21054">
        <ele>342.08627</ele>
        <time>2026-08-08T10:19:56Z</time>
      </trkpt>
      <trkpt lat="45.73499" lon="1.21057">
        <ele>341.08627</ele>
        <time>2026-08-08T10:19:57Z</time>
      </trkpt>
      <trkpt lat="45.73496" lon="1.21061">
        <ele>341.08627</ele>
        <time>2026-08-08T10:19:58Z</time>
      </trkpt>
      <trkpt lat="45.73494" lon="1.21066">
        <ele>340.08627</ele>
        <time>2026-08-08T10:19:59Z</time>
      </trkpt>
      <trkpt lat="45.73491" lon="1.21071">
        <ele>339.08627</ele>
        <time>2026-08-08T10:20:00Z</time>
      </trkpt>
      <trkpt lat="45.73489" lon="1.21075">
        <ele>338.08627</ele>
        <time>2026-08-08T10:20:01Z</time>
      </trkpt>
      <trkpt lat="45.73487" lon="1.21081">
        <ele>338.08627</ele>
        <time>2026-08-08T10:20:02Z</time>
      </trkpt>
      <trkpt lat="45.73486" lon="1.21086">
        <ele>338.08627</ele>
        <time>2026-08-08T10:20:03Z</time>
      </trkpt>
      <trkpt lat="45.73485" lon="1.21091">
        <ele>338.08627</ele>
        <time>2026-08-08T10:20:04Z</time>
      </trkpt>
      <trkpt lat="45.73483" lon="1.21097">
        <ele>337.08627</ele>
        <time>2026-08-08T10:20:05Z</time>
      </trkpt>
      <trkpt lat="45.73482" lon="1.21101">
        <ele>337.08627</ele>
        <time>2026-08-08T10:20:06Z</time>
      </trkpt>
      <trkpt lat="45.73481" lon="1.21104">
        <ele>337.08627</ele>
        <time>2026-08-08T10:20:07Z</time>
      </trkpt>
      <trkpt lat="45.7348" lon="1.21108">
        <ele>337.08627</ele>
        <time>2026-08-08T10:20:08Z</time>
      </trkpt>
      <trkpt lat="45.7348" lon="1.21111">
        <ele>337.08627</ele>
        <time>2026-08-08T10:20:09Z</time>
      </trkpt>
      <trkpt lat="45.73479" lon="1.21115">
        <ele>337.08627</ele>
        <time>2026-08-08T10:20:10Z</time>
      </trkpt>
      <trkpt lat="45.73479" lon="1.21119">
        <ele>337.08627</ele>
        <time>2026-08-08T10:20:11Z</time>
      </trkpt>
      <trkpt lat="45.73479" lon="1.21123">
        <ele>337.08627</ele>
        <time>2026-08-08T10:20:12Z</time>
      </trkpt>
      <trkpt lat="45.73479" lon="1.21127">
        <ele>336.08627</ele>
        <time>2026-08-08T10:20:13Z</time>
      </trkpt>
      <trkpt lat="45.73477" lon="1.21133">
        <ele>336.08627</ele>
        <time>2026-08-08T10:20:14Z</time>
      </trkpt>
      <trkpt lat="45.73476" lon="1.21138">
        <ele>336.08627</ele>
        <time>2026-08-08T10:20:15Z</time>
      </trkpt>
      <trkpt lat="45.73474" lon="1.21145">
        <ele>335.08627</ele>
        <time>2026-08-08T10:20:16Z</time>
      </trkpt>
      <trkpt lat="45.7347" lon="1.21152">
        <ele>335.08627</ele>
        <time>2026-08-08T10:20:17Z</time>
      </trkpt>
      <trkpt lat="45.73468" lon="1.21158">
        <ele>334.08627</ele>
        <time>2026-08-08T10:20:18Z</time>
      </trkpt>
      <trkpt lat="45.73466" lon="1.21165">
        <ele>334.08627</ele>
        <time>2026-08-08T10:20:19Z</time>
      </trkpt>
      <trkpt lat="45.73463" lon="1.21171">
        <ele>334.08627</ele>
        <time>2026-08-08T10:20:20Z</time>
      </trkpt>
      <trkpt lat="45.73461" lon="1.21176">
        <ele>334.08627</ele>
        <time>2026-08-08T10:20:21Z</time>
      </trkpt>
      <trkpt lat="45.73459" lon="1.21181">
        <ele>334.08627</ele>
        <time>2026-08-08T10:20:22Z</time>
      </trkpt>
      <trkpt lat="45.73458" lon="1.21185">
        <ele>334.08627</ele>
        <time>2026-08-08T10:20:23Z</time>
      </trkpt>
      <trkpt lat="45.73457" lon="1.21189">
        <ele>334.08627</ele>
        <time>2026-08-08T10:20:24Z</time>
      </trkpt>
      <trkpt lat="45.73456" lon="1.21193">
        <ele>335.08627</ele>
        <time>2026-08-08T10:20:25Z</time>
      </trkpt>
      <trkpt lat="45.73455" lon="1.21197">
        <ele>335.08627</ele>
        <time>2026-08-08T10:20:26Z</time>
      </trkpt>
      <trkpt lat="45.73453" lon="1.21202">
        <ele>335.08627</ele>
        <time>2026-08-08T10:20:27Z</time>
      </trkpt>
      <trkpt lat="45.73451" lon="1.21207">
        <ele>335.08627</ele>
        <time>2026-08-08T10:20:28Z</time>
      </trkpt>
      <trkpt lat="45.73449" lon="1.21211">
        <ele>335.08627</ele>
        <time>2026-08-08T10:20:29Z</time>
      </trkpt>
      <trkpt lat="45.73448" lon="1.21215">
        <ele>336.08627</ele>
        <time>2026-08-08T10:20:30Z</time>
      </trkpt>
      <trkpt lat="45.73447" lon="1.21219">
        <ele>336.08627</ele>
        <time>2026-08-08T10:20:31Z</time>
      </trkpt>
      <trkpt lat="45.73445" lon="1.21223">
        <ele>337.08627</ele>
        <time>2026-08-08T10:20:32Z</time>
      </trkpt>
      <trkpt lat="45.73444" lon="1.21227">
        <ele>337.08627</ele>
        <time>2026-08-08T10:20:33Z</time>
      </trkpt>
      <trkpt lat="45.73443" lon="1.21231">
        <ele>337.08627</ele>
        <time>2026-08-08T10:20:34Z</time>
      </trkpt>
      <trkpt lat="45.73443" lon="1.21236">
        <ele>337.08627</ele>
        <time>2026-08-08T10:20:35Z</time>
      </trkpt>
      <trkpt lat="45.73442" lon="1.2124">
        <ele>337.08627</ele>
        <time>2026-08-08T10:20:36Z</time>
      </trkpt>
      <trkpt lat="45.73442" lon="1.21244">
        <ele>337.08627</ele>
        <time>2026-08-08T10:20:37Z</time>
      </trkpt>
      <trkpt lat="45.7344" lon="1.21247">
        <ele>338.08627</ele>
        <time>2026-08-08T10:20:38Z</time>
      </trkpt>
      <trkpt lat="45.73439" lon="1.21251">
        <ele>338.08627</ele>
        <time>2026-08-08T10:20:39Z</time>
      </trkpt>
      <trkpt lat="45.73438" lon="1.21254">
        <ele>338.08627</ele>
        <time>2026-08-08T10:20:40Z</time>
      </trkpt>
      <trkpt lat="45.73436" lon="1.21257">
        <ele>339.08627</ele>
        <time>2026-08-08T10:20:41Z</time>
      </trkpt>
      <trkpt lat="45.73435" lon="1.21261">
        <ele>339.08627</ele>
        <time>2026-08-08T10:20:42Z</time>
      </trkpt>
      <trkpt lat="45.73433" lon="1.21263">
        <ele>339.08627</ele>
        <time>2026-08-08T10:20:43Z</time>
      </trkpt>
      <trkpt lat="45.73431" lon="1.21265">
        <ele>339.08627</ele>
        <time>2026-08-08T10:20:44Z</time>
      </trkpt>
      <trkpt lat="45.7343" lon="1.21269">
        <ele>340.08627</ele>
        <time>2026-08-08T10:20:45Z</time>
      </trkpt>
      <trkpt lat="45.73428" lon="1.21272">
        <ele>340.08627</ele>
        <time>2026-08-08T10:20:46Z</time>
      </trkpt>
      <trkpt lat="45.73427" lon="1.21275">
        <ele>340.08627</ele>
        <time>2026-08-08T10:20:47Z</time>
      </trkpt>
      <trkpt lat="45.73422" lon="1.21281">
        <ele>341.08627</ele>
        <time>2026-08-08T10:20:49Z</time>
      </trkpt>
      <trkpt lat="45.7342" lon="1.21284">
        <ele>341.08627</ele>
        <time>2026-08-08T10:20:50Z</time>
      </trkpt>
      <trkpt lat="45.73417" lon="1.21287">
        <ele>342.08627</ele>
        <time>2026-08-08T10:20:51Z</time>
      </trkpt>
      <trkpt lat="45.73412" lon="1.21293">
        <ele>342.08627</ele>
        <time>2026-08-08T10:20:53Z</time>
      </trkpt>
      <trkpt lat="45.7341" lon="1.21296">
        <ele>343.08627</ele>
        <time>2026-08-08T10:20:54Z</time>
      </trkpt>
      <trkpt lat="45.73407" lon="1.21299">
        <ele>343.08627</ele>
        <time>2026-08-08T10:20:55Z</time>
      </trkpt>
      <trkpt lat="45.73403" lon="1.21305">
        <ele>343.08627</ele>
        <time>2026-08-08T10:20:57Z</time>
      </trkpt>
      <trkpt lat="45.734" lon="1.21308">
        <ele>344.08627</ele>
        <time>2026-08-08T10:20:59Z</time>
      </trkpt>
      <trkpt lat="45.73397" lon="1.21311">
        <ele>344.08627</ele>
        <time>2026-08-08T10:21:00Z</time>
      </trkpt>
      <trkpt lat="45.73395" lon="1.21313">
        <ele>344.08627</ele>
        <time>2026-08-08T10:21:01Z</time>
      </trkpt>
      <trkpt lat="45.73394" lon="1.21316">
        <ele>344.08627</ele>
        <time>2026-08-08T10:21:02Z</time>
      </trkpt>
      <trkpt lat="45.73392" lon="1.21318">
        <ele>345.08627</ele>
        <time>2026-08-08T10:21:03Z</time>
      </trkpt>
      <trkpt lat="45.73391" lon="1.2132">
        <ele>345.08627</ele>
        <time>2026-08-08T10:21:04Z</time>
      </trkpt>
      <trkpt lat="45.73389" lon="1.21322">
        <ele>345.08627</ele>
        <time>2026-08-08T10:21:05Z</time>
      </trkpt>
      <trkpt lat="45.73387" lon="1.21324">
        <ele>346.08627</ele>
        <time>2026-08-08T10:21:06Z</time>
      </trkpt>
      <trkpt lat="45.73385" lon="1.21327">
        <ele>346.08627</ele>
        <time>2026-08-08T10:21:07Z</time>
      </trkpt>
      <trkpt lat="45.73383" lon="1.2133">
        <ele>346.08627</ele>
        <time>2026-08-08T10:21:08Z</time>
      </trkpt>
      <trkpt lat="45.73381" lon="1.21333">
        <ele>346.08627</ele>
        <time>2026-08-08T10:21:09Z</time>
      </trkpt>
      <trkpt lat="45.73379" lon="1.21336">
        <ele>346.08627</ele>
        <time>2026-08-08T10:21:10Z</time>
      </trkpt>
      <trkpt lat="45.73377" lon="1.21339">
        <ele>346.08627</ele>
        <time>2026-08-08T10:21:11Z</time>
      </trkpt>
      <trkpt lat="45.73375" lon="1.21341">
        <ele>346.08627</ele>
        <time>2026-08-08T10:21:12Z</time>
      </trkpt>
      <trkpt lat="45.73372" lon="1.21344">
        <ele>347.08627</ele>
        <time>2026-08-08T10:21:13Z</time>
      </trkpt>
      <trkpt lat="45.7337" lon="1.21347">
        <ele>347.08627</ele>
        <time>2026-08-08T10:21:14Z</time>
      </trkpt>
      <trkpt lat="45.73368" lon="1.2135">
        <ele>347.08627</ele>
        <time>2026-08-08T10:21:15Z</time>
      </trkpt>
      <trkpt lat="45.73366" lon="1.21352">
        <ele>347.08627</ele>
        <time>2026-08-08T10:21:16Z</time>
      </trkpt>
      <trkpt lat="45.73364" lon="1.21356">
        <ele>347.08627</ele>
        <time>2026-08-08T10:21:17Z</time>
      </trkpt>
      <trkpt lat="45.73362" lon="1.21358">
        <ele>347.08627</ele>
        <time>2026-08-08T10:21:18Z</time>
      </trkpt>
      <trkpt lat="45.73359" lon="1.21361">
        <ele>347.08627</ele>
        <time>2026-08-08T10:21:19Z</time>
      </trkpt>
      <trkpt lat="45.73357" lon="1.21364">
        <ele>347.08627</ele>
        <time>2026-08-08T10:21:20Z</time>
      </trkpt>
      <trkpt lat="45.73355" lon="1.21366">
        <ele>348.08627</ele>
        <time>2026-08-08T10:21:21Z</time>
      </trkpt>
      <trkpt lat="45.73352" lon="1.21369">
        <ele>348.08627</ele>
        <time>2026-08-08T10:21:22Z</time>
      </trkpt>
      <trkpt lat="45.7335" lon="1.21372">
        <ele>349.08627</ele>
        <time>2026-08-08T10:21:23Z</time>
      </trkpt>
      <trkpt lat="45.73347" lon="1.21375">
        <ele>349.08627</ele>
        <time>2026-08-08T10:21:24Z</time>
      </trkpt>
      <trkpt lat="45.73346" lon="1.21378">
        <ele>349.08627</ele>
        <time>2026-08-08T10:21:25Z</time>
      </trkpt>
      <trkpt lat="45.73344" lon="1.2138">
        <ele>349.08627</ele>
        <time>2026-08-08T10:21:26Z</time>
      </trkpt>
      <trkpt lat="45.73342" lon="1.21383">
        <ele>349.08627</ele>
        <time>2026-08-08T10:21:27Z</time>
      </trkpt>
      <trkpt lat="45.73339" lon="1.21385">
        <ele>350.08627</ele>
        <time>2026-08-08T10:21:28Z</time>
      </trkpt>
      <trkpt lat="45.73337" lon="1.21387">
        <ele>350.08627</ele>
        <time>2026-08-08T10:21:29Z</time>
      </trkpt>
      <trkpt lat="45.73335" lon="1.2139">
        <ele>350.08627</ele>
        <time>2026-08-08T10:21:30Z</time>
      </trkpt>
      <trkpt lat="45.73333" lon="1.21393">
        <ele>350.08627</ele>
        <time>2026-08-08T10:21:31Z</time>
      </trkpt>
      <trkpt lat="45.73331" lon="1.21396">
        <ele>351.08627</ele>
        <time>2026-08-08T10:21:32Z</time>
      </trkpt>
      <trkpt lat="45.73328" lon="1.21398">
        <ele>351.08627</ele>
        <time>2026-08-08T10:21:33Z</time>
      </trkpt>
      <trkpt lat="45.73326" lon="1.21401">
        <ele>351.08627</ele>
        <time>2026-08-08T10:21:34Z</time>
      </trkpt>
      <trkpt lat="45.73324" lon="1.21404">
        <ele>351.08627</ele>
        <time>2026-08-08T10:21:35Z</time>
      </trkpt>
      <trkpt lat="45.73322" lon="1.21406">
        <ele>351.08627</ele>
        <time>2026-08-08T10:21:36Z</time>
      </trkpt>
      <trkpt lat="45.73319" lon="1.21408">
        <ele>351.08627</ele>
        <time>2026-08-08T10:21:37Z</time>
      </trkpt>
      <trkpt lat="45.73317" lon="1.21411">
        <ele>352.08627</ele>
        <time>2026-08-08T10:21:38Z</time>
      </trkpt>
      <trkpt lat="45.73315" lon="1.21413">
        <ele>352.08627</ele>
        <time>2026-08-08T10:21:39Z</time>
      </trkpt>
      <trkpt lat="45.73311" lon="1.21418">
        <ele>352.08627</ele>
        <time>2026-08-08T10:21:40Z</time>
      </trkpt>
      <trkpt lat="45.73309" lon="1.2142">
        <ele>352.08627</ele>
        <time>2026-08-08T10:21:41Z</time>
      </trkpt>
      <trkpt lat="45.73307" lon="1.21423">
        <ele>352.08627</ele>
        <time>2026-08-08T10:21:42Z</time>
      </trkpt>
      <trkpt lat="45.73304" lon="1.21425">
        <ele>353.08627</ele>
        <time>2026-08-08T10:21:43Z</time>
      </trkpt>
      <trkpt lat="45.73302" lon="1.21428">
        <ele>353.08627</ele>
        <time>2026-08-08T10:21:44Z</time>
      </trkpt>
      <trkpt lat="45.73299" lon="1.2143">
        <ele>354.08627</ele>
        <time>2026-08-08T10:21:45Z</time>
      </trkpt>
      <trkpt lat="45.73298" lon="1.21433">
        <ele>355.08627</ele>
        <time>2026-08-08T10:21:46Z</time>
      </trkpt>
      <trkpt lat="45.73296" lon="1.21436">
        <ele>355.08627</ele>
        <time>2026-08-08T10:21:47Z</time>
      </trkpt>
      <trkpt lat="45.73294" lon="1.21438">
        <ele>356.08627</ele>
        <time>2026-08-08T10:21:48Z</time>
      </trkpt>
      <trkpt lat="45.73292" lon="1.2144">
        <ele>357.08627</ele>
        <time>2026-08-08T10:21:49Z</time>
      </trkpt>
      <trkpt lat="45.73291" lon="1.21441">
        <ele>357.08627</ele>
        <time>2026-08-08T10:21:50Z</time>
      </trkpt>
      <trkpt lat="45.73289" lon="1.21443">
        <ele>358.08627</ele>
        <time>2026-08-08T10:21:51Z</time>
      </trkpt>
      <trkpt lat="45.73288" lon="1.21445">
        <ele>358.08627</ele>
        <time>2026-08-08T10:21:52Z</time>
      </trkpt>
      <trkpt lat="45.73286" lon="1.21447">
        <ele>359.08627</ele>
        <time>2026-08-08T10:21:53Z</time>
      </trkpt>
      <trkpt lat="45.73285" lon="1.21449">
        <ele>359.08627</ele>
        <time>2026-08-08T10:21:54Z</time>
      </trkpt>
      <trkpt lat="45.73284" lon="1.21451">
        <ele>359.08627</ele>
        <time>2026-08-08T10:21:55Z</time>
      </trkpt>
      <trkpt lat="45.73281" lon="1.21452">
        <ele>359.08627</ele>
        <time>2026-08-08T10:21:56Z</time>
      </trkpt>
      <trkpt lat="45.73279" lon="1.21452">
        <ele>359.08627</ele>
        <time>2026-08-08T10:21:57Z</time>
      </trkpt>
      <trkpt lat="45.73277" lon="1.21451">
        <ele>360.08627</ele>
        <time>2026-08-08T10:21:58Z</time>
      </trkpt>
      <trkpt lat="45.73274" lon="1.21449">
        <ele>360.08627</ele>
        <time>2026-08-08T10:21:59Z</time>
      </trkpt>
      <trkpt lat="45.73272" lon="1.21448">
        <ele>360.08627</ele>
        <time>2026-08-08T10:22:00Z</time>
      </trkpt>
      <trkpt lat="45.73269" lon="1.21446">
        <ele>360.08627</ele>
        <time>2026-08-08T10:22:01Z</time>
      </trkpt>
      <trkpt lat="45.73267" lon="1.21445">
        <ele>361.08627</ele>
        <time>2026-08-08T10:22:02Z</time>
      </trkpt>
      <trkpt lat="45.73265" lon="1.21445">
        <ele>360.08627</ele>
        <time>2026-08-08T10:22:03Z</time>
      </trkpt>
      <trkpt lat="45.73262" lon="1.21444">
        <ele>360.08627</ele>
        <time>2026-08-08T10:22:04Z</time>
      </trkpt>
      <trkpt lat="45.7326" lon="1.21443">
        <ele>360.08627</ele>
        <time>2026-08-08T10:22:05Z</time>
      </trkpt>
      <trkpt lat="45.73257" lon="1.21442">
        <ele>360.08627</ele>
        <time>2026-08-08T10:22:06Z</time>
      </trkpt>
      <trkpt lat="45.73255" lon="1.21441">
        <ele>360.08627</ele>
        <time>2026-08-08T10:22:07Z</time>
      </trkpt>
      <trkpt lat="45.73253" lon="1.2144">
        <ele>360.08627</ele>
        <time>2026-08-08T10:22:08Z</time>
      </trkpt>
      <trkpt lat="45.73251" lon="1.21439">
        <ele>360.08627</ele>
        <time>2026-08-08T10:22:09Z</time>
      </trkpt>
      <trkpt lat="45.73249" lon="1.21437">
        <ele>361.08627</ele>
        <time>2026-08-08T10:22:10Z</time>
      </trkpt>
      <trkpt lat="45.73247" lon="1.21436">
        <ele>360.08627</ele>
        <time>2026-08-08T10:22:11Z</time>
      </trkpt>
      <trkpt lat="45.73245" lon="1.21436">
        <ele>360.08627</ele>
        <time>2026-08-08T10:22:12Z</time>
      </trkpt>
      <trkpt lat="45.73242" lon="1.21434">
        <ele>360.08627</ele>
        <time>2026-08-08T10:22:13Z</time>
      </trkpt>
      <trkpt lat="45.7324" lon="1.21433">
        <ele>361.08627</ele>
        <time>2026-08-08T10:22:14Z</time>
      </trkpt>
      <trkpt lat="45.73238" lon="1.21432">
        <ele>361.08627</ele>
        <time>2026-08-08T10:22:15Z</time>
      </trkpt>
      <trkpt lat="45.73235" lon="1.2143">
        <ele>361.08627</ele>
        <time>2026-08-08T10:22:16Z</time>
      </trkpt>
      <trkpt lat="45.73233" lon="1.21429">
        <ele>361.08627</ele>
        <time>2026-08-08T10:22:17Z</time>
      </trkpt>
      <trkpt lat="45.7323" lon="1.21428">
        <ele>362.08627</ele>
        <time>2026-08-08T10:22:18Z</time>
      </trkpt>
      <trkpt lat="45.73228" lon="1.21426">
        <ele>362.08627</ele>
        <time>2026-08-08T10:22:19Z</time>
      </trkpt>
      <trkpt lat="45.73225" lon="1.21425">
        <ele>362.08627</ele>
        <time>2026-08-08T10:22:20Z</time>
      </trkpt>
      <trkpt lat="45.73223" lon="1.21424">
        <ele>362.08627</ele>
        <time>2026-08-08T10:22:21Z</time>
      </trkpt>
      <trkpt lat="45.73221" lon="1.21424">
        <ele>362.08627</ele>
        <time>2026-08-08T10:22:22Z</time>
      </trkpt>
      <trkpt lat="45.73218" lon="1.21423">
        <ele>363.08627</ele>
        <time>2026-08-08T10:22:23Z</time>
      </trkpt>
      <trkpt lat="45.73216" lon="1.21422">
        <ele>363.08627</ele>
        <time>2026-08-08T10:22:24Z</time>
      </trkpt>
      <trkpt lat="45.73214" lon="1.21421">
        <ele>363.08627</ele>
        <time>2026-08-08T10:22:25Z</time>
      </trkpt>
      <trkpt lat="45.73212" lon="1.2142">
        <ele>363.08627</ele>
        <time>2026-08-08T10:22:26Z</time>
      </trkpt>
      <trkpt lat="45.7321" lon="1.2142">
        <ele>363.08627</ele>
        <time>2026-08-08T10:22:27Z</time>
      </trkpt>
      <trkpt lat="45.73208" lon="1.2142">
        <ele>363.08627</ele>
        <time>2026-08-08T10:22:28Z</time>
      </trkpt>
      <trkpt lat="45.73206" lon="1.21421">
        <ele>363.08627</ele>
        <time>2026-08-08T10:22:29Z</time>
      </trkpt>
      <trkpt lat="45.73204" lon="1.21422">
        <ele>363.08627</ele>
        <time>2026-08-08T10:22:30Z</time>
      </trkpt>
      <trkpt lat="45.73201" lon="1.21422">
        <ele>363.08627</ele>
        <time>2026-08-08T10:22:31Z</time>
      </trkpt>
      <trkpt lat="45.73198" lon="1.21422">
        <ele>363.08627</ele>
        <time>2026-08-08T10:22:32Z</time>
      </trkpt>
      <trkpt lat="45.73195" lon="1.21422">
        <ele>363.08627</ele>
        <time>2026-08-08T10:22:33Z</time>
      </trkpt>
      <trkpt lat="45.73192" lon="1.21422">
        <ele>363.08627</ele>
        <time>2026-08-08T10:22:34Z</time>
      </trkpt>
      <trkpt lat="45.73189" lon="1.21423">
        <ele>364.08627</ele>
        <time>2026-08-08T10:22:35Z</time>
      </trkpt>
      <trkpt lat="45.73185" lon="1.21423">
        <ele>364.08627</ele>
        <time>2026-08-08T10:22:36Z</time>
      </trkpt>
      <trkpt lat="45.73182" lon="1.21424">
        <ele>363.08627</ele>
        <time>2026-08-08T10:22:37Z</time>
      </trkpt>
      <trkpt lat="45.73178" lon="1.21424">
        <ele>363.08627</ele>
        <time>2026-08-08T10:22:38Z</time>
      </trkpt>
      <trkpt lat="45.73175" lon="1.21425">
        <ele>363.08627</ele>
        <time>2026-08-08T10:22:39Z</time>
      </trkpt>
      <trkpt lat="45.73172" lon="1.21426">
        <ele>363.08627</ele>
        <time>2026-08-08T10:22:40Z</time>
      </trkpt>
      <trkpt lat="45.73169" lon="1.21427">
        <ele>363.08627</ele>
        <time>2026-08-08T10:22:41Z</time>
      </trkpt>
      <trkpt lat="45.73165" lon="1.21427">
        <ele>363.08627</ele>
        <time>2026-08-08T10:22:42Z</time>
      </trkpt>
      <trkpt lat="45.73162" lon="1.21428">
        <ele>363.08627</ele>
        <time>2026-08-08T10:22:43Z</time>
      </trkpt>
      <trkpt lat="45.73159" lon="1.21429">
        <ele>364.08627</ele>
        <time>2026-08-08T10:22:44Z</time>
      </trkpt>
      <trkpt lat="45.73156" lon="1.2143">
        <ele>364.08627</ele>
        <time>2026-08-08T10:22:45Z</time>
      </trkpt>
      <trkpt lat="45.73153" lon="1.2143">
        <ele>364.08627</ele>
        <time>2026-08-08T10:22:46Z</time>
      </trkpt>
      <trkpt lat="45.7315" lon="1.21431">
        <ele>364.08627</ele>
        <time>2026-08-08T10:22:47Z</time>
      </trkpt>
      <trkpt lat="45.73147" lon="1.21432">
        <ele>364.08627</ele>
        <time>2026-08-08T10:22:48Z</time>
      </trkpt>
      <trkpt lat="45.73144" lon="1.21432">
        <ele>364.08627</ele>
        <time>2026-08-08T10:22:49Z</time>
      </trkpt>
      <trkpt lat="45.73142" lon="1.21433">
        <ele>364.08627</ele>
        <time>2026-08-08T10:22:50Z</time>
      </trkpt>
      <trkpt lat="45.73138" lon="1.21434">
        <ele>364.08627</ele>
        <time>2026-08-08T10:22:51Z</time>
      </trkpt>
      <trkpt lat="45.73135" lon="1.21435">
        <ele>364.08627</ele>
        <time>2026-08-08T10:22:52Z</time>
      </trkpt>
      <trkpt lat="45.73133" lon="1.21435">
        <ele>364.08627</ele>
        <time>2026-08-08T10:22:53Z</time>
      </trkpt>
      <trkpt lat="45.73131" lon="1.21435">
        <ele>365.08627</ele>
        <time>2026-08-08T10:22:54Z</time>
      </trkpt>
      <trkpt lat="45.73128" lon="1.21435">
        <ele>365.08627</ele>
        <time>2026-08-08T10:22:55Z</time>
      </trkpt>
      <trkpt lat="45.73125" lon="1.21435">
        <ele>365.08627</ele>
        <time>2026-08-08T10:22:56Z</time>
      </trkpt>
      <trkpt lat="45.73123" lon="1.21436">
        <ele>365.08627</ele>
        <time>2026-08-08T10:22:57Z</time>
      </trkpt>
      <trkpt lat="45.7312" lon="1.21437">
        <ele>365.08627</ele>
        <time>2026-08-08T10:22:58Z</time>
      </trkpt>
      <trkpt lat="45.73117" lon="1.21438">
        <ele>365.08627</ele>
        <time>2026-08-08T10:22:59Z</time>
      </trkpt>
      <trkpt lat="45.73114" lon="1.21439">
        <ele>365.08627</ele>
        <time>2026-08-08T10:23:00Z</time>
      </trkpt>
      <trkpt lat="45.73112" lon="1.21439">
        <ele>366.08627</ele>
        <time>2026-08-08T10:23:01Z</time>
      </trkpt>
      <trkpt lat="45.73109" lon="1.2144">
        <ele>366.08627</ele>
        <time>2026-08-08T10:23:02Z</time>
      </trkpt>
      <trkpt lat="45.73106" lon="1.2144">
        <ele>366.08627</ele>
        <time>2026-08-08T10:23:03Z</time>
      </trkpt>
      <trkpt lat="45.73103" lon="1.2144">
        <ele>367.08627</ele>
        <time>2026-08-08T10:23:04Z</time>
      </trkpt>
      <trkpt lat="45.731" lon="1.21441">
        <ele>367.08627</ele>
        <time>2026-08-08T10:23:05Z</time>
      </trkpt>
      <trkpt lat="45.73097" lon="1.21443">
        <ele>367.08627</ele>
        <time>2026-08-08T10:23:06Z</time>
      </trkpt>
      <trkpt lat="45.73094" lon="1.21443">
        <ele>367.08627</ele>
        <time>2026-08-08T10:23:07Z</time>
      </trkpt>
      <trkpt lat="45.73091" lon="1.21444">
        <ele>367.08627</ele>
        <time>2026-08-08T10:23:08Z</time>
      </trkpt>
      <trkpt lat="45.73088" lon="1.21444">
        <ele>367.08627</ele>
        <time>2026-08-08T10:23:09Z</time>
      </trkpt>
      <trkpt lat="45.73085" lon="1.21444">
        <ele>367.08627</ele>
        <time>2026-08-08T10:23:10Z</time>
      </trkpt>
      <trkpt lat="45.73082" lon="1.21443">
        <ele>367.08627</ele>
        <time>2026-08-08T10:23:11Z</time>
      </trkpt>
      <trkpt lat="45.73078" lon="1.21443">
        <ele>368.08627</ele>
        <time>2026-08-08T10:23:12Z</time>
      </trkpt>
      <trkpt lat="45.73075" lon="1.21443">
        <ele>368.08627</ele>
        <time>2026-08-08T10:23:13Z</time>
      </trkpt>
      <trkpt lat="45.73072" lon="1.21442">
        <ele>368.08627</ele>
        <time>2026-08-08T10:23:14Z</time>
      </trkpt>
      <trkpt lat="45.73069" lon="1.21441">
        <ele>368.08627</ele>
        <time>2026-08-08T10:23:15Z</time>
      </trkpt>
      <trkpt lat="45.73066" lon="1.2144">
        <ele>368.08627</ele>
        <time>2026-08-08T10:23:16Z</time>
      </trkpt>
      <trkpt lat="45.73063" lon="1.21439">
        <ele>369.08627</ele>
        <time>2026-08-08T10:23:17Z</time>
      </trkpt>
      <trkpt lat="45.7306" lon="1.21439">
        <ele>369.08627</ele>
        <time>2026-08-08T10:23:18Z</time>
      </trkpt>
      <trkpt lat="45.73057" lon="1.21438">
        <ele>369.08627</ele>
        <time>2026-08-08T10:23:19Z</time>
      </trkpt>
      <trkpt lat="45.73054" lon="1.21437">
        <ele>370.08627</ele>
        <time>2026-08-08T10:23:20Z</time>
      </trkpt>
      <trkpt lat="45.73051" lon="1.21436">
        <ele>370.08627</ele>
        <time>2026-08-08T10:23:21Z</time>
      </trkpt>
      <trkpt lat="45.73048" lon="1.21436">
        <ele>370.08627</ele>
        <time>2026-08-08T10:23:22Z</time>
      </trkpt>
      <trkpt lat="45.73045" lon="1.21435">
        <ele>371.08627</ele>
        <time>2026-08-08T10:23:23Z</time>
      </trkpt>
      <trkpt lat="45.73042" lon="1.21435">
        <ele>371.08627</ele>
        <time>2026-08-08T10:23:24Z</time>
      </trkpt>
      <trkpt lat="45.73039" lon="1.21434">
        <ele>371.08627</ele>
        <time>2026-08-08T10:23:25Z</time>
      </trkpt>
      <trkpt lat="45.73036" lon="1.21433">
        <ele>371.08627</ele>
        <time>2026-08-08T10:23:26Z</time>
      </trkpt>
      <trkpt lat="45.73033" lon="1.21432">
        <ele>371.08627</ele>
        <time>2026-08-08T10:23:27Z</time>
      </trkpt>
      <trkpt lat="45.7303" lon="1.21431">
        <ele>371.08627</ele>
        <time>2026-08-08T10:23:28Z</time>
      </trkpt>
      <trkpt lat="45.73027" lon="1.2143">
        <ele>371.08627</ele>
        <time>2026-08-08T10:23:29Z</time>
      </trkpt>
      <trkpt lat="45.73024" lon="1.2143">
        <ele>371.08627</ele>
        <time>2026-08-08T10:23:30Z</time>
      </trkpt>
      <trkpt lat="45.7302" lon="1.21429">
        <ele>371.08627</ele>
        <time>2026-08-08T10:23:31Z</time>
      </trkpt>
      <trkpt lat="45.73017" lon="1.21429">
        <ele>371.08627</ele>
        <time>2026-08-08T10:23:32Z</time>
      </trkpt>
      <trkpt lat="45.73012" lon="1.21429">
        <ele>371.08627</ele>
        <time>2026-08-08T10:23:33Z</time>
      </trkpt>
      <trkpt lat="45.73008" lon="1.21427">
        <ele>371.08627</ele>
        <time>2026-08-08T10:23:34Z</time>
      </trkpt>
      <trkpt lat="45.73004" lon="1.21426">
        <ele>371.08627</ele>
        <time>2026-08-08T10:23:35Z</time>
      </trkpt>
      <trkpt lat="45.72999" lon="1.21423">
        <ele>371.08627</ele>
        <time>2026-08-08T10:23:36Z</time>
      </trkpt>
      <trkpt lat="45.72995" lon="1.2142">
        <ele>371.08627</ele>
        <time>2026-08-08T10:23:37Z</time>
      </trkpt>
      <trkpt lat="45.72991" lon="1.21418">
        <ele>370.08627</ele>
        <time>2026-08-08T10:23:38Z</time>
      </trkpt>
      <trkpt lat="45.72987" lon="1.21414">
        <ele>370.08627</ele>
        <time>2026-08-08T10:23:39Z</time>
      </trkpt>
      <trkpt lat="45.72982" lon="1.2141">
        <ele>371.08627</ele>
        <time>2026-08-08T10:23:40Z</time>
      </trkpt>
      <trkpt lat="45.72978" lon="1.21407">
        <ele>370.08627</ele>
        <time>2026-08-08T10:23:41Z</time>
      </trkpt>
      <trkpt lat="45.72973" lon="1.21404">
        <ele>370.08627</ele>
        <time>2026-08-08T10:23:42Z</time>
      </trkpt>
      <trkpt lat="45.72969" lon="1.21401">
        <ele>369.08627</ele>
        <time>2026-08-08T10:23:43Z</time>
      </trkpt>
      <trkpt lat="45.72965" lon="1.21398">
        <ele>369.08627</ele>
        <time>2026-08-08T10:23:44Z</time>
      </trkpt>
      <trkpt lat="45.7296" lon="1.21394">
        <ele>368.08627</ele>
        <time>2026-08-08T10:23:45Z</time>
      </trkpt>
      <trkpt lat="45.72956" lon="1.21391">
        <ele>368.08627</ele>
        <time>2026-08-08T10:23:46Z</time>
      </trkpt>
      <trkpt lat="45.72951" lon="1.21388">
        <ele>368.08627</ele>
        <time>2026-08-08T10:23:47Z</time>
      </trkpt>
      <trkpt lat="45.72947" lon="1.21386">
        <ele>368.08627</ele>
        <time>2026-08-08T10:23:48Z</time>
      </trkpt>
      <trkpt lat="45.72944" lon="1.21384">
        <ele>368.08627</ele>
        <time>2026-08-08T10:23:49Z</time>
      </trkpt>
      <trkpt lat="45.7294" lon="1.21382">
        <ele>367.08627</ele>
        <time>2026-08-08T10:23:50Z</time>
      </trkpt>
      <trkpt lat="45.72938" lon="1.21379">
        <ele>367.08627</ele>
        <time>2026-08-08T10:23:51Z</time>
      </trkpt>
      <trkpt lat="45.72935" lon="1.21377">
        <ele>367.08627</ele>
        <time>2026-08-08T10:23:52Z</time>
      </trkpt>
      <trkpt lat="45.72933" lon="1.21375">
        <ele>367.08627</ele>
        <time>2026-08-08T10:23:53Z</time>
      </trkpt>
      <trkpt lat="45.72932" lon="1.21375">
        <ele>367.08627</ele>
        <time>2026-08-08T10:23:54Z</time>
      </trkpt>
      <trkpt lat="45.7293" lon="1.21373">
        <ele>367.08627</ele>
        <time>2026-08-08T10:23:55Z</time>
      </trkpt>
      <trkpt lat="45.72928" lon="1.21371">
        <ele>367.08627</ele>
        <time>2026-08-08T10:23:56Z</time>
      </trkpt>
      <trkpt lat="45.72927" lon="1.21368">
        <ele>366.08627</ele>
        <time>2026-08-08T10:23:57Z</time>
      </trkpt>
      <trkpt lat="45.72926" lon="1.21365">
        <ele>366.08627</ele>
        <time>2026-08-08T10:23:58Z</time>
      </trkpt>
      <trkpt lat="45.72925" lon="1.21362">
        <ele>366.08627</ele>
        <time>2026-08-08T10:23:59Z</time>
      </trkpt>
      <trkpt lat="45.72923" lon="1.21358">
        <ele>366.08627</ele>
        <time>2026-08-08T10:24:00Z</time>
      </trkpt>
      <trkpt lat="45.72921" lon="1.21354">
        <ele>366.08627</ele>
        <time>2026-08-08T10:24:01Z</time>
      </trkpt>
      <trkpt lat="45.7292" lon="1.21349">
        <ele>366.08627</ele>
        <time>2026-08-08T10:24:02Z</time>
      </trkpt>
      <trkpt lat="45.72918" lon="1.21344">
        <ele>366.08627</ele>
        <time>2026-08-08T10:24:03Z</time>
      </trkpt>
      <trkpt lat="45.72917" lon="1.2134">
        <ele>366.08627</ele>
        <time>2026-08-08T10:24:04Z</time>
      </trkpt>
      <trkpt lat="45.72916" lon="1.21334">
        <ele>366.08627</ele>
        <time>2026-08-08T10:24:05Z</time>
      </trkpt>
      <trkpt lat="45.72914" lon="1.2133">
        <ele>365.08627</ele>
        <time>2026-08-08T10:24:06Z</time>
      </trkpt>
      <trkpt lat="45.72913" lon="1.21326">
        <ele>365.08627</ele>
        <time>2026-08-08T10:24:07Z</time>
      </trkpt>
      <trkpt lat="45.72912" lon="1.21322">
        <ele>365.08627</ele>
        <time>2026-08-08T10:24:08Z</time>
      </trkpt>
      <trkpt lat="45.7291" lon="1.21317">
        <ele>365.08627</ele>
        <time>2026-08-08T10:24:09Z</time>
      </trkpt>
      <trkpt lat="45.72909" lon="1.21313">
        <ele>365.08627</ele>
        <time>2026-08-08T10:24:10Z</time>
      </trkpt>
      <trkpt lat="45.72907" lon="1.21308">
        <ele>365.08627</ele>
        <time>2026-08-08T10:24:11Z</time>
      </trkpt>
      <trkpt lat="45.72906" lon="1.21303">
        <ele>365.08627</ele>
        <time>2026-08-08T10:24:12Z</time>
      </trkpt>
      <trkpt lat="45.72904" lon="1.21298">
        <ele>365.08627</ele>
        <time>2026-08-08T10:24:13Z</time>
      </trkpt>
      <trkpt lat="45.72903" lon="1.21293">
        <ele>365.08627</ele>
        <time>2026-08-08T10:24:14Z</time>
      </trkpt>
      <trkpt lat="45.72901" lon="1.21288">
        <ele>365.08627</ele>
        <time>2026-08-08T10:24:15Z</time>
      </trkpt>
      <trkpt lat="45.729" lon="1.21284">
        <ele>365.08627</ele>
        <time>2026-08-08T10:24:16Z</time>
      </trkpt>
      <trkpt lat="45.72898" lon="1.21279">
        <ele>365.08627</ele>
        <time>2026-08-08T10:24:17Z</time>
      </trkpt>
      <trkpt lat="45.72897" lon="1.21274">
        <ele>365.08627</ele>
        <time>2026-08-08T10:24:18Z</time>
      </trkpt>
      <trkpt lat="45.72896" lon="1.21269">
        <ele>364.08627</ele>
        <time>2026-08-08T10:24:19Z</time>
      </trkpt>
      <trkpt lat="45.72894" lon="1.21265">
        <ele>364.08627</ele>
        <time>2026-08-08T10:24:20Z</time>
      </trkpt>
      <trkpt lat="45.72893" lon="1.2126">
        <ele>364.08627</ele>
        <time>2026-08-08T10:24:21Z</time>
      </trkpt>
      <trkpt lat="45.72892" lon="1.21255">
        <ele>364.08627</ele>
        <time>2026-08-08T10:24:22Z</time>
      </trkpt>
      <trkpt lat="45.7289" lon="1.21251">
        <ele>364.08627</ele>
        <time>2026-08-08T10:24:23Z</time>
      </trkpt>
      <trkpt lat="45.72889" lon="1.21246">
        <ele>364.08627</ele>
        <time>2026-08-08T10:24:24Z</time>
      </trkpt>
      <trkpt lat="45.72888" lon="1.21241">
        <ele>364.08627</ele>
        <time>2026-08-08T10:24:25Z</time>
      </trkpt>
      <trkpt lat="45.72887" lon="1.21237">
        <ele>363.08627</ele>
        <time>2026-08-08T10:24:26Z</time>
      </trkpt>
      <trkpt lat="45.72886" lon="1.21233">
        <ele>363.08627</ele>
        <time>2026-08-08T10:24:27Z</time>
      </trkpt>
      <trkpt lat="45.72884" lon="1.21229">
        <ele>363.08627</ele>
        <time>2026-08-08T10:24:28Z</time>
      </trkpt>
      <trkpt lat="45.72883" lon="1.21225">
        <ele>363.08627</ele>
        <time>2026-08-08T10:24:29Z</time>
      </trkpt>
      <trkpt lat="45.72882" lon="1.2122">
        <ele>363.08627</ele>
        <time>2026-08-08T10:24:30Z</time>
      </trkpt>
      <trkpt lat="45.72881" lon="1.21216">
        <ele>363.08627</ele>
        <time>2026-08-08T10:24:31Z</time>
      </trkpt>
      <trkpt lat="45.7288" lon="1.21212">
        <ele>362.08627</ele>
        <time>2026-08-08T10:24:32Z</time>
      </trkpt>
      <trkpt lat="45.72879" lon="1.21208">
        <ele>362.08627</ele>
        <time>2026-08-08T10:24:33Z</time>
      </trkpt>
      <trkpt lat="45.72879" lon="1.21205">
        <ele>362.08627</ele>
        <time>2026-08-08T10:24:34Z</time>
      </trkpt>
      <trkpt lat="45.72878" lon="1.21202">
        <ele>362.08627</ele>
        <time>2026-08-08T10:24:35Z</time>
      </trkpt>
      <trkpt lat="45.72877" lon="1.212">
        <ele>362.08627</ele>
        <time>2026-08-08T10:24:36Z</time>
      </trkpt>
      <trkpt lat="45.72877" lon="1.21197">
        <ele>362.08627</ele>
        <time>2026-08-08T10:24:37Z</time>
      </trkpt>
      <trkpt lat="45.72877" lon="1.21195">
        <ele>362.08627</ele>
        <time>2026-08-08T10:24:38Z</time>
      </trkpt>
      <trkpt lat="45.72876" lon="1.21194">
        <ele>361.08627</ele>
        <time>2026-08-08T10:24:39Z</time>
      </trkpt>
      <trkpt lat="45.72876" lon="1.21192">
        <ele>361.08627</ele>
        <time>2026-08-08T10:24:40Z</time>
      </trkpt>
      <trkpt lat="45.72876" lon="1.21191">
        <ele>362.08627</ele>
        <time>2026-08-08T10:24:41Z</time>
      </trkpt>
      <trkpt lat="45.72876" lon="1.21191">
        <ele>362.08627</ele>
        <time>2026-08-08T10:24:44Z</time>
      </trkpt>
      <trkpt lat="45.72867" lon="1.21165">
        <ele>360.08627</ele>
        <time>2026-08-08T10:26:48Z</time>
      </trkpt>
      <trkpt lat="45.72865" lon="1.21159">
        <ele>360.08627</ele>
        <time>2026-08-08T10:26:49Z</time>
      </trkpt>
      <trkpt lat="45.72863" lon="1.21153">
        <ele>360.08627</ele>
        <time>2026-08-08T10:26:50Z</time>
      </trkpt>
      <trkpt lat="45.72861" lon="1.21147">
        <ele>360.08627</ele>
        <time>2026-08-08T10:26:51Z</time>
      </trkpt>
      <trkpt lat="45.72858" lon="1.21141">
        <ele>360.08627</ele>
        <time>2026-08-08T10:26:52Z</time>
      </trkpt>
      <trkpt lat="45.72855" lon="1.21134">
        <ele>360.08627</ele>
        <time>2026-08-08T10:26:53Z</time>
      </trkpt>
      <trkpt lat="45.72853" lon="1.21128">
        <ele>360.08627</ele>
        <time>2026-08-08T10:26:54Z</time>
      </trkpt>
      <trkpt lat="45.72849" lon="1.21112">
        <ele>359.08627</ele>
        <time>2026-08-08T10:26:56Z</time>
      </trkpt>
      <trkpt lat="45.72842" lon="1.21094">
        <ele>358.08627</ele>
        <time>2026-08-08T10:26:58Z</time>
      </trkpt>
      <trkpt lat="45.72839" lon="1.21084">
        <ele>357.08627</ele>
        <time>2026-08-08T10:26:59Z</time>
      </trkpt>
      <trkpt lat="45.72836" lon="1.21074">
        <ele>357.08627</ele>
        <time>2026-08-08T10:27:00Z</time>
      </trkpt>
      <trkpt lat="45.72833" lon="1.21065">
        <ele>357.08627</ele>
        <time>2026-08-08T10:27:01Z</time>
      </trkpt>
      <trkpt lat="45.7283" lon="1.21056">
        <ele>356.08627</ele>
        <time>2026-08-08T10:27:02Z</time>
      </trkpt>
      <trkpt lat="45.72827" lon="1.21048">
        <ele>356.08627</ele>
        <time>2026-08-08T10:27:03Z</time>
      </trkpt>
      <trkpt lat="45.72823" lon="1.21039">
        <ele>355.08627</ele>
        <time>2026-08-08T10:27:04Z</time>
      </trkpt>
      <trkpt lat="45.7282" lon="1.21031">
        <ele>355.08627</ele>
        <time>2026-08-08T10:27:05Z</time>
      </trkpt>
      <trkpt lat="45.72816" lon="1.21023">
        <ele>354.08627</ele>
        <time>2026-08-08T10:27:06Z</time>
      </trkpt>
      <trkpt lat="45.72812" lon="1.21015">
        <ele>354.08627</ele>
        <time>2026-08-08T10:27:07Z</time>
      </trkpt>
      <trkpt lat="45.72808" lon="1.21007">
        <ele>354.08627</ele>
        <time>2026-08-08T10:27:08Z</time>
      </trkpt>
      <trkpt lat="45.72804" lon="1.20998">
        <ele>353.08627</ele>
        <time>2026-08-08T10:27:09Z</time>
      </trkpt>
      <trkpt lat="45.728" lon="1.2099">
        <ele>353.08627</ele>
        <time>2026-08-08T10:27:10Z</time>
      </trkpt>
      <trkpt lat="45.72796" lon="1.20981">
        <ele>353.08627</ele>
        <time>2026-08-08T10:27:11Z</time>
      </trkpt>
      <trkpt lat="45.72792" lon="1.20973">
        <ele>353.08627</ele>
        <time>2026-08-08T10:27:12Z</time>
      </trkpt>
      <trkpt lat="45.72789" lon="1.20966">
        <ele>352.08627</ele>
        <time>2026-08-08T10:27:13Z</time>
      </trkpt>
      <trkpt lat="45.72785" lon="1.20959">
        <ele>352.08627</ele>
        <time>2026-08-08T10:27:14Z</time>
      </trkpt>
      <trkpt lat="45.72782" lon="1.20953">
        <ele>351.08627</ele>
        <time>2026-08-08T10:27:15Z</time>
      </trkpt>
      <trkpt lat="45.72778" lon="1.20948">
        <ele>351.08627</ele>
        <time>2026-08-08T10:27:16Z</time>
      </trkpt>
      <trkpt lat="45.72774" lon="1.20942">
        <ele>351.08627</ele>
        <time>2026-08-08T10:27:17Z</time>
      </trkpt>
      <trkpt lat="45.72771" lon="1.20935">
        <ele>351.08627</ele>
        <time>2026-08-08T10:27:18Z</time>
      </trkpt>
      <trkpt lat="45.72768" lon="1.20929">
        <ele>351.08627</ele>
        <time>2026-08-08T10:27:19Z</time>
      </trkpt>
      <trkpt lat="45.72764" lon="1.20923">
        <ele>351.08627</ele>
        <time>2026-08-08T10:27:20Z</time>
      </trkpt>
      <trkpt lat="45.72761" lon="1.20917">
        <ele>350.08627</ele>
        <time>2026-08-08T10:27:21Z</time>
      </trkpt>
      <trkpt lat="45.72757" lon="1.20922">
        <ele>362.08627</ele>
        <time>2026-08-08T10:27:22Z</time>
      </trkpt>
      <trkpt lat="45.72753" lon="1.20916">
        <ele>362.08627</ele>
        <time>2026-08-08T10:27:23Z</time>
      </trkpt>
      <trkpt lat="45.72749" lon="1.2091">
        <ele>362.08627</ele>
        <time>2026-08-08T10:27:24Z</time>
      </trkpt>
      <trkpt lat="45.72744" lon="1.20905">
        <ele>362.08627</ele>
        <time>2026-08-08T10:27:25Z</time>
      </trkpt>
      <trkpt lat="45.7274" lon="1.20898">
        <ele>361.08627</ele>
        <time>2026-08-08T10:27:26Z</time>
      </trkpt>
      <trkpt lat="45.72735" lon="1.20893">
        <ele>362.08627</ele>
        <time>2026-08-08T10:27:27Z</time>
      </trkpt>
      <trkpt lat="45.7273" lon="1.20889">
        <ele>361.08627</ele>
        <time>2026-08-08T10:27:28Z</time>
      </trkpt>
      <trkpt lat="45.72726" lon="1.20883">
        <ele>360.08627</ele>
        <time>2026-08-08T10:27:29Z</time>
      </trkpt>
      <trkpt lat="45.72721" lon="1.20878">
        <ele>359.08627</ele>
        <time>2026-08-08T10:27:30Z</time>
      </trkpt>
      <trkpt lat="45.72717" lon="1.20873">
        <ele>359.08627</ele>
        <time>2026-08-08T10:27:31Z</time>
      </trkpt>
      <trkpt lat="45.72713" lon="1.20869">
        <ele>359.08627</ele>
        <time>2026-08-08T10:27:32Z</time>
      </trkpt>
      <trkpt lat="45.72708" lon="1.20865">
        <ele>361.08627</ele>
        <time>2026-08-08T10:27:33Z</time>
      </trkpt>
      <trkpt lat="45.72704" lon="1.20861">
        <ele>360.08627</ele>
        <time>2026-08-08T10:27:34Z</time>
      </trkpt>
      <trkpt lat="45.72699" lon="1.20856">
        <ele>360.08627</ele>
        <time>2026-08-08T10:27:35Z</time>
      </trkpt>
      <trkpt lat="45.72695" lon="1.20851">
        <ele>360.08627</ele>
        <time>2026-08-08T10:27:36Z</time>
      </trkpt>
      <trkpt lat="45.72691" lon="1.20847">
        <ele>360.08627</ele>
        <time>2026-08-08T10:27:37Z</time>
      </trkpt>
      <trkpt lat="45.72686" lon="1.20843">
        <ele>359.08627</ele>
        <time>2026-08-08T10:27:38Z</time>
      </trkpt>
      <trkpt lat="45.72682" lon="1.20838">
        <ele>359.08627</ele>
        <time>2026-08-08T10:27:39Z</time>
      </trkpt>
      <trkpt lat="45.72678" lon="1.20834">
        <ele>359.08627</ele>
        <time>2026-08-08T10:27:40Z</time>
      </trkpt>
      <trkpt lat="45.72674" lon="1.20828">
        <ele>358.08627</ele>
        <time>2026-08-08T10:27:41Z</time>
      </trkpt>
      <trkpt lat="45.72669" lon="1.20824">
        <ele>358.08627</ele>
        <time>2026-08-08T10:27:42Z</time>
      </trkpt>
      <trkpt lat="45.72665" lon="1.20821">
        <ele>358.08627</ele>
        <time>2026-08-08T10:27:43Z</time>
      </trkpt>
      <trkpt lat="45.72661" lon="1.20815">
        <ele>353.08627</ele>
        <time>2026-08-08T10:27:44Z</time>
      </trkpt>
      <trkpt lat="45.72657" lon="1.20812">
        <ele>357.08627</ele>
        <time>2026-08-08T10:27:45Z</time>
      </trkpt>
      <trkpt lat="45.72652" lon="1.20808">
        <ele>357.08627</ele>
        <time>2026-08-08T10:27:46Z</time>
      </trkpt>
      <trkpt lat="45.72648" lon="1.20804">
        <ele>357.08627</ele>
        <time>2026-08-08T10:27:47Z</time>
      </trkpt>
      <trkpt lat="45.72644" lon="1.208">
        <ele>356.08627</ele>
        <time>2026-08-08T10:27:48Z</time>
      </trkpt>
      <trkpt lat="45.72641" lon="1.20796">
        <ele>356.08627</ele>
        <time>2026-08-08T10:27:49Z</time>
      </trkpt>
      <trkpt lat="45.72637" lon="1.20793">
        <ele>356.08627</ele>
        <time>2026-08-08T10:27:50Z</time>
      </trkpt>
      <trkpt lat="45.72633" lon="1.20789">
        <ele>355.08627</ele>
        <time>2026-08-08T10:27:51Z</time>
      </trkpt>
      <trkpt lat="45.72631" lon="1.20786">
        <ele>355.08627</ele>
        <time>2026-08-08T10:27:52Z</time>
      </trkpt>
      <trkpt lat="45.72627" lon="1.20782">
        <ele>350.08627</ele>
        <time>2026-08-08T10:27:53Z</time>
      </trkpt>
      <trkpt lat="45.72624" lon="1.20779">
        <ele>349.08627</ele>
        <time>2026-08-08T10:27:54Z</time>
      </trkpt>
      <trkpt lat="45.72621" lon="1.20776">
        <ele>349.08627</ele>
        <time>2026-08-08T10:27:55Z</time>
      </trkpt>
      <trkpt lat="45.72618" lon="1.20773">
        <ele>349.08627</ele>
        <time>2026-08-08T10:27:56Z</time>
      </trkpt>
      <trkpt lat="45.72615" lon="1.20772">
        <ele>353.08627</ele>
        <time>2026-08-08T10:27:57Z</time>
      </trkpt>
      <trkpt lat="45.72612" lon="1.20769">
        <ele>352.08627</ele>
        <time>2026-08-08T10:27:58Z</time>
      </trkpt>
      <trkpt lat="45.72609" lon="1.20767">
        <ele>352.08627</ele>
        <time>2026-08-08T10:27:59Z</time>
      </trkpt>
      <trkpt lat="45.72606" lon="1.20764">
        <ele>351.08627</ele>
        <time>2026-08-08T10:28:00Z</time>
      </trkpt>
      <trkpt lat="45.72602" lon="1.20761">
        <ele>351.08627</ele>
        <time>2026-08-08T10:28:01Z</time>
      </trkpt>
      <trkpt lat="45.72599" lon="1.20759">
        <ele>349.08627</ele>
        <time>2026-08-08T10:28:02Z</time>
      </trkpt>
      <trkpt lat="45.72595" lon="1.20756">
        <ele>348.08627</ele>
        <time>2026-08-08T10:28:03Z</time>
      </trkpt>
      <trkpt lat="45.72589" lon="1.20753">
        <ele>347.08627</ele>
        <time>2026-08-08T10:28:04Z</time>
      </trkpt>
      <trkpt lat="45.72584" lon="1.2075">
        <ele>345.08627</ele>
        <time>2026-08-08T10:28:05Z</time>
      </trkpt>
      <trkpt lat="45.72579" lon="1.20747">
        <ele>345.08627</ele>
        <time>2026-08-08T10:28:06Z</time>
      </trkpt>
      <trkpt lat="45.72574" lon="1.20743">
        <ele>344.08627</ele>
        <time>2026-08-08T10:28:07Z</time>
      </trkpt>
      <trkpt lat="45.72568" lon="1.20739">
        <ele>343.08627</ele>
        <time>2026-08-08T10:28:08Z</time>
      </trkpt>
      <trkpt lat="45.72564" lon="1.20735">
        <ele>343.08627</ele>
        <time>2026-08-08T10:28:09Z</time>
      </trkpt>
      <trkpt lat="45.72558" lon="1.20732">
        <ele>342.08627</ele>
        <time>2026-08-08T10:28:10Z</time>
      </trkpt>
      <trkpt lat="45.72552" lon="1.20729">
        <ele>341.08627</ele>
        <time>2026-08-08T10:28:11Z</time>
      </trkpt>
      <trkpt lat="45.72547" lon="1.20725">
        <ele>339.08627</ele>
        <time>2026-08-08T10:28:12Z</time>
      </trkpt>
      <trkpt lat="45.72541" lon="1.20721">
        <ele>339.08627</ele>
        <time>2026-08-08T10:28:13Z</time>
      </trkpt>
      <trkpt lat="45.72536" lon="1.20718">
        <ele>338.08627</ele>
        <time>2026-08-08T10:28:14Z</time>
      </trkpt>
      <trkpt lat="45.7253" lon="1.20714">
        <ele>337.08627</ele>
        <time>2026-08-08T10:28:15Z</time>
      </trkpt>
      <trkpt lat="45.72524" lon="1.2071">
        <ele>336.08627</ele>
        <time>2026-08-08T10:28:16Z</time>
      </trkpt>
      <trkpt lat="45.72519" lon="1.20707">
        <ele>336.08627</ele>
        <time>2026-08-08T10:28:17Z</time>
      </trkpt>
      <trkpt lat="45.72512" lon="1.20693">
        <ele>333.08627</ele>
        <time>2026-08-08T10:28:18Z</time>
      </trkpt>
      <trkpt lat="45.72506" lon="1.20688">
        <ele>333.08627</ele>
        <time>2026-08-08T10:28:19Z</time>
      </trkpt>
      <trkpt lat="45.72501" lon="1.20683">
        <ele>333.08627</ele>
        <time>2026-08-08T10:28:20Z</time>
      </trkpt>
      <trkpt lat="45.72496" lon="1.20678">
        <ele>332.08627</ele>
        <time>2026-08-08T10:28:21Z</time>
      </trkpt>
      <trkpt lat="45.72491" lon="1.20672">
        <ele>331.08627</ele>
        <time>2026-08-08T10:28:22Z</time>
      </trkpt>
      <trkpt lat="45.72486" lon="1.20667">
        <ele>331.08627</ele>
        <time>2026-08-08T10:28:23Z</time>
      </trkpt>
      <trkpt lat="45.72481" lon="1.20662">
        <ele>331.08627</ele>
        <time>2026-08-08T10:28:24Z</time>
      </trkpt>
      <trkpt lat="45.72476" lon="1.20658">
        <ele>330.08627</ele>
        <time>2026-08-08T10:28:25Z</time>
      </trkpt>
      <trkpt lat="45.72472" lon="1.20654">
        <ele>330.08627</ele>
        <time>2026-08-08T10:28:26Z</time>
      </trkpt>
      <trkpt lat="45.72468" lon="1.2065">
        <ele>329.08627</ele>
        <time>2026-08-08T10:28:27Z</time>
      </trkpt>
      <trkpt lat="45.72464" lon="1.20647">
        <ele>329.08627</ele>
        <time>2026-08-08T10:28:28Z</time>
      </trkpt>
      <trkpt lat="45.72461" lon="1.20643">
        <ele>329.08627</ele>
        <time>2026-08-08T10:28:29Z</time>
      </trkpt>
      <trkpt lat="45.72458" lon="1.2064">
        <ele>328.08627</ele>
        <time>2026-08-08T10:28:30Z</time>
      </trkpt>
      <trkpt lat="45.72455" lon="1.20637">
        <ele>329.08627</ele>
        <time>2026-08-08T10:28:31Z</time>
      </trkpt>
      <trkpt lat="45.72452" lon="1.20634">
        <ele>328.08627</ele>
        <time>2026-08-08T10:28:32Z</time>
      </trkpt>
      <trkpt lat="45.72448" lon="1.2063">
        <ele>328.08627</ele>
        <time>2026-08-08T10:28:33Z</time>
      </trkpt>
      <trkpt lat="45.72445" lon="1.20626">
        <ele>327.08627</ele>
        <time>2026-08-08T10:28:34Z</time>
      </trkpt>
      <trkpt lat="45.72442" lon="1.20622">
        <ele>327.08627</ele>
        <time>2026-08-08T10:28:35Z</time>
      </trkpt>
      <trkpt lat="45.72438" lon="1.20618">
        <ele>325.08627</ele>
        <time>2026-08-08T10:28:36Z</time>
      </trkpt>
      <trkpt lat="45.72435" lon="1.20614">
        <ele>324.08627</ele>
        <time>2026-08-08T10:28:37Z</time>
      </trkpt>
      <trkpt lat="45.72431" lon="1.2061">
        <ele>324.08627</ele>
        <time>2026-08-08T10:28:38Z</time>
      </trkpt>
      <trkpt lat="45.72427" lon="1.20605">
        <ele>323.08627</ele>
        <time>2026-08-08T10:28:39Z</time>
      </trkpt>
      <trkpt lat="45.72423" lon="1.20601">
        <ele>322.08627</ele>
        <time>2026-08-08T10:28:40Z</time>
      </trkpt>
      <trkpt lat="45.72419" lon="1.20597">
        <ele>322.08627</ele>
        <time>2026-08-08T10:28:41Z</time>
      </trkpt>
      <trkpt lat="45.72416" lon="1.20593">
        <ele>321.08627</ele>
        <time>2026-08-08T10:28:42Z</time>
      </trkpt>
      <trkpt lat="45.72412" lon="1.20588">
        <ele>320.08627</ele>
        <time>2026-08-08T10:28:43Z</time>
      </trkpt>
      <trkpt lat="45.72408" lon="1.20585">
        <ele>319.08627</ele>
        <time>2026-08-08T10:28:44Z</time>
      </trkpt>
      <trkpt lat="45.72404" lon="1.20581">
        <ele>319.08627</ele>
        <time>2026-08-08T10:28:45Z</time>
      </trkpt>
      <trkpt lat="45.724" lon="1.20577">
        <ele>319.08627</ele>
        <time>2026-08-08T10:28:46Z</time>
      </trkpt>
      <trkpt lat="45.72396" lon="1.20574">
        <ele>318.08627</ele>
        <time>2026-08-08T10:28:47Z</time>
      </trkpt>
      <trkpt lat="45.72392" lon="1.20572">
        <ele>316.08627</ele>
        <time>2026-08-08T10:28:48Z</time>
      </trkpt>
      <trkpt lat="45.72388" lon="1.20569">
        <ele>315.08627</ele>
        <time>2026-08-08T10:28:49Z</time>
      </trkpt>
      <trkpt lat="45.72385" lon="1.20567">
        <ele>315.08627</ele>
        <time>2026-08-08T10:28:50Z</time>
      </trkpt>
      <trkpt lat="45.7238" lon="1.20563">
        <ele>314.08627</ele>
        <time>2026-08-08T10:28:51Z</time>
      </trkpt>
      <trkpt lat="45.72376" lon="1.20559">
        <ele>313.08627</ele>
        <time>2026-08-08T10:28:52Z</time>
      </trkpt>
      <trkpt lat="45.72372" lon="1.20557">
        <ele>313.08627</ele>
        <time>2026-08-08T10:28:53Z</time>
      </trkpt>
      <trkpt lat="45.72367" lon="1.20554">
        <ele>313.08627</ele>
        <time>2026-08-08T10:28:54Z</time>
      </trkpt>
      <trkpt lat="45.72363" lon="1.20551">
        <ele>313.08627</ele>
        <time>2026-08-08T10:28:55Z</time>
      </trkpt>
      <trkpt lat="45.72359" lon="1.2055">
        <ele>312.08627</ele>
        <time>2026-08-08T10:28:56Z</time>
      </trkpt>
      <trkpt lat="45.72354" lon="1.20547">
        <ele>312.08627</ele>
        <time>2026-08-08T10:28:57Z</time>
      </trkpt>
      <trkpt lat="45.7235" lon="1.20545">
        <ele>312.08627</ele>
        <time>2026-08-08T10:28:58Z</time>
      </trkpt>
      <trkpt lat="45.72346" lon="1.20543">
        <ele>311.08627</ele>
        <time>2026-08-08T10:28:59Z</time>
      </trkpt>
      <trkpt lat="45.72342" lon="1.2054">
        <ele>311.08627</ele>
        <time>2026-08-08T10:29:00Z</time>
      </trkpt>
      <trkpt lat="45.72338" lon="1.20537">
        <ele>311.08627</ele>
        <time>2026-08-08T10:29:01Z</time>
      </trkpt>
      <trkpt lat="45.72334" lon="1.20533">
        <ele>311.08627</ele>
        <time>2026-08-08T10:29:02Z</time>
      </trkpt>
      <trkpt lat="45.7233" lon="1.2053">
        <ele>311.08627</ele>
        <time>2026-08-08T10:29:03Z</time>
      </trkpt>
      <trkpt lat="45.72327" lon="1.20527">
        <ele>310.08627</ele>
        <time>2026-08-08T10:29:04Z</time>
      </trkpt>
      <trkpt lat="45.72324" lon="1.20523">
        <ele>310.08627</ele>
        <time>2026-08-08T10:29:05Z</time>
      </trkpt>
      <trkpt lat="45.72321" lon="1.20519">
        <ele>310.08627</ele>
        <time>2026-08-08T10:29:06Z</time>
      </trkpt>
      <trkpt lat="45.72318" lon="1.20517">
        <ele>309.08627</ele>
        <time>2026-08-08T10:29:07Z</time>
      </trkpt>
      <trkpt lat="45.72315" lon="1.20516">
        <ele>309.08627</ele>
        <time>2026-08-08T10:29:08Z</time>
      </trkpt>
      <trkpt lat="45.72312" lon="1.20514">
        <ele>308.08627</ele>
        <time>2026-08-08T10:29:09Z</time>
      </trkpt>
      <trkpt lat="45.72309" lon="1.20512">
        <ele>308.08627</ele>
        <time>2026-08-08T10:29:10Z</time>
      </trkpt>
      <trkpt lat="45.72306" lon="1.2051">
        <ele>308.08627</ele>
        <time>2026-08-08T10:29:11Z</time>
      </trkpt>
      <trkpt lat="45.72303" lon="1.20509">
        <ele>307.08627</ele>
        <time>2026-08-08T10:29:12Z</time>
      </trkpt>
      <trkpt lat="45.72301" lon="1.20508">
        <ele>306.08627</ele>
        <time>2026-08-08T10:29:13Z</time>
      </trkpt>
      <trkpt lat="45.72299" lon="1.20506">
        <ele>306.08627</ele>
        <time>2026-08-08T10:29:14Z</time>
      </trkpt>
      <trkpt lat="45.72297" lon="1.20504">
        <ele>306.08627</ele>
        <time>2026-08-08T10:29:15Z</time>
      </trkpt>
      <trkpt lat="45.72296" lon="1.20502">
        <ele>306.08627</ele>
        <time>2026-08-08T10:29:16Z</time>
      </trkpt>
      <trkpt lat="45.72295" lon="1.20499">
        <ele>306.08627</ele>
        <time>2026-08-08T10:29:17Z</time>
      </trkpt>
      <trkpt lat="45.72294" lon="1.20496">
        <ele>306.08627</ele>
        <time>2026-08-08T10:29:18Z</time>
      </trkpt>
      <trkpt lat="45.72294" lon="1.20492">
        <ele>305.08627</ele>
        <time>2026-08-08T10:29:19Z</time>
      </trkpt>
      <trkpt lat="45.72294" lon="1.20489">
        <ele>305.08627</ele>
        <time>2026-08-08T10:29:20Z</time>
      </trkpt>
      <trkpt lat="45.72294" lon="1.20487">
        <ele>304.08627</ele>
        <time>2026-08-08T10:29:21Z</time>
      </trkpt>
      <trkpt lat="45.72296" lon="1.20487">
        <ele>304.08627</ele>
        <time>2026-08-08T10:29:22Z</time>
      </trkpt>
      <trkpt lat="45.72297" lon="1.20487">
        <ele>303.08627</ele>
        <time>2026-08-08T10:29:23Z</time>
      </trkpt>
      <trkpt lat="45.72298" lon="1.20485">
        <ele>303.08627</ele>
        <time>2026-08-08T10:29:24Z</time>
      </trkpt>
      <trkpt lat="45.72298" lon="1.20485">
        <ele>303.08627</ele>
        <time>2026-08-08T10:29:25Z</time>
      </trkpt>
      <trkpt lat="45.72297" lon="1.20484">
        <ele>302.08627</ele>
        <time>2026-08-08T10:29:26Z</time>
      </trkpt>
      <trkpt lat="45.72296" lon="1.20483">
        <ele>302.08627</ele>
        <time>2026-08-08T10:29:27Z</time>
      </trkpt>
      <trkpt lat="45.72294" lon="1.20481">
        <ele>301.08627</ele>
        <time>2026-08-08T10:29:28Z</time>
      </trkpt>
      <trkpt lat="45.72255" lon="1.20481">
        <ele>297.08627</ele>
        <time>2026-08-08T10:30:38Z</time>
      </trkpt>
      <trkpt lat="45.72255" lon="1.20478">
        <ele>297.08627</ele>
        <time>2026-08-08T10:30:39Z</time>
      </trkpt>
      <trkpt lat="45.72254" lon="1.20474">
        <ele>296.08627</ele>
        <time>2026-08-08T10:30:40Z</time>
      </trkpt>
      <trkpt lat="45.72253" lon="1.2047">
        <ele>296.08627</ele>
        <time>2026-08-08T10:30:41Z</time>
      </trkpt>
      <trkpt lat="45.72254" lon="1.20466">
        <ele>296.08627</ele>
        <time>2026-08-08T10:30:42Z</time>
      </trkpt>
      <trkpt lat="45.72254" lon="1.20462">
        <ele>296.08627</ele>
        <time>2026-08-08T10:30:43Z</time>
      </trkpt>
      <trkpt lat="45.72254" lon="1.20458">
        <ele>296.08627</ele>
        <time>2026-08-08T10:30:44Z</time>
      </trkpt>
      <trkpt lat="45.72254" lon="1.20454">
        <ele>296.08627</ele>
        <time>2026-08-08T10:30:45Z</time>
      </trkpt>
      <trkpt lat="45.72254" lon="1.2045">
        <ele>296.08627</ele>
        <time>2026-08-08T10:30:46Z</time>
      </trkpt>
      <trkpt lat="45.72254" lon="1.20445">
        <ele>296.08627</ele>
        <time>2026-08-08T10:30:47Z</time>
      </trkpt>
      <trkpt lat="45.72254" lon="1.20441">
        <ele>295.08627</ele>
        <time>2026-08-08T10:30:48Z</time>
      </trkpt>
      <trkpt lat="45.72254" lon="1.20438">
        <ele>295.08627</ele>
        <time>2026-08-08T10:30:49Z</time>
      </trkpt>
      <trkpt lat="45.72253" lon="1.20434">
        <ele>295.08627</ele>
        <time>2026-08-08T10:30:50Z</time>
      </trkpt>
      <trkpt lat="45.72254" lon="1.20431">
        <ele>295.08627</ele>
        <time>2026-08-08T10:30:51Z</time>
      </trkpt>
      <trkpt lat="45.72253" lon="1.20427">
        <ele>296.08627</ele>
        <time>2026-08-08T10:30:52Z</time>
      </trkpt>
      <trkpt lat="45.72254" lon="1.20423">
        <ele>296.08627</ele>
        <time>2026-08-08T10:30:53Z</time>
      </trkpt>
      <trkpt lat="45.72254" lon="1.20419">
        <ele>296.08627</ele>
        <time>2026-08-08T10:30:54Z</time>
      </trkpt>
      <trkpt lat="45.72254" lon="1.20417">
        <ele>297.08627</ele>
        <time>2026-08-08T10:30:55Z</time>
      </trkpt>
      <trkpt lat="45.72254" lon="1.20413">
        <ele>297.08627</ele>
        <time>2026-08-08T10:30:56Z</time>
      </trkpt>
      <trkpt lat="45.72254" lon="1.20409">
        <ele>298.08627</ele>
        <time>2026-08-08T10:30:57Z</time>
      </trkpt>
      <trkpt lat="45.72255" lon="1.20406">
        <ele>298.08627</ele>
        <time>2026-08-08T10:30:58Z</time>
      </trkpt>
      <trkpt lat="45.72255" lon="1.20403">
        <ele>298.08627</ele>
        <time>2026-08-08T10:30:59Z</time>
      </trkpt>
      <trkpt lat="45.72256" lon="1.20399">
        <ele>299.08627</ele>
        <time>2026-08-08T10:31:00Z</time>
      </trkpt>
      <trkpt lat="45.72257" lon="1.20395">
        <ele>299.08627</ele>
        <time>2026-08-08T10:31:01Z</time>
      </trkpt>
      <trkpt lat="45.72257" lon="1.20391">
        <ele>300.08627</ele>
        <time>2026-08-08T10:31:02Z</time>
      </trkpt>
      <trkpt lat="45.72258" lon="1.20387">
        <ele>299.08627</ele>
        <time>2026-08-08T10:31:03Z</time>
      </trkpt>
      <trkpt lat="45.72258" lon="1.20382">
        <ele>299.08627</ele>
        <time>2026-08-08T10:31:04Z</time>
      </trkpt>
      <trkpt lat="45.72258" lon="1.20378">
        <ele>299.08627</ele>
        <time>2026-08-08T10:31:05Z</time>
      </trkpt>
      <trkpt lat="45.72257" lon="1.20374">
        <ele>299.08627</ele>
        <time>2026-08-08T10:31:06Z</time>
      </trkpt>
      <trkpt lat="45.72258" lon="1.2037">
        <ele>298.08627</ele>
        <time>2026-08-08T10:31:07Z</time>
      </trkpt>
      <trkpt lat="45.72258" lon="1.20367">
        <ele>298.08627</ele>
        <time>2026-08-08T10:31:08Z</time>
      </trkpt>
      <trkpt lat="45.72258" lon="1.20364">
        <ele>299.08627</ele>
        <time>2026-08-08T10:31:09Z</time>
      </trkpt>
      <trkpt lat="45.72259" lon="1.20362">
        <ele>299.08627</ele>
        <time>2026-08-08T10:31:10Z</time>
      </trkpt>
      <trkpt lat="45.72261" lon="1.20357">
        <ele>299.08627</ele>
        <time>2026-08-08T10:31:11Z</time>
      </trkpt>
      <trkpt lat="45.72261" lon="1.20353">
        <ele>299.08627</ele>
        <time>2026-08-08T10:31:12Z</time>
      </trkpt>
      <trkpt lat="45.72263" lon="1.20349">
        <ele>299.08627</ele>
        <time>2026-08-08T10:31:13Z</time>
      </trkpt>
      <trkpt lat="45.72263" lon="1.20347">
        <ele>299.08627</ele>
        <time>2026-08-08T10:31:14Z</time>
      </trkpt>
      <trkpt lat="45.72263" lon="1.20345">
        <ele>300.08627</ele>
        <time>2026-08-08T10:31:15Z</time>
      </trkpt>
      <trkpt lat="45.72264" lon="1.20342">
        <ele>299.08627</ele>
        <time>2026-08-08T10:31:16Z</time>
      </trkpt>
      <trkpt lat="45.72265" lon="1.20338">
        <ele>300.08627</ele>
        <time>2026-08-08T10:31:17Z</time>
      </trkpt>
      <trkpt lat="45.72266" lon="1.20335">
        <ele>300.08627</ele>
        <time>2026-08-08T10:31:18Z</time>
      </trkpt>
      <trkpt lat="45.72267" lon="1.20332">
        <ele>300.08627</ele>
        <time>2026-08-08T10:31:19Z</time>
      </trkpt>
      <trkpt lat="45.72268" lon="1.20329">
        <ele>300.08627</ele>
        <time>2026-08-08T10:31:20Z</time>
      </trkpt>
      <trkpt lat="45.72269" lon="1.20326">
        <ele>300.08627</ele>
        <time>2026-08-08T10:31:21Z</time>
      </trkpt>
      <trkpt lat="45.72269" lon="1.20322">
        <ele>301.08627</ele>
        <time>2026-08-08T10:31:22Z</time>
      </trkpt>
      <trkpt lat="45.72271" lon="1.20318">
        <ele>301.08627</ele>
        <time>2026-08-08T10:31:23Z</time>
      </trkpt>
      <trkpt lat="45.72271" lon="1.20314">
        <ele>302.08627</ele>
        <time>2026-08-08T10:31:24Z</time>
      </trkpt>
      <trkpt lat="45.72272" lon="1.2031">
        <ele>301.08627</ele>
        <time>2026-08-08T10:31:25Z</time>
      </trkpt>
      <trkpt lat="45.72272" lon="1.20306">
        <ele>302.08627</ele>
        <time>2026-08-08T10:31:26Z</time>
      </trkpt>
      <trkpt lat="45.72273" lon="1.20302">
        <ele>301.08627</ele>
        <time>2026-08-08T10:31:27Z</time>
      </trkpt>
      <trkpt lat="45.72273" lon="1.20298">
        <ele>302.08627</ele>
        <time>2026-08-08T10:31:28Z</time>
      </trkpt>
      <trkpt lat="45.72273" lon="1.20292">
        <ele>303.08627</ele>
        <time>2026-08-08T10:31:29Z</time>
      </trkpt>
      <trkpt lat="45.72273" lon="1.20287">
        <ele>303.08627</ele>
        <time>2026-08-08T10:31:30Z</time>
      </trkpt>
      <trkpt lat="45.72273" lon="1.20283">
        <ele>303.08627</ele>
        <time>2026-08-08T10:31:31Z</time>
      </trkpt>
      <trkpt lat="45.72274" lon="1.20278">
        <ele>303.08627</ele>
        <time>2026-08-08T10:31:32Z</time>
      </trkpt>
      <trkpt lat="45.72275" lon="1.20274">
        <ele>303.08627</ele>
        <time>2026-08-08T10:31:33Z</time>
      </trkpt>
      <trkpt lat="45.72275" lon="1.20269">
        <ele>304.08627</ele>
        <time>2026-08-08T10:31:34Z</time>
      </trkpt>
      <trkpt lat="45.72276" lon="1.20265">
        <ele>304.08627</ele>
        <time>2026-08-08T10:31:35Z</time>
      </trkpt>
      <trkpt lat="45.72275" lon="1.20261">
        <ele>304.08627</ele>
        <time>2026-08-08T10:31:36Z</time>
      </trkpt>
      <trkpt lat="45.72275" lon="1.20258">
        <ele>304.08627</ele>
        <time>2026-08-08T10:31:37Z</time>
      </trkpt>
      <trkpt lat="45.72275" lon="1.20253">
        <ele>305.08627</ele>
        <time>2026-08-08T10:31:38Z</time>
      </trkpt>
      <trkpt lat="45.72276" lon="1.20249">
        <ele>305.08627</ele>
        <time>2026-08-08T10:31:39Z</time>
      </trkpt>
      <trkpt lat="45.72276" lon="1.20244">
        <ele>306.08627</ele>
        <time>2026-08-08T10:31:40Z</time>
      </trkpt>
      <trkpt lat="45.72276" lon="1.2024">
        <ele>306.08627</ele>
        <time>2026-08-08T10:31:41Z</time>
      </trkpt>
      <trkpt lat="45.72276" lon="1.20236">
        <ele>306.08627</ele>
        <time>2026-08-08T10:31:42Z</time>
      </trkpt>
      <trkpt lat="45.72276" lon="1.20231">
        <ele>306.08627</ele>
        <time>2026-08-08T10:31:43Z</time>
      </trkpt>
      <trkpt lat="45.72276" lon="1.20226">
        <ele>307.08627</ele>
        <time>2026-08-08T10:31:44Z</time>
      </trkpt>
      <trkpt lat="45.72276" lon="1.20222">
        <ele>307.08627</ele>
        <time>2026-08-08T10:31:45Z</time>
      </trkpt>
      <trkpt lat="45.72275" lon="1.20218">
        <ele>306.08627</ele>
        <time>2026-08-08T10:31:46Z</time>
      </trkpt>
      <trkpt lat="45.72274" lon="1.20214">
        <ele>307.08627</ele>
        <time>2026-08-08T10:31:47Z</time>
      </trkpt>
      <trkpt lat="45.72273" lon="1.20211">
        <ele>307.08627</ele>
        <time>2026-08-08T10:31:48Z</time>
      </trkpt>
      <trkpt lat="45.72272" lon="1.20209">
        <ele>307.08627</ele>
        <time>2026-08-08T10:31:49Z</time>
      </trkpt>
      <trkpt lat="45.7227" lon="1.20207">
        <ele>308.08627</ele>
        <time>2026-08-08T10:31:50Z</time>
      </trkpt>
      <trkpt lat="45.72268" lon="1.20206">
        <ele>309.08627</ele>
        <time>2026-08-08T10:31:51Z</time>
      </trkpt>
      <trkpt lat="45.72267" lon="1.20207">
        <ele>309.08627</ele>
        <time>2026-08-08T10:31:52Z</time>
      </trkpt>
      <trkpt lat="45.72265" lon="1.20208">
        <ele>310.08627</ele>
        <time>2026-08-08T10:31:53Z</time>
      </trkpt>
      <trkpt lat="45.72264" lon="1.2021">
        <ele>310.08627</ele>
        <time>2026-08-08T10:31:54Z</time>
      </trkpt>
      <trkpt lat="45.72263" lon="1.20212">
        <ele>310.08627</ele>
        <time>2026-08-08T10:31:55Z</time>
      </trkpt>
      <trkpt lat="45.72261" lon="1.20214">
        <ele>311.08627</ele>
        <time>2026-08-08T10:31:56Z</time>
      </trkpt>
      <trkpt lat="45.7226" lon="1.20215">
        <ele>312.08627</ele>
        <time>2026-08-08T10:31:57Z</time>
      </trkpt>
      <trkpt lat="45.72258" lon="1.20216">
        <ele>312.08627</ele>
        <time>2026-08-08T10:31:58Z</time>
      </trkpt>
      <trkpt lat="45.72256" lon="1.20217">
        <ele>312.08627</ele>
        <time>2026-08-08T10:31:59Z</time>
      </trkpt>
      <trkpt lat="45.72255" lon="1.20218">
        <ele>312.08627</ele>
        <time>2026-08-08T10:32:00Z</time>
      </trkpt>
      <trkpt lat="45.72253" lon="1.2022">
        <ele>313.08627</ele>
        <time>2026-08-08T10:32:01Z</time>
      </trkpt>
      <trkpt lat="45.72251" lon="1.20221">
        <ele>313.08627</ele>
        <time>2026-08-08T10:32:02Z</time>
      </trkpt>
      <trkpt lat="45.7225" lon="1.20221">
        <ele>312.08627</ele>
        <time>2026-08-08T10:32:03Z</time>
      </trkpt>
      <trkpt lat="45.72247" lon="1.20222">
        <ele>312.08627</ele>
        <time>2026-08-08T10:32:04Z</time>
      </trkpt>
      <trkpt lat="45.72246" lon="1.20223">
        <ele>312.08627</ele>
        <time>2026-08-08T10:32:05Z</time>
      </trkpt>
      <trkpt lat="45.72244" lon="1.20224">
        <ele>312.08627</ele>
        <time>2026-08-08T10:32:06Z</time>
      </trkpt>
      <trkpt lat="45.72242" lon="1.20225">
        <ele>312.08627</ele>
        <time>2026-08-08T10:32:07Z</time>
      </trkpt>
      <trkpt lat="45.7224" lon="1.20226">
        <ele>312.08627</ele>
        <time>2026-08-08T10:32:08Z</time>
      </trkpt>
      <trkpt lat="45.72237" lon="1.20227">
        <ele>312.08627</ele>
        <time>2026-08-08T10:32:09Z</time>
      </trkpt>
      <trkpt lat="45.72236" lon="1.20227">
        <ele>313.08627</ele>
        <time>2026-08-08T10:32:10Z</time>
      </trkpt>
      <trkpt lat="45.72234" lon="1.20228">
        <ele>313.08627</ele>
        <time>2026-08-08T10:32:11Z</time>
      </trkpt>
      <trkpt lat="45.72232" lon="1.20229">
        <ele>313.08627</ele>
        <time>2026-08-08T10:32:12Z</time>
      </trkpt>
      <trkpt lat="45.7223" lon="1.2023">
        <ele>313.08627</ele>
        <time>2026-08-08T10:32:13Z</time>
      </trkpt>
      <trkpt lat="45.72228" lon="1.2023">
        <ele>314.08627</ele>
        <time>2026-08-08T10:32:14Z</time>
      </trkpt>
      <trkpt lat="45.72226" lon="1.20231">
        <ele>314.08627</ele>
        <time>2026-08-08T10:32:15Z</time>
      </trkpt>
      <trkpt lat="45.72224" lon="1.20231">
        <ele>314.08627</ele>
        <time>2026-08-08T10:32:16Z</time>
      </trkpt>
      <trkpt lat="45.72222" lon="1.20232">
        <ele>314.08627</ele>
        <time>2026-08-08T10:32:17Z</time>
      </trkpt>
      <trkpt lat="45.7222" lon="1.20232">
        <ele>315.08627</ele>
        <time>2026-08-08T10:32:18Z</time>
      </trkpt>
      <trkpt lat="45.72218" lon="1.20232">
        <ele>315.08627</ele>
        <time>2026-08-08T10:32:19Z</time>
      </trkpt>
      <trkpt lat="45.72216" lon="1.20232">
        <ele>315.08627</ele>
        <time>2026-08-08T10:32:20Z</time>
      </trkpt>
      <trkpt lat="45.72214" lon="1.20233">
        <ele>315.08627</ele>
        <time>2026-08-08T10:32:21Z</time>
      </trkpt>
      <trkpt lat="45.72212" lon="1.20233">
        <ele>315.08627</ele>
        <time>2026-08-08T10:32:22Z</time>
      </trkpt>
      <trkpt lat="45.7221" lon="1.20233">
        <ele>315.08627</ele>
        <time>2026-08-08T10:32:23Z</time>
      </trkpt>
      <trkpt lat="45.72208" lon="1.20234">
        <ele>315.08627</ele>
        <time>2026-08-08T10:32:24Z</time>
      </trkpt>
      <trkpt lat="45.72207" lon="1.20234">
        <ele>315.08627</ele>
        <time>2026-08-08T10:32:25Z</time>
      </trkpt>
      <trkpt lat="45.72205" lon="1.20235">
        <ele>315.08627</ele>
        <time>2026-08-08T10:32:26Z</time>
      </trkpt>
      <trkpt lat="45.72204" lon="1.20235">
        <ele>315.08627</ele>
        <time>2026-08-08T10:32:27Z</time>
      </trkpt>
      <trkpt lat="45.72202" lon="1.20234">
        <ele>315.08627</ele>
        <time>2026-08-08T10:32:28Z</time>
      </trkpt>
      <trkpt lat="45.722" lon="1.20235">
        <ele>316.08627</ele>
        <time>2026-08-08T10:32:29Z</time>
      </trkpt>
      <trkpt lat="45.72199" lon="1.20235">
        <ele>316.08627</ele>
        <time>2026-08-08T10:32:30Z</time>
      </trkpt>
      <trkpt lat="45.72198" lon="1.20235">
        <ele>316.08627</ele>
        <time>2026-08-08T10:32:31Z</time>
      </trkpt>
      <trkpt lat="45.72196" lon="1.20234">
        <ele>316.08627</ele>
        <time>2026-08-08T10:32:32Z</time>
      </trkpt>
      <trkpt lat="45.72194" lon="1.20232">
        <ele>316.08627</ele>
        <time>2026-08-08T10:32:33Z</time>
      </trkpt>
      <trkpt lat="45.72193" lon="1.2023">
        <ele>315.08627</ele>
        <time>2026-08-08T10:32:34Z</time>
      </trkpt>
      <trkpt lat="45.72191" lon="1.20228">
        <ele>315.08627</ele>
        <time>2026-08-08T10:32:35Z</time>
      </trkpt>
      <trkpt lat="45.72188" lon="1.20226">
        <ele>315.08627</ele>
        <time>2026-08-08T10:32:36Z</time>
      </trkpt>
      <trkpt lat="45.72186" lon="1.20224">
        <ele>315.08627</ele>
        <time>2026-08-08T10:32:37Z</time>
      </trkpt>
      <trkpt lat="45.72183" lon="1.20222">
        <ele>316.08627</ele>
        <time>2026-08-08T10:32:38Z</time>
      </trkpt>
      <trkpt lat="45.7218" lon="1.20219">
        <ele>316.08627</ele>
        <time>2026-08-08T10:32:39Z</time>
      </trkpt>
      <trkpt lat="45.72177" lon="1.20217">
        <ele>316.08627</ele>
        <time>2026-08-08T10:32:40Z</time>
      </trkpt>
      <trkpt lat="45.72174" lon="1.20215">
        <ele>316.08627</ele>
        <time>2026-08-08T10:32:41Z</time>
      </trkpt>
      <trkpt lat="45.72171" lon="1.20213">
        <ele>316.08627</ele>
        <time>2026-08-08T10:32:42Z</time>
      </trkpt>
      <trkpt lat="45.72169" lon="1.20211">
        <ele>316.08627</ele>
        <time>2026-08-08T10:32:43Z</time>
      </trkpt>
      <trkpt lat="45.72166" lon="1.20209">
        <ele>317.08627</ele>
        <time>2026-08-08T10:32:44Z</time>
      </trkpt>
      <trkpt lat="45.72164" lon="1.20206">
        <ele>317.08627</ele>
        <time>2026-08-08T10:32:45Z</time>
      </trkpt>
      <trkpt lat="45.72161" lon="1.20204">
        <ele>318.08627</ele>
        <time>2026-08-08T10:32:46Z</time>
      </trkpt>
      <trkpt lat="45.72159" lon="1.20203">
        <ele>318.08627</ele>
        <time>2026-08-08T10:32:47Z</time>
      </trkpt>
      <trkpt lat="45.72156" lon="1.20201">
        <ele>319.08627</ele>
        <time>2026-08-08T10:32:48Z</time>
      </trkpt>
      <trkpt lat="45.72153" lon="1.20199">
        <ele>319.08627</ele>
        <time>2026-08-08T10:32:49Z</time>
      </trkpt>
      <trkpt lat="45.72151" lon="1.20198">
        <ele>319.08627</ele>
        <time>2026-08-08T10:32:50Z</time>
      </trkpt>
      <trkpt lat="45.72148" lon="1.20196">
        <ele>320.08627</ele>
        <time>2026-08-08T10:32:51Z</time>
      </trkpt>
      <trkpt lat="45.72145" lon="1.20194">
        <ele>320.08627</ele>
        <time>2026-08-08T10:32:52Z</time>
      </trkpt>
      <trkpt lat="45.72144" lon="1.20193">
        <ele>320.08627</ele>
        <time>2026-08-08T10:32:53Z</time>
      </trkpt>
      <trkpt lat="45.72141" lon="1.20191">
        <ele>320.08627</ele>
        <time>2026-08-08T10:32:54Z</time>
      </trkpt>
      <trkpt lat="45.72139" lon="1.20189">
        <ele>320.08627</ele>
        <time>2026-08-08T10:32:55Z</time>
      </trkpt>
      <trkpt lat="45.72136" lon="1.20187">
        <ele>319.08627</ele>
        <time>2026-08-08T10:32:56Z</time>
      </trkpt>
      <trkpt lat="45.72134" lon="1.20185">
        <ele>319.08627</ele>
        <time>2026-08-08T10:32:57Z</time>
      </trkpt>
      <trkpt lat="45.72132" lon="1.20184">
        <ele>319.08627</ele>
        <time>2026-08-08T10:32:58Z</time>
      </trkpt>
      <trkpt lat="45.72129" lon="1.20183">
        <ele>319.08627</ele>
        <time>2026-08-08T10:32:59Z</time>
      </trkpt>
      <trkpt lat="45.72127" lon="1.20181">
        <ele>319.08627</ele>
        <time>2026-08-08T10:33:00Z</time>
      </trkpt>
      <trkpt lat="45.72125" lon="1.20179">
        <ele>320.08627</ele>
        <time>2026-08-08T10:33:01Z</time>
      </trkpt>
      <trkpt lat="45.72122" lon="1.20176">
        <ele>320.08627</ele>
        <time>2026-08-08T10:33:02Z</time>
      </trkpt>
      <trkpt lat="45.7212" lon="1.20174">
        <ele>321.08627</ele>
        <time>2026-08-08T10:33:03Z</time>
      </trkpt>
      <trkpt lat="45.72118" lon="1.20172">
        <ele>320.08627</ele>
        <time>2026-08-08T10:33:04Z</time>
      </trkpt>
      <trkpt lat="45.72115" lon="1.20169">
        <ele>320.08627</ele>
        <time>2026-08-08T10:33:05Z</time>
      </trkpt>
      <trkpt lat="45.72113" lon="1.20165">
        <ele>321.08627</ele>
        <time>2026-08-08T10:33:06Z</time>
      </trkpt>
      <trkpt lat="45.72111" lon="1.20162">
        <ele>321.08627</ele>
        <time>2026-08-08T10:33:07Z</time>
      </trkpt>
      <trkpt lat="45.72109" lon="1.20158">
        <ele>321.08627</ele>
        <time>2026-08-08T10:33:08Z</time>
      </trkpt>
      <trkpt lat="45.72106" lon="1.20155">
        <ele>322.08627</ele>
        <time>2026-08-08T10:33:09Z</time>
      </trkpt>
      <trkpt lat="45.72104" lon="1.20151">
        <ele>322.08627</ele>
        <time>2026-08-08T10:33:10Z</time>
      </trkpt>
      <trkpt lat="45.72102" lon="1.20148">
        <ele>322.08627</ele>
        <time>2026-08-08T10:33:11Z</time>
      </trkpt>
      <trkpt lat="45.721" lon="1.20145">
        <ele>323.08627</ele>
        <time>2026-08-08T10:33:12Z</time>
      </trkpt>
      <trkpt lat="45.72097" lon="1.20141">
        <ele>323.08627</ele>
        <time>2026-08-08T10:33:13Z</time>
      </trkpt>
      <trkpt lat="45.72095" lon="1.20138">
        <ele>323.08627</ele>
        <time>2026-08-08T10:33:14Z</time>
      </trkpt>
      <trkpt lat="45.72092" lon="1.20135">
        <ele>324.08627</ele>
        <time>2026-08-08T10:33:15Z</time>
      </trkpt>
      <trkpt lat="45.7209" lon="1.20132">
        <ele>324.08627</ele>
        <time>2026-08-08T10:33:16Z</time>
      </trkpt>
      <trkpt lat="45.72088" lon="1.20129">
        <ele>324.08627</ele>
        <time>2026-08-08T10:33:17Z</time>
      </trkpt>
      <trkpt lat="45.72086" lon="1.20126">
        <ele>324.08627</ele>
        <time>2026-08-08T10:33:18Z</time>
      </trkpt>
      <trkpt lat="45.72084" lon="1.20122">
        <ele>325.08627</ele>
        <time>2026-08-08T10:33:19Z</time>
      </trkpt>
      <trkpt lat="45.72081" lon="1.20119">
        <ele>325.08627</ele>
        <time>2026-08-08T10:33:20Z</time>
      </trkpt>
      <trkpt lat="45.72079" lon="1.20116">
        <ele>324.08627</ele>
        <time>2026-08-08T10:33:21Z</time>
      </trkpt>
      <trkpt lat="45.72077" lon="1.20113">
        <ele>324.08627</ele>
        <time>2026-08-08T10:33:22Z</time>
      </trkpt>
      <trkpt lat="45.72075" lon="1.2011">
        <ele>324.08627</ele>
        <time>2026-08-08T10:33:23Z</time>
      </trkpt>
      <trkpt lat="45.72074" lon="1.20107">
        <ele>325.08627</ele>
        <time>2026-08-08T10:33:24Z</time>
      </trkpt>
      <trkpt lat="45.72072" lon="1.20105">
        <ele>325.08627</ele>
        <time>2026-08-08T10:33:25Z</time>
      </trkpt>
      <trkpt lat="45.7207" lon="1.20102">
        <ele>325.08627</ele>
        <time>2026-08-08T10:33:26Z</time>
      </trkpt>
      <trkpt lat="45.72067" lon="1.20099">
        <ele>325.08627</ele>
        <time>2026-08-08T10:33:27Z</time>
      </trkpt>
      <trkpt lat="45.72065" lon="1.20096">
        <ele>325.08627</ele>
        <time>2026-08-08T10:33:28Z</time>
      </trkpt>
      <trkpt lat="45.72063" lon="1.20092">
        <ele>325.08627</ele>
        <time>2026-08-08T10:33:29Z</time>
      </trkpt>
      <trkpt lat="45.72061" lon="1.2009">
        <ele>325.08627</ele>
        <time>2026-08-08T10:33:30Z</time>
      </trkpt>
      <trkpt lat="45.7206" lon="1.20087">
        <ele>325.08627</ele>
        <time>2026-08-08T10:33:31Z</time>
      </trkpt>
      <trkpt lat="45.72058" lon="1.20084">
        <ele>325.08627</ele>
        <time>2026-08-08T10:33:32Z</time>
      </trkpt>
      <trkpt lat="45.72056" lon="1.20081">
        <ele>325.08627</ele>
        <time>2026-08-08T10:33:33Z</time>
      </trkpt>
      <trkpt lat="45.72054" lon="1.20078">
        <ele>325.08627</ele>
        <time>2026-08-08T10:33:34Z</time>
      </trkpt>
      <trkpt lat="45.72052" lon="1.20075">
        <ele>325.08627</ele>
        <time>2026-08-08T10:33:35Z</time>
      </trkpt>
      <trkpt lat="45.72049" lon="1.20073">
        <ele>325.08627</ele>
        <time>2026-08-08T10:33:36Z</time>
      </trkpt>
      <trkpt lat="45.72047" lon="1.2007">
        <ele>326.08627</ele>
        <time>2026-08-08T10:33:37Z</time>
      </trkpt>
      <trkpt lat="45.72045" lon="1.20068">
        <ele>326.08627</ele>
        <time>2026-08-08T10:33:38Z</time>
      </trkpt>
      <trkpt lat="45.72042" lon="1.20065">
        <ele>326.08627</ele>
        <time>2026-08-08T10:33:39Z</time>
      </trkpt>
      <trkpt lat="45.7204" lon="1.20063">
        <ele>327.08627</ele>
        <time>2026-08-08T10:33:40Z</time>
      </trkpt>
      <trkpt lat="45.72037" lon="1.20061">
        <ele>327.08627</ele>
        <time>2026-08-08T10:33:41Z</time>
      </trkpt>
      <trkpt lat="45.72035" lon="1.20059">
        <ele>326.08627</ele>
        <time>2026-08-08T10:33:42Z</time>
      </trkpt>
      <trkpt lat="45.72033" lon="1.20056">
        <ele>326.08627</ele>
        <time>2026-08-08T10:33:43Z</time>
      </trkpt>
      <trkpt lat="45.7203" lon="1.20054">
        <ele>326.08627</ele>
        <time>2026-08-08T10:33:44Z</time>
      </trkpt>
      <trkpt lat="45.72027" lon="1.20052">
        <ele>327.08627</ele>
        <time>2026-08-08T10:33:45Z</time>
      </trkpt>
      <trkpt lat="45.72024" lon="1.2005">
        <ele>327.08627</ele>
        <time>2026-08-08T10:33:46Z</time>
      </trkpt>
      <trkpt lat="45.72022" lon="1.20048">
        <ele>327.08627</ele>
        <time>2026-08-08T10:33:47Z</time>
      </trkpt>
      <trkpt lat="45.7202" lon="1.20046">
        <ele>328.08627</ele>
        <time>2026-08-08T10:33:48Z</time>
      </trkpt>
      <trkpt lat="45.72017" lon="1.20043">
        <ele>327.08627</ele>
        <time>2026-08-08T10:33:49Z</time>
      </trkpt>
      <trkpt lat="45.72015" lon="1.20041">
        <ele>327.08627</ele>
        <time>2026-08-08T10:33:50Z</time>
      </trkpt>
      <trkpt lat="45.72012" lon="1.20039">
        <ele>327.08627</ele>
        <time>2026-08-08T10:33:51Z</time>
      </trkpt>
      <trkpt lat="45.7201" lon="1.20036">
        <ele>328.08627</ele>
        <time>2026-08-08T10:33:52Z</time>
      </trkpt>
      <trkpt lat="45.72009" lon="1.20033">
        <ele>329.08627</ele>
        <time>2026-08-08T10:33:53Z</time>
      </trkpt>
      <trkpt lat="45.72006" lon="1.20031">
        <ele>329.08627</ele>
        <time>2026-08-08T10:33:54Z</time>
      </trkpt>
      <trkpt lat="45.72004" lon="1.20029">
        <ele>329.08627</ele>
        <time>2026-08-08T10:33:55Z</time>
      </trkpt>
      <trkpt lat="45.72002" lon="1.20025">
        <ele>330.08627</ele>
        <time>2026-08-08T10:33:56Z</time>
      </trkpt>
      <trkpt lat="45.72" lon="1.20023">
        <ele>330.08627</ele>
        <time>2026-08-08T10:33:57Z</time>
      </trkpt>
      <trkpt lat="45.71998" lon="1.20021">
        <ele>330.08627</ele>
        <time>2026-08-08T10:33:58Z</time>
      </trkpt>
      <trkpt lat="45.71996" lon="1.20019">
        <ele>331.08627</ele>
        <time>2026-08-08T10:33:59Z</time>
      </trkpt>
      <trkpt lat="45.71994" lon="1.20017">
        <ele>331.08627</ele>
        <time>2026-08-08T10:34:00Z</time>
      </trkpt>
      <trkpt lat="45.71992" lon="1.20014">
        <ele>331.08627</ele>
        <time>2026-08-08T10:34:01Z</time>
      </trkpt>
      <trkpt lat="45.71991" lon="1.20011">
        <ele>331.08627</ele>
        <time>2026-08-08T10:34:02Z</time>
      </trkpt>
      <trkpt lat="45.71989" lon="1.20009">
        <ele>332.08627</ele>
        <time>2026-08-08T10:34:03Z</time>
      </trkpt>
      <trkpt lat="45.71988" lon="1.20007">
        <ele>332.08627</ele>
        <time>2026-08-08T10:34:04Z</time>
      </trkpt>
      <trkpt lat="45.71986" lon="1.20005">
        <ele>332.08627</ele>
        <time>2026-08-08T10:34:05Z</time>
      </trkpt>
      <trkpt lat="45.71984" lon="1.20003">
        <ele>333.08627</ele>
        <time>2026-08-08T10:34:06Z</time>
      </trkpt>
      <trkpt lat="45.71982" lon="1.20001">
        <ele>333.08627</ele>
        <time>2026-08-08T10:34:07Z</time>
      </trkpt>
      <trkpt lat="45.7198" lon="1.19998">
        <ele>333.08627</ele>
        <time>2026-08-08T10:34:08Z</time>
      </trkpt>
      <trkpt lat="45.71979" lon="1.19996">
        <ele>334.08627</ele>
        <time>2026-08-08T10:34:09Z</time>
      </trkpt>
      <trkpt lat="45.71977" lon="1.19994">
        <ele>334.08627</ele>
        <time>2026-08-08T10:34:10Z</time>
      </trkpt>
      <trkpt lat="45.71975" lon="1.19992">
        <ele>334.08627</ele>
        <time>2026-08-08T10:34:11Z</time>
      </trkpt>
      <trkpt lat="45.71973" lon="1.19992">
        <ele>334.08627</ele>
        <time>2026-08-08T10:34:12Z</time>
      </trkpt>
      <trkpt lat="45.7197" lon="1.19992">
        <ele>335.08627</ele>
        <time>2026-08-08T10:34:13Z</time>
      </trkpt>
      <trkpt lat="45.71967" lon="1.19992">
        <ele>335.08627</ele>
        <time>2026-08-08T10:34:14Z</time>
      </trkpt>
      <trkpt lat="45.71965" lon="1.19993">
        <ele>335.08627</ele>
        <time>2026-08-08T10:34:15Z</time>
      </trkpt>
      <trkpt lat="45.71962" lon="1.19993">
        <ele>335.08627</ele>
        <time>2026-08-08T10:34:16Z</time>
      </trkpt>
      <trkpt lat="45.7196" lon="1.19994">
        <ele>335.08627</ele>
        <time>2026-08-08T10:34:17Z</time>
      </trkpt>
      <trkpt lat="45.71958" lon="1.19995">
        <ele>335.08627</ele>
        <time>2026-08-08T10:34:18Z</time>
      </trkpt>
      <trkpt lat="45.71955" lon="1.19995">
        <ele>335.08627</ele>
        <time>2026-08-08T10:34:19Z</time>
      </trkpt>
      <trkpt lat="45.71952" lon="1.19996">
        <ele>335.08627</ele>
        <time>2026-08-08T10:34:20Z</time>
      </trkpt>
      <trkpt lat="45.7195" lon="1.19996">
        <ele>335.08627</ele>
        <time>2026-08-08T10:34:21Z</time>
      </trkpt>
      <trkpt lat="45.71947" lon="1.19996">
        <ele>335.08627</ele>
        <time>2026-08-08T10:34:22Z</time>
      </trkpt>
      <trkpt lat="45.71944" lon="1.19996">
        <ele>336.08627</ele>
        <time>2026-08-08T10:34:23Z</time>
      </trkpt>
      <trkpt lat="45.71942" lon="1.19996">
        <ele>336.08627</ele>
        <time>2026-08-08T10:34:24Z</time>
      </trkpt>
      <trkpt lat="45.71939" lon="1.19996">
        <ele>336.08627</ele>
        <time>2026-08-08T10:34:25Z</time>
      </trkpt>
      <trkpt lat="45.71937" lon="1.19995">
        <ele>336.08627</ele>
        <time>2026-08-08T10:34:26Z</time>
      </trkpt>
      <trkpt lat="45.71934" lon="1.19996">
        <ele>336.08627</ele>
        <time>2026-08-08T10:34:27Z</time>
      </trkpt>
      <trkpt lat="45.71931" lon="1.19996">
        <ele>336.08627</ele>
        <time>2026-08-08T10:34:28Z</time>
      </trkpt>
      <trkpt lat="45.71928" lon="1.19996">
        <ele>336.08627</ele>
        <time>2026-08-08T10:34:29Z</time>
      </trkpt>
      <trkpt lat="45.71925" lon="1.19996">
        <ele>337.08627</ele>
        <time>2026-08-08T10:34:30Z</time>
      </trkpt>
      <trkpt lat="45.71923" lon="1.19995">
        <ele>337.08627</ele>
        <time>2026-08-08T10:34:31Z</time>
      </trkpt>
      <trkpt lat="45.7192" lon="1.19995">
        <ele>337.08627</ele>
        <time>2026-08-08T10:34:32Z</time>
      </trkpt>
      <trkpt lat="45.71917" lon="1.19994">
        <ele>337.08627</ele>
        <time>2026-08-08T10:34:33Z</time>
      </trkpt>
      <trkpt lat="45.71914" lon="1.19993">
        <ele>337.08627</ele>
        <time>2026-08-08T10:34:34Z</time>
      </trkpt>
      <trkpt lat="45.71912" lon="1.19993">
        <ele>337.08627</ele>
        <time>2026-08-08T10:34:35Z</time>
      </trkpt>
      <trkpt lat="45.71909" lon="1.19992">
        <ele>337.08627</ele>
        <time>2026-08-08T10:34:36Z</time>
      </trkpt>
      <trkpt lat="45.71906" lon="1.19992">
        <ele>337.08627</ele>
        <time>2026-08-08T10:34:37Z</time>
      </trkpt>
      <trkpt lat="45.71903" lon="1.19992">
        <ele>337.08627</ele>
        <time>2026-08-08T10:34:38Z</time>
      </trkpt>
      <trkpt lat="45.71901" lon="1.19991">
        <ele>337.08627</ele>
        <time>2026-08-08T10:34:39Z</time>
      </trkpt>
      <trkpt lat="45.71898" lon="1.19991">
        <ele>337.08627</ele>
        <time>2026-08-08T10:34:40Z</time>
      </trkpt>
      <trkpt lat="45.71896" lon="1.1999">
        <ele>338.08627</ele>
        <time>2026-08-08T10:34:41Z</time>
      </trkpt>
      <trkpt lat="45.71894" lon="1.19989">
        <ele>338.08627</ele>
        <time>2026-08-08T10:34:42Z</time>
      </trkpt>
      <trkpt lat="45.71893" lon="1.19989">
        <ele>338.08627</ele>
        <time>2026-08-08T10:34:43Z</time>
      </trkpt>
      <trkpt lat="45.71892" lon="1.19988">
        <ele>338.08627</ele>
        <time>2026-08-08T10:34:44Z</time>
      </trkpt>
      <trkpt lat="45.71891" lon="1.19988">
        <ele>338.08627</ele>
        <time>2026-08-08T10:34:45Z</time>
      </trkpt>
      <trkpt lat="45.71891" lon="1.19988">
        <ele>338.08627</ele>
        <time>2026-08-08T10:34:46Z</time>
      </trkpt>
      <trkpt lat="45.71891" lon="1.19988">
        <ele>338.08627</ele>
        <time>2026-08-08T10:34:47Z</time>
      </trkpt>
      <trkpt lat="45.71891" lon="1.19988">
        <ele>338.08627</ele>
        <time>2026-08-08T10:34:48Z</time>
      </trkpt>
      <trkpt lat="45.7188" lon="1.19977">
        <ele>340.08627</ele>
        <time>2026-08-08T10:35:26Z</time>
      </trkpt>
      <trkpt lat="45.71877" lon="1.19973">
        <ele>340.08627</ele>
        <time>2026-08-08T10:35:27Z</time>
      </trkpt>
      <trkpt lat="45.71875" lon="1.19969">
        <ele>340.08627</ele>
        <time>2026-08-08T10:35:28Z</time>
      </trkpt>
      <trkpt lat="45.71873" lon="1.19966">
        <ele>340.08627</ele>
        <time>2026-08-08T10:35:29Z</time>
      </trkpt>
      <trkpt lat="45.7187" lon="1.19963">
        <ele>340.08627</ele>
        <time>2026-08-08T10:35:30Z</time>
      </trkpt>
      <trkpt lat="45.71868" lon="1.19959">
        <ele>340.08627</ele>
        <time>2026-08-08T10:35:31Z</time>
      </trkpt>
      <trkpt lat="45.71865" lon="1.19956">
        <ele>340.08627</ele>
        <time>2026-08-08T10:35:32Z</time>
      </trkpt>
      <trkpt lat="45.71862" lon="1.19951">
        <ele>341.08627</ele>
        <time>2026-08-08T10:35:33Z</time>
      </trkpt>
      <trkpt lat="45.71858" lon="1.19947">
        <ele>341.08627</ele>
        <time>2026-08-08T10:35:34Z</time>
      </trkpt>
      <trkpt lat="45.71855" lon="1.19944">
        <ele>341.08627</ele>
        <time>2026-08-08T10:35:35Z</time>
      </trkpt>
      <trkpt lat="45.71851" lon="1.1994">
        <ele>342.08627</ele>
        <time>2026-08-08T10:35:36Z</time>
      </trkpt>
      <trkpt lat="45.71848" lon="1.19936">
        <ele>341.08627</ele>
        <time>2026-08-08T10:35:37Z</time>
      </trkpt>
      <trkpt lat="45.71845" lon="1.19932">
        <ele>341.08627</ele>
        <time>2026-08-08T10:35:38Z</time>
      </trkpt>
      <trkpt lat="45.71842" lon="1.19928">
        <ele>340.08627</ele>
        <time>2026-08-08T10:35:39Z</time>
      </trkpt>
      <trkpt lat="45.71839" lon="1.19924">
        <ele>340.08627</ele>
        <time>2026-08-08T10:35:40Z</time>
      </trkpt>
      <trkpt lat="45.71836" lon="1.19919">
        <ele>340.08627</ele>
        <time>2026-08-08T10:35:41Z</time>
      </trkpt>
      <trkpt lat="45.71833" lon="1.19915">
        <ele>341.08627</ele>
        <time>2026-08-08T10:35:42Z</time>
      </trkpt>
      <trkpt lat="45.7183" lon="1.19911">
        <ele>341.08627</ele>
        <time>2026-08-08T10:35:43Z</time>
      </trkpt>
      <trkpt lat="45.71826" lon="1.19907">
        <ele>341.08627</ele>
        <time>2026-08-08T10:35:44Z</time>
      </trkpt>
      <trkpt lat="45.71823" lon="1.19902">
        <ele>341.08627</ele>
        <time>2026-08-08T10:35:45Z</time>
      </trkpt>
      <trkpt lat="45.7182" lon="1.19898">
        <ele>341.08627</ele>
        <time>2026-08-08T10:35:46Z</time>
      </trkpt>
      <trkpt lat="45.71817" lon="1.19893">
        <ele>341.08627</ele>
        <time>2026-08-08T10:35:47Z</time>
      </trkpt>
      <trkpt lat="45.71814" lon="1.19889">
        <ele>342.08627</ele>
        <time>2026-08-08T10:35:48Z</time>
      </trkpt>
      <trkpt lat="45.71811" lon="1.19884">
        <ele>341.08627</ele>
        <time>2026-08-08T10:35:49Z</time>
      </trkpt>
      <trkpt lat="45.71808" lon="1.1988">
        <ele>342.08627</ele>
        <time>2026-08-08T10:35:50Z</time>
      </trkpt>
      <trkpt lat="45.71805" lon="1.19876">
        <ele>342.08627</ele>
        <time>2026-08-08T10:35:51Z</time>
      </trkpt>
      <trkpt lat="45.71802" lon="1.19871">
        <ele>342.08627</ele>
        <time>2026-08-08T10:35:52Z</time>
      </trkpt>
      <trkpt lat="45.718" lon="1.19866">
        <ele>341.08627</ele>
        <time>2026-08-08T10:35:53Z</time>
      </trkpt>
      <trkpt lat="45.71797" lon="1.19861">
        <ele>341.08627</ele>
        <time>2026-08-08T10:35:54Z</time>
      </trkpt>
      <trkpt lat="45.71794" lon="1.19856">
        <ele>341.08627</ele>
        <time>2026-08-08T10:35:55Z</time>
      </trkpt>
      <trkpt lat="45.71791" lon="1.19852">
        <ele>341.08627</ele>
        <time>2026-08-08T10:35:56Z</time>
      </trkpt>
      <trkpt lat="45.71788" lon="1.19847">
        <ele>342.08627</ele>
        <time>2026-08-08T10:35:57Z</time>
      </trkpt>
      <trkpt lat="45.71786" lon="1.19842">
        <ele>341.08627</ele>
        <time>2026-08-08T10:35:58Z</time>
      </trkpt>
      <trkpt lat="45.71783" lon="1.19838">
        <ele>341.08627</ele>
        <time>2026-08-08T10:35:59Z</time>
      </trkpt>
      <trkpt lat="45.7178" lon="1.19834">
        <ele>341.08627</ele>
        <time>2026-08-08T10:36:00Z</time>
      </trkpt>
      <trkpt lat="45.71777" lon="1.19829">
        <ele>341.08627</ele>
        <time>2026-08-08T10:36:01Z</time>
      </trkpt>
      <trkpt lat="45.71774" lon="1.19824">
        <ele>341.08627</ele>
        <time>2026-08-08T10:36:02Z</time>
      </trkpt>
      <trkpt lat="45.71772" lon="1.19819">
        <ele>341.08627</ele>
        <time>2026-08-08T10:36:03Z</time>
      </trkpt>
      <trkpt lat="45.71769" lon="1.19815">
        <ele>341.08627</ele>
        <time>2026-08-08T10:36:04Z</time>
      </trkpt>
      <trkpt lat="45.71766" lon="1.19811">
        <ele>341.08627</ele>
        <time>2026-08-08T10:36:05Z</time>
      </trkpt>
      <trkpt lat="45.71763" lon="1.19807">
        <ele>341.08627</ele>
        <time>2026-08-08T10:36:06Z</time>
      </trkpt>
      <trkpt lat="45.71761" lon="1.19803">
        <ele>341.08627</ele>
        <time>2026-08-08T10:36:07Z</time>
      </trkpt>
      <trkpt lat="45.71758" lon="1.19799">
        <ele>341.08627</ele>
        <time>2026-08-08T10:36:08Z</time>
      </trkpt>
      <trkpt lat="45.71755" lon="1.19795">
        <ele>341.08627</ele>
        <time>2026-08-08T10:36:09Z</time>
      </trkpt>
      <trkpt lat="45.71753" lon="1.19791">
        <ele>341.08627</ele>
        <time>2026-08-08T10:36:10Z</time>
      </trkpt>
      <trkpt lat="45.7175" lon="1.19788">
        <ele>340.08627</ele>
        <time>2026-08-08T10:36:11Z</time>
      </trkpt>
      <trkpt lat="45.71747" lon="1.19783">
        <ele>340.08627</ele>
        <time>2026-08-08T10:36:12Z</time>
      </trkpt>
      <trkpt lat="45.71744" lon="1.19779">
        <ele>340.08627</ele>
        <time>2026-08-08T10:36:13Z</time>
      </trkpt>
      <trkpt lat="45.71741" lon="1.19776">
        <ele>340.08627</ele>
        <time>2026-08-08T10:36:14Z</time>
      </trkpt>
      <trkpt lat="45.71738" lon="1.19773">
        <ele>340.08627</ele>
        <time>2026-08-08T10:36:15Z</time>
      </trkpt>
      <trkpt lat="45.71736" lon="1.1977">
        <ele>340.08627</ele>
        <time>2026-08-08T10:36:16Z</time>
      </trkpt>
      <trkpt lat="45.71734" lon="1.19766">
        <ele>340.08627</ele>
        <time>2026-08-08T10:36:17Z</time>
      </trkpt>
      <trkpt lat="45.71731" lon="1.19763">
        <ele>340.08627</ele>
        <time>2026-08-08T10:36:18Z</time>
      </trkpt>
      <trkpt lat="45.71728" lon="1.1976">
        <ele>340.08627</ele>
        <time>2026-08-08T10:36:19Z</time>
      </trkpt>
      <trkpt lat="45.71725" lon="1.19757">
        <ele>339.08627</ele>
        <time>2026-08-08T10:36:20Z</time>
      </trkpt>
      <trkpt lat="45.71722" lon="1.19754">
        <ele>339.08627</ele>
        <time>2026-08-08T10:36:21Z</time>
      </trkpt>
      <trkpt lat="45.71718" lon="1.19752">
        <ele>339.08627</ele>
        <time>2026-08-08T10:36:22Z</time>
      </trkpt>
      <trkpt lat="45.71715" lon="1.19751">
        <ele>339.08627</ele>
        <time>2026-08-08T10:36:23Z</time>
      </trkpt>
      <trkpt lat="45.71712" lon="1.19751">
        <ele>339.08627</ele>
        <time>2026-08-08T10:36:24Z</time>
      </trkpt>
      <trkpt lat="45.71709" lon="1.19752">
        <ele>339.08627</ele>
        <time>2026-08-08T10:36:25Z</time>
      </trkpt>
      <trkpt lat="45.71706" lon="1.19754">
        <ele>338.08627</ele>
        <time>2026-08-08T10:36:26Z</time>
      </trkpt>
      <trkpt lat="45.71703" lon="1.19757">
        <ele>338.08627</ele>
        <time>2026-08-08T10:36:27Z</time>
      </trkpt>
      <trkpt lat="45.71699" lon="1.19759">
        <ele>339.08627</ele>
        <time>2026-08-08T10:36:28Z</time>
      </trkpt>
      <trkpt lat="45.71696" lon="1.1976">
        <ele>339.08627</ele>
        <time>2026-08-08T10:36:29Z</time>
      </trkpt>
      <trkpt lat="45.71692" lon="1.19762">
        <ele>339.08627</ele>
        <time>2026-08-08T10:36:30Z</time>
      </trkpt>
      <trkpt lat="45.71689" lon="1.19765">
        <ele>339.08627</ele>
        <time>2026-08-08T10:36:31Z</time>
      </trkpt>
      <trkpt lat="45.71685" lon="1.19767">
        <ele>338.08627</ele>
        <time>2026-08-08T10:36:32Z</time>
      </trkpt>
      <trkpt lat="45.71681" lon="1.19769">
        <ele>338.08627</ele>
        <time>2026-08-08T10:36:33Z</time>
      </trkpt>
      <trkpt lat="45.71678" lon="1.1977">
        <ele>338.08627</ele>
        <time>2026-08-08T10:36:34Z</time>
      </trkpt>
      <trkpt lat="45.71674" lon="1.19772">
        <ele>338.08627</ele>
        <time>2026-08-08T10:36:35Z</time>
      </trkpt>
      <trkpt lat="45.71671" lon="1.19775">
        <ele>339.08627</ele>
        <time>2026-08-08T10:36:36Z</time>
      </trkpt>
      <trkpt lat="45.71668" lon="1.19777">
        <ele>339.08627</ele>
        <time>2026-08-08T10:36:37Z</time>
      </trkpt>
      <trkpt lat="45.71664" lon="1.19779">
        <ele>339.08627</ele>
        <time>2026-08-08T10:36:38Z</time>
      </trkpt>
      <trkpt lat="45.7166" lon="1.19781">
        <ele>339.08627</ele>
        <time>2026-08-08T10:36:39Z</time>
      </trkpt>
      <trkpt lat="45.71657" lon="1.19783">
        <ele>339.08627</ele>
        <time>2026-08-08T10:36:40Z</time>
      </trkpt>
      <trkpt lat="45.71653" lon="1.19785">
        <ele>338.08627</ele>
        <time>2026-08-08T10:36:41Z</time>
      </trkpt>
      <trkpt lat="45.7165" lon="1.19787">
        <ele>338.08627</ele>
        <time>2026-08-08T10:36:42Z</time>
      </trkpt>
      <trkpt lat="45.71646" lon="1.19788">
        <ele>338.08627</ele>
        <time>2026-08-08T10:36:43Z</time>
      </trkpt>
      <trkpt lat="45.71643" lon="1.19789">
        <ele>339.08627</ele>
        <time>2026-08-08T10:36:44Z</time>
      </trkpt>
      <trkpt lat="45.7164" lon="1.1979">
        <ele>339.08627</ele>
        <time>2026-08-08T10:36:45Z</time>
      </trkpt>
      <trkpt lat="45.71637" lon="1.19792">
        <ele>339.08627</ele>
        <time>2026-08-08T10:36:46Z</time>
      </trkpt>
      <trkpt lat="45.71634" lon="1.19793">
        <ele>339.08627</ele>
        <time>2026-08-08T10:36:47Z</time>
      </trkpt>
      <trkpt lat="45.71631" lon="1.19794">
        <ele>338.08627</ele>
        <time>2026-08-08T10:36:48Z</time>
      </trkpt>
      <trkpt lat="45.71628" lon="1.19796">
        <ele>338.08627</ele>
        <time>2026-08-08T10:36:49Z</time>
      </trkpt>
      <trkpt lat="45.71625" lon="1.19798">
        <ele>338.08627</ele>
        <time>2026-08-08T10:36:50Z</time>
      </trkpt>
      <trkpt lat="45.71623" lon="1.19801">
        <ele>338.08627</ele>
        <time>2026-08-08T10:36:51Z</time>
      </trkpt>
      <trkpt lat="45.71621" lon="1.19803">
        <ele>338.08627</ele>
        <time>2026-08-08T10:36:52Z</time>
      </trkpt>
      <trkpt lat="45.71618" lon="1.19805">
        <ele>338.08627</ele>
        <time>2026-08-08T10:36:53Z</time>
      </trkpt>
      <trkpt lat="45.71615" lon="1.19808">
        <ele>338.08627</ele>
        <time>2026-08-08T10:36:54Z</time>
      </trkpt>
      <trkpt lat="45.71613" lon="1.1981">
        <ele>338.08627</ele>
        <time>2026-08-08T10:36:55Z</time>
      </trkpt>
      <trkpt lat="45.7161" lon="1.19812">
        <ele>338.08627</ele>
        <time>2026-08-08T10:36:56Z</time>
      </trkpt>
      <trkpt lat="45.71608" lon="1.19814">
        <ele>338.08627</ele>
        <time>2026-08-08T10:36:57Z</time>
      </trkpt>
      <trkpt lat="45.71606" lon="1.19816">
        <ele>338.08627</ele>
        <time>2026-08-08T10:36:58Z</time>
      </trkpt>
      <trkpt lat="45.71604" lon="1.19817">
        <ele>338.08627</ele>
        <time>2026-08-08T10:36:59Z</time>
      </trkpt>
      <trkpt lat="45.71601" lon="1.19818">
        <ele>338.08627</ele>
        <time>2026-08-08T10:37:00Z</time>
      </trkpt>
      <trkpt lat="45.71598" lon="1.19819">
        <ele>337.08627</ele>
        <time>2026-08-08T10:37:01Z</time>
      </trkpt>
      <trkpt lat="45.71595" lon="1.19822">
        <ele>338.08627</ele>
        <time>2026-08-08T10:37:02Z</time>
      </trkpt>
      <trkpt lat="45.71592" lon="1.19825">
        <ele>337.08627</ele>
        <time>2026-08-08T10:37:03Z</time>
      </trkpt>
      <trkpt lat="45.71589" lon="1.19826">
        <ele>337.08627</ele>
        <time>2026-08-08T10:37:04Z</time>
      </trkpt>
      <trkpt lat="45.71586" lon="1.19827">
        <ele>337.08627</ele>
        <time>2026-08-08T10:37:05Z</time>
      </trkpt>
      <trkpt lat="45.71584" lon="1.19828">
        <ele>337.08627</ele>
        <time>2026-08-08T10:37:06Z</time>
      </trkpt>
      <trkpt lat="45.71582" lon="1.19829">
        <ele>337.08627</ele>
        <time>2026-08-08T10:37:07Z</time>
      </trkpt>
      <trkpt lat="45.71579" lon="1.19829">
        <ele>336.08627</ele>
        <time>2026-08-08T10:37:08Z</time>
      </trkpt>
      <trkpt lat="45.71577" lon="1.19831">
        <ele>336.08627</ele>
        <time>2026-08-08T10:37:09Z</time>
      </trkpt>
      <trkpt lat="45.71575" lon="1.19832">
        <ele>336.08627</ele>
        <time>2026-08-08T10:37:10Z</time>
      </trkpt>
      <trkpt lat="45.71572" lon="1.19833">
        <ele>336.08627</ele>
        <time>2026-08-08T10:37:11Z</time>
      </trkpt>
      <trkpt lat="45.7157" lon="1.19834">
        <ele>336.08627</ele>
        <time>2026-08-08T10:37:12Z</time>
      </trkpt>
      <trkpt lat="45.71567" lon="1.19836">
        <ele>336.08627</ele>
        <time>2026-08-08T10:37:13Z</time>
      </trkpt>
      <trkpt lat="45.71563" lon="1.19837">
        <ele>337.08627</ele>
        <time>2026-08-08T10:37:14Z</time>
      </trkpt>
      <trkpt lat="45.7156" lon="1.19839">
        <ele>337.08627</ele>
        <time>2026-08-08T10:37:15Z</time>
      </trkpt>
      <trkpt lat="45.71557" lon="1.1984">
        <ele>337.08627</ele>
        <time>2026-08-08T10:37:16Z</time>
      </trkpt>
      <trkpt lat="45.71555" lon="1.19843">
        <ele>337.08627</ele>
        <time>2026-08-08T10:37:17Z</time>
      </trkpt>
      <trkpt lat="45.71552" lon="1.19844">
        <ele>337.08627</ele>
        <time>2026-08-08T10:37:18Z</time>
      </trkpt>
      <trkpt lat="45.71549" lon="1.19845">
        <ele>337.08627</ele>
        <time>2026-08-08T10:37:19Z</time>
      </trkpt>
      <trkpt lat="45.71546" lon="1.19846">
        <ele>337.08627</ele>
        <time>2026-08-08T10:37:20Z</time>
      </trkpt>
      <trkpt lat="45.71544" lon="1.19848">
        <ele>337.08627</ele>
        <time>2026-08-08T10:37:21Z</time>
      </trkpt>
      <trkpt lat="45.71541" lon="1.1985">
        <ele>337.08627</ele>
        <time>2026-08-08T10:37:22Z</time>
      </trkpt>
      <trkpt lat="45.71538" lon="1.19851">
        <ele>337.08627</ele>
        <time>2026-08-08T10:37:23Z</time>
      </trkpt>
      <trkpt lat="45.71536" lon="1.19853">
        <ele>337.08627</ele>
        <time>2026-08-08T10:37:24Z</time>
      </trkpt>
      <trkpt lat="45.71534" lon="1.19855">
        <ele>337.08627</ele>
        <time>2026-08-08T10:37:25Z</time>
      </trkpt>
      <trkpt lat="45.71531" lon="1.19856">
        <ele>337.08627</ele>
        <time>2026-08-08T10:37:26Z</time>
      </trkpt>
      <trkpt lat="45.71529" lon="1.19857">
        <ele>337.08627</ele>
        <time>2026-08-08T10:37:27Z</time>
      </trkpt>
      <trkpt lat="45.71526" lon="1.19858">
        <ele>337.08627</ele>
        <time>2026-08-08T10:37:28Z</time>
      </trkpt>
      <trkpt lat="45.71524" lon="1.1986">
        <ele>337.08627</ele>
        <time>2026-08-08T10:37:29Z</time>
      </trkpt>
      <trkpt lat="45.71522" lon="1.19862">
        <ele>337.08627</ele>
        <time>2026-08-08T10:37:30Z</time>
      </trkpt>
      <trkpt lat="45.71521" lon="1.19865">
        <ele>337.08627</ele>
        <time>2026-08-08T10:37:31Z</time>
      </trkpt>
      <trkpt lat="45.7152" lon="1.19869">
        <ele>337.08627</ele>
        <time>2026-08-08T10:37:32Z</time>
      </trkpt>
      <trkpt lat="45.71517" lon="1.19873">
        <ele>338.08627</ele>
        <time>2026-08-08T10:37:33Z</time>
      </trkpt>
      <trkpt lat="45.71515" lon="1.19878">
        <ele>338.08627</ele>
        <time>2026-08-08T10:37:34Z</time>
      </trkpt>
      <trkpt lat="45.71512" lon="1.19881">
        <ele>337.08627</ele>
        <time>2026-08-08T10:37:35Z</time>
      </trkpt>
      <trkpt lat="45.71512" lon="1.19884">
        <ele>337.08627</ele>
        <time>2026-08-08T10:37:36Z</time>
      </trkpt>
      <trkpt lat="45.7151" lon="1.19888">
        <ele>336.08627</ele>
        <time>2026-08-08T10:37:37Z</time>
      </trkpt>
      <trkpt lat="45.7151" lon="1.19892">
        <ele>336.08627</ele>
        <time>2026-08-08T10:37:38Z</time>
      </trkpt>
      <trkpt lat="45.71508" lon="1.19896">
        <ele>336.08627</ele>
        <time>2026-08-08T10:37:39Z</time>
      </trkpt>
      <trkpt lat="45.71507" lon="1.199">
        <ele>336.08627</ele>
        <time>2026-08-08T10:37:40Z</time>
      </trkpt>
      <trkpt lat="45.71506" lon="1.19903">
        <ele>336.08627</ele>
        <time>2026-08-08T10:37:41Z</time>
      </trkpt>
      <trkpt lat="45.71504" lon="1.19906">
        <ele>336.08627</ele>
        <time>2026-08-08T10:37:42Z</time>
      </trkpt>
      <trkpt lat="45.71503" lon="1.1991">
        <ele>335.08627</ele>
        <time>2026-08-08T10:37:43Z</time>
      </trkpt>
      <trkpt lat="45.71502" lon="1.19913">
        <ele>335.08627</ele>
        <time>2026-08-08T10:37:44Z</time>
      </trkpt>
      <trkpt lat="45.71501" lon="1.19917">
        <ele>335.08627</ele>
        <time>2026-08-08T10:37:45Z</time>
      </trkpt>
      <trkpt lat="45.715" lon="1.1992">
        <ele>335.08627</ele>
        <time>2026-08-08T10:37:46Z</time>
      </trkpt>
      <trkpt lat="45.71499" lon="1.19924">
        <ele>335.08627</ele>
        <time>2026-08-08T10:37:47Z</time>
      </trkpt>
      <trkpt lat="45.71499" lon="1.19928">
        <ele>335.08627</ele>
        <time>2026-08-08T10:37:48Z</time>
      </trkpt>
      <trkpt lat="45.715" lon="1.19931">
        <ele>335.08627</ele>
        <time>2026-08-08T10:37:49Z</time>
      </trkpt>
      <trkpt lat="45.71501" lon="1.19936">
        <ele>335.08627</ele>
        <time>2026-08-08T10:37:50Z</time>
      </trkpt>
      <trkpt lat="45.71502" lon="1.1994">
        <ele>335.08627</ele>
        <time>2026-08-08T10:37:51Z</time>
      </trkpt>
      <trkpt lat="45.71503" lon="1.19944">
        <ele>335.08627</ele>
        <time>2026-08-08T10:37:52Z</time>
      </trkpt>
      <trkpt lat="45.71503" lon="1.19948">
        <ele>335.08627</ele>
        <time>2026-08-08T10:37:53Z</time>
      </trkpt>
      <trkpt lat="45.71504" lon="1.19952">
        <ele>334.08627</ele>
        <time>2026-08-08T10:37:54Z</time>
      </trkpt>
      <trkpt lat="45.71505" lon="1.19956">
        <ele>334.08627</ele>
        <time>2026-08-08T10:37:55Z</time>
      </trkpt>
      <trkpt lat="45.71505" lon="1.19959">
        <ele>335.08627</ele>
        <time>2026-08-08T10:37:56Z</time>
      </trkpt>
      <trkpt lat="45.71504" lon="1.19962">
        <ele>335.08627</ele>
        <time>2026-08-08T10:37:57Z</time>
      </trkpt>
      <trkpt lat="45.71503" lon="1.19965">
        <ele>335.08627</ele>
        <time>2026-08-08T10:37:58Z</time>
      </trkpt>
      <trkpt lat="45.71501" lon="1.19967">
        <ele>334.08627</ele>
        <time>2026-08-08T10:37:59Z</time>
      </trkpt>
      <trkpt lat="45.715" lon="1.1997">
        <ele>335.08627</ele>
        <time>2026-08-08T10:38:00Z</time>
      </trkpt>
      <trkpt lat="45.71498" lon="1.19973">
        <ele>335.08627</ele>
        <time>2026-08-08T10:38:01Z</time>
      </trkpt>
      <trkpt lat="45.71495" lon="1.19975">
        <ele>335.08627</ele>
        <time>2026-08-08T10:38:02Z</time>
      </trkpt>
      <trkpt lat="45.71493" lon="1.19977">
        <ele>335.08627</ele>
        <time>2026-08-08T10:38:03Z</time>
      </trkpt>
      <trkpt lat="45.71491" lon="1.1998">
        <ele>335.08627</ele>
        <time>2026-08-08T10:38:04Z</time>
      </trkpt>
      <trkpt lat="45.71489" lon="1.19983">
        <ele>335.08627</ele>
        <time>2026-08-08T10:38:05Z</time>
      </trkpt>
      <trkpt lat="45.71488" lon="1.19986">
        <ele>335.08627</ele>
        <time>2026-08-08T10:38:06Z</time>
      </trkpt>
      <trkpt lat="45.71486" lon="1.1999">
        <ele>335.08627</ele>
        <time>2026-08-08T10:38:07Z</time>
      </trkpt>
      <trkpt lat="45.71484" lon="1.19993">
        <ele>335.08627</ele>
        <time>2026-08-08T10:38:08Z</time>
      </trkpt>
      <trkpt lat="45.71483" lon="1.19996">
        <ele>335.08627</ele>
        <time>2026-08-08T10:38:09Z</time>
      </trkpt>
      <trkpt lat="45.7148" lon="1.19998">
        <ele>335.08627</ele>
        <time>2026-08-08T10:38:10Z</time>
      </trkpt>
      <trkpt lat="45.71477" lon="1.19999">
        <ele>336.08627</ele>
        <time>2026-08-08T10:38:11Z</time>
      </trkpt>
      <trkpt lat="45.71474" lon="1.19999">
        <ele>336.08627</ele>
        <time>2026-08-08T10:38:12Z</time>
      </trkpt>
      <trkpt lat="45.71471" lon="1.19999">
        <ele>336.08627</ele>
        <time>2026-08-08T10:38:13Z</time>
      </trkpt>
      <trkpt lat="45.71469" lon="1.19999">
        <ele>336.08627</ele>
        <time>2026-08-08T10:38:14Z</time>
      </trkpt>
      <trkpt lat="45.71466" lon="1.19999">
        <ele>336.08627</ele>
        <time>2026-08-08T10:38:15Z</time>
      </trkpt>
      <trkpt lat="45.71464" lon="1.19998">
        <ele>336.08627</ele>
        <time>2026-08-08T10:38:16Z</time>
      </trkpt>
      <trkpt lat="45.71461" lon="1.19997">
        <ele>336.08627</ele>
        <time>2026-08-08T10:38:17Z</time>
      </trkpt>
      <trkpt lat="45.71458" lon="1.19996">
        <ele>336.08627</ele>
        <time>2026-08-08T10:38:18Z</time>
      </trkpt>
      <trkpt lat="45.71455" lon="1.19996">
        <ele>336.08627</ele>
        <time>2026-08-08T10:38:19Z</time>
      </trkpt>
      <trkpt lat="45.71452" lon="1.19995">
        <ele>335.08627</ele>
        <time>2026-08-08T10:38:20Z</time>
      </trkpt>
      <trkpt lat="45.71449" lon="1.19994">
        <ele>335.08627</ele>
        <time>2026-08-08T10:38:21Z</time>
      </trkpt>
      <trkpt lat="45.71446" lon="1.19994">
        <ele>336.08627</ele>
        <time>2026-08-08T10:38:22Z</time>
      </trkpt>
      <trkpt lat="45.71443" lon="1.19993">
        <ele>336.08627</ele>
        <time>2026-08-08T10:38:23Z</time>
      </trkpt>
      <trkpt lat="45.7144" lon="1.19993">
        <ele>336.08627</ele>
        <time>2026-08-08T10:38:24Z</time>
      </trkpt>
      <trkpt lat="45.71437" lon="1.19992">
        <ele>337.08627</ele>
        <time>2026-08-08T10:38:25Z</time>
      </trkpt>
      <trkpt lat="45.71435" lon="1.19991">
        <ele>337.08627</ele>
        <time>2026-08-08T10:38:26Z</time>
      </trkpt>
      <trkpt lat="45.71432" lon="1.19991">
        <ele>337.08627</ele>
        <time>2026-08-08T10:38:27Z</time>
      </trkpt>
      <trkpt lat="45.7143" lon="1.19991">
        <ele>337.08627</ele>
        <time>2026-08-08T10:38:28Z</time>
      </trkpt>
      <trkpt lat="45.71428" lon="1.19991">
        <ele>337.08627</ele>
        <time>2026-08-08T10:38:29Z</time>
      </trkpt>
      <trkpt lat="45.71426" lon="1.19991">
        <ele>337.08627</ele>
        <time>2026-08-08T10:38:30Z</time>
      </trkpt>
      <trkpt lat="45.71424" lon="1.19992">
        <ele>338.08627</ele>
        <time>2026-08-08T10:38:31Z</time>
      </trkpt>
      <trkpt lat="45.71422" lon="1.19994">
        <ele>338.08627</ele>
        <time>2026-08-08T10:38:32Z</time>
      </trkpt>
      <trkpt lat="45.71421" lon="1.19997">
        <ele>339.08627</ele>
        <time>2026-08-08T10:38:33Z</time>
      </trkpt>
      <trkpt lat="45.71419" lon="1.19999">
        <ele>339.08627</ele>
        <time>2026-08-08T10:38:34Z</time>
      </trkpt>
      <trkpt lat="45.71417" lon="1.20001">
        <ele>339.08627</ele>
        <time>2026-08-08T10:38:35Z</time>
      </trkpt>
      <trkpt lat="45.71415" lon="1.20004">
        <ele>338.08627</ele>
        <time>2026-08-08T10:38:36Z</time>
      </trkpt>
      <trkpt lat="45.71413" lon="1.20007">
        <ele>338.08627</ele>
        <time>2026-08-08T10:38:37Z</time>
      </trkpt>
      <trkpt lat="45.71412" lon="1.20011">
        <ele>338.08627</ele>
        <time>2026-08-08T10:38:38Z</time>
      </trkpt>
      <trkpt lat="45.71411" lon="1.20014">
        <ele>338.08627</ele>
        <time>2026-08-08T10:38:39Z</time>
      </trkpt>
      <trkpt lat="45.7141" lon="1.20018">
        <ele>338.08627</ele>
        <time>2026-08-08T10:38:40Z</time>
      </trkpt>
      <trkpt lat="45.71408" lon="1.20021">
        <ele>338.08627</ele>
        <time>2026-08-08T10:38:41Z</time>
      </trkpt>
      <trkpt lat="45.71406" lon="1.20024">
        <ele>338.08627</ele>
        <time>2026-08-08T10:38:42Z</time>
      </trkpt>
      <trkpt lat="45.71405" lon="1.20027">
        <ele>338.08627</ele>
        <time>2026-08-08T10:38:43Z</time>
      </trkpt>
      <trkpt lat="45.71404" lon="1.2003">
        <ele>338.08627</ele>
        <time>2026-08-08T10:38:44Z</time>
      </trkpt>
      <trkpt lat="45.71404" lon="1.20034">
        <ele>338.08627</ele>
        <time>2026-08-08T10:38:45Z</time>
      </trkpt>
      <trkpt lat="45.71405" lon="1.20037">
        <ele>338.08627</ele>
        <time>2026-08-08T10:38:46Z</time>
      </trkpt>
      <trkpt lat="45.71406" lon="1.2004">
        <ele>338.08627</ele>
        <time>2026-08-08T10:38:47Z</time>
      </trkpt>
      <trkpt lat="45.71407" lon="1.20043">
        <ele>338.08627</ele>
        <time>2026-08-08T10:38:48Z</time>
      </trkpt>
      <trkpt lat="45.71407" lon="1.20048">
        <ele>337.08627</ele>
        <time>2026-08-08T10:38:49Z</time>
      </trkpt>
      <trkpt lat="45.71407" lon="1.20052">
        <ele>337.08627</ele>
        <time>2026-08-08T10:38:50Z</time>
      </trkpt>
      <trkpt lat="45.71407" lon="1.20057">
        <ele>337.08627</ele>
        <time>2026-08-08T10:38:51Z</time>
      </trkpt>
      <trkpt lat="45.71406" lon="1.20061">
        <ele>337.08627</ele>
        <time>2026-08-08T10:38:52Z</time>
      </trkpt>
      <trkpt lat="45.71405" lon="1.20065">
        <ele>337.08627</ele>
        <time>2026-08-08T10:38:53Z</time>
      </trkpt>
      <trkpt lat="45.71403" lon="1.20069">
        <ele>338.08627</ele>
        <time>2026-08-08T10:38:54Z</time>
      </trkpt>
      <trkpt lat="45.714" lon="1.20073">
        <ele>338.08627</ele>
        <time>2026-08-08T10:38:55Z</time>
      </trkpt>
      <trkpt lat="45.71398" lon="1.20076">
        <ele>338.08627</ele>
        <time>2026-08-08T10:38:56Z</time>
      </trkpt>
      <trkpt lat="45.71396" lon="1.2008">
        <ele>338.08627</ele>
        <time>2026-08-08T10:38:57Z</time>
      </trkpt>
      <trkpt lat="45.71393" lon="1.20083">
        <ele>338.08627</ele>
        <time>2026-08-08T10:38:58Z</time>
      </trkpt>
      <trkpt lat="45.71391" lon="1.20085">
        <ele>338.08627</ele>
        <time>2026-08-08T10:38:59Z</time>
      </trkpt>
      <trkpt lat="45.71389" lon="1.20088">
        <ele>338.08627</ele>
        <time>2026-08-08T10:39:00Z</time>
      </trkpt>
      <trkpt lat="45.71387" lon="1.20091">
        <ele>338.08627</ele>
        <time>2026-08-08T10:39:01Z</time>
      </trkpt>
      <trkpt lat="45.71385" lon="1.20094">
        <ele>338.08627</ele>
        <time>2026-08-08T10:39:02Z</time>
      </trkpt>
      <trkpt lat="45.71382" lon="1.20097">
        <ele>338.08627</ele>
        <time>2026-08-08T10:39:03Z</time>
      </trkpt>
      <trkpt lat="45.71381" lon="1.20099">
        <ele>338.08627</ele>
        <time>2026-08-08T10:39:04Z</time>
      </trkpt>
      <trkpt lat="45.7138" lon="1.20101">
        <ele>338.08627</ele>
        <time>2026-08-08T10:39:05Z</time>
      </trkpt>
      <trkpt lat="45.71379" lon="1.20103">
        <ele>339.08627</ele>
        <time>2026-08-08T10:39:06Z</time>
      </trkpt>
      <trkpt lat="45.71378" lon="1.20105">
        <ele>339.08627</ele>
        <time>2026-08-08T10:39:07Z</time>
      </trkpt>
      <trkpt lat="45.71377" lon="1.20107">
        <ele>340.08627</ele>
        <time>2026-08-08T10:39:08Z</time>
      </trkpt>
      <trkpt lat="45.71378" lon="1.20109">
        <ele>340.08627</ele>
        <time>2026-08-08T10:39:09Z</time>
      </trkpt>
      <trkpt lat="45.71378" lon="1.20113">
        <ele>339.08627</ele>
        <time>2026-08-08T10:39:10Z</time>
      </trkpt>
      <trkpt lat="45.7138" lon="1.20117">
        <ele>339.08627</ele>
        <time>2026-08-08T10:39:11Z</time>
      </trkpt>
      <trkpt lat="45.71382" lon="1.20122">
        <ele>339.08627</ele>
        <time>2026-08-08T10:39:12Z</time>
      </trkpt>
      <trkpt lat="45.71384" lon="1.20126">
        <ele>338.08627</ele>
        <time>2026-08-08T10:39:13Z</time>
      </trkpt>
      <trkpt lat="45.71387" lon="1.20131">
        <ele>338.08627</ele>
        <time>2026-08-08T10:39:14Z</time>
      </trkpt>
      <trkpt lat="45.71389" lon="1.20136">
        <ele>337.08627</ele>
        <time>2026-08-08T10:39:15Z</time>
      </trkpt>
      <trkpt lat="45.71392" lon="1.20142">
        <ele>337.08627</ele>
        <time>2026-08-08T10:39:16Z</time>
      </trkpt>
      <trkpt lat="45.71394" lon="1.20148">
        <ele>337.08627</ele>
        <time>2026-08-08T10:39:17Z</time>
      </trkpt>
      <trkpt lat="45.71397" lon="1.20154">
        <ele>336.08627</ele>
        <time>2026-08-08T10:39:18Z</time>
      </trkpt>
      <trkpt lat="45.714" lon="1.20159">
        <ele>336.08627</ele>
        <time>2026-08-08T10:39:19Z</time>
      </trkpt>
      <trkpt lat="45.71402" lon="1.20164">
        <ele>336.08627</ele>
        <time>2026-08-08T10:39:20Z</time>
      </trkpt>
      <trkpt lat="45.71404" lon="1.20168">
        <ele>335.08627</ele>
        <time>2026-08-08T10:39:21Z</time>
      </trkpt>
      <trkpt lat="45.71406" lon="1.20172">
        <ele>335.08627</ele>
        <time>2026-08-08T10:39:22Z</time>
      </trkpt>
      <trkpt lat="45.71408" lon="1.20176">
        <ele>335.08627</ele>
        <time>2026-08-08T10:39:23Z</time>
      </trkpt>
      <trkpt lat="45.7141" lon="1.20182">
        <ele>335.08627</ele>
        <time>2026-08-08T10:39:24Z</time>
      </trkpt>
      <trkpt lat="45.7141" lon="1.20187">
        <ele>335.08627</ele>
        <time>2026-08-08T10:39:25Z</time>
      </trkpt>
      <trkpt lat="45.71411" lon="1.20193">
        <ele>335.08627</ele>
        <time>2026-08-08T10:39:26Z</time>
      </trkpt>
      <trkpt lat="45.71411" lon="1.202">
        <ele>335.08627</ele>
        <time>2026-08-08T10:39:27Z</time>
      </trkpt>
      <trkpt lat="45.71412" lon="1.20208">
        <ele>335.08627</ele>
        <time>2026-08-08T10:39:28Z</time>
      </trkpt>
      <trkpt lat="45.71413" lon="1.20215">
        <ele>335.08627</ele>
        <time>2026-08-08T10:39:29Z</time>
      </trkpt>
      <trkpt lat="45.71413" lon="1.20222">
        <ele>334.08627</ele>
        <time>2026-08-08T10:39:30Z</time>
      </trkpt>
      <trkpt lat="45.71414" lon="1.2023">
        <ele>334.08627</ele>
        <time>2026-08-08T10:39:31Z</time>
      </trkpt>
      <trkpt lat="45.71414" lon="1.20237">
        <ele>334.08627</ele>
        <time>2026-08-08T10:39:32Z</time>
      </trkpt>
      <trkpt lat="45.71415" lon="1.20245">
        <ele>334.08627</ele>
        <time>2026-08-08T10:39:33Z</time>
      </trkpt>
      <trkpt lat="45.71416" lon="1.20253">
        <ele>334.08627</ele>
        <time>2026-08-08T10:39:34Z</time>
      </trkpt>
      <trkpt lat="45.71417" lon="1.20261">
        <ele>334.08627</ele>
        <time>2026-08-08T10:39:35Z</time>
      </trkpt>
      <trkpt lat="45.71417" lon="1.20269">
        <ele>334.08627</ele>
        <time>2026-08-08T10:39:36Z</time>
      </trkpt>
      <trkpt lat="45.71419" lon="1.20276">
        <ele>334.08627</ele>
        <time>2026-08-08T10:39:37Z</time>
      </trkpt>
      <trkpt lat="45.71419" lon="1.20283">
        <ele>334.08627</ele>
        <time>2026-08-08T10:39:38Z</time>
      </trkpt>
      <trkpt lat="45.71418" lon="1.2029">
        <ele>334.08627</ele>
        <time>2026-08-08T10:39:39Z</time>
      </trkpt>
      <trkpt lat="45.71418" lon="1.20297">
        <ele>334.08627</ele>
        <time>2026-08-08T10:39:40Z</time>
      </trkpt>
      <trkpt lat="45.71418" lon="1.20304">
        <ele>334.08627</ele>
        <time>2026-08-08T10:39:41Z</time>
      </trkpt>
      <trkpt lat="45.71418" lon="1.20312">
        <ele>334.08627</ele>
        <time>2026-08-08T10:39:42Z</time>
      </trkpt>
      <trkpt lat="45.71418" lon="1.20317">
        <ele>334.08627</ele>
        <time>2026-08-08T10:39:43Z</time>
      </trkpt>
      <trkpt lat="45.71418" lon="1.20322">
        <ele>334.08627</ele>
        <time>2026-08-08T10:39:44Z</time>
      </trkpt>
      <trkpt lat="45.71419" lon="1.20328">
        <ele>334.08627</ele>
        <time>2026-08-08T10:39:45Z</time>
      </trkpt>
      <trkpt lat="45.7142" lon="1.20334">
        <ele>334.08627</ele>
        <time>2026-08-08T10:39:46Z</time>
      </trkpt>
      <trkpt lat="45.71421" lon="1.2034">
        <ele>334.08627</ele>
        <time>2026-08-08T10:39:47Z</time>
      </trkpt>
      <trkpt lat="45.71423" lon="1.20346">
        <ele>334.08627</ele>
        <time>2026-08-08T10:39:48Z</time>
      </trkpt>
      <trkpt lat="45.71424" lon="1.20352">
        <ele>334.08627</ele>
        <time>2026-08-08T10:39:49Z</time>
      </trkpt>
      <trkpt lat="45.71425" lon="1.20358">
        <ele>334.08627</ele>
        <time>2026-08-08T10:39:50Z</time>
      </trkpt>
      <trkpt lat="45.71425" lon="1.20364">
        <ele>334.08627</ele>
        <time>2026-08-08T10:39:51Z</time>
      </trkpt>
      <trkpt lat="45.71424" lon="1.20369">
        <ele>334.08627</ele>
        <time>2026-08-08T10:39:52Z</time>
      </trkpt>
      <trkpt lat="45.71422" lon="1.20374">
        <ele>334.08627</ele>
        <time>2026-08-08T10:39:53Z</time>
      </trkpt>
      <trkpt lat="45.71419" lon="1.20379">
        <ele>334.08627</ele>
        <time>2026-08-08T10:39:54Z</time>
      </trkpt>
      <trkpt lat="45.71415" lon="1.20383">
        <ele>334.08627</ele>
        <time>2026-08-08T10:39:55Z</time>
      </trkpt>
      <trkpt lat="45.71412" lon="1.20386">
        <ele>333.08627</ele>
        <time>2026-08-08T10:39:56Z</time>
      </trkpt>
      <trkpt lat="45.71408" lon="1.20388">
        <ele>333.08627</ele>
        <time>2026-08-08T10:39:57Z</time>
      </trkpt>
      <trkpt lat="45.71405" lon="1.20391">
        <ele>333.08627</ele>
        <time>2026-08-08T10:39:58Z</time>
      </trkpt>
      <trkpt lat="45.71402" lon="1.20393">
        <ele>333.08627</ele>
        <time>2026-08-08T10:39:59Z</time>
      </trkpt>
      <trkpt lat="45.71398" lon="1.20395">
        <ele>333.08627</ele>
        <time>2026-08-08T10:40:00Z</time>
      </trkpt>
      <trkpt lat="45.71395" lon="1.20399">
        <ele>333.08627</ele>
        <time>2026-08-08T10:40:01Z</time>
      </trkpt>
      <trkpt lat="45.71392" lon="1.20401">
        <ele>333.08627</ele>
        <time>2026-08-08T10:40:02Z</time>
      </trkpt>
      <trkpt lat="45.71389" lon="1.20405">
        <ele>332.08627</ele>
        <time>2026-08-08T10:40:03Z</time>
      </trkpt>
      <trkpt lat="45.71386" lon="1.20408">
        <ele>332.08627</ele>
        <time>2026-08-08T10:40:04Z</time>
      </trkpt>
      <trkpt lat="45.71383" lon="1.20411">
        <ele>332.08627</ele>
        <time>2026-08-08T10:40:05Z</time>
      </trkpt>
      <trkpt lat="45.71379" lon="1.20415">
        <ele>332.08627</ele>
        <time>2026-08-08T10:40:06Z</time>
      </trkpt>
      <trkpt lat="45.71375" lon="1.20418">
        <ele>332.08627</ele>
        <time>2026-08-08T10:40:07Z</time>
      </trkpt>
      <trkpt lat="45.71371" lon="1.20422">
        <ele>332.08627</ele>
        <time>2026-08-08T10:40:08Z</time>
      </trkpt>
      <trkpt lat="45.71367" lon="1.20425">
        <ele>332.08627</ele>
        <time>2026-08-08T10:40:09Z</time>
      </trkpt>
      <trkpt lat="45.71363" lon="1.20429">
        <ele>332.08627</ele>
        <time>2026-08-08T10:40:10Z</time>
      </trkpt>
      <trkpt lat="45.71358" lon="1.20434">
        <ele>332.08627</ele>
        <time>2026-08-08T10:40:11Z</time>
      </trkpt>
      <trkpt lat="45.71353" lon="1.20438">
        <ele>331.08627</ele>
        <time>2026-08-08T10:40:12Z</time>
      </trkpt>
      <trkpt lat="45.71348" lon="1.20441">
        <ele>331.08627</ele>
        <time>2026-08-08T10:40:13Z</time>
      </trkpt>
      <trkpt lat="45.71342" lon="1.20444">
        <ele>331.08627</ele>
        <time>2026-08-08T10:40:14Z</time>
      </trkpt>
      <trkpt lat="45.71337" lon="1.20448">
        <ele>331.08627</ele>
        <time>2026-08-08T10:40:15Z</time>
      </trkpt>
      <trkpt lat="45.71331" lon="1.20451">
        <ele>330.08627</ele>
        <time>2026-08-08T10:40:16Z</time>
      </trkpt>
      <trkpt lat="45.71326" lon="1.20455">
        <ele>330.08627</ele>
        <time>2026-08-08T10:40:17Z</time>
      </trkpt>
      <trkpt lat="45.71321" lon="1.20457">
        <ele>329.08627</ele>
        <time>2026-08-08T10:40:18Z</time>
      </trkpt>
      <trkpt lat="45.71316" lon="1.2046">
        <ele>329.08627</ele>
        <time>2026-08-08T10:40:19Z</time>
      </trkpt>
      <trkpt lat="45.71312" lon="1.20462">
        <ele>328.08627</ele>
        <time>2026-08-08T10:40:20Z</time>
      </trkpt>
      <trkpt lat="45.71307" lon="1.20463">
        <ele>328.08627</ele>
        <time>2026-08-08T10:40:21Z</time>
      </trkpt>
      <trkpt lat="45.71302" lon="1.20465">
        <ele>327.08627</ele>
        <time>2026-08-08T10:40:22Z</time>
      </trkpt>
      <trkpt lat="45.71297" lon="1.20467">
        <ele>327.08627</ele>
        <time>2026-08-08T10:40:23Z</time>
      </trkpt>
      <trkpt lat="45.71292" lon="1.20467">
        <ele>327.08627</ele>
        <time>2026-08-08T10:40:24Z</time>
      </trkpt>
      <trkpt lat="45.71287" lon="1.20469">
        <ele>327.08627</ele>
        <time>2026-08-08T10:40:25Z</time>
      </trkpt>
      <trkpt lat="45.71282" lon="1.20471">
        <ele>327.08627</ele>
        <time>2026-08-08T10:40:26Z</time>
      </trkpt>
      <trkpt lat="45.71276" lon="1.20472">
        <ele>326.08627</ele>
        <time>2026-08-08T10:40:27Z</time>
      </trkpt>
      <trkpt lat="45.71271" lon="1.20474">
        <ele>325.08627</ele>
        <time>2026-08-08T10:40:28Z</time>
      </trkpt>
      <trkpt lat="45.71266" lon="1.20476">
        <ele>325.08627</ele>
        <time>2026-08-08T10:40:29Z</time>
      </trkpt>
      <trkpt lat="45.7126" lon="1.20478">
        <ele>325.08627</ele>
        <time>2026-08-08T10:40:30Z</time>
      </trkpt>
      <trkpt lat="45.71254" lon="1.2048">
        <ele>325.08627</ele>
        <time>2026-08-08T10:40:31Z</time>
      </trkpt>
      <trkpt lat="45.71248" lon="1.20482">
        <ele>324.08627</ele>
        <time>2026-08-08T10:40:32Z</time>
      </trkpt>
      <trkpt lat="45.71243" lon="1.20484">
        <ele>324.08627</ele>
        <time>2026-08-08T10:40:33Z</time>
      </trkpt>
      <trkpt lat="45.71237" lon="1.20486">
        <ele>324.08627</ele>
        <time>2026-08-08T10:40:34Z</time>
      </trkpt>
      <trkpt lat="45.71232" lon="1.20487">
        <ele>324.08627</ele>
        <time>2026-08-08T10:40:35Z</time>
      </trkpt>
      <trkpt lat="45.71227" lon="1.20488">
        <ele>324.08627</ele>
        <time>2026-08-08T10:40:36Z</time>
      </trkpt>
      <trkpt lat="45.71222" lon="1.20488">
        <ele>323.08627</ele>
        <time>2026-08-08T10:40:37Z</time>
      </trkpt>
      <trkpt lat="45.71218" lon="1.20486">
        <ele>323.08627</ele>
        <time>2026-08-08T10:40:38Z</time>
      </trkpt>
      <trkpt lat="45.71213" lon="1.20484">
        <ele>323.08627</ele>
        <time>2026-08-08T10:40:39Z</time>
      </trkpt>
      <trkpt lat="45.71208" lon="1.20482">
        <ele>323.08627</ele>
        <time>2026-08-08T10:40:40Z</time>
      </trkpt>
      <trkpt lat="45.71204" lon="1.20478">
        <ele>323.08627</ele>
        <time>2026-08-08T10:40:41Z</time>
      </trkpt>
      <trkpt lat="45.712" lon="1.20473">
        <ele>323.08627</ele>
        <time>2026-08-08T10:40:42Z</time>
      </trkpt>
      <trkpt lat="45.71196" lon="1.20468">
        <ele>323.08627</ele>
        <time>2026-08-08T10:40:43Z</time>
      </trkpt>
      <trkpt lat="45.71193" lon="1.20463">
        <ele>323.08627</ele>
        <time>2026-08-08T10:40:44Z</time>
      </trkpt>
      <trkpt lat="45.71189" lon="1.20459">
        <ele>322.08627</ele>
        <time>2026-08-08T10:40:45Z</time>
      </trkpt>
      <trkpt lat="45.71185" lon="1.20455">
        <ele>322.08627</ele>
        <time>2026-08-08T10:40:46Z</time>
      </trkpt>
      <trkpt lat="45.71182" lon="1.20451">
        <ele>321.08627</ele>
        <time>2026-08-08T10:40:47Z</time>
      </trkpt>
      <trkpt lat="45.71179" lon="1.20447">
        <ele>321.08627</ele>
        <time>2026-08-08T10:40:48Z</time>
      </trkpt>
      <trkpt lat="45.71176" lon="1.20443">
        <ele>321.08627</ele>
        <time>2026-08-08T10:40:49Z</time>
      </trkpt>
      <trkpt lat="45.71173" lon="1.20439">
        <ele>321.08627</ele>
        <time>2026-08-08T10:40:50Z</time>
      </trkpt>
      <trkpt lat="45.7117" lon="1.20436">
        <ele>320.08627</ele>
        <time>2026-08-08T10:40:51Z</time>
      </trkpt>
      <trkpt lat="45.71167" lon="1.20432">
        <ele>320.08627</ele>
        <time>2026-08-08T10:40:52Z</time>
      </trkpt>
      <trkpt lat="45.71164" lon="1.20429">
        <ele>319.08627</ele>
        <time>2026-08-08T10:40:53Z</time>
      </trkpt>
      <trkpt lat="45.7116" lon="1.20428">
        <ele>319.08627</ele>
        <time>2026-08-08T10:40:54Z</time>
      </trkpt>
      <trkpt lat="45.71155" lon="1.20428">
        <ele>318.08627</ele>
        <time>2026-08-08T10:40:55Z</time>
      </trkpt>
      <trkpt lat="45.7115" lon="1.20428">
        <ele>318.08627</ele>
        <time>2026-08-08T10:40:56Z</time>
      </trkpt>
      <trkpt lat="45.71146" lon="1.20429">
        <ele>318.08627</ele>
        <time>2026-08-08T10:40:57Z</time>
      </trkpt>
      <trkpt lat="45.71142" lon="1.2043">
        <ele>318.08627</ele>
        <time>2026-08-08T10:40:58Z</time>
      </trkpt>
      <trkpt lat="45.71139" lon="1.20432">
        <ele>317.08627</ele>
        <time>2026-08-08T10:40:59Z</time>
      </trkpt>
      <trkpt lat="45.71135" lon="1.20434">
        <ele>317.08627</ele>
        <time>2026-08-08T10:41:00Z</time>
      </trkpt>
      <trkpt lat="45.71131" lon="1.20436">
        <ele>317.08627</ele>
        <time>2026-08-08T10:41:01Z</time>
      </trkpt>
      <trkpt lat="45.71127" lon="1.20438">
        <ele>317.08627</ele>
        <time>2026-08-08T10:41:02Z</time>
      </trkpt>
      <trkpt lat="45.71123" lon="1.2044">
        <ele>317.08627</ele>
        <time>2026-08-08T10:41:03Z</time>
      </trkpt>
      <trkpt lat="45.71119" lon="1.20443">
        <ele>317.08627</ele>
        <time>2026-08-08T10:41:04Z</time>
      </trkpt>
      <trkpt lat="45.71117" lon="1.20446">
        <ele>317.08627</ele>
        <time>2026-08-08T10:41:05Z</time>
      </trkpt>
      <trkpt lat="45.71114" lon="1.20449">
        <ele>318.08627</ele>
        <time>2026-08-08T10:41:06Z</time>
      </trkpt>
      <trkpt lat="45.71111" lon="1.20453">
        <ele>317.08627</ele>
        <time>2026-08-08T10:41:07Z</time>
      </trkpt>
      <trkpt lat="45.7111" lon="1.20456">
        <ele>317.08627</ele>
        <time>2026-08-08T10:41:08Z</time>
      </trkpt>
      <trkpt lat="45.71109" lon="1.2046">
        <ele>317.08627</ele>
        <time>2026-08-08T10:41:09Z</time>
      </trkpt>
      <trkpt lat="45.71108" lon="1.20464">
        <ele>317.08627</ele>
        <time>2026-08-08T10:41:10Z</time>
      </trkpt>
      <trkpt lat="45.71107" lon="1.20468">
        <ele>317.08627</ele>
        <time>2026-08-08T10:41:11Z</time>
      </trkpt>
      <trkpt lat="45.71106" lon="1.20472">
        <ele>318.08627</ele>
        <time>2026-08-08T10:41:12Z</time>
      </trkpt>
      <trkpt lat="45.71105" lon="1.20476">
        <ele>317.08627</ele>
        <time>2026-08-08T10:41:13Z</time>
      </trkpt>
      <trkpt lat="45.71104" lon="1.2048">
        <ele>317.08627</ele>
        <time>2026-08-08T10:41:14Z</time>
      </trkpt>
      <trkpt lat="45.71104" lon="1.20485">
        <ele>318.08627</ele>
        <time>2026-08-08T10:41:15Z</time>
      </trkpt>
      <trkpt lat="45.71103" lon="1.20488">
        <ele>318.08627</ele>
        <time>2026-08-08T10:41:16Z</time>
      </trkpt>
      <trkpt lat="45.71103" lon="1.20492">
        <ele>318.08627</ele>
        <time>2026-08-08T10:41:17Z</time>
      </trkpt>
      <trkpt lat="45.71103" lon="1.20497">
        <ele>318.08627</ele>
        <time>2026-08-08T10:41:18Z</time>
      </trkpt>
      <trkpt lat="45.71102" lon="1.20502">
        <ele>318.08627</ele>
        <time>2026-08-08T10:41:19Z</time>
      </trkpt>
      <trkpt lat="45.71102" lon="1.20506">
        <ele>318.08627</ele>
        <time>2026-08-08T10:41:20Z</time>
      </trkpt>
      <trkpt lat="45.71101" lon="1.2051">
        <ele>318.08627</ele>
        <time>2026-08-08T10:41:21Z</time>
      </trkpt>
      <trkpt lat="45.711" lon="1.20514">
        <ele>318.08627</ele>
        <time>2026-08-08T10:41:22Z</time>
      </trkpt>
      <trkpt lat="45.71099" lon="1.20518">
        <ele>318.08627</ele>
        <time>2026-08-08T10:41:23Z</time>
      </trkpt>
      <trkpt lat="45.71098" lon="1.20523">
        <ele>318.08627</ele>
        <time>2026-08-08T10:41:24Z</time>
      </trkpt>
      <trkpt lat="45.71097" lon="1.20527">
        <ele>318.08627</ele>
        <time>2026-08-08T10:41:25Z</time>
      </trkpt>
      <trkpt lat="45.71097" lon="1.20532">
        <ele>318.08627</ele>
        <time>2026-08-08T10:41:26Z</time>
      </trkpt>
      <trkpt lat="45.71097" lon="1.20536">
        <ele>318.08627</ele>
        <time>2026-08-08T10:41:27Z</time>
      </trkpt>
      <trkpt lat="45.71095" lon="1.2054">
        <ele>318.08627</ele>
        <time>2026-08-08T10:41:28Z</time>
      </trkpt>
      <trkpt lat="45.71094" lon="1.20544">
        <ele>318.08627</ele>
        <time>2026-08-08T10:41:29Z</time>
      </trkpt>
      <trkpt lat="45.71093" lon="1.20548">
        <ele>318.08627</ele>
        <time>2026-08-08T10:41:30Z</time>
      </trkpt>
      <trkpt lat="45.71092" lon="1.20552">
        <ele>319.08627</ele>
        <time>2026-08-08T10:41:31Z</time>
      </trkpt>
      <trkpt lat="45.7109" lon="1.20554">
        <ele>319.08627</ele>
        <time>2026-08-08T10:41:32Z</time>
      </trkpt>
      <trkpt lat="45.71088" lon="1.20557">
        <ele>320.08627</ele>
        <time>2026-08-08T10:41:33Z</time>
      </trkpt>
      <trkpt lat="45.71087" lon="1.20561">
        <ele>320.08627</ele>
        <time>2026-08-08T10:41:34Z</time>
      </trkpt>
      <trkpt lat="45.71085" lon="1.20564">
        <ele>321.08627</ele>
        <time>2026-08-08T10:41:35Z</time>
      </trkpt>
      <trkpt lat="45.71083" lon="1.20568">
        <ele>321.08627</ele>
        <time>2026-08-08T10:41:36Z</time>
      </trkpt>
      <trkpt lat="45.71081" lon="1.20571">
        <ele>322.08627</ele>
        <time>2026-08-08T10:41:37Z</time>
      </trkpt>
      <trkpt lat="45.71079" lon="1.20573">
        <ele>322.08627</ele>
        <time>2026-08-08T10:41:38Z</time>
      </trkpt>
      <trkpt lat="45.71076" lon="1.20577">
        <ele>323.08627</ele>
        <time>2026-08-08T10:41:39Z</time>
      </trkpt>
      <trkpt lat="45.71073" lon="1.20579">
        <ele>323.08627</ele>
        <time>2026-08-08T10:41:40Z</time>
      </trkpt>
      <trkpt lat="45.71071" lon="1.20581">
        <ele>324.08627</ele>
        <time>2026-08-08T10:41:41Z</time>
      </trkpt>
      <trkpt lat="45.71068" lon="1.20583">
        <ele>324.08627</ele>
        <time>2026-08-08T10:41:42Z</time>
      </trkpt>
      <trkpt lat="45.71065" lon="1.20584">
        <ele>324.08627</ele>
        <time>2026-08-08T10:41:43Z</time>
      </trkpt>
      <trkpt lat="45.71062" lon="1.20586">
        <ele>324.08627</ele>
        <time>2026-08-08T10:41:44Z</time>
      </trkpt>
      <trkpt lat="45.71059" lon="1.20587">
        <ele>324.08627</ele>
        <time>2026-08-08T10:41:45Z</time>
      </trkpt>
      <trkpt lat="45.71056" lon="1.20588">
        <ele>325.08627</ele>
        <time>2026-08-08T10:41:46Z</time>
      </trkpt>
      <trkpt lat="45.71052" lon="1.2059">
        <ele>325.08627</ele>
        <time>2026-08-08T10:41:47Z</time>
      </trkpt>
      <trkpt lat="45.7105" lon="1.20591">
        <ele>325.08627</ele>
        <time>2026-08-08T10:41:48Z</time>
      </trkpt>
      <trkpt lat="45.71047" lon="1.20592">
        <ele>325.08627</ele>
        <time>2026-08-08T10:41:49Z</time>
      </trkpt>
      <trkpt lat="45.71044" lon="1.20593">
        <ele>326.08627</ele>
        <time>2026-08-08T10:41:50Z</time>
      </trkpt>
      <trkpt lat="45.71041" lon="1.20592">
        <ele>326.08627</ele>
        <time>2026-08-08T10:41:51Z</time>
      </trkpt>
      <trkpt lat="45.71038" lon="1.20593">
        <ele>326.08627</ele>
        <time>2026-08-08T10:41:52Z</time>
      </trkpt>
      <trkpt lat="45.71035" lon="1.20593">
        <ele>326.08627</ele>
        <time>2026-08-08T10:41:53Z</time>
      </trkpt>
      <trkpt lat="45.71033" lon="1.20591">
        <ele>325.08627</ele>
        <time>2026-08-08T10:41:54Z</time>
      </trkpt>
      <trkpt lat="45.71032" lon="1.2059">
        <ele>325.08627</ele>
        <time>2026-08-08T10:41:55Z</time>
      </trkpt>
      <trkpt lat="45.7103" lon="1.20589">
        <ele>325.08627</ele>
        <time>2026-08-08T10:41:56Z</time>
      </trkpt>
      <trkpt lat="45.71029" lon="1.20589">
        <ele>325.08627</ele>
        <time>2026-08-08T10:41:57Z</time>
      </trkpt>
      <trkpt lat="45.71027" lon="1.20587">
        <ele>326.08627</ele>
        <time>2026-08-08T10:41:58Z</time>
      </trkpt>
      <trkpt lat="45.71026" lon="1.20586">
        <ele>326.08627</ele>
        <time>2026-08-08T10:41:59Z</time>
      </trkpt>
      <trkpt lat="45.71025" lon="1.20584">
        <ele>326.08627</ele>
        <time>2026-08-08T10:42:00Z</time>
      </trkpt>
      <trkpt lat="45.71024" lon="1.20582">
        <ele>326.08627</ele>
        <time>2026-08-08T10:42:01Z</time>
      </trkpt>
      <trkpt lat="45.71023" lon="1.2058">
        <ele>326.08627</ele>
        <time>2026-08-08T10:42:02Z</time>
      </trkpt>
      <trkpt lat="45.71022" lon="1.20578">
        <ele>326.08627</ele>
        <time>2026-08-08T10:42:03Z</time>
      </trkpt>
      <trkpt lat="45.71021" lon="1.20576">
        <ele>326.08627</ele>
        <time>2026-08-08T10:42:04Z</time>
      </trkpt>
      <trkpt lat="45.7102" lon="1.20574">
        <ele>327.08627</ele>
        <time>2026-08-08T10:42:05Z</time>
      </trkpt>
      <trkpt lat="45.71019" lon="1.20571">
        <ele>327.08627</ele>
        <time>2026-08-08T10:42:06Z</time>
      </trkpt>
      <trkpt lat="45.71019" lon="1.20569">
        <ele>327.08627</ele>
        <time>2026-08-08T10:42:07Z</time>
      </trkpt>
      <trkpt lat="45.71018" lon="1.20567">
        <ele>327.08627</ele>
        <time>2026-08-08T10:42:08Z</time>
      </trkpt>
      <trkpt lat="45.71017" lon="1.20563">
        <ele>328.08627</ele>
        <time>2026-08-08T10:42:09Z</time>
      </trkpt>
      <trkpt lat="45.71016" lon="1.2056">
        <ele>328.08627</ele>
        <time>2026-08-08T10:42:10Z</time>
      </trkpt>
      <trkpt lat="45.71015" lon="1.20557">
        <ele>328.08627</ele>
        <time>2026-08-08T10:42:11Z</time>
      </trkpt>
      <trkpt lat="45.71013" lon="1.20554">
        <ele>328.08627</ele>
        <time>2026-08-08T10:42:12Z</time>
      </trkpt>
      <trkpt lat="45.71012" lon="1.2055">
        <ele>329.08627</ele>
        <time>2026-08-08T10:42:13Z</time>
      </trkpt>
      <trkpt lat="45.7101" lon="1.20546">
        <ele>329.08627</ele>
        <time>2026-08-08T10:42:14Z</time>
      </trkpt>
      <trkpt lat="45.71009" lon="1.20543">
        <ele>330.08627</ele>
        <time>2026-08-08T10:42:15Z</time>
      </trkpt>
      <trkpt lat="45.71007" lon="1.2054">
        <ele>330.08627</ele>
        <time>2026-08-08T10:42:16Z</time>
      </trkpt>
      <trkpt lat="45.71005" lon="1.20536">
        <ele>330.08627</ele>
        <time>2026-08-08T10:42:17Z</time>
      </trkpt>
      <trkpt lat="45.71004" lon="1.20532">
        <ele>330.08627</ele>
        <time>2026-08-08T10:42:18Z</time>
      </trkpt>
      <trkpt lat="45.71002" lon="1.20529">
        <ele>330.08627</ele>
        <time>2026-08-08T10:42:19Z</time>
      </trkpt>
      <trkpt lat="45.71001" lon="1.20525">
        <ele>330.08627</ele>
        <time>2026-08-08T10:42:20Z</time>
      </trkpt>
      <trkpt lat="45.71" lon="1.20522">
        <ele>330.08627</ele>
        <time>2026-08-08T10:42:21Z</time>
      </trkpt>
      <trkpt lat="45.70998" lon="1.20519">
        <ele>330.08627</ele>
        <time>2026-08-08T10:42:22Z</time>
      </trkpt>
      <trkpt lat="45.70997" lon="1.20516">
        <ele>330.08627</ele>
        <time>2026-08-08T10:42:23Z</time>
      </trkpt>
      <trkpt lat="45.70995" lon="1.20513">
        <ele>331.08627</ele>
        <time>2026-08-08T10:42:24Z</time>
      </trkpt>
      <trkpt lat="45.70993" lon="1.20509">
        <ele>331.08627</ele>
        <time>2026-08-08T10:42:25Z</time>
      </trkpt>
      <trkpt lat="45.70991" lon="1.20506">
        <ele>331.08627</ele>
        <time>2026-08-08T10:42:26Z</time>
      </trkpt>
      <trkpt lat="45.7099" lon="1.20503">
        <ele>332.08627</ele>
        <time>2026-08-08T10:42:27Z</time>
      </trkpt>
      <trkpt lat="45.70988" lon="1.20499">
        <ele>332.08627</ele>
        <time>2026-08-08T10:42:28Z</time>
      </trkpt>
      <trkpt lat="45.70987" lon="1.20496">
        <ele>332.08627</ele>
        <time>2026-08-08T10:42:29Z</time>
      </trkpt>
      <trkpt lat="45.70986" lon="1.20494">
        <ele>332.08627</ele>
        <time>2026-08-08T10:42:30Z</time>
      </trkpt>
      <trkpt lat="45.70984" lon="1.20491">
        <ele>333.08627</ele>
        <time>2026-08-08T10:42:31Z</time>
      </trkpt>
      <trkpt lat="45.70983" lon="1.20488">
        <ele>332.08627</ele>
        <time>2026-08-08T10:42:32Z</time>
      </trkpt>
      <trkpt lat="45.70982" lon="1.20485">
        <ele>333.08627</ele>
        <time>2026-08-08T10:42:33Z</time>
      </trkpt>
      <trkpt lat="45.7098" lon="1.20482">
        <ele>332.08627</ele>
        <time>2026-08-08T10:42:34Z</time>
      </trkpt>
      <trkpt lat="45.70979" lon="1.20479">
        <ele>333.08627</ele>
        <time>2026-08-08T10:42:35Z</time>
      </trkpt>
      <trkpt lat="45.70977" lon="1.20477">
        <ele>333.08627</ele>
        <time>2026-08-08T10:42:36Z</time>
      </trkpt>
      <trkpt lat="45.70975" lon="1.20474">
        <ele>333.08627</ele>
        <time>2026-08-08T10:42:37Z</time>
      </trkpt>
      <trkpt lat="45.70973" lon="1.20472">
        <ele>333.08627</ele>
        <time>2026-08-08T10:42:38Z</time>
      </trkpt>
      <trkpt lat="45.7097" lon="1.20471">
        <ele>334.08627</ele>
        <time>2026-08-08T10:42:39Z</time>
      </trkpt>
      <trkpt lat="45.70969" lon="1.20469">
        <ele>334.08627</ele>
        <time>2026-08-08T10:42:40Z</time>
      </trkpt>
      <trkpt lat="45.70967" lon="1.20466">
        <ele>334.08627</ele>
        <time>2026-08-08T10:42:41Z</time>
      </trkpt>
      <trkpt lat="45.70965" lon="1.20465">
        <ele>334.08627</ele>
        <time>2026-08-08T10:42:42Z</time>
      </trkpt>
      <trkpt lat="45.70964" lon="1.20463">
        <ele>335.08627</ele>
        <time>2026-08-08T10:42:43Z</time>
      </trkpt>
      <trkpt lat="45.70963" lon="1.2046">
        <ele>336.08627</ele>
        <time>2026-08-08T10:42:44Z</time>
      </trkpt>
      <trkpt lat="45.70961" lon="1.20457">
        <ele>335.08627</ele>
        <time>2026-08-08T10:42:45Z</time>
      </trkpt>
      <trkpt lat="45.70961" lon="1.20453">
        <ele>335.08627</ele>
        <time>2026-08-08T10:42:46Z</time>
      </trkpt>
      <trkpt lat="45.7096" lon="1.2045">
        <ele>335.08627</ele>
        <time>2026-08-08T10:42:47Z</time>
      </trkpt>
      <trkpt lat="45.70959" lon="1.20447">
        <ele>335.08627</ele>
        <time>2026-08-08T10:42:48Z</time>
      </trkpt>
      <trkpt lat="45.70959" lon="1.20444">
        <ele>335.08627</ele>
        <time>2026-08-08T10:42:49Z</time>
      </trkpt>
      <trkpt lat="45.70958" lon="1.20441">
        <ele>335.08627</ele>
        <time>2026-08-08T10:42:50Z</time>
      </trkpt>
      <trkpt lat="45.70957" lon="1.20438">
        <ele>336.08627</ele>
        <time>2026-08-08T10:42:51Z</time>
      </trkpt>
      <trkpt lat="45.70955" lon="1.20438">
        <ele>336.08627</ele>
        <time>2026-08-08T10:42:52Z</time>
      </trkpt>
      <trkpt lat="45.70953" lon="1.20438">
        <ele>335.08627</ele>
        <time>2026-08-08T10:42:53Z</time>
      </trkpt>
      <trkpt lat="45.70952" lon="1.20439">
        <ele>336.08627</ele>
        <time>2026-08-08T10:42:54Z</time>
      </trkpt>
      <trkpt lat="45.70952" lon="1.2044">
        <ele>336.08627</ele>
        <time>2026-08-08T10:42:55Z</time>
      </trkpt>
      <trkpt lat="45.70952" lon="1.2044">
        <ele>336.08627</ele>
        <time>2026-08-08T10:42:56Z</time>
      </trkpt>
      <trkpt lat="45.70952" lon="1.2044">
        <ele>336.08627</ele>
        <time>2026-08-08T10:42:57Z</time>
      </trkpt>
      <trkpt lat="45.70952" lon="1.2044">
        <ele>336.08627</ele>
        <time>2026-08-08T10:42:58Z</time>
      </trkpt>
      <trkpt lat="45.7096" lon="1.20444">
        <ele>336.08627</ele>
        <time>2026-08-08T10:43:40Z</time>
      </trkpt>
      <trkpt lat="45.7096" lon="1.20441">
        <ele>336.08627</ele>
        <time>2026-08-08T10:43:41Z</time>
      </trkpt>
      <trkpt lat="45.70959" lon="1.20438">
        <ele>337.08627</ele>
        <time>2026-08-08T10:43:42Z</time>
      </trkpt>
      <trkpt lat="45.70959" lon="1.20435">
        <ele>337.08627</ele>
        <time>2026-08-08T10:43:43Z</time>
      </trkpt>
      <trkpt lat="45.70959" lon="1.20432">
        <ele>337.08627</ele>
        <time>2026-08-08T10:43:44Z</time>
      </trkpt>
      <trkpt lat="45.70959" lon="1.20431">
        <ele>337.08627</ele>
        <time>2026-08-08T10:43:45Z</time>
      </trkpt>
      <trkpt lat="45.7096" lon="1.20429">
        <ele>337.08627</ele>
        <time>2026-08-08T10:43:46Z</time>
      </trkpt>
      <trkpt lat="45.7096" lon="1.20427">
        <ele>336.08627</ele>
        <time>2026-08-08T10:43:47Z</time>
      </trkpt>
      <trkpt lat="45.7096" lon="1.20427">
        <ele>336.08627</ele>
        <time>2026-08-08T10:43:48Z</time>
      </trkpt>
      <trkpt lat="45.7096" lon="1.20427">
        <ele>336.08627</ele>
        <time>2026-08-08T10:43:49Z</time>
      </trkpt>
      <trkpt lat="45.70962" lon="1.20452">
        <ele>335.08627</ele>
        <time>2026-08-08T10:45:46Z</time>
      </trkpt>
      <trkpt lat="45.70963" lon="1.20455">
        <ele>335.08627</ele>
        <time>2026-08-08T10:45:47Z</time>
      </trkpt>
      <trkpt lat="45.70964" lon="1.20458">
        <ele>335.08627</ele>
        <time>2026-08-08T10:45:48Z</time>
      </trkpt>
      <trkpt lat="45.70965" lon="1.20461">
        <ele>336.08627</ele>
        <time>2026-08-08T10:45:49Z</time>
      </trkpt>
      <trkpt lat="45.70967" lon="1.20464">
        <ele>336.08627</ele>
        <time>2026-08-08T10:45:50Z</time>
      </trkpt>
      <trkpt lat="45.70968" lon="1.20466">
        <ele>336.08627</ele>
        <time>2026-08-08T10:45:51Z</time>
      </trkpt>
      <trkpt lat="45.70969" lon="1.20469">
        <ele>336.08627</ele>
        <time>2026-08-08T10:45:52Z</time>
      </trkpt>
      <trkpt lat="45.7097" lon="1.20471">
        <ele>336.08627</ele>
        <time>2026-08-08T10:45:53Z</time>
      </trkpt>
      <trkpt lat="45.70971" lon="1.20473">
        <ele>336.08627</ele>
        <time>2026-08-08T10:45:54Z</time>
      </trkpt>
      <trkpt lat="45.70972" lon="1.20475">
        <ele>336.08627</ele>
        <time>2026-08-08T10:45:55Z</time>
      </trkpt>
      <trkpt lat="45.70974" lon="1.20476">
        <ele>335.08627</ele>
        <time>2026-08-08T10:45:56Z</time>
      </trkpt>
      <trkpt lat="45.70977" lon="1.20478">
        <ele>335.08627</ele>
        <time>2026-08-08T10:45:57Z</time>
      </trkpt>
      <trkpt lat="45.70978" lon="1.2048">
        <ele>335.08627</ele>
        <time>2026-08-08T10:45:58Z</time>
      </trkpt>
      <trkpt lat="45.7098" lon="1.20483">
        <ele>334.08627</ele>
        <time>2026-08-08T10:45:59Z</time>
      </trkpt>
      <trkpt lat="45.70982" lon="1.20486">
        <ele>334.08627</ele>
        <time>2026-08-08T10:46:01Z</time>
      </trkpt>
      <trkpt lat="45.70986" lon="1.20492">
        <ele>333.08627</ele>
        <time>2026-08-08T10:46:02Z</time>
      </trkpt>
      <trkpt lat="45.70988" lon="1.20495">
        <ele>333.08627</ele>
        <time>2026-08-08T10:46:04Z</time>
      </trkpt>
      <trkpt lat="45.7099" lon="1.20499">
        <ele>333.08627</ele>
        <time>2026-08-08T10:46:05Z</time>
      </trkpt>
      <trkpt lat="45.70992" lon="1.20502">
        <ele>332.08627</ele>
        <time>2026-08-08T10:46:06Z</time>
      </trkpt>
      <trkpt lat="45.70994" lon="1.20505">
        <ele>332.08627</ele>
        <time>2026-08-08T10:46:07Z</time>
      </trkpt>
      <trkpt lat="45.70996" lon="1.20509">
        <ele>331.08627</ele>
        <time>2026-08-08T10:46:08Z</time>
      </trkpt>
      <trkpt lat="45.70998" lon="1.20513">
        <ele>331.08627</ele>
        <time>2026-08-08T10:46:09Z</time>
      </trkpt>
      <trkpt lat="45.71" lon="1.20516">
        <ele>331.08627</ele>
        <time>2026-08-08T10:46:10Z</time>
      </trkpt>
      <trkpt lat="45.71002" lon="1.2052">
        <ele>330.08627</ele>
        <time>2026-08-08T10:46:11Z</time>
      </trkpt>
      <trkpt lat="45.71004" lon="1.20524">
        <ele>330.08627</ele>
        <time>2026-08-08T10:46:12Z</time>
      </trkpt>
      <trkpt lat="45.71005" lon="1.20528">
        <ele>330.08627</ele>
        <time>2026-08-08T10:46:13Z</time>
      </trkpt>
      <trkpt lat="45.71007" lon="1.20531">
        <ele>330.08627</ele>
        <time>2026-08-08T10:46:14Z</time>
      </trkpt>
      <trkpt lat="45.71008" lon="1.20535">
        <ele>329.08627</ele>
        <time>2026-08-08T10:46:15Z</time>
      </trkpt>
      <trkpt lat="45.7101" lon="1.20538">
        <ele>329.08627</ele>
        <time>2026-08-08T10:46:16Z</time>
      </trkpt>
      <trkpt lat="45.71012" lon="1.20541">
        <ele>329.08627</ele>
        <time>2026-08-08T10:46:17Z</time>
      </trkpt>
      <trkpt lat="45.71013" lon="1.20545">
        <ele>328.08627</ele>
        <time>2026-08-08T10:46:18Z</time>
      </trkpt>
      <trkpt lat="45.71014" lon="1.20549">
        <ele>328.08627</ele>
        <time>2026-08-08T10:46:19Z</time>
      </trkpt>
      <trkpt lat="45.71016" lon="1.20552">
        <ele>328.08627</ele>
        <time>2026-08-08T10:46:20Z</time>
      </trkpt>
      <trkpt lat="45.71018" lon="1.20556">
        <ele>328.08627</ele>
        <time>2026-08-08T10:46:21Z</time>
      </trkpt>
      <trkpt lat="45.71019" lon="1.20559">
        <ele>328.08627</ele>
        <time>2026-08-08T10:46:22Z</time>
      </trkpt>
      <trkpt lat="45.7102" lon="1.20562">
        <ele>327.08627</ele>
        <time>2026-08-08T10:46:23Z</time>
      </trkpt>
      <trkpt lat="45.71021" lon="1.20566">
        <ele>327.08627</ele>
        <time>2026-08-08T10:46:24Z</time>
      </trkpt>
      <trkpt lat="45.71022" lon="1.20569">
        <ele>327.08627</ele>
        <time>2026-08-08T10:46:25Z</time>
      </trkpt>
      <trkpt lat="45.71022" lon="1.20572">
        <ele>327.08627</ele>
        <time>2026-08-08T10:46:26Z</time>
      </trkpt>
      <trkpt lat="45.71023" lon="1.20575">
        <ele>327.08627</ele>
        <time>2026-08-08T10:46:27Z</time>
      </trkpt>
      <trkpt lat="45.71024" lon="1.20577">
        <ele>327.08627</ele>
        <time>2026-08-08T10:46:28Z</time>
      </trkpt>
      <trkpt lat="45.71025" lon="1.20579">
        <ele>327.08627</ele>
        <time>2026-08-08T10:46:29Z</time>
      </trkpt>
      <trkpt lat="45.71027" lon="1.20581">
        <ele>327.08627</ele>
        <time>2026-08-08T10:46:30Z</time>
      </trkpt>
      <trkpt lat="45.71029" lon="1.20584">
        <ele>327.08627</ele>
        <time>2026-08-08T10:46:31Z</time>
      </trkpt>
      <trkpt lat="45.71031" lon="1.20587">
        <ele>327.08627</ele>
        <time>2026-08-08T10:46:32Z</time>
      </trkpt>
      <trkpt lat="45.71033" lon="1.20589">
        <ele>327.08627</ele>
        <time>2026-08-08T10:46:33Z</time>
      </trkpt>
      <trkpt lat="45.71035" lon="1.20592">
        <ele>326.08627</ele>
        <time>2026-08-08T10:46:34Z</time>
      </trkpt>
      <trkpt lat="45.71038" lon="1.20593">
        <ele>326.08627</ele>
        <time>2026-08-08T10:46:35Z</time>
      </trkpt>
      <trkpt lat="45.71041" lon="1.20593">
        <ele>326.08627</ele>
        <time>2026-08-08T10:46:36Z</time>
      </trkpt>
      <trkpt lat="45.71044" lon="1.20593">
        <ele>326.08627</ele>
        <time>2026-08-08T10:46:37Z</time>
      </trkpt>
      <trkpt lat="45.71047" lon="1.20593">
        <ele>326.08627</ele>
        <time>2026-08-08T10:46:38Z</time>
      </trkpt>
      <trkpt lat="45.7105" lon="1.20591">
        <ele>326.08627</ele>
        <time>2026-08-08T10:46:39Z</time>
      </trkpt>
      <trkpt lat="45.71053" lon="1.2059">
        <ele>326.08627</ele>
        <time>2026-08-08T10:46:40Z</time>
      </trkpt>
      <trkpt lat="45.71057" lon="1.20589">
        <ele>326.08627</ele>
        <time>2026-08-08T10:46:41Z</time>
      </trkpt>
      <trkpt lat="45.7106" lon="1.20587">
        <ele>326.08627</ele>
        <time>2026-08-08T10:46:42Z</time>
      </trkpt>
      <trkpt lat="45.71064" lon="1.20586">
        <ele>326.08627</ele>
        <time>2026-08-08T10:46:43Z</time>
      </trkpt>
      <trkpt lat="45.71067" lon="1.20584">
        <ele>326.08627</ele>
        <time>2026-08-08T10:46:44Z</time>
      </trkpt>
      <trkpt lat="45.7107" lon="1.20582">
        <ele>326.08627</ele>
        <time>2026-08-08T10:46:45Z</time>
      </trkpt>
      <trkpt lat="45.71072" lon="1.2058">
        <ele>326.08627</ele>
        <time>2026-08-08T10:46:46Z</time>
      </trkpt>
      <trkpt lat="45.71075" lon="1.20579">
        <ele>326.08627</ele>
        <time>2026-08-08T10:46:47Z</time>
      </trkpt>
      <trkpt lat="45.71078" lon="1.20578">
        <ele>326.08627</ele>
        <time>2026-08-08T10:46:48Z</time>
      </trkpt>
      <trkpt lat="45.71079" lon="1.20577">
        <ele>326.08627</ele>
        <time>2026-08-08T10:46:49Z</time>
      </trkpt>
      <trkpt lat="45.7108" lon="1.20575">
        <ele>326.08627</ele>
        <time>2026-08-08T10:46:51Z</time>
      </trkpt>
      <trkpt lat="45.7108" lon="1.20575">
        <ele>326.08627</ele>
        <time>2026-08-08T10:46:52Z</time>
      </trkpt>
      <trkpt lat="45.7108" lon="1.20575">
        <ele>326.08627</ele>
        <time>2026-08-08T10:46:53Z</time>
      </trkpt>
      <trkpt lat="45.7108" lon="1.20575">
        <ele>326.08627</ele>
        <time>2026-08-08T10:46:54Z</time>
      </trkpt>
      <trkpt lat="45.7109" lon="1.2056">
        <ele>326.08627</ele>
        <time>2026-08-08T10:47:05Z</time>
      </trkpt>
      <trkpt lat="45.71091" lon="1.20557">
        <ele>326.08627</ele>
        <time>2026-08-08T10:47:06Z</time>
      </trkpt>
      <trkpt lat="45.71092" lon="1.20555">
        <ele>326.08627</ele>
        <time>2026-08-08T10:47:07Z</time>
      </trkpt>
      <trkpt lat="45.71093" lon="1.20551">
        <ele>326.08627</ele>
        <time>2026-08-08T10:47:08Z</time>
      </trkpt>
      <trkpt lat="45.71094" lon="1.20546">
        <ele>325.08627</ele>
        <time>2026-08-08T10:47:09Z</time>
      </trkpt>
      <trkpt lat="45.71095" lon="1.20542">
        <ele>325.08627</ele>
        <time>2026-08-08T10:47:10Z</time>
      </trkpt>
      <trkpt lat="45.71095" lon="1.20538">
        <ele>325.08627</ele>
        <time>2026-08-08T10:47:11Z</time>
      </trkpt>
      <trkpt lat="45.71096" lon="1.20535">
        <ele>325.08627</ele>
        <time>2026-08-08T10:47:12Z</time>
      </trkpt>
      <trkpt lat="45.71097" lon="1.20532">
        <ele>325.08627</ele>
        <time>2026-08-08T10:47:13Z</time>
      </trkpt>
      <trkpt lat="45.71097" lon="1.20528">
        <ele>325.08627</ele>
        <time>2026-08-08T10:47:14Z</time>
      </trkpt>
      <trkpt lat="45.71097" lon="1.20523">
        <ele>325.08627</ele>
        <time>2026-08-08T10:47:15Z</time>
      </trkpt>
      <trkpt lat="45.71097" lon="1.20519">
        <ele>325.08627</ele>
        <time>2026-08-08T10:47:16Z</time>
      </trkpt>
      <trkpt lat="45.71098" lon="1.20515">
        <ele>325.08627</ele>
        <time>2026-08-08T10:47:17Z</time>
      </trkpt>
      <trkpt lat="45.71099" lon="1.20511">
        <ele>325.08627</ele>
        <time>2026-08-08T10:47:18Z</time>
      </trkpt>
      <trkpt lat="45.711" lon="1.20507">
        <ele>324.08627</ele>
        <time>2026-08-08T10:47:19Z</time>
      </trkpt>
      <trkpt lat="45.71101" lon="1.20504">
        <ele>324.08627</ele>
        <time>2026-08-08T10:47:20Z</time>
      </trkpt>
      <trkpt lat="45.71102" lon="1.20499">
        <ele>324.08627</ele>
        <time>2026-08-08T10:47:21Z</time>
      </trkpt>
      <trkpt lat="45.71103" lon="1.20496">
        <ele>324.08627</ele>
        <time>2026-08-08T10:47:22Z</time>
      </trkpt>
      <trkpt lat="45.71103" lon="1.20491">
        <ele>323.08627</ele>
        <time>2026-08-08T10:47:23Z</time>
      </trkpt>
      <trkpt lat="45.71104" lon="1.20485">
        <ele>323.08627</ele>
        <time>2026-08-08T10:47:24Z</time>
      </trkpt>
      <trkpt lat="45.71104" lon="1.20481">
        <ele>322.08627</ele>
        <time>2026-08-08T10:47:25Z</time>
      </trkpt>
      <trkpt lat="45.71103" lon="1.20477">
        <ele>323.08627</ele>
        <time>2026-08-08T10:47:26Z</time>
      </trkpt>
      <trkpt lat="45.71103" lon="1.20472">
        <ele>322.08627</ele>
        <time>2026-08-08T10:47:27Z</time>
      </trkpt>
      <trkpt lat="45.71103" lon="1.20468">
        <ele>322.08627</ele>
        <time>2026-08-08T10:47:28Z</time>
      </trkpt>
      <trkpt lat="45.71103" lon="1.20464">
        <ele>321.08627</ele>
        <time>2026-08-08T10:47:29Z</time>
      </trkpt>
      <trkpt lat="45.71104" lon="1.20459">
        <ele>321.08627</ele>
        <time>2026-08-08T10:47:30Z</time>
      </trkpt>
      <trkpt lat="45.71105" lon="1.20455">
        <ele>320.08627</ele>
        <time>2026-08-08T10:47:31Z</time>
      </trkpt>
      <trkpt lat="45.71107" lon="1.20452">
        <ele>320.08627</ele>
        <time>2026-08-08T10:47:32Z</time>
      </trkpt>
      <trkpt lat="45.7111" lon="1.20448">
        <ele>319.08627</ele>
        <time>2026-08-08T10:47:33Z</time>
      </trkpt>
      <trkpt lat="45.71113" lon="1.20445">
        <ele>318.08627</ele>
        <time>2026-08-08T10:47:34Z</time>
      </trkpt>
      <trkpt lat="45.71116" lon="1.20443">
        <ele>317.08627</ele>
        <time>2026-08-08T10:47:35Z</time>
      </trkpt>
      <trkpt lat="45.7112" lon="1.20441">
        <ele>317.08627</ele>
        <time>2026-08-08T10:47:36Z</time>
      </trkpt>
      <trkpt lat="45.71124" lon="1.20439">
        <ele>317.08627</ele>
        <time>2026-08-08T10:47:37Z</time>
      </trkpt>
      <trkpt lat="45.71128" lon="1.20438">
        <ele>317.08627</ele>
        <time>2026-08-08T10:47:38Z</time>
      </trkpt>
      <trkpt lat="45.71132" lon="1.20436">
        <ele>317.08627</ele>
        <time>2026-08-08T10:47:39Z</time>
      </trkpt>
      <trkpt lat="45.71136" lon="1.20434">
        <ele>316.08627</ele>
        <time>2026-08-08T10:47:40Z</time>
      </trkpt>
      <trkpt lat="45.7114" lon="1.20432">
        <ele>316.08627</ele>
        <time>2026-08-08T10:47:41Z</time>
      </trkpt>
      <trkpt lat="45.71143" lon="1.20431">
        <ele>317.08627</ele>
        <time>2026-08-08T10:47:42Z</time>
      </trkpt>
      <trkpt lat="45.71147" lon="1.2043">
        <ele>317.08627</ele>
        <time>2026-08-08T10:47:43Z</time>
      </trkpt>
      <trkpt lat="45.7115" lon="1.20429">
        <ele>317.08627</ele>
        <time>2026-08-08T10:47:44Z</time>
      </trkpt>
      <trkpt lat="45.71154" lon="1.20428">
        <ele>317.08627</ele>
        <time>2026-08-08T10:47:45Z</time>
      </trkpt>
      <trkpt lat="45.71156" lon="1.20428">
        <ele>317.08627</ele>
        <time>2026-08-08T10:47:46Z</time>
      </trkpt>
      <trkpt lat="45.7116" lon="1.20429">
        <ele>317.08627</ele>
        <time>2026-08-08T10:47:47Z</time>
      </trkpt>
      <trkpt lat="45.71162" lon="1.20431">
        <ele>317.08627</ele>
        <time>2026-08-08T10:47:48Z</time>
      </trkpt>
      <trkpt lat="45.71165" lon="1.20433">
        <ele>318.08627</ele>
        <time>2026-08-08T10:47:49Z</time>
      </trkpt>
      <trkpt lat="45.71167" lon="1.20435">
        <ele>318.08627</ele>
        <time>2026-08-08T10:47:50Z</time>
      </trkpt>
      <trkpt lat="45.71169" lon="1.20437">
        <ele>317.08627</ele>
        <time>2026-08-08T10:47:51Z</time>
      </trkpt>
      <trkpt lat="45.71171" lon="1.20439">
        <ele>317.08627</ele>
        <time>2026-08-08T10:47:52Z</time>
      </trkpt>
      <trkpt lat="45.71173" lon="1.2044">
        <ele>318.08627</ele>
        <time>2026-08-08T10:47:53Z</time>
      </trkpt>
      <trkpt lat="45.71175" lon="1.20442">
        <ele>317.08627</ele>
        <time>2026-08-08T10:47:54Z</time>
      </trkpt>
      <trkpt lat="45.71177" lon="1.20444">
        <ele>318.08627</ele>
        <time>2026-08-08T10:47:55Z</time>
      </trkpt>
      <trkpt lat="45.71179" lon="1.20446">
        <ele>318.08627</ele>
        <time>2026-08-08T10:47:56Z</time>
      </trkpt>
      <trkpt lat="45.71182" lon="1.20449">
        <ele>318.08627</ele>
        <time>2026-08-08T10:47:57Z</time>
      </trkpt>
      <trkpt lat="45.71184" lon="1.20452">
        <ele>318.08627</ele>
        <time>2026-08-08T10:47:58Z</time>
      </trkpt>
      <trkpt lat="45.71186" lon="1.20454">
        <ele>318.08627</ele>
        <time>2026-08-08T10:47:59Z</time>
      </trkpt>
      <trkpt lat="45.71188" lon="1.20457">
        <ele>318.08627</ele>
        <time>2026-08-08T10:48:00Z</time>
      </trkpt>
      <trkpt lat="45.7119" lon="1.2046">
        <ele>318.08627</ele>
        <time>2026-08-08T10:48:01Z</time>
      </trkpt>
      <trkpt lat="45.71192" lon="1.20462">
        <ele>318.08627</ele>
        <time>2026-08-08T10:48:02Z</time>
      </trkpt>
      <trkpt lat="45.71194" lon="1.20464">
        <ele>319.08627</ele>
        <time>2026-08-08T10:48:03Z</time>
      </trkpt>
      <trkpt lat="45.71196" lon="1.20467">
        <ele>319.08627</ele>
        <time>2026-08-08T10:48:04Z</time>
      </trkpt>
      <trkpt lat="45.71198" lon="1.2047">
        <ele>319.08627</ele>
        <time>2026-08-08T10:48:05Z</time>
      </trkpt>
      <trkpt lat="45.712" lon="1.20473">
        <ele>319.08627</ele>
        <time>2026-08-08T10:48:06Z</time>
      </trkpt>
      <trkpt lat="45.71202" lon="1.20476">
        <ele>319.08627</ele>
        <time>2026-08-08T10:48:07Z</time>
      </trkpt>
      <trkpt lat="45.71205" lon="1.20479">
        <ele>319.08627</ele>
        <time>2026-08-08T10:48:08Z</time>
      </trkpt>
      <trkpt lat="45.71208" lon="1.20481">
        <ele>320.08627</ele>
        <time>2026-08-08T10:48:09Z</time>
      </trkpt>
      <trkpt lat="45.7121" lon="1.20483">
        <ele>320.08627</ele>
        <time>2026-08-08T10:48:10Z</time>
      </trkpt>
      <trkpt lat="45.71213" lon="1.20485">
        <ele>320.08627</ele>
        <time>2026-08-08T10:48:11Z</time>
      </trkpt>
      <trkpt lat="45.71216" lon="1.20487">
        <ele>320.08627</ele>
        <time>2026-08-08T10:48:12Z</time>
      </trkpt>
      <trkpt lat="45.71219" lon="1.20488">
        <ele>320.08627</ele>
        <time>2026-08-08T10:48:13Z</time>
      </trkpt>
      <trkpt lat="45.71222" lon="1.20489">
        <ele>320.08627</ele>
        <time>2026-08-08T10:48:14Z</time>
      </trkpt>
      <trkpt lat="45.71226" lon="1.20489">
        <ele>320.08627</ele>
        <time>2026-08-08T10:48:15Z</time>
      </trkpt>
      <trkpt lat="45.71229" lon="1.2049">
        <ele>320.08627</ele>
        <time>2026-08-08T10:48:16Z</time>
      </trkpt>
      <trkpt lat="45.71233" lon="1.20489">
        <ele>321.08627</ele>
        <time>2026-08-08T10:48:17Z</time>
      </trkpt>
      <trkpt lat="45.71236" lon="1.20488">
        <ele>321.08627</ele>
        <time>2026-08-08T10:48:18Z</time>
      </trkpt>
      <trkpt lat="45.71239" lon="1.20487">
        <ele>321.08627</ele>
        <time>2026-08-08T10:48:19Z</time>
      </trkpt>
      <trkpt lat="45.71243" lon="1.20485">
        <ele>321.08627</ele>
        <time>2026-08-08T10:48:20Z</time>
      </trkpt>
      <trkpt lat="45.71246" lon="1.20484">
        <ele>321.08627</ele>
        <time>2026-08-08T10:48:21Z</time>
      </trkpt>
      <trkpt lat="45.71249" lon="1.20483">
        <ele>321.08627</ele>
        <time>2026-08-08T10:48:22Z</time>
      </trkpt>
      <trkpt lat="45.71252" lon="1.20481">
        <ele>321.08627</ele>
        <time>2026-08-08T10:48:23Z</time>
      </trkpt>
      <trkpt lat="45.71256" lon="1.2048">
        <ele>321.08627</ele>
        <time>2026-08-08T10:48:24Z</time>
      </trkpt>
      <trkpt lat="45.71259" lon="1.20479">
        <ele>321.08627</ele>
        <time>2026-08-08T10:48:25Z</time>
      </trkpt>
      <trkpt lat="45.71262" lon="1.20477">
        <ele>321.08627</ele>
        <time>2026-08-08T10:48:26Z</time>
      </trkpt>
      <trkpt lat="45.71265" lon="1.20476">
        <ele>321.08627</ele>
        <time>2026-08-08T10:48:27Z</time>
      </trkpt>
      <trkpt lat="45.71268" lon="1.20475">
        <ele>321.08627</ele>
        <time>2026-08-08T10:48:28Z</time>
      </trkpt>
      <trkpt lat="45.71271" lon="1.20474">
        <ele>321.08627</ele>
        <time>2026-08-08T10:48:29Z</time>
      </trkpt>
      <trkpt lat="45.71274" lon="1.20473">
        <ele>321.08627</ele>
        <time>2026-08-08T10:48:30Z</time>
      </trkpt>
      <trkpt lat="45.71278" lon="1.20473">
        <ele>321.08627</ele>
        <time>2026-08-08T10:48:31Z</time>
      </trkpt>
      <trkpt lat="45.71281" lon="1.20472">
        <ele>321.08627</ele>
        <time>2026-08-08T10:48:32Z</time>
      </trkpt>
      <trkpt lat="45.71284" lon="1.20471">
        <ele>321.08627</ele>
        <time>2026-08-08T10:48:33Z</time>
      </trkpt>
      <trkpt lat="45.71287" lon="1.2047">
        <ele>322.08627</ele>
        <time>2026-08-08T10:48:34Z</time>
      </trkpt>
      <trkpt lat="45.7129" lon="1.20469">
        <ele>322.08627</ele>
        <time>2026-08-08T10:48:35Z</time>
      </trkpt>
      <trkpt lat="45.71293" lon="1.20467">
        <ele>321.08627</ele>
        <time>2026-08-08T10:48:36Z</time>
      </trkpt>
      <trkpt lat="45.71296" lon="1.20466">
        <ele>321.08627</ele>
        <time>2026-08-08T10:48:37Z</time>
      </trkpt>
      <trkpt lat="45.71299" lon="1.20465">
        <ele>321.08627</ele>
        <time>2026-08-08T10:48:38Z</time>
      </trkpt>
      <trkpt lat="45.71302" lon="1.20464">
        <ele>321.08627</ele>
        <time>2026-08-08T10:48:39Z</time>
      </trkpt>
      <trkpt lat="45.71306" lon="1.20464">
        <ele>322.08627</ele>
        <time>2026-08-08T10:48:40Z</time>
      </trkpt>
      <trkpt lat="45.71309" lon="1.20463">
        <ele>322.08627</ele>
        <time>2026-08-08T10:48:41Z</time>
      </trkpt>
      <trkpt lat="45.71313" lon="1.20461">
        <ele>322.08627</ele>
        <time>2026-08-08T10:48:42Z</time>
      </trkpt>
      <trkpt lat="45.71316" lon="1.2046">
        <ele>322.08627</ele>
        <time>2026-08-08T10:48:43Z</time>
      </trkpt>
      <trkpt lat="45.7132" lon="1.20459">
        <ele>323.08627</ele>
        <time>2026-08-08T10:48:44Z</time>
      </trkpt>
      <trkpt lat="45.71322" lon="1.20457">
        <ele>324.08627</ele>
        <time>2026-08-08T10:48:45Z</time>
      </trkpt>
      <trkpt lat="45.71325" lon="1.20455">
        <ele>324.08627</ele>
        <time>2026-08-08T10:48:46Z</time>
      </trkpt>
      <trkpt lat="45.71328" lon="1.20454">
        <ele>324.08627</ele>
        <time>2026-08-08T10:48:47Z</time>
      </trkpt>
      <trkpt lat="45.71331" lon="1.20452">
        <ele>324.08627</ele>
        <time>2026-08-08T10:48:48Z</time>
      </trkpt>
      <trkpt lat="45.71335" lon="1.2045">
        <ele>324.08627</ele>
        <time>2026-08-08T10:48:49Z</time>
      </trkpt>
      <trkpt lat="45.71338" lon="1.20448">
        <ele>324.08627</ele>
        <time>2026-08-08T10:48:50Z</time>
      </trkpt>
      <trkpt lat="45.7134" lon="1.20446">
        <ele>325.08627</ele>
        <time>2026-08-08T10:48:51Z</time>
      </trkpt>
      <trkpt lat="45.71343" lon="1.20444">
        <ele>325.08627</ele>
        <time>2026-08-08T10:48:52Z</time>
      </trkpt>
      <trkpt lat="45.71346" lon="1.20442">
        <ele>325.08627</ele>
        <time>2026-08-08T10:48:53Z</time>
      </trkpt>
      <trkpt lat="45.71349" lon="1.2044">
        <ele>325.08627</ele>
        <time>2026-08-08T10:48:54Z</time>
      </trkpt>
      <trkpt lat="45.71352" lon="1.20438">
        <ele>325.08627</ele>
        <time>2026-08-08T10:48:55Z</time>
      </trkpt>
      <trkpt lat="45.71354" lon="1.20436">
        <ele>325.08627</ele>
        <time>2026-08-08T10:48:56Z</time>
      </trkpt>
      <trkpt lat="45.71357" lon="1.20434">
        <ele>326.08627</ele>
        <time>2026-08-08T10:48:57Z</time>
      </trkpt>
      <trkpt lat="45.7136" lon="1.20432">
        <ele>326.08627</ele>
        <time>2026-08-08T10:48:58Z</time>
      </trkpt>
      <trkpt lat="45.71362" lon="1.2043">
        <ele>326.08627</ele>
        <time>2026-08-08T10:48:59Z</time>
      </trkpt>
      <trkpt lat="45.71364" lon="1.20428">
        <ele>326.08627</ele>
        <time>2026-08-08T10:49:00Z</time>
      </trkpt>
      <trkpt lat="45.71366" lon="1.20426">
        <ele>326.08627</ele>
        <time>2026-08-08T10:49:01Z</time>
      </trkpt>
      <trkpt lat="45.71369" lon="1.20423">
        <ele>326.08627</ele>
        <time>2026-08-08T10:49:02Z</time>
      </trkpt>
      <trkpt lat="45.71371" lon="1.20421">
        <ele>326.08627</ele>
        <time>2026-08-08T10:49:03Z</time>
      </trkpt>
      <trkpt lat="45.71374" lon="1.20418">
        <ele>326.08627</ele>
        <time>2026-08-08T10:49:04Z</time>
      </trkpt>
      <trkpt lat="45.71376" lon="1.20416">
        <ele>327.08627</ele>
        <time>2026-08-08T10:49:05Z</time>
      </trkpt>
      <trkpt lat="45.71379" lon="1.20414">
        <ele>327.08627</ele>
        <time>2026-08-08T10:49:06Z</time>
      </trkpt>
      <trkpt lat="45.71381" lon="1.20411">
        <ele>327.08627</ele>
        <time>2026-08-08T10:49:07Z</time>
      </trkpt>
      <trkpt lat="45.71383" lon="1.20409">
        <ele>327.08627</ele>
        <time>2026-08-08T10:49:08Z</time>
      </trkpt>
      <trkpt lat="45.71386" lon="1.20406">
        <ele>327.08627</ele>
        <time>2026-08-08T10:49:09Z</time>
      </trkpt>
      <trkpt lat="45.71388" lon="1.20404">
        <ele>327.08627</ele>
        <time>2026-08-08T10:49:10Z</time>
      </trkpt>
      <trkpt lat="45.71391" lon="1.20402">
        <ele>328.08627</ele>
        <time>2026-08-08T10:49:11Z</time>
      </trkpt>
      <trkpt lat="45.71393" lon="1.204">
        <ele>328.08627</ele>
        <time>2026-08-08T10:49:12Z</time>
      </trkpt>
      <trkpt lat="45.71396" lon="1.20398">
        <ele>328.08627</ele>
        <time>2026-08-08T10:49:13Z</time>
      </trkpt>
      <trkpt lat="45.71398" lon="1.20396">
        <ele>328.08627</ele>
        <time>2026-08-08T10:49:14Z</time>
      </trkpt>
      <trkpt lat="45.71401" lon="1.20394">
        <ele>328.08627</ele>
        <time>2026-08-08T10:49:15Z</time>
      </trkpt>
      <trkpt lat="45.71404" lon="1.20393">
        <ele>329.08627</ele>
        <time>2026-08-08T10:49:16Z</time>
      </trkpt>
      <trkpt lat="45.71406" lon="1.20392">
        <ele>329.08627</ele>
        <time>2026-08-08T10:49:17Z</time>
      </trkpt>
      <trkpt lat="45.71408" lon="1.20389">
        <ele>328.08627</ele>
        <time>2026-08-08T10:49:18Z</time>
      </trkpt>
      <trkpt lat="45.71411" lon="1.20387">
        <ele>328.08627</ele>
        <time>2026-08-08T10:49:19Z</time>
      </trkpt>
      <trkpt lat="45.71414" lon="1.20384">
        <ele>328.08627</ele>
        <time>2026-08-08T10:49:20Z</time>
      </trkpt>
      <trkpt lat="45.71417" lon="1.20381">
        <ele>329.08627</ele>
        <time>2026-08-08T10:49:21Z</time>
      </trkpt>
      <trkpt lat="45.7142" lon="1.20378">
        <ele>330.08627</ele>
        <time>2026-08-08T10:49:22Z</time>
      </trkpt>
      <trkpt lat="45.71423" lon="1.20373">
        <ele>331.08627</ele>
        <time>2026-08-08T10:49:23Z</time>
      </trkpt>
      <trkpt lat="45.71425" lon="1.20367">
        <ele>331.08627</ele>
        <time>2026-08-08T10:49:24Z</time>
      </trkpt>
      <trkpt lat="45.71425" lon="1.20361">
        <ele>331.08627</ele>
        <time>2026-08-08T10:49:25Z</time>
      </trkpt>
      <trkpt lat="45.71425" lon="1.20355">
        <ele>332.08627</ele>
        <time>2026-08-08T10:49:26Z</time>
      </trkpt>
      <trkpt lat="45.71424" lon="1.20349">
        <ele>332.08627</ele>
        <time>2026-08-08T10:49:27Z</time>
      </trkpt>
      <trkpt lat="45.71423" lon="1.20343">
        <ele>333.08627</ele>
        <time>2026-08-08T10:49:28Z</time>
      </trkpt>
      <trkpt lat="45.71422" lon="1.20337">
        <ele>333.08627</ele>
        <time>2026-08-08T10:49:29Z</time>
      </trkpt>
      <trkpt lat="45.7142" lon="1.20332">
        <ele>333.08627</ele>
        <time>2026-08-08T10:49:30Z</time>
      </trkpt>
      <trkpt lat="45.71419" lon="1.20327">
        <ele>333.08627</ele>
        <time>2026-08-08T10:49:31Z</time>
      </trkpt>
      <trkpt lat="45.71418" lon="1.20322">
        <ele>333.08627</ele>
        <time>2026-08-08T10:49:32Z</time>
      </trkpt>
      <trkpt lat="45.71417" lon="1.20316">
        <ele>333.08627</ele>
        <time>2026-08-08T10:49:33Z</time>
      </trkpt>
      <trkpt lat="45.71416" lon="1.2031">
        <ele>333.08627</ele>
        <time>2026-08-08T10:49:34Z</time>
      </trkpt>
      <trkpt lat="45.71416" lon="1.20304">
        <ele>333.08627</ele>
        <time>2026-08-08T10:49:35Z</time>
      </trkpt>
      <trkpt lat="45.71416" lon="1.20296">
        <ele>333.08627</ele>
        <time>2026-08-08T10:49:36Z</time>
      </trkpt>
      <trkpt lat="45.71416" lon="1.20289">
        <ele>333.08627</ele>
        <time>2026-08-08T10:49:37Z</time>
      </trkpt>
      <trkpt lat="45.71415" lon="1.20282">
        <ele>333.08627</ele>
        <time>2026-08-08T10:49:38Z</time>
      </trkpt>
      <trkpt lat="45.71414" lon="1.20274">
        <ele>333.08627</ele>
        <time>2026-08-08T10:49:39Z</time>
      </trkpt>
      <trkpt lat="45.71414" lon="1.20267">
        <ele>333.08627</ele>
        <time>2026-08-08T10:49:40Z</time>
      </trkpt>
      <trkpt lat="45.71414" lon="1.2026">
        <ele>333.08627</ele>
        <time>2026-08-08T10:49:41Z</time>
      </trkpt>
      <trkpt lat="45.71413" lon="1.20252">
        <ele>333.08627</ele>
        <time>2026-08-08T10:49:42Z</time>
      </trkpt>
      <trkpt lat="45.71413" lon="1.20246">
        <ele>333.08627</ele>
        <time>2026-08-08T10:49:43Z</time>
      </trkpt>
      <trkpt lat="45.71412" lon="1.20238">
        <ele>333.08627</ele>
        <time>2026-08-08T10:49:44Z</time>
      </trkpt>
      <trkpt lat="45.71412" lon="1.20231">
        <ele>333.08627</ele>
        <time>2026-08-08T10:49:45Z</time>
      </trkpt>
      <trkpt lat="45.71412" lon="1.20224">
        <ele>332.08627</ele>
        <time>2026-08-08T10:49:46Z</time>
      </trkpt>
      <trkpt lat="45.71412" lon="1.20216">
        <ele>333.08627</ele>
        <time>2026-08-08T10:49:47Z</time>
      </trkpt>
      <trkpt lat="45.71411" lon="1.2021">
        <ele>333.08627</ele>
        <time>2026-08-08T10:49:48Z</time>
      </trkpt>
      <trkpt lat="45.7141" lon="1.20205">
        <ele>333.08627</ele>
        <time>2026-08-08T10:49:49Z</time>
      </trkpt>
      <trkpt lat="45.7141" lon="1.20199">
        <ele>334.08627</ele>
        <time>2026-08-08T10:49:50Z</time>
      </trkpt>
      <trkpt lat="45.7141" lon="1.20194">
        <ele>334.08627</ele>
        <time>2026-08-08T10:49:51Z</time>
      </trkpt>
      <trkpt lat="45.7141" lon="1.20191">
        <ele>334.08627</ele>
        <time>2026-08-08T10:49:52Z</time>
      </trkpt>
      <trkpt lat="45.7141" lon="1.20187">
        <ele>334.08627</ele>
        <time>2026-08-08T10:49:53Z</time>
      </trkpt>
      <trkpt lat="45.7141" lon="1.20184">
        <ele>334.08627</ele>
        <time>2026-08-08T10:49:54Z</time>
      </trkpt>
      <trkpt lat="45.7141" lon="1.20181">
        <ele>334.08627</ele>
        <time>2026-08-08T10:49:55Z</time>
      </trkpt>
      <trkpt lat="45.71409" lon="1.20178">
        <ele>334.08627</ele>
        <time>2026-08-08T10:49:56Z</time>
      </trkpt>
      <trkpt lat="45.71409" lon="1.20174">
        <ele>335.08627</ele>
        <time>2026-08-08T10:49:57Z</time>
      </trkpt>
      <trkpt lat="45.71407" lon="1.2017">
        <ele>335.08627</ele>
        <time>2026-08-08T10:49:58Z</time>
      </trkpt>
      <trkpt lat="45.71406" lon="1.20167">
        <ele>335.08627</ele>
        <time>2026-08-08T10:49:59Z</time>
      </trkpt>
      <trkpt lat="45.71404" lon="1.20164">
        <ele>335.08627</ele>
        <time>2026-08-08T10:50:00Z</time>
      </trkpt>
      <trkpt lat="45.71402" lon="1.20162">
        <ele>335.08627</ele>
        <time>2026-08-08T10:50:01Z</time>
      </trkpt>
      <trkpt lat="45.71401" lon="1.20159">
        <ele>335.08627</ele>
        <time>2026-08-08T10:50:02Z</time>
      </trkpt>
      <trkpt lat="45.71399" lon="1.20156">
        <ele>335.08627</ele>
        <time>2026-08-08T10:50:03Z</time>
      </trkpt>
      <trkpt lat="45.71397" lon="1.20153">
        <ele>335.08627</ele>
        <time>2026-08-08T10:50:04Z</time>
      </trkpt>
      <trkpt lat="45.71396" lon="1.20149">
        <ele>335.08627</ele>
        <time>2026-08-08T10:50:05Z</time>
      </trkpt>
      <trkpt lat="45.71394" lon="1.20145">
        <ele>335.08627</ele>
        <time>2026-08-08T10:50:06Z</time>
      </trkpt>
      <trkpt lat="45.71392" lon="1.20142">
        <ele>335.08627</ele>
        <time>2026-08-08T10:50:07Z</time>
      </trkpt>
      <trkpt lat="45.7139" lon="1.20138">
        <ele>335.08627</ele>
        <time>2026-08-08T10:50:08Z</time>
      </trkpt>
      <trkpt lat="45.71388" lon="1.20135">
        <ele>335.08627</ele>
        <time>2026-08-08T10:50:09Z</time>
      </trkpt>
      <trkpt lat="45.71386" lon="1.20131">
        <ele>335.08627</ele>
        <time>2026-08-08T10:50:10Z</time>
      </trkpt>
      <trkpt lat="45.71383" lon="1.20128">
        <ele>335.08627</ele>
        <time>2026-08-08T10:50:11Z</time>
      </trkpt>
      <trkpt lat="45.71381" lon="1.20123">
        <ele>335.08627</ele>
        <time>2026-08-08T10:50:12Z</time>
      </trkpt>
      <trkpt lat="45.71379" lon="1.20119">
        <ele>335.08627</ele>
        <time>2026-08-08T10:50:13Z</time>
      </trkpt>
      <trkpt lat="45.71378" lon="1.20114">
        <ele>335.08627</ele>
        <time>2026-08-08T10:50:14Z</time>
      </trkpt>
      <trkpt lat="45.71377" lon="1.2011">
        <ele>335.08627</ele>
        <time>2026-08-08T10:50:15Z</time>
      </trkpt>
      <trkpt lat="45.71375" lon="1.20105">
        <ele>335.08627</ele>
        <time>2026-08-08T10:50:16Z</time>
      </trkpt>
      <trkpt lat="45.71373" lon="1.20101">
        <ele>335.08627</ele>
        <time>2026-08-08T10:50:17Z</time>
      </trkpt>
      <trkpt lat="45.71372" lon="1.20096">
        <ele>335.08627</ele>
        <time>2026-08-08T10:50:18Z</time>
      </trkpt>
      <trkpt lat="45.71371" lon="1.20092">
        <ele>335.08627</ele>
        <time>2026-08-08T10:50:19Z</time>
      </trkpt>
      <trkpt lat="45.7137" lon="1.20087">
        <ele>335.08627</ele>
        <time>2026-08-08T10:50:20Z</time>
      </trkpt>
      <trkpt lat="45.71369" lon="1.20083">
        <ele>335.08627</ele>
        <time>2026-08-08T10:50:21Z</time>
      </trkpt>
      <trkpt lat="45.71368" lon="1.20077">
        <ele>336.08627</ele>
        <time>2026-08-08T10:50:22Z</time>
      </trkpt>
      <trkpt lat="45.71367" lon="1.20073">
        <ele>336.08627</ele>
        <time>2026-08-08T10:50:23Z</time>
      </trkpt>
      <trkpt lat="45.71365" lon="1.20067">
        <ele>337.08627</ele>
        <time>2026-08-08T10:50:24Z</time>
      </trkpt>
      <trkpt lat="45.71365" lon="1.20061">
        <ele>337.08627</ele>
        <time>2026-08-08T10:50:25Z</time>
      </trkpt>
      <trkpt lat="45.71363" lon="1.20055">
        <ele>337.08627</ele>
        <time>2026-08-08T10:50:26Z</time>
      </trkpt>
      <trkpt lat="45.71362" lon="1.2005">
        <ele>338.08627</ele>
        <time>2026-08-08T10:50:27Z</time>
      </trkpt>
      <trkpt lat="45.71362" lon="1.20044">
        <ele>338.08627</ele>
        <time>2026-08-08T10:50:28Z</time>
      </trkpt>
      <trkpt lat="45.71361" lon="1.20037">
        <ele>338.08627</ele>
        <time>2026-08-08T10:50:29Z</time>
      </trkpt>
      <trkpt lat="45.7136" lon="1.20031">
        <ele>339.08627</ele>
        <time>2026-08-08T10:50:30Z</time>
      </trkpt>
      <trkpt lat="45.71359" lon="1.20026">
        <ele>339.08627</ele>
        <time>2026-08-08T10:50:31Z</time>
      </trkpt>
      <trkpt lat="45.71358" lon="1.20019">
        <ele>339.08627</ele>
        <time>2026-08-08T10:50:32Z</time>
      </trkpt>
      <trkpt lat="45.71358" lon="1.20014">
        <ele>339.08627</ele>
        <time>2026-08-08T10:50:33Z</time>
      </trkpt>
      <trkpt lat="45.71357" lon="1.20007">
        <ele>340.08627</ele>
        <time>2026-08-08T10:50:34Z</time>
      </trkpt>
      <trkpt lat="45.71358" lon="1.20002">
        <ele>341.08627</ele>
        <time>2026-08-08T10:50:35Z</time>
      </trkpt>
      <trkpt lat="45.71359" lon="1.19997">
        <ele>340.08627</ele>
        <time>2026-08-08T10:50:36Z</time>
      </trkpt>
      <trkpt lat="45.71361" lon="1.19994">
        <ele>340.08627</ele>
        <time>2026-08-08T10:50:37Z</time>
      </trkpt>
      <trkpt lat="45.71364" lon="1.19991">
        <ele>340.08627</ele>
        <time>2026-08-08T10:50:38Z</time>
      </trkpt>
      <trkpt lat="45.71367" lon="1.19989">
        <ele>340.08627</ele>
        <time>2026-08-08T10:50:39Z</time>
      </trkpt>
      <trkpt lat="45.7137" lon="1.19987">
        <ele>340.08627</ele>
        <time>2026-08-08T10:50:40Z</time>
      </trkpt>
      <trkpt lat="45.71373" lon="1.19985">
        <ele>339.08627</ele>
        <time>2026-08-08T10:50:41Z</time>
      </trkpt>
      <trkpt lat="45.71377" lon="1.19984">
        <ele>339.08627</ele>
        <time>2026-08-08T10:50:42Z</time>
      </trkpt>
      <trkpt lat="45.7138" lon="1.19982">
        <ele>339.08627</ele>
        <time>2026-08-08T10:50:43Z</time>
      </trkpt>
      <trkpt lat="45.71384" lon="1.1998">
        <ele>339.08627</ele>
        <time>2026-08-08T10:50:44Z</time>
      </trkpt>
      <trkpt lat="45.71388" lon="1.19978">
        <ele>340.08627</ele>
        <time>2026-08-08T10:50:45Z</time>
      </trkpt>
      <trkpt lat="45.71392" lon="1.19976">
        <ele>339.08627</ele>
        <time>2026-08-08T10:50:46Z</time>
      </trkpt>
      <trkpt lat="45.71396" lon="1.19975">
        <ele>339.08627</ele>
        <time>2026-08-08T10:50:47Z</time>
      </trkpt>
      <trkpt lat="45.71399" lon="1.19973">
        <ele>339.08627</ele>
        <time>2026-08-08T10:50:48Z</time>
      </trkpt>
      <trkpt lat="45.71402" lon="1.1997">
        <ele>339.08627</ele>
        <time>2026-08-08T10:50:49Z</time>
      </trkpt>
      <trkpt lat="45.71404" lon="1.19967">
        <ele>339.08627</ele>
        <time>2026-08-08T10:50:50Z</time>
      </trkpt>
      <trkpt lat="45.71404" lon="1.19963">
        <ele>339.08627</ele>
        <time>2026-08-08T10:50:51Z</time>
      </trkpt>
      <trkpt lat="45.71405" lon="1.1996">
        <ele>339.08627</ele>
        <time>2026-08-08T10:50:52Z</time>
      </trkpt>
      <trkpt lat="45.71405" lon="1.19957">
        <ele>339.08627</ele>
        <time>2026-08-08T10:50:53Z</time>
      </trkpt>
      <trkpt lat="45.71405" lon="1.19952">
        <ele>339.08627</ele>
        <time>2026-08-08T10:50:54Z</time>
      </trkpt>
      <trkpt lat="45.71405" lon="1.19948">
        <ele>339.08627</ele>
        <time>2026-08-08T10:50:55Z</time>
      </trkpt>
      <trkpt lat="45.71404" lon="1.19944">
        <ele>339.08627</ele>
        <time>2026-08-08T10:50:56Z</time>
      </trkpt>
      <trkpt lat="45.71402" lon="1.19939">
        <ele>339.08627</ele>
        <time>2026-08-08T10:50:57Z</time>
      </trkpt>
      <trkpt lat="45.71401" lon="1.19935">
        <ele>339.08627</ele>
        <time>2026-08-08T10:50:58Z</time>
      </trkpt>
      <trkpt lat="45.714" lon="1.1993">
        <ele>339.08627</ele>
        <time>2026-08-08T10:50:59Z</time>
      </trkpt>
      <trkpt lat="45.71398" lon="1.19926">
        <ele>339.08627</ele>
        <time>2026-08-08T10:51:00Z</time>
      </trkpt>
      <trkpt lat="45.71396" lon="1.19922">
        <ele>339.08627</ele>
        <time>2026-08-08T10:51:01Z</time>
      </trkpt>
      <trkpt lat="45.71395" lon="1.19918">
        <ele>339.08627</ele>
        <time>2026-08-08T10:51:02Z</time>
      </trkpt>
      <trkpt lat="45.71394" lon="1.19914">
        <ele>339.08627</ele>
        <time>2026-08-08T10:51:03Z</time>
      </trkpt>
      <trkpt lat="45.71393" lon="1.19911">
        <ele>340.08627</ele>
        <time>2026-08-08T10:51:04Z</time>
      </trkpt>
      <trkpt lat="45.71393" lon="1.19908">
        <ele>340.08627</ele>
        <time>2026-08-08T10:51:05Z</time>
      </trkpt>
      <trkpt lat="45.71395" lon="1.19906">
        <ele>339.08627</ele>
        <time>2026-08-08T10:51:06Z</time>
      </trkpt>
      <trkpt lat="45.71397" lon="1.19907">
        <ele>339.08627</ele>
        <time>2026-08-08T10:51:07Z</time>
      </trkpt>
      <trkpt lat="45.71397" lon="1.19907">
        <ele>339.08627</ele>
        <time>2026-08-08T10:51:08Z</time>
      </trkpt>
    </trkseg>
  </trk>
</gpx>